<?xml version="1.0" encoding="UTF-8" standalone="no" ?>
<gpx xmlns="http://www.topografix.com/GPX/1/1" xmlns:xsi="http://www.w3.org/2001/XMLSchema-instance" xsi:schemaLocation="http://www.topografix.com/GPX/1/1 http://www.topografix.com/GPX/1/1/gpx.xsd" version="1.1" creator="VisuGPX - https://www.visugpx.com">
  <metadata>
    <name>Bas de Pers Ju</name>
    <desc><![CDATA[Particable en quad

Particable en quad]]></desc>
  </metadata>
  <trk>
    <name><![CDATA[Bas de Pers Ju]]></name>
    <cmt><![CDATA[Particable en quad]]></cmt>
    <desc><![CDATA[Particable en quad]]></desc>
    <trkseg>
      <trkpt lat="46.10085" lon="6.23469">
        <ele>729.634</ele>
        <time>2020-07-03T16:23:43Z</time>
      </trkpt>
      <trkpt lat="46.10081" lon="6.23463">
        <ele>729.555</ele>
        <time>2020-07-03T16:25:18Z</time>
      </trkpt>
      <trkpt lat="46.10075" lon="6.23457">
        <ele>730.01</ele>
        <time>2020-07-03T16:25:59Z</time>
      </trkpt>
      <trkpt lat="46.1007" lon="6.2345">
        <ele>730.008</ele>
        <time>2020-07-03T16:26:01Z</time>
      </trkpt>
      <trkpt lat="46.10066" lon="6.23445">
        <ele>730.078</ele>
        <time>2020-07-03T16:26:02Z</time>
      </trkpt>
      <trkpt lat="46.10063" lon="6.23441">
        <ele>730.065</ele>
        <time>2020-07-03T16:26:03Z</time>
      </trkpt>
      <trkpt lat="46.10059" lon="6.23436">
        <ele>730.033</ele>
        <time>2020-07-03T16:26:04Z</time>
      </trkpt>
      <trkpt lat="46.10051" lon="6.23428">
        <ele>730.032</ele>
        <time>2020-07-03T16:26:06Z</time>
      </trkpt>
      <trkpt lat="46.10046" lon="6.23424">
        <ele>730.053</ele>
        <time>2020-07-03T16:26:07Z</time>
      </trkpt>
      <trkpt lat="46.10042" lon="6.2342">
        <ele>730.093</ele>
        <time>2020-07-03T16:26:08Z</time>
      </trkpt>
      <trkpt lat="46.10037" lon="6.23417">
        <ele>730.039</ele>
        <time>2020-07-03T16:26:09Z</time>
      </trkpt>
      <trkpt lat="46.10031" lon="6.23414">
        <ele>730.026</ele>
        <time>2020-07-03T16:26:10Z</time>
      </trkpt>
      <trkpt lat="46.10025" lon="6.23412">
        <ele>730.067</ele>
        <time>2020-07-03T16:26:11Z</time>
      </trkpt>
      <trkpt lat="46.10019" lon="6.2341">
        <ele>730.081</ele>
        <time>2020-07-03T16:26:12Z</time>
      </trkpt>
      <trkpt lat="46.10012" lon="6.23407">
        <ele>730.019</ele>
        <time>2020-07-03T16:26:13Z</time>
      </trkpt>
      <trkpt lat="46.10007" lon="6.23403">
        <ele>730.108</ele>
        <time>2020-07-03T16:26:14Z</time>
      </trkpt>
      <trkpt lat="46.10001" lon="6.23399">
        <ele>730.221</ele>
        <time>2020-07-03T16:26:15Z</time>
      </trkpt>
      <trkpt lat="46.09995" lon="6.23396">
        <ele>730.368</ele>
        <time>2020-07-03T16:26:16Z</time>
      </trkpt>
      <trkpt lat="46.09988" lon="6.23392">
        <ele>730.386</ele>
        <time>2020-07-03T16:26:17Z</time>
      </trkpt>
      <trkpt lat="46.09982" lon="6.23389">
        <ele>730.415</ele>
        <time>2020-07-03T16:26:18Z</time>
      </trkpt>
      <trkpt lat="46.09975" lon="6.23386">
        <ele>730.636</ele>
        <time>2020-07-03T16:26:19Z</time>
      </trkpt>
      <trkpt lat="46.0997" lon="6.2338">
        <ele>730.796</ele>
        <time>2020-07-03T16:26:20Z</time>
      </trkpt>
      <trkpt lat="46.09963" lon="6.23376">
        <ele>730.882</ele>
        <time>2020-07-03T16:26:21Z</time>
      </trkpt>
      <trkpt lat="46.09957" lon="6.23373">
        <ele>730.979</ele>
        <time>2020-07-03T16:26:22Z</time>
      </trkpt>
      <trkpt lat="46.09952" lon="6.23369">
        <ele>730.974</ele>
        <time>2020-07-03T16:26:23Z</time>
      </trkpt>
      <trkpt lat="46.09948" lon="6.23368">
        <ele>730.956</ele>
        <time>2020-07-03T16:26:24Z</time>
      </trkpt>
      <trkpt lat="46.09941" lon="6.23374">
        <ele>730.721</ele>
        <time>2020-07-03T16:26:26Z</time>
      </trkpt>
      <trkpt lat="46.09939" lon="6.23382">
        <ele>730.608</ele>
        <time>2020-07-03T16:26:27Z</time>
      </trkpt>
      <trkpt lat="46.09938" lon="6.23389">
        <ele>730.642</ele>
        <time>2020-07-03T16:26:28Z</time>
      </trkpt>
      <trkpt lat="46.09937" lon="6.23402">
        <ele>731.189</ele>
        <time>2020-07-03T16:26:30Z</time>
      </trkpt>
      <trkpt lat="46.09934" lon="6.23416">
        <ele>733.187</ele>
        <time>2020-07-03T16:26:33Z</time>
      </trkpt>
      <trkpt lat="46.09931" lon="6.23425">
        <ele>733.786</ele>
        <time>2020-07-03T16:26:34Z</time>
      </trkpt>
      <trkpt lat="46.09929" lon="6.23434">
        <ele>734.247</ele>
        <time>2020-07-03T16:26:35Z</time>
      </trkpt>
      <trkpt lat="46.09926" lon="6.23441">
        <ele>734.797</ele>
        <time>2020-07-03T16:26:36Z</time>
      </trkpt>
      <trkpt lat="46.09922" lon="6.23453">
        <ele>735.243</ele>
        <time>2020-07-03T16:26:37Z</time>
      </trkpt>
      <trkpt lat="46.09919" lon="6.23463">
        <ele>735.93</ele>
        <time>2020-07-03T16:26:38Z</time>
      </trkpt>
      <trkpt lat="46.09915" lon="6.23473">
        <ele>736.764</ele>
        <time>2020-07-03T16:26:39Z</time>
      </trkpt>
      <trkpt lat="46.09911" lon="6.23483">
        <ele>737.606</ele>
        <time>2020-07-03T16:26:40Z</time>
      </trkpt>
      <trkpt lat="46.09908" lon="6.23492">
        <ele>738.616</ele>
        <time>2020-07-03T16:26:41Z</time>
      </trkpt>
      <trkpt lat="46.09904" lon="6.23501">
        <ele>739.608</ele>
        <time>2020-07-03T16:26:42Z</time>
      </trkpt>
      <trkpt lat="46.09902" lon="6.23509">
        <ele>741.511</ele>
        <time>2020-07-03T16:26:44Z</time>
      </trkpt>
      <trkpt lat="46.09895" lon="6.23507">
        <ele>742.738</ele>
        <time>2020-07-03T16:26:46Z</time>
      </trkpt>
      <trkpt lat="46.09887" lon="6.23502">
        <ele>743.186</ele>
        <time>2020-07-03T16:26:47Z</time>
      </trkpt>
      <trkpt lat="46.0988" lon="6.23497">
        <ele>743.715</ele>
        <time>2020-07-03T16:26:48Z</time>
      </trkpt>
      <trkpt lat="46.0987" lon="6.23492">
        <ele>744.376</ele>
        <time>2020-07-03T16:26:49Z</time>
      </trkpt>
      <trkpt lat="46.0986" lon="6.23486">
        <ele>744.936</ele>
        <time>2020-07-03T16:26:50Z</time>
      </trkpt>
      <trkpt lat="46.09853" lon="6.23479">
        <ele>745.632</ele>
        <time>2020-07-03T16:26:51Z</time>
      </trkpt>
      <trkpt lat="46.09847" lon="6.23477">
        <ele>746.379</ele>
        <time>2020-07-03T16:26:52Z</time>
      </trkpt>
      <trkpt lat="46.09841" lon="6.23478">
        <ele>746.948</ele>
        <time>2020-07-03T16:26:53Z</time>
      </trkpt>
      <trkpt lat="46.09836" lon="6.23481">
        <ele>747.461</ele>
        <time>2020-07-03T16:26:54Z</time>
      </trkpt>
      <trkpt lat="46.09832" lon="6.23485">
        <ele>747.917</ele>
        <time>2020-07-03T16:26:55Z</time>
      </trkpt>
      <trkpt lat="46.09826" lon="6.23493">
        <ele>748.408</ele>
        <time>2020-07-03T16:26:56Z</time>
      </trkpt>
      <trkpt lat="46.0982" lon="6.235">
        <ele>748.979</ele>
        <time>2020-07-03T16:26:57Z</time>
      </trkpt>
      <trkpt lat="46.09814" lon="6.23505">
        <ele>749.446</ele>
        <time>2020-07-03T16:26:58Z</time>
      </trkpt>
      <trkpt lat="46.09807" lon="6.2351">
        <ele>750.184</ele>
        <time>2020-07-03T16:26:59Z</time>
      </trkpt>
      <trkpt lat="46.09799" lon="6.23516">
        <ele>750.823</ele>
        <time>2020-07-03T16:27:00Z</time>
      </trkpt>
      <trkpt lat="46.09791" lon="6.23521">
        <ele>751.524</ele>
        <time>2020-07-03T16:27:01Z</time>
      </trkpt>
      <trkpt lat="46.09781" lon="6.23528">
        <ele>752.434</ele>
        <time>2020-07-03T16:27:02Z</time>
      </trkpt>
      <trkpt lat="46.09772" lon="6.23534">
        <ele>753.38</ele>
        <time>2020-07-03T16:27:03Z</time>
      </trkpt>
      <trkpt lat="46.09765" lon="6.2354">
        <ele>754.427</ele>
        <time>2020-07-03T16:27:04Z</time>
      </trkpt>
      <trkpt lat="46.09758" lon="6.23549">
        <ele>755.576</ele>
        <time>2020-07-03T16:27:05Z</time>
      </trkpt>
      <trkpt lat="46.09751" lon="6.2356">
        <ele>756.79</ele>
        <time>2020-07-03T16:27:06Z</time>
      </trkpt>
      <trkpt lat="46.09747" lon="6.23564">
        <ele>757.919</ele>
        <time>2020-07-03T16:27:07Z</time>
      </trkpt>
      <trkpt lat="46.09738" lon="6.23572">
        <ele>760.008</ele>
        <time>2020-07-03T16:27:09Z</time>
      </trkpt>
      <trkpt lat="46.09734" lon="6.23575">
        <ele>760.982</ele>
        <time>2020-07-03T16:27:10Z</time>
      </trkpt>
      <trkpt lat="46.09729" lon="6.23579">
        <ele>761.699</ele>
        <time>2020-07-03T16:27:11Z</time>
      </trkpt>
      <trkpt lat="46.09723" lon="6.23582">
        <ele>762.457</ele>
        <time>2020-07-03T16:27:12Z</time>
      </trkpt>
      <trkpt lat="46.09717" lon="6.23587">
        <ele>763.286</ele>
        <time>2020-07-03T16:27:13Z</time>
      </trkpt>
      <trkpt lat="46.09711" lon="6.23595">
        <ele>764.177</ele>
        <time>2020-07-03T16:27:14Z</time>
      </trkpt>
      <trkpt lat="46.09703" lon="6.23606">
        <ele>765.297</ele>
        <time>2020-07-03T16:27:15Z</time>
      </trkpt>
      <trkpt lat="46.09699" lon="6.23612">
        <ele>766.573</ele>
        <time>2020-07-03T16:27:16Z</time>
      </trkpt>
      <trkpt lat="46.09693" lon="6.23615">
        <ele>769.01</ele>
        <time>2020-07-03T16:27:18Z</time>
      </trkpt>
      <trkpt lat="46.09683" lon="6.2362">
        <ele>772.934</ele>
        <time>2020-07-03T16:27:25Z</time>
      </trkpt>
      <trkpt lat="46.09675" lon="6.2362">
        <ele>772.955</ele>
        <time>2020-07-03T16:27:26Z</time>
      </trkpt>
      <trkpt lat="46.09663" lon="6.23619">
        <ele>773.01</ele>
        <time>2020-07-03T16:27:27Z</time>
      </trkpt>
      <trkpt lat="46.0965" lon="6.2362">
        <ele>773.208</ele>
        <time>2020-07-03T16:27:28Z</time>
      </trkpt>
      <trkpt lat="46.09635" lon="6.23621">
        <ele>773.318</ele>
        <time>2020-07-03T16:27:29Z</time>
      </trkpt>
      <trkpt lat="46.09619" lon="6.23621">
        <ele>773.665</ele>
        <time>2020-07-03T16:27:30Z</time>
      </trkpt>
      <trkpt lat="46.09605" lon="6.23619">
        <ele>774.373</ele>
        <time>2020-07-03T16:27:31Z</time>
      </trkpt>
      <trkpt lat="46.09592" lon="6.23617">
        <ele>775.032</ele>
        <time>2020-07-03T16:27:32Z</time>
      </trkpt>
      <trkpt lat="46.09583" lon="6.23614">
        <ele>775.723</ele>
        <time>2020-07-03T16:27:33Z</time>
      </trkpt>
      <trkpt lat="46.09574" lon="6.23613">
        <ele>776.293</ele>
        <time>2020-07-03T16:27:34Z</time>
      </trkpt>
      <trkpt lat="46.09567" lon="6.23617">
        <ele>776.569</ele>
        <time>2020-07-03T16:27:35Z</time>
      </trkpt>
      <trkpt lat="46.09561" lon="6.23626">
        <ele>776.576</ele>
        <time>2020-07-03T16:27:36Z</time>
      </trkpt>
      <trkpt lat="46.09555" lon="6.23633">
        <ele>776.566</ele>
        <time>2020-07-03T16:27:37Z</time>
      </trkpt>
      <trkpt lat="46.0955" lon="6.2364">
        <ele>776.529</ele>
        <time>2020-07-03T16:27:38Z</time>
      </trkpt>
      <trkpt lat="46.09547" lon="6.23645">
        <ele>776.821</ele>
        <time>2020-07-03T16:27:39Z</time>
      </trkpt>
      <trkpt lat="46.0956" lon="6.23639">
        <ele>778.308</ele>
        <time>2020-07-03T16:28:34Z</time>
      </trkpt>
      <trkpt lat="46.09557" lon="6.23643">
        <ele>778.451</ele>
        <time>2020-07-03T16:28:56Z</time>
      </trkpt>
      <trkpt lat="46.09556" lon="6.2365">
        <ele>778.048</ele>
        <time>2020-07-03T16:29:41Z</time>
      </trkpt>
      <trkpt lat="46.0955" lon="6.23664">
        <ele>778.156</ele>
        <time>2020-07-03T16:29:43Z</time>
      </trkpt>
      <trkpt lat="46.09545" lon="6.23673">
        <ele>778.355</ele>
        <time>2020-07-03T16:29:44Z</time>
      </trkpt>
      <trkpt lat="46.09537" lon="6.23681">
        <ele>778.796</ele>
        <time>2020-07-03T16:29:45Z</time>
      </trkpt>
      <trkpt lat="46.09531" lon="6.23684">
        <ele>779.476</ele>
        <time>2020-07-03T16:29:46Z</time>
      </trkpt>
      <trkpt lat="46.09524" lon="6.23682">
        <ele>780.242</ele>
        <time>2020-07-03T16:29:47Z</time>
      </trkpt>
      <trkpt lat="46.09518" lon="6.23668">
        <ele>781.159</ele>
        <time>2020-07-03T16:29:48Z</time>
      </trkpt>
      <trkpt lat="46.09509" lon="6.23656">
        <ele>782.099</ele>
        <time>2020-07-03T16:29:49Z</time>
      </trkpt>
      <trkpt lat="46.09502" lon="6.2364">
        <ele>782.907</ele>
        <time>2020-07-03T16:29:50Z</time>
      </trkpt>
      <trkpt lat="46.09492" lon="6.2363">
        <ele>783.727</ele>
        <time>2020-07-03T16:29:51Z</time>
      </trkpt>
      <trkpt lat="46.09481" lon="6.23621">
        <ele>784.508</ele>
        <time>2020-07-03T16:29:52Z</time>
      </trkpt>
      <trkpt lat="46.09467" lon="6.23613">
        <ele>785.294</ele>
        <time>2020-07-03T16:29:53Z</time>
      </trkpt>
      <trkpt lat="46.09451" lon="6.23605">
        <ele>786.331</ele>
        <time>2020-07-03T16:29:54Z</time>
      </trkpt>
      <trkpt lat="46.09437" lon="6.23594">
        <ele>787.799</ele>
        <time>2020-07-03T16:29:55Z</time>
      </trkpt>
      <trkpt lat="46.09419" lon="6.23579">
        <ele>789.088</ele>
        <time>2020-07-03T16:29:56Z</time>
      </trkpt>
      <trkpt lat="46.09403" lon="6.23564">
        <ele>790.549</ele>
        <time>2020-07-03T16:29:57Z</time>
      </trkpt>
      <trkpt lat="46.09388" lon="6.23551">
        <ele>792.089</ele>
        <time>2020-07-03T16:29:58Z</time>
      </trkpt>
      <trkpt lat="46.09373" lon="6.23536">
        <ele>793.295</ele>
        <time>2020-07-03T16:29:59Z</time>
      </trkpt>
      <trkpt lat="46.09359" lon="6.23517">
        <ele>793.832</ele>
        <time>2020-07-03T16:30:00Z</time>
      </trkpt>
      <trkpt lat="46.09342" lon="6.23492">
        <ele>794.664</ele>
        <time>2020-07-03T16:30:01Z</time>
      </trkpt>
      <trkpt lat="46.09332" lon="6.23467">
        <ele>795.506</ele>
        <time>2020-07-03T16:30:02Z</time>
      </trkpt>
      <trkpt lat="46.09322" lon="6.23446">
        <ele>796.316</ele>
        <time>2020-07-03T16:30:03Z</time>
      </trkpt>
      <trkpt lat="46.0931" lon="6.23425">
        <ele>796.608</ele>
        <time>2020-07-03T16:30:04Z</time>
      </trkpt>
      <trkpt lat="46.09296" lon="6.23419">
        <ele>797.691</ele>
        <time>2020-07-03T16:30:05Z</time>
      </trkpt>
      <trkpt lat="46.09285" lon="6.2341">
        <ele>798.088</ele>
        <time>2020-07-03T16:30:06Z</time>
      </trkpt>
      <trkpt lat="46.09272" lon="6.23406">
        <ele>798.056</ele>
        <time>2020-07-03T16:30:07Z</time>
      </trkpt>
      <trkpt lat="46.09255" lon="6.23402">
        <ele>798.715</ele>
        <time>2020-07-03T16:30:08Z</time>
      </trkpt>
      <trkpt lat="46.0924" lon="6.23398">
        <ele>799.636</ele>
        <time>2020-07-03T16:30:09Z</time>
      </trkpt>
      <trkpt lat="46.09226" lon="6.23395">
        <ele>800.696</ele>
        <time>2020-07-03T16:30:10Z</time>
      </trkpt>
      <trkpt lat="46.09216" lon="6.23398">
        <ele>801.622</ele>
        <time>2020-07-03T16:30:11Z</time>
      </trkpt>
      <trkpt lat="46.09207" lon="6.23408">
        <ele>802.469</ele>
        <time>2020-07-03T16:30:12Z</time>
      </trkpt>
      <trkpt lat="46.09201" lon="6.2342">
        <ele>803.493</ele>
        <time>2020-07-03T16:30:13Z</time>
      </trkpt>
      <trkpt lat="46.09196" lon="6.23436">
        <ele>804.065</ele>
        <time>2020-07-03T16:30:14Z</time>
      </trkpt>
      <trkpt lat="46.09188" lon="6.23454">
        <ele>804.321</ele>
        <time>2020-07-03T16:30:15Z</time>
      </trkpt>
      <trkpt lat="46.09182" lon="6.23467">
        <ele>805.008</ele>
        <time>2020-07-03T16:30:16Z</time>
      </trkpt>
      <trkpt lat="46.09175" lon="6.2347">
        <ele>806.114</ele>
        <time>2020-07-03T16:30:17Z</time>
      </trkpt>
      <trkpt lat="46.09168" lon="6.23465">
        <ele>806.871</ele>
        <time>2020-07-03T16:30:18Z</time>
      </trkpt>
      <trkpt lat="46.0916" lon="6.23461">
        <ele>807.819</ele>
        <time>2020-07-03T16:30:19Z</time>
      </trkpt>
      <trkpt lat="46.09149" lon="6.23452">
        <ele>808.918</ele>
        <time>2020-07-03T16:30:20Z</time>
      </trkpt>
      <trkpt lat="46.09139" lon="6.23443">
        <ele>810.019</ele>
        <time>2020-07-03T16:30:21Z</time>
      </trkpt>
      <trkpt lat="46.09123" lon="6.23432">
        <ele>811.149</ele>
        <time>2020-07-03T16:30:22Z</time>
      </trkpt>
      <trkpt lat="46.09104" lon="6.23418">
        <ele>812.795</ele>
        <time>2020-07-03T16:30:23Z</time>
      </trkpt>
      <trkpt lat="46.09087" lon="6.23409">
        <ele>814.082</ele>
        <time>2020-07-03T16:30:24Z</time>
      </trkpt>
      <trkpt lat="46.09073" lon="6.23399">
        <ele>815.634</ele>
        <time>2020-07-03T16:30:25Z</time>
      </trkpt>
      <trkpt lat="46.09061" lon="6.2339">
        <ele>816.855</ele>
        <time>2020-07-03T16:30:26Z</time>
      </trkpt>
      <trkpt lat="46.09054" lon="6.23376">
        <ele>817.71</ele>
        <time>2020-07-03T16:30:27Z</time>
      </trkpt>
      <trkpt lat="46.09043" lon="6.23361">
        <ele>818.008</ele>
        <time>2020-07-03T16:30:28Z</time>
      </trkpt>
      <trkpt lat="46.09033" lon="6.23338">
        <ele>818.628</ele>
        <time>2020-07-03T16:30:29Z</time>
      </trkpt>
      <trkpt lat="46.09022" lon="6.23316">
        <ele>819.155</ele>
        <time>2020-07-03T16:30:30Z</time>
      </trkpt>
      <trkpt lat="46.09006" lon="6.23295">
        <ele>820.013</ele>
        <time>2020-07-03T16:30:31Z</time>
      </trkpt>
      <trkpt lat="46.08995" lon="6.23279">
        <ele>820.942</ele>
        <time>2020-07-03T16:30:32Z</time>
      </trkpt>
      <trkpt lat="46.08985" lon="6.23266">
        <ele>821.653</ele>
        <time>2020-07-03T16:30:33Z</time>
      </trkpt>
      <trkpt lat="46.08977" lon="6.23257">
        <ele>822.023</ele>
        <time>2020-07-03T16:30:34Z</time>
      </trkpt>
      <trkpt lat="46.08967" lon="6.23246">
        <ele>822.189</ele>
        <time>2020-07-03T16:30:35Z</time>
      </trkpt>
      <trkpt lat="46.08953" lon="6.23231">
        <ele>822.196</ele>
        <time>2020-07-03T16:30:36Z</time>
      </trkpt>
      <trkpt lat="46.08936" lon="6.23216">
        <ele>822.337</ele>
        <time>2020-07-03T16:30:37Z</time>
      </trkpt>
      <trkpt lat="46.08917" lon="6.23201">
        <ele>822.749</ele>
        <time>2020-07-03T16:30:38Z</time>
      </trkpt>
      <trkpt lat="46.08896" lon="6.23185">
        <ele>823.413</ele>
        <time>2020-07-03T16:30:39Z</time>
      </trkpt>
      <trkpt lat="46.08877" lon="6.23169">
        <ele>824.208</ele>
        <time>2020-07-03T16:30:40Z</time>
      </trkpt>
      <trkpt lat="46.08858" lon="6.23157">
        <ele>824.278</ele>
        <time>2020-07-03T16:30:41Z</time>
      </trkpt>
      <trkpt lat="46.08841" lon="6.23148">
        <ele>824.275</ele>
        <time>2020-07-03T16:30:42Z</time>
      </trkpt>
      <trkpt lat="46.08823" lon="6.23141">
        <ele>824.133</ele>
        <time>2020-07-03T16:30:43Z</time>
      </trkpt>
      <trkpt lat="46.08801" lon="6.23135">
        <ele>823.392</ele>
        <time>2020-07-03T16:30:44Z</time>
      </trkpt>
      <trkpt lat="46.08778" lon="6.23127">
        <ele>822.233</ele>
        <time>2020-07-03T16:30:45Z</time>
      </trkpt>
      <trkpt lat="46.08756" lon="6.23117">
        <ele>821.713</ele>
        <time>2020-07-03T16:30:46Z</time>
      </trkpt>
      <trkpt lat="46.08738" lon="6.23113">
        <ele>820.979</ele>
        <time>2020-07-03T16:30:47Z</time>
      </trkpt>
      <trkpt lat="46.08721" lon="6.23109">
        <ele>820.436</ele>
        <time>2020-07-03T16:30:48Z</time>
      </trkpt>
      <trkpt lat="46.08702" lon="6.23105">
        <ele>820.499</ele>
        <time>2020-07-03T16:30:49Z</time>
      </trkpt>
      <trkpt lat="46.08683" lon="6.23104">
        <ele>820.407</ele>
        <time>2020-07-03T16:30:50Z</time>
      </trkpt>
      <trkpt lat="46.08662" lon="6.23101">
        <ele>820.227</ele>
        <time>2020-07-03T16:30:51Z</time>
      </trkpt>
      <trkpt lat="46.0864" lon="6.23098">
        <ele>819.908</ele>
        <time>2020-07-03T16:30:52Z</time>
      </trkpt>
      <trkpt lat="46.08619" lon="6.23094">
        <ele>819.784</ele>
        <time>2020-07-03T16:30:53Z</time>
      </trkpt>
      <trkpt lat="46.08601" lon="6.23088">
        <ele>819.451</ele>
        <time>2020-07-03T16:30:54Z</time>
      </trkpt>
      <trkpt lat="46.08583" lon="6.2308">
        <ele>819.059</ele>
        <time>2020-07-03T16:30:55Z</time>
      </trkpt>
      <trkpt lat="46.08568" lon="6.23068">
        <ele>818.598</ele>
        <time>2020-07-03T16:30:56Z</time>
      </trkpt>
      <trkpt lat="46.08555" lon="6.23057">
        <ele>817.739</ele>
        <time>2020-07-03T16:30:57Z</time>
      </trkpt>
      <trkpt lat="46.08544" lon="6.23047">
        <ele>816.859</ele>
        <time>2020-07-03T16:30:58Z</time>
      </trkpt>
      <trkpt lat="46.08535" lon="6.23039">
        <ele>815.665</ele>
        <time>2020-07-03T16:30:59Z</time>
      </trkpt>
      <trkpt lat="46.08527" lon="6.23033">
        <ele>814.352</ele>
        <time>2020-07-03T16:31:00Z</time>
      </trkpt>
      <trkpt lat="46.08521" lon="6.23028">
        <ele>812.962</ele>
        <time>2020-07-03T16:31:01Z</time>
      </trkpt>
      <trkpt lat="46.08516" lon="6.23026">
        <ele>811.783</ele>
        <time>2020-07-03T16:31:02Z</time>
      </trkpt>
      <trkpt lat="46.08506" lon="6.23033">
        <ele>809.411</ele>
        <time>2020-07-03T16:31:04Z</time>
      </trkpt>
      <trkpt lat="46.08499" lon="6.2304">
        <ele>808.708</ele>
        <time>2020-07-03T16:31:05Z</time>
      </trkpt>
      <trkpt lat="46.08486" lon="6.23047">
        <ele>808.631</ele>
        <time>2020-07-03T16:31:06Z</time>
      </trkpt>
      <trkpt lat="46.0847" lon="6.23053">
        <ele>808.668</ele>
        <time>2020-07-03T16:31:07Z</time>
      </trkpt>
      <trkpt lat="46.08454" lon="6.23063">
        <ele>809.496</ele>
        <time>2020-07-03T16:31:08Z</time>
      </trkpt>
      <trkpt lat="46.08437" lon="6.23077">
        <ele>810.395</ele>
        <time>2020-07-03T16:31:09Z</time>
      </trkpt>
      <trkpt lat="46.0842" lon="6.23093">
        <ele>811.766</ele>
        <time>2020-07-03T16:31:10Z</time>
      </trkpt>
      <trkpt lat="46.08406" lon="6.23109">
        <ele>813.266</ele>
        <time>2020-07-03T16:31:11Z</time>
      </trkpt>
      <trkpt lat="46.08393" lon="6.23124">
        <ele>814.532</ele>
        <time>2020-07-03T16:31:12Z</time>
      </trkpt>
      <trkpt lat="46.08382" lon="6.23136">
        <ele>815.529</ele>
        <time>2020-07-03T16:31:13Z</time>
      </trkpt>
      <trkpt lat="46.08369" lon="6.23143">
        <ele>816.534</ele>
        <time>2020-07-03T16:31:14Z</time>
      </trkpt>
      <trkpt lat="46.08354" lon="6.23146">
        <ele>816.855</ele>
        <time>2020-07-03T16:31:15Z</time>
      </trkpt>
      <trkpt lat="46.08338" lon="6.23145">
        <ele>817.01</ele>
        <time>2020-07-03T16:31:16Z</time>
      </trkpt>
      <trkpt lat="46.08324" lon="6.23144">
        <ele>817.308</ele>
        <time>2020-07-03T16:31:17Z</time>
      </trkpt>
      <trkpt lat="46.08307" lon="6.23142">
        <ele>817.858</ele>
        <time>2020-07-03T16:31:18Z</time>
      </trkpt>
      <trkpt lat="46.0829" lon="6.2314">
        <ele>818.225</ele>
        <time>2020-07-03T16:31:19Z</time>
      </trkpt>
      <trkpt lat="46.08275" lon="6.2314">
        <ele>819.083</ele>
        <time>2020-07-03T16:31:20Z</time>
      </trkpt>
      <trkpt lat="46.08261" lon="6.23137">
        <ele>819.842</ele>
        <time>2020-07-03T16:31:21Z</time>
      </trkpt>
      <trkpt lat="46.08246" lon="6.23132">
        <ele>820.743</ele>
        <time>2020-07-03T16:31:22Z</time>
      </trkpt>
      <trkpt lat="46.08233" lon="6.23121">
        <ele>821.583</ele>
        <time>2020-07-03T16:31:23Z</time>
      </trkpt>
      <trkpt lat="46.08222" lon="6.23106">
        <ele>822.269</ele>
        <time>2020-07-03T16:31:24Z</time>
      </trkpt>
      <trkpt lat="46.08213" lon="6.23094">
        <ele>822.966</ele>
        <time>2020-07-03T16:31:25Z</time>
      </trkpt>
      <trkpt lat="46.08208" lon="6.23081">
        <ele>823.927</ele>
        <time>2020-07-03T16:31:26Z</time>
      </trkpt>
      <trkpt lat="46.08202" lon="6.23074">
        <ele>824.768</ele>
        <time>2020-07-03T16:31:27Z</time>
      </trkpt>
      <trkpt lat="46.08192" lon="6.23073">
        <ele>825.914</ele>
        <time>2020-07-03T16:31:29Z</time>
      </trkpt>
      <trkpt lat="46.0819" lon="6.23082">
        <ele>826.308</ele>
        <time>2020-07-03T16:31:30Z</time>
      </trkpt>
      <trkpt lat="46.08188" lon="6.23094">
        <ele>826.657</ele>
        <time>2020-07-03T16:31:31Z</time>
      </trkpt>
      <trkpt lat="46.08189" lon="6.23106">
        <ele>827.194</ele>
        <time>2020-07-03T16:31:32Z</time>
      </trkpt>
      <trkpt lat="46.08191" lon="6.2312">
        <ele>827.812</ele>
        <time>2020-07-03T16:31:33Z</time>
      </trkpt>
      <trkpt lat="46.08193" lon="6.23137">
        <ele>828.811</ele>
        <time>2020-07-03T16:31:34Z</time>
      </trkpt>
      <trkpt lat="46.08196" lon="6.23156">
        <ele>830.152</ele>
        <time>2020-07-03T16:31:35Z</time>
      </trkpt>
      <trkpt lat="46.08201" lon="6.23178">
        <ele>831.672</ele>
        <time>2020-07-03T16:31:36Z</time>
      </trkpt>
      <trkpt lat="46.08205" lon="6.23201">
        <ele>833.058</ele>
        <time>2020-07-03T16:31:37Z</time>
      </trkpt>
      <trkpt lat="46.08207" lon="6.23224">
        <ele>834.385</ele>
        <time>2020-07-03T16:31:38Z</time>
      </trkpt>
      <trkpt lat="46.08205" lon="6.23242">
        <ele>836.095</ele>
        <time>2020-07-03T16:31:39Z</time>
      </trkpt>
      <trkpt lat="46.08205" lon="6.2326">
        <ele>837.549</ele>
        <time>2020-07-03T16:31:40Z</time>
      </trkpt>
      <trkpt lat="46.08202" lon="6.23279">
        <ele>839.123</ele>
        <time>2020-07-03T16:31:41Z</time>
      </trkpt>
      <trkpt lat="46.08197" lon="6.23297">
        <ele>841.008</ele>
        <time>2020-07-03T16:31:42Z</time>
      </trkpt>
      <trkpt lat="46.08188" lon="6.23315">
        <ele>843.194</ele>
        <time>2020-07-03T16:31:43Z</time>
      </trkpt>
      <trkpt lat="46.08178" lon="6.23331">
        <ele>844.771</ele>
        <time>2020-07-03T16:31:44Z</time>
      </trkpt>
      <trkpt lat="46.08167" lon="6.23344">
        <ele>846.779</ele>
        <time>2020-07-03T16:31:45Z</time>
      </trkpt>
      <trkpt lat="46.08159" lon="6.23357">
        <ele>848.758</ele>
        <time>2020-07-03T16:31:46Z</time>
      </trkpt>
      <trkpt lat="46.08153" lon="6.23372">
        <ele>850.439</ele>
        <time>2020-07-03T16:31:47Z</time>
      </trkpt>
      <trkpt lat="46.08147" lon="6.23387">
        <ele>852.129</ele>
        <time>2020-07-03T16:31:48Z</time>
      </trkpt>
      <trkpt lat="46.08141" lon="6.23401">
        <ele>854.135</ele>
        <time>2020-07-03T16:31:49Z</time>
      </trkpt>
      <trkpt lat="46.08135" lon="6.23414">
        <ele>855.942</ele>
        <time>2020-07-03T16:31:50Z</time>
      </trkpt>
      <trkpt lat="46.08123" lon="6.23421">
        <ele>857.391</ele>
        <time>2020-07-03T16:31:51Z</time>
      </trkpt>
      <trkpt lat="46.08107" lon="6.2343">
        <ele>858.981</ele>
        <time>2020-07-03T16:31:52Z</time>
      </trkpt>
      <trkpt lat="46.08091" lon="6.23439">
        <ele>860.619</ele>
        <time>2020-07-03T16:31:53Z</time>
      </trkpt>
      <trkpt lat="46.08074" lon="6.23454">
        <ele>862.008</ele>
        <time>2020-07-03T16:31:54Z</time>
      </trkpt>
      <trkpt lat="46.08057" lon="6.2347">
        <ele>863.144</ele>
        <time>2020-07-03T16:31:55Z</time>
      </trkpt>
      <trkpt lat="46.08044" lon="6.23486">
        <ele>864.371</ele>
        <time>2020-07-03T16:31:56Z</time>
      </trkpt>
      <trkpt lat="46.08031" lon="6.23494">
        <ele>865.179</ele>
        <time>2020-07-03T16:31:57Z</time>
      </trkpt>
      <trkpt lat="46.08017" lon="6.23499">
        <ele>865.778</ele>
        <time>2020-07-03T16:31:58Z</time>
      </trkpt>
      <trkpt lat="46.08003" lon="6.23498">
        <ele>866.549</ele>
        <time>2020-07-03T16:31:59Z</time>
      </trkpt>
      <trkpt lat="46.07986" lon="6.23494">
        <ele>867.459</ele>
        <time>2020-07-03T16:32:00Z</time>
      </trkpt>
      <trkpt lat="46.07967" lon="6.23488">
        <ele>868.555</ele>
        <time>2020-07-03T16:32:01Z</time>
      </trkpt>
      <trkpt lat="46.07949" lon="6.2348">
        <ele>869.722</ele>
        <time>2020-07-03T16:32:02Z</time>
      </trkpt>
      <trkpt lat="46.07934" lon="6.23475">
        <ele>871.858</ele>
        <time>2020-07-03T16:32:03Z</time>
      </trkpt>
      <trkpt lat="46.07922" lon="6.23471">
        <ele>873.752</ele>
        <time>2020-07-03T16:32:04Z</time>
      </trkpt>
      <trkpt lat="46.07912" lon="6.23469">
        <ele>875.917</ele>
        <time>2020-07-03T16:32:05Z</time>
      </trkpt>
      <trkpt lat="46.07906" lon="6.23469">
        <ele>877.908</ele>
        <time>2020-07-03T16:32:06Z</time>
      </trkpt>
      <trkpt lat="46.07901" lon="6.23473">
        <ele>880.01</ele>
        <time>2020-07-03T16:32:07Z</time>
      </trkpt>
      <trkpt lat="46.07895" lon="6.23474">
        <ele>882.627</ele>
        <time>2020-07-03T16:32:09Z</time>
      </trkpt>
      <trkpt lat="46.0789" lon="6.23483">
        <ele>885.095</ele>
        <time>2020-07-03T16:32:12Z</time>
      </trkpt>
      <trkpt lat="46.07883" lon="6.2349">
        <ele>885.444</ele>
        <time>2020-07-03T16:32:13Z</time>
      </trkpt>
      <trkpt lat="46.07875" lon="6.235">
        <ele>885.445</ele>
        <time>2020-07-03T16:32:14Z</time>
      </trkpt>
      <trkpt lat="46.07866" lon="6.23512">
        <ele>885.455</ele>
        <time>2020-07-03T16:32:15Z</time>
      </trkpt>
      <trkpt lat="46.07855" lon="6.23525">
        <ele>885.471</ele>
        <time>2020-07-03T16:32:16Z</time>
      </trkpt>
      <trkpt lat="46.07843" lon="6.2354">
        <ele>885.528</ele>
        <time>2020-07-03T16:32:17Z</time>
      </trkpt>
      <trkpt lat="46.07829" lon="6.23554">
        <ele>885.773</ele>
        <time>2020-07-03T16:32:18Z</time>
      </trkpt>
      <trkpt lat="46.07819" lon="6.23566">
        <ele>885.985</ele>
        <time>2020-07-03T16:32:19Z</time>
      </trkpt>
      <trkpt lat="46.07814" lon="6.23577">
        <ele>885.913</ele>
        <time>2020-07-03T16:32:20Z</time>
      </trkpt>
      <trkpt lat="46.07815" lon="6.23591">
        <ele>885.408</ele>
        <time>2020-07-03T16:32:21Z</time>
      </trkpt>
      <trkpt lat="46.07822" lon="6.23605">
        <ele>884.982</ele>
        <time>2020-07-03T16:32:22Z</time>
      </trkpt>
      <trkpt lat="46.07831" lon="6.23609">
        <ele>884.239</ele>
        <time>2020-07-03T16:32:23Z</time>
      </trkpt>
      <trkpt lat="46.07841" lon="6.23612">
        <ele>883.547</ele>
        <time>2020-07-03T16:32:24Z</time>
      </trkpt>
      <trkpt lat="46.07852" lon="6.2361">
        <ele>883.356</ele>
        <time>2020-07-03T16:32:25Z</time>
      </trkpt>
      <trkpt lat="46.07862" lon="6.23608">
        <ele>883.357</ele>
        <time>2020-07-03T16:32:26Z</time>
      </trkpt>
      <trkpt lat="46.07871" lon="6.23606">
        <ele>883.417</ele>
        <time>2020-07-03T16:32:27Z</time>
      </trkpt>
      <trkpt lat="46.0788" lon="6.23602">
        <ele>883.693</ele>
        <time>2020-07-03T16:32:28Z</time>
      </trkpt>
      <trkpt lat="46.07887" lon="6.23597">
        <ele>883.98</ele>
        <time>2020-07-03T16:32:29Z</time>
      </trkpt>
      <trkpt lat="46.07895" lon="6.23595">
        <ele>884.333</ele>
        <time>2020-07-03T16:32:30Z</time>
      </trkpt>
      <trkpt lat="46.07902" lon="6.23596">
        <ele>884.923</ele>
        <time>2020-07-03T16:32:31Z</time>
      </trkpt>
      <trkpt lat="46.07912" lon="6.23605">
        <ele>885.715</ele>
        <time>2020-07-03T16:32:32Z</time>
      </trkpt>
      <trkpt lat="46.07917" lon="6.23617">
        <ele>886.508</ele>
        <time>2020-07-03T16:32:33Z</time>
      </trkpt>
      <trkpt lat="46.0792" lon="6.2363">
        <ele>887.398</ele>
        <time>2020-07-03T16:32:34Z</time>
      </trkpt>
      <trkpt lat="46.07921" lon="6.23647">
        <ele>888.035</ele>
        <time>2020-07-03T16:32:35Z</time>
      </trkpt>
      <trkpt lat="46.07921" lon="6.23666">
        <ele>888.473</ele>
        <time>2020-07-03T16:32:36Z</time>
      </trkpt>
      <trkpt lat="46.07919" lon="6.23687">
        <ele>888.972</ele>
        <time>2020-07-03T16:32:37Z</time>
      </trkpt>
      <trkpt lat="46.07916" lon="6.23712">
        <ele>889.783</ele>
        <time>2020-07-03T16:32:38Z</time>
      </trkpt>
      <trkpt lat="46.07912" lon="6.23738">
        <ele>890.643</ele>
        <time>2020-07-03T16:32:39Z</time>
      </trkpt>
      <trkpt lat="46.07907" lon="6.23766">
        <ele>891.519</ele>
        <time>2020-07-03T16:32:40Z</time>
      </trkpt>
      <trkpt lat="46.07903" lon="6.23794">
        <ele>893.076</ele>
        <time>2020-07-03T16:32:41Z</time>
      </trkpt>
      <trkpt lat="46.07901" lon="6.23826">
        <ele>894.321</ele>
        <time>2020-07-03T16:32:42Z</time>
      </trkpt>
      <trkpt lat="46.07898" lon="6.23853">
        <ele>895.841</ele>
        <time>2020-07-03T16:32:43Z</time>
      </trkpt>
      <trkpt lat="46.07895" lon="6.23879">
        <ele>897.705</ele>
        <time>2020-07-03T16:32:44Z</time>
      </trkpt>
      <trkpt lat="46.07893" lon="6.23904">
        <ele>899.508</ele>
        <time>2020-07-03T16:32:45Z</time>
      </trkpt>
      <trkpt lat="46.07891" lon="6.23926">
        <ele>900.457</ele>
        <time>2020-07-03T16:32:46Z</time>
      </trkpt>
      <trkpt lat="46.0789" lon="6.23947">
        <ele>901.384</ele>
        <time>2020-07-03T16:32:47Z</time>
      </trkpt>
      <trkpt lat="46.07889" lon="6.23967">
        <ele>901.332</ele>
        <time>2020-07-03T16:32:48Z</time>
      </trkpt>
      <trkpt lat="46.07886" lon="6.2399">
        <ele>900.941</ele>
        <time>2020-07-03T16:32:49Z</time>
      </trkpt>
      <trkpt lat="46.07884" lon="6.24013">
        <ele>900.992</ele>
        <time>2020-07-03T16:32:50Z</time>
      </trkpt>
      <trkpt lat="46.07882" lon="6.24037">
        <ele>901.172</ele>
        <time>2020-07-03T16:32:51Z</time>
      </trkpt>
      <trkpt lat="46.0788" lon="6.24061">
        <ele>901.328</ele>
        <time>2020-07-03T16:32:52Z</time>
      </trkpt>
      <trkpt lat="46.0788" lon="6.24085">
        <ele>902.435</ele>
        <time>2020-07-03T16:32:53Z</time>
      </trkpt>
      <trkpt lat="46.07877" lon="6.24107">
        <ele>903.534</ele>
        <time>2020-07-03T16:32:54Z</time>
      </trkpt>
      <trkpt lat="46.07876" lon="6.24127">
        <ele>904.655</ele>
        <time>2020-07-03T16:32:55Z</time>
      </trkpt>
      <trkpt lat="46.07874" lon="6.24146">
        <ele>905.21</ele>
        <time>2020-07-03T16:32:56Z</time>
      </trkpt>
      <trkpt lat="46.07873" lon="6.24163">
        <ele>905.908</ele>
        <time>2020-07-03T16:32:57Z</time>
      </trkpt>
      <trkpt lat="46.07873" lon="6.24177">
        <ele>906.238</ele>
        <time>2020-07-03T16:32:58Z</time>
      </trkpt>
      <trkpt lat="46.07874" lon="6.24189">
        <ele>906.335</ele>
        <time>2020-07-03T16:32:59Z</time>
      </trkpt>
      <trkpt lat="46.07876" lon="6.24198">
        <ele>906.413</ele>
        <time>2020-07-03T16:33:00Z</time>
      </trkpt>
      <trkpt lat="46.07878" lon="6.24206">
        <ele>906.482</ele>
        <time>2020-07-03T16:33:01Z</time>
      </trkpt>
      <trkpt lat="46.07884" lon="6.24212">
        <ele>906.453</ele>
        <time>2020-07-03T16:33:02Z</time>
      </trkpt>
      <trkpt lat="46.07891" lon="6.24217">
        <ele>906.513</ele>
        <time>2020-07-03T16:33:03Z</time>
      </trkpt>
      <trkpt lat="46.07903" lon="6.24221">
        <ele>906.529</ele>
        <time>2020-07-03T16:33:04Z</time>
      </trkpt>
      <trkpt lat="46.07912" lon="6.24222">
        <ele>906.466</ele>
        <time>2020-07-03T16:33:05Z</time>
      </trkpt>
      <trkpt lat="46.07923" lon="6.24225">
        <ele>906.356</ele>
        <time>2020-07-03T16:33:06Z</time>
      </trkpt>
      <trkpt lat="46.07934" lon="6.24225">
        <ele>906.259</ele>
        <time>2020-07-03T16:33:07Z</time>
      </trkpt>
      <trkpt lat="46.07944" lon="6.24226">
        <ele>906.014</ele>
        <time>2020-07-03T16:33:08Z</time>
      </trkpt>
      <trkpt lat="46.07953" lon="6.24228">
        <ele>905.808</ele>
        <time>2020-07-03T16:33:09Z</time>
      </trkpt>
      <trkpt lat="46.07961" lon="6.24229">
        <ele>905.55</ele>
        <time>2020-07-03T16:33:10Z</time>
      </trkpt>
      <trkpt lat="46.07966" lon="6.2423">
        <ele>905.227</ele>
        <time>2020-07-03T16:33:11Z</time>
      </trkpt>
      <trkpt lat="46.07974" lon="6.24229">
        <ele>904.915</ele>
        <time>2020-07-03T16:33:12Z</time>
      </trkpt>
      <trkpt lat="46.07981" lon="6.24226">
        <ele>904.444</ele>
        <time>2020-07-03T16:33:13Z</time>
      </trkpt>
      <trkpt lat="46.07986" lon="6.24222">
        <ele>903.785</ele>
        <time>2020-07-03T16:33:14Z</time>
      </trkpt>
      <trkpt lat="46.0799" lon="6.24216">
        <ele>902.825</ele>
        <time>2020-07-03T16:33:15Z</time>
      </trkpt>
      <trkpt lat="46.07995" lon="6.24208">
        <ele>901.991</ele>
        <time>2020-07-03T16:33:16Z</time>
      </trkpt>
      <trkpt lat="46.08001" lon="6.24199">
        <ele>900.878</ele>
        <time>2020-07-03T16:33:17Z</time>
      </trkpt>
      <trkpt lat="46.08005" lon="6.24188">
        <ele>899.861</ele>
        <time>2020-07-03T16:33:18Z</time>
      </trkpt>
      <trkpt lat="46.08009" lon="6.24178">
        <ele>898.921</ele>
        <time>2020-07-03T16:33:19Z</time>
      </trkpt>
      <trkpt lat="46.08015" lon="6.24167">
        <ele>898.213</ele>
        <time>2020-07-03T16:33:20Z</time>
      </trkpt>
      <trkpt lat="46.08021" lon="6.24157">
        <ele>897.608</ele>
        <time>2020-07-03T16:33:21Z</time>
      </trkpt>
      <trkpt lat="46.08027" lon="6.24146">
        <ele>897.191</ele>
        <time>2020-07-03T16:33:22Z</time>
      </trkpt>
      <trkpt lat="46.08034" lon="6.24135">
        <ele>896.778</ele>
        <time>2020-07-03T16:33:23Z</time>
      </trkpt>
      <trkpt lat="46.08041" lon="6.24124">
        <ele>896.356</ele>
        <time>2020-07-03T16:33:24Z</time>
      </trkpt>
      <trkpt lat="46.08048" lon="6.24112">
        <ele>895.985</ele>
        <time>2020-07-03T16:33:25Z</time>
      </trkpt>
      <trkpt lat="46.08055" lon="6.24103">
        <ele>895.656</ele>
        <time>2020-07-03T16:33:26Z</time>
      </trkpt>
      <trkpt lat="46.08061" lon="6.24094">
        <ele>895.326</ele>
        <time>2020-07-03T16:33:27Z</time>
      </trkpt>
      <trkpt lat="46.08067" lon="6.24084">
        <ele>895.222</ele>
        <time>2020-07-03T16:33:28Z</time>
      </trkpt>
      <trkpt lat="46.08074" lon="6.24075">
        <ele>894.999</ele>
        <time>2020-07-03T16:33:29Z</time>
      </trkpt>
      <trkpt lat="46.08082" lon="6.24067">
        <ele>894.692</ele>
        <time>2020-07-03T16:33:30Z</time>
      </trkpt>
      <trkpt lat="46.0809" lon="6.24059">
        <ele>894.173</ele>
        <time>2020-07-03T16:33:31Z</time>
      </trkpt>
      <trkpt lat="46.08097" lon="6.24055">
        <ele>893.72</ele>
        <time>2020-07-03T16:33:32Z</time>
      </trkpt>
      <trkpt lat="46.08106" lon="6.24052">
        <ele>893.008</ele>
        <time>2020-07-03T16:33:33Z</time>
      </trkpt>
      <trkpt lat="46.08115" lon="6.24048">
        <ele>892.474</ele>
        <time>2020-07-03T16:33:34Z</time>
      </trkpt>
      <trkpt lat="46.08125" lon="6.24044">
        <ele>891.921</ele>
        <time>2020-07-03T16:33:35Z</time>
      </trkpt>
      <trkpt lat="46.08134" lon="6.2404">
        <ele>891.599</ele>
        <time>2020-07-03T16:33:36Z</time>
      </trkpt>
      <trkpt lat="46.08143" lon="6.24036">
        <ele>891.248</ele>
        <time>2020-07-03T16:33:37Z</time>
      </trkpt>
      <trkpt lat="46.0815" lon="6.24032">
        <ele>890.959</ele>
        <time>2020-07-03T16:33:38Z</time>
      </trkpt>
      <trkpt lat="46.08157" lon="6.24026">
        <ele>890.699</ele>
        <time>2020-07-03T16:33:39Z</time>
      </trkpt>
      <trkpt lat="46.08164" lon="6.24018">
        <ele>890.355</ele>
        <time>2020-07-03T16:33:40Z</time>
      </trkpt>
      <trkpt lat="46.08171" lon="6.24011">
        <ele>890.172</ele>
        <time>2020-07-03T16:33:41Z</time>
      </trkpt>
      <trkpt lat="46.08177" lon="6.24003">
        <ele>889.613</ele>
        <time>2020-07-03T16:33:42Z</time>
      </trkpt>
      <trkpt lat="46.08185" lon="6.23994">
        <ele>889.243</ele>
        <time>2020-07-03T16:33:43Z</time>
      </trkpt>
      <trkpt lat="46.08192" lon="6.23985">
        <ele>888.907</ele>
        <time>2020-07-03T16:33:44Z</time>
      </trkpt>
      <trkpt lat="46.082" lon="6.23975">
        <ele>888.608</ele>
        <time>2020-07-03T16:33:45Z</time>
      </trkpt>
      <trkpt lat="46.08208" lon="6.23964">
        <ele>888.426</ele>
        <time>2020-07-03T16:33:46Z</time>
      </trkpt>
      <trkpt lat="46.08215" lon="6.23951">
        <ele>888.373</ele>
        <time>2020-07-03T16:33:47Z</time>
      </trkpt>
      <trkpt lat="46.08224" lon="6.23938">
        <ele>888.181</ele>
        <time>2020-07-03T16:33:48Z</time>
      </trkpt>
      <trkpt lat="46.08232" lon="6.23927">
        <ele>887.93</ele>
        <time>2020-07-03T16:33:49Z</time>
      </trkpt>
      <trkpt lat="46.08241" lon="6.23918">
        <ele>887.681</ele>
        <time>2020-07-03T16:33:50Z</time>
      </trkpt>
      <trkpt lat="46.08248" lon="6.23909">
        <ele>887.071</ele>
        <time>2020-07-03T16:33:51Z</time>
      </trkpt>
      <trkpt lat="46.08255" lon="6.239">
        <ele>886.347</ele>
        <time>2020-07-03T16:33:52Z</time>
      </trkpt>
      <trkpt lat="46.08261" lon="6.23887">
        <ele>885.594</ele>
        <time>2020-07-03T16:33:53Z</time>
      </trkpt>
      <trkpt lat="46.08268" lon="6.23876">
        <ele>884.616</ele>
        <time>2020-07-03T16:33:54Z</time>
      </trkpt>
      <trkpt lat="46.08272" lon="6.23866">
        <ele>883.876</ele>
        <time>2020-07-03T16:33:55Z</time>
      </trkpt>
      <trkpt lat="46.08279" lon="6.23853">
        <ele>883.113</ele>
        <time>2020-07-03T16:33:56Z</time>
      </trkpt>
      <trkpt lat="46.08284" lon="6.23842">
        <ele>882.708</ele>
        <time>2020-07-03T16:33:57Z</time>
      </trkpt>
      <trkpt lat="46.08289" lon="6.23832">
        <ele>882.326</ele>
        <time>2020-07-03T16:33:58Z</time>
      </trkpt>
      <trkpt lat="46.08292" lon="6.23821">
        <ele>881.973</ele>
        <time>2020-07-03T16:33:59Z</time>
      </trkpt>
      <trkpt lat="46.08296" lon="6.23811">
        <ele>881.621</ele>
        <time>2020-07-03T16:34:00Z</time>
      </trkpt>
      <trkpt lat="46.083" lon="6.23803">
        <ele>881.45</ele>
        <time>2020-07-03T16:34:01Z</time>
      </trkpt>
      <trkpt lat="46.08305" lon="6.23796">
        <ele>881.211</ele>
        <time>2020-07-03T16:34:02Z</time>
      </trkpt>
      <trkpt lat="46.08311" lon="6.23792">
        <ele>881.021</ele>
        <time>2020-07-03T16:34:03Z</time>
      </trkpt>
      <trkpt lat="46.08317" lon="6.23792">
        <ele>880.897</ele>
        <time>2020-07-03T16:34:04Z</time>
      </trkpt>
      <trkpt lat="46.08324" lon="6.23796">
        <ele>880.814</ele>
        <time>2020-07-03T16:34:05Z</time>
      </trkpt>
      <trkpt lat="46.08334" lon="6.23804">
        <ele>880.861</ele>
        <time>2020-07-03T16:34:06Z</time>
      </trkpt>
      <trkpt lat="46.08344" lon="6.23815">
        <ele>881.021</ele>
        <time>2020-07-03T16:34:07Z</time>
      </trkpt>
      <trkpt lat="46.08355" lon="6.23829">
        <ele>881.313</ele>
        <time>2020-07-03T16:34:08Z</time>
      </trkpt>
      <trkpt lat="46.08363" lon="6.23841">
        <ele>882.108</ele>
        <time>2020-07-03T16:34:09Z</time>
      </trkpt>
      <trkpt lat="46.08372" lon="6.23854">
        <ele>882.761</ele>
        <time>2020-07-03T16:34:10Z</time>
      </trkpt>
      <trkpt lat="46.0838" lon="6.23862">
        <ele>883.478</ele>
        <time>2020-07-03T16:34:11Z</time>
      </trkpt>
      <trkpt lat="46.08387" lon="6.23869">
        <ele>883.976</ele>
        <time>2020-07-03T16:34:12Z</time>
      </trkpt>
      <trkpt lat="46.08396" lon="6.23876">
        <ele>884.445</ele>
        <time>2020-07-03T16:34:13Z</time>
      </trkpt>
      <trkpt lat="46.08405" lon="6.23886">
        <ele>884.776</ele>
        <time>2020-07-03T16:34:14Z</time>
      </trkpt>
      <trkpt lat="46.08412" lon="6.23893">
        <ele>885.056</ele>
        <time>2020-07-03T16:34:15Z</time>
      </trkpt>
      <trkpt lat="46.08419" lon="6.239">
        <ele>885.252</ele>
        <time>2020-07-03T16:34:16Z</time>
      </trkpt>
      <trkpt lat="46.08425" lon="6.23907">
        <ele>885.539</ele>
        <time>2020-07-03T16:34:17Z</time>
      </trkpt>
      <trkpt lat="46.08432" lon="6.23915">
        <ele>885.768</ele>
        <time>2020-07-03T16:34:18Z</time>
      </trkpt>
      <trkpt lat="46.08437" lon="6.23921">
        <ele>885.742</ele>
        <time>2020-07-03T16:34:19Z</time>
      </trkpt>
      <trkpt lat="46.08443" lon="6.23927">
        <ele>885.626</ele>
        <time>2020-07-03T16:34:20Z</time>
      </trkpt>
      <trkpt lat="46.08449" lon="6.23934">
        <ele>885.508</ele>
        <time>2020-07-03T16:34:21Z</time>
      </trkpt>
      <trkpt lat="46.08455" lon="6.23952">
        <ele>885.351</ele>
        <time>2020-07-03T16:34:22Z</time>
      </trkpt>
      <trkpt lat="46.0846" lon="6.23968">
        <ele>885.198</ele>
        <time>2020-07-03T16:34:23Z</time>
      </trkpt>
      <trkpt lat="46.08466" lon="6.23982">
        <ele>885.076</ele>
        <time>2020-07-03T16:34:24Z</time>
      </trkpt>
      <trkpt lat="46.08476" lon="6.23994">
        <ele>884.725</ele>
        <time>2020-07-03T16:34:25Z</time>
      </trkpt>
      <trkpt lat="46.08489" lon="6.24008">
        <ele>884.476</ele>
        <time>2020-07-03T16:34:26Z</time>
      </trkpt>
      <trkpt lat="46.08502" lon="6.24022">
        <ele>884.276</ele>
        <time>2020-07-03T16:34:27Z</time>
      </trkpt>
      <trkpt lat="46.08514" lon="6.24034">
        <ele>884.042</ele>
        <time>2020-07-03T16:34:28Z</time>
      </trkpt>
      <trkpt lat="46.08524" lon="6.24046">
        <ele>883.779</ele>
        <time>2020-07-03T16:34:29Z</time>
      </trkpt>
      <trkpt lat="46.08533" lon="6.24057">
        <ele>883.535</ele>
        <time>2020-07-03T16:34:30Z</time>
      </trkpt>
      <trkpt lat="46.0854" lon="6.24067">
        <ele>883.186</ele>
        <time>2020-07-03T16:34:31Z</time>
      </trkpt>
      <trkpt lat="46.08547" lon="6.24076">
        <ele>882.714</ele>
        <time>2020-07-03T16:34:32Z</time>
      </trkpt>
      <trkpt lat="46.08552" lon="6.24084">
        <ele>882.208</ele>
        <time>2020-07-03T16:34:33Z</time>
      </trkpt>
      <trkpt lat="46.08558" lon="6.24091">
        <ele>881.738</ele>
        <time>2020-07-03T16:34:34Z</time>
      </trkpt>
      <trkpt lat="46.08562" lon="6.24098">
        <ele>881.375</ele>
        <time>2020-07-03T16:34:35Z</time>
      </trkpt>
      <trkpt lat="46.08565" lon="6.24106">
        <ele>881.093</ele>
        <time>2020-07-03T16:34:36Z</time>
      </trkpt>
      <trkpt lat="46.08565" lon="6.24113">
        <ele>880.752</ele>
        <time>2020-07-03T16:34:37Z</time>
      </trkpt>
      <trkpt lat="46.0856" lon="6.24116">
        <ele>879.553</ele>
        <time>2020-07-03T16:34:41Z</time>
      </trkpt>
      <trkpt lat="46.08556" lon="6.24109">
        <ele>879.263</ele>
        <time>2020-07-03T16:34:43Z</time>
      </trkpt>
      <trkpt lat="46.08561" lon="6.24098">
        <ele>879.399</ele>
        <time>2020-07-03T16:34:45Z</time>
      </trkpt>
      <trkpt lat="46.08568" lon="6.24093">
        <ele>879.496</ele>
        <time>2020-07-03T16:34:46Z</time>
      </trkpt>
      <trkpt lat="46.08573" lon="6.24092">
        <ele>879.584</ele>
        <time>2020-07-03T16:34:47Z</time>
      </trkpt>
      <trkpt lat="46.08579" lon="6.24093">
        <ele>879.507</ele>
        <time>2020-07-03T16:34:48Z</time>
      </trkpt>
      <trkpt lat="46.08584" lon="6.24098">
        <ele>879.517</ele>
        <time>2020-07-03T16:34:49Z</time>
      </trkpt>
      <trkpt lat="46.0859" lon="6.24102">
        <ele>879.408</ele>
        <time>2020-07-03T16:34:50Z</time>
      </trkpt>
      <trkpt lat="46.08594" lon="6.24107">
        <ele>879.253</ele>
        <time>2020-07-03T16:34:51Z</time>
      </trkpt>
      <trkpt lat="46.08599" lon="6.24112">
        <ele>878.73</ele>
        <time>2020-07-03T16:34:53Z</time>
      </trkpt>
      <trkpt lat="46.08604" lon="6.24114">
        <ele>878.438</ele>
        <time>2020-07-03T16:34:54Z</time>
      </trkpt>
      <trkpt lat="46.08611" lon="6.24121">
        <ele>877.767</ele>
        <time>2020-07-03T16:34:56Z</time>
      </trkpt>
      <trkpt lat="46.08615" lon="6.24127">
        <ele>877.218</ele>
        <time>2020-07-03T16:34:57Z</time>
      </trkpt>
      <trkpt lat="46.08621" lon="6.24133">
        <ele>876.898</ele>
        <time>2020-07-03T16:34:58Z</time>
      </trkpt>
      <trkpt lat="46.08626" lon="6.2414">
        <ele>876.364</ele>
        <time>2020-07-03T16:34:59Z</time>
      </trkpt>
      <trkpt lat="46.08631" lon="6.24148">
        <ele>875.881</ele>
        <time>2020-07-03T16:35:00Z</time>
      </trkpt>
      <trkpt lat="46.08637" lon="6.24158">
        <ele>875.356</ele>
        <time>2020-07-03T16:35:01Z</time>
      </trkpt>
      <trkpt lat="46.08643" lon="6.24166">
        <ele>874.959</ele>
        <time>2020-07-03T16:35:02Z</time>
      </trkpt>
      <trkpt lat="46.08651" lon="6.24174">
        <ele>874.514</ele>
        <time>2020-07-03T16:35:03Z</time>
      </trkpt>
      <trkpt lat="46.08659" lon="6.24182">
        <ele>874.008</ele>
        <time>2020-07-03T16:35:04Z</time>
      </trkpt>
      <trkpt lat="46.08665" lon="6.24184">
        <ele>873.79</ele>
        <time>2020-07-03T16:35:05Z</time>
      </trkpt>
      <trkpt lat="46.08673" lon="6.24185">
        <ele>873.447</ele>
        <time>2020-07-03T16:35:06Z</time>
      </trkpt>
      <trkpt lat="46.08682" lon="6.24183">
        <ele>873.225</ele>
        <time>2020-07-03T16:35:07Z</time>
      </trkpt>
      <trkpt lat="46.0869" lon="6.24182">
        <ele>872.884</ele>
        <time>2020-07-03T16:35:08Z</time>
      </trkpt>
      <trkpt lat="46.08697" lon="6.24182">
        <ele>872.575</ele>
        <time>2020-07-03T16:35:09Z</time>
      </trkpt>
      <trkpt lat="46.08703" lon="6.24183">
        <ele>872.125</ele>
        <time>2020-07-03T16:35:10Z</time>
      </trkpt>
      <trkpt lat="46.08712" lon="6.24184">
        <ele>871.681</ele>
        <time>2020-07-03T16:35:11Z</time>
      </trkpt>
      <trkpt lat="46.08718" lon="6.24185">
        <ele>871.148</ele>
        <time>2020-07-03T16:35:12Z</time>
      </trkpt>
      <trkpt lat="46.08726" lon="6.24186">
        <ele>870.836</ele>
        <time>2020-07-03T16:35:13Z</time>
      </trkpt>
      <trkpt lat="46.08732" lon="6.24188">
        <ele>870.417</ele>
        <time>2020-07-03T16:35:14Z</time>
      </trkpt>
      <trkpt lat="46.08738" lon="6.24189">
        <ele>870.218</ele>
        <time>2020-07-03T16:35:15Z</time>
      </trkpt>
      <trkpt lat="46.08745" lon="6.24189">
        <ele>870.108</ele>
        <time>2020-07-03T16:35:16Z</time>
      </trkpt>
      <trkpt lat="46.08753" lon="6.24191">
        <ele>870.038</ele>
        <time>2020-07-03T16:35:17Z</time>
      </trkpt>
      <trkpt lat="46.0876" lon="6.24194">
        <ele>869.915</ele>
        <time>2020-07-03T16:35:18Z</time>
      </trkpt>
      <trkpt lat="46.08768" lon="6.24196">
        <ele>869.933</ele>
        <time>2020-07-03T16:35:19Z</time>
      </trkpt>
      <trkpt lat="46.08777" lon="6.24199">
        <ele>870.092</ele>
        <time>2020-07-03T16:35:20Z</time>
      </trkpt>
      <trkpt lat="46.08786" lon="6.24204">
        <ele>870.243</ele>
        <time>2020-07-03T16:35:21Z</time>
      </trkpt>
      <trkpt lat="46.08793" lon="6.2421">
        <ele>870.453</ele>
        <time>2020-07-03T16:35:22Z</time>
      </trkpt>
      <trkpt lat="46.08801" lon="6.24216">
        <ele>870.739</ele>
        <time>2020-07-03T16:35:23Z</time>
      </trkpt>
      <trkpt lat="46.08809" lon="6.24221">
        <ele>870.986</ele>
        <time>2020-07-03T16:35:24Z</time>
      </trkpt>
      <trkpt lat="46.08818" lon="6.24226">
        <ele>871.162</ele>
        <time>2020-07-03T16:35:25Z</time>
      </trkpt>
      <trkpt lat="46.08829" lon="6.24233">
        <ele>871.283</ele>
        <time>2020-07-03T16:35:26Z</time>
      </trkpt>
      <trkpt lat="46.08838" lon="6.24242">
        <ele>871.511</ele>
        <time>2020-07-03T16:35:27Z</time>
      </trkpt>
      <trkpt lat="46.08849" lon="6.24251">
        <ele>871.808</ele>
        <time>2020-07-03T16:35:28Z</time>
      </trkpt>
      <trkpt lat="46.08858" lon="6.24255">
        <ele>871.961</ele>
        <time>2020-07-03T16:35:29Z</time>
      </trkpt>
      <trkpt lat="46.08869" lon="6.24255">
        <ele>872.148</ele>
        <time>2020-07-03T16:35:30Z</time>
      </trkpt>
      <trkpt lat="46.08881" lon="6.24255">
        <ele>872.236</ele>
        <time>2020-07-03T16:35:31Z</time>
      </trkpt>
      <trkpt lat="46.08895" lon="6.24254">
        <ele>872.225</ele>
        <time>2020-07-03T16:35:32Z</time>
      </trkpt>
      <trkpt lat="46.08913" lon="6.24252">
        <ele>872.096</ele>
        <time>2020-07-03T16:35:33Z</time>
      </trkpt>
      <trkpt lat="46.08932" lon="6.24251">
        <ele>872.046</ele>
        <time>2020-07-03T16:35:34Z</time>
      </trkpt>
      <trkpt lat="46.08948" lon="6.24252">
        <ele>872.082</ele>
        <time>2020-07-03T16:35:35Z</time>
      </trkpt>
      <trkpt lat="46.08961" lon="6.24252">
        <ele>872.269</ele>
        <time>2020-07-03T16:35:36Z</time>
      </trkpt>
      <trkpt lat="46.08975" lon="6.24251">
        <ele>872.425</ele>
        <time>2020-07-03T16:35:37Z</time>
      </trkpt>
      <trkpt lat="46.08986" lon="6.24249">
        <ele>872.726</ele>
        <time>2020-07-03T16:35:38Z</time>
      </trkpt>
      <trkpt lat="46.08997" lon="6.24248">
        <ele>872.708</ele>
        <time>2020-07-03T16:35:39Z</time>
      </trkpt>
      <trkpt lat="46.09009" lon="6.24245">
        <ele>872.608</ele>
        <time>2020-07-03T16:35:40Z</time>
      </trkpt>
      <trkpt lat="46.09019" lon="6.24244">
        <ele>872.197</ele>
        <time>2020-07-03T16:35:41Z</time>
      </trkpt>
      <trkpt lat="46.09028" lon="6.24248">
        <ele>871.894</ele>
        <time>2020-07-03T16:35:42Z</time>
      </trkpt>
      <trkpt lat="46.09039" lon="6.24255">
        <ele>870.782</ele>
        <time>2020-07-03T16:35:43Z</time>
      </trkpt>
      <trkpt lat="46.09052" lon="6.24269">
        <ele>869.741</ele>
        <time>2020-07-03T16:35:44Z</time>
      </trkpt>
      <trkpt lat="46.09069" lon="6.24278">
        <ele>869.332</ele>
        <time>2020-07-03T16:35:45Z</time>
      </trkpt>
      <trkpt lat="46.09085" lon="6.24285">
        <ele>869.192</ele>
        <time>2020-07-03T16:35:46Z</time>
      </trkpt>
      <trkpt lat="46.09104" lon="6.24296">
        <ele>869.178</ele>
        <time>2020-07-03T16:35:47Z</time>
      </trkpt>
      <trkpt lat="46.09123" lon="6.24304">
        <ele>869.455</ele>
        <time>2020-07-03T16:35:48Z</time>
      </trkpt>
      <trkpt lat="46.09141" lon="6.2431">
        <ele>869.492</ele>
        <time>2020-07-03T16:35:49Z</time>
      </trkpt>
      <trkpt lat="46.09156" lon="6.24315">
        <ele>869.273</ele>
        <time>2020-07-03T16:35:50Z</time>
      </trkpt>
      <trkpt lat="46.0917" lon="6.24321">
        <ele>868.82</ele>
        <time>2020-07-03T16:35:51Z</time>
      </trkpt>
      <trkpt lat="46.09182" lon="6.24326">
        <ele>868.708</ele>
        <time>2020-07-03T16:35:52Z</time>
      </trkpt>
      <trkpt lat="46.09194" lon="6.24331">
        <ele>868.264</ele>
        <time>2020-07-03T16:35:53Z</time>
      </trkpt>
      <trkpt lat="46.09206" lon="6.24336">
        <ele>868.231</ele>
        <time>2020-07-03T16:35:54Z</time>
      </trkpt>
      <trkpt lat="46.09218" lon="6.24341">
        <ele>868.359</ele>
        <time>2020-07-03T16:35:55Z</time>
      </trkpt>
      <trkpt lat="46.09229" lon="6.24347">
        <ele>868.358</ele>
        <time>2020-07-03T16:35:56Z</time>
      </trkpt>
      <trkpt lat="46.09239" lon="6.24355">
        <ele>868.119</ele>
        <time>2020-07-03T16:35:57Z</time>
      </trkpt>
      <trkpt lat="46.09251" lon="6.2436">
        <ele>867.569</ele>
        <time>2020-07-03T16:35:58Z</time>
      </trkpt>
      <trkpt lat="46.09266" lon="6.24366">
        <ele>867.445</ele>
        <time>2020-07-03T16:35:59Z</time>
      </trkpt>
      <trkpt lat="46.09283" lon="6.2437">
        <ele>867.112</ele>
        <time>2020-07-03T16:36:00Z</time>
      </trkpt>
      <trkpt lat="46.09298" lon="6.24373">
        <ele>866.439</ele>
        <time>2020-07-03T16:36:01Z</time>
      </trkpt>
      <trkpt lat="46.09312" lon="6.24376">
        <ele>865.801</ele>
        <time>2020-07-03T16:36:02Z</time>
      </trkpt>
      <trkpt lat="46.09329" lon="6.2438">
        <ele>864.821</ele>
        <time>2020-07-03T16:36:03Z</time>
      </trkpt>
      <trkpt lat="46.09345" lon="6.24382">
        <ele>863.408</ele>
        <time>2020-07-03T16:36:04Z</time>
      </trkpt>
      <trkpt lat="46.0936" lon="6.24386">
        <ele>861.718</ele>
        <time>2020-07-03T16:36:05Z</time>
      </trkpt>
      <trkpt lat="46.09374" lon="6.24389">
        <ele>860.645</ele>
        <time>2020-07-03T16:36:06Z</time>
      </trkpt>
      <trkpt lat="46.09389" lon="6.24391">
        <ele>859.463</ele>
        <time>2020-07-03T16:36:07Z</time>
      </trkpt>
      <trkpt lat="46.09409" lon="6.24393">
        <ele>858.262</ele>
        <time>2020-07-03T16:36:08Z</time>
      </trkpt>
      <trkpt lat="46.09427" lon="6.24397">
        <ele>857.553</ele>
        <time>2020-07-03T16:36:09Z</time>
      </trkpt>
      <trkpt lat="46.0944" lon="6.24397">
        <ele>856.913</ele>
        <time>2020-07-03T16:36:10Z</time>
      </trkpt>
      <trkpt lat="46.0945" lon="6.24402">
        <ele>855.829</ele>
        <time>2020-07-03T16:36:11Z</time>
      </trkpt>
      <trkpt lat="46.0946" lon="6.24404">
        <ele>854.656</ele>
        <time>2020-07-03T16:36:12Z</time>
      </trkpt>
      <trkpt lat="46.09474" lon="6.24405">
        <ele>853.824</ele>
        <time>2020-07-03T16:36:13Z</time>
      </trkpt>
      <trkpt lat="46.09491" lon="6.2441">
        <ele>853.004</ele>
        <time>2020-07-03T16:36:14Z</time>
      </trkpt>
      <trkpt lat="46.09508" lon="6.24408">
        <ele>852.214</ele>
        <time>2020-07-03T16:36:15Z</time>
      </trkpt>
      <trkpt lat="46.09521" lon="6.24407">
        <ele>852.008</ele>
        <time>2020-07-03T16:36:16Z</time>
      </trkpt>
      <trkpt lat="46.09533" lon="6.24412">
        <ele>851.247</ele>
        <time>2020-07-03T16:36:17Z</time>
      </trkpt>
      <trkpt lat="46.09544" lon="6.24421">
        <ele>850.534</ele>
        <time>2020-07-03T16:36:18Z</time>
      </trkpt>
      <trkpt lat="46.09556" lon="6.24429">
        <ele>849.142</ele>
        <time>2020-07-03T16:36:19Z</time>
      </trkpt>
      <trkpt lat="46.09568" lon="6.24436">
        <ele>847.911</ele>
        <time>2020-07-03T16:36:20Z</time>
      </trkpt>
      <trkpt lat="46.09583" lon="6.24443">
        <ele>846.452</ele>
        <time>2020-07-03T16:36:21Z</time>
      </trkpt>
      <trkpt lat="46.09598" lon="6.24447">
        <ele>845.952</ele>
        <time>2020-07-03T16:36:22Z</time>
      </trkpt>
      <trkpt lat="46.09613" lon="6.24452">
        <ele>845.288</ele>
        <time>2020-07-03T16:36:23Z</time>
      </trkpt>
      <trkpt lat="46.09625" lon="6.24457">
        <ele>844.475</ele>
        <time>2020-07-03T16:36:24Z</time>
      </trkpt>
      <trkpt lat="46.09637" lon="6.24461">
        <ele>843.498</ele>
        <time>2020-07-03T16:36:25Z</time>
      </trkpt>
      <trkpt lat="46.0965" lon="6.24463">
        <ele>842.415</ele>
        <time>2020-07-03T16:36:26Z</time>
      </trkpt>
      <trkpt lat="46.09665" lon="6.24463">
        <ele>840.926</ele>
        <time>2020-07-03T16:36:27Z</time>
      </trkpt>
      <trkpt lat="46.09686" lon="6.24464">
        <ele>839.808</ele>
        <time>2020-07-03T16:36:28Z</time>
      </trkpt>
      <trkpt lat="46.09708" lon="6.24468">
        <ele>839.274</ele>
        <time>2020-07-03T16:36:29Z</time>
      </trkpt>
      <trkpt lat="46.0973" lon="6.24472">
        <ele>838.951</ele>
        <time>2020-07-03T16:36:30Z</time>
      </trkpt>
      <trkpt lat="46.09747" lon="6.24477">
        <ele>838.689</ele>
        <time>2020-07-03T16:36:31Z</time>
      </trkpt>
      <trkpt lat="46.09762" lon="6.24482">
        <ele>838.078</ele>
        <time>2020-07-03T16:36:32Z</time>
      </trkpt>
      <trkpt lat="46.09777" lon="6.24485">
        <ele>837.469</ele>
        <time>2020-07-03T16:36:33Z</time>
      </trkpt>
      <trkpt lat="46.09791" lon="6.24491">
        <ele>836.879</ele>
        <time>2020-07-03T16:36:34Z</time>
      </trkpt>
      <trkpt lat="46.09806" lon="6.24499">
        <ele>835.615</ele>
        <time>2020-07-03T16:36:35Z</time>
      </trkpt>
      <trkpt lat="46.09821" lon="6.24512">
        <ele>834.352</ele>
        <time>2020-07-03T16:36:36Z</time>
      </trkpt>
      <trkpt lat="46.09835" lon="6.24523">
        <ele>833.594</ele>
        <time>2020-07-03T16:36:37Z</time>
      </trkpt>
      <trkpt lat="46.09848" lon="6.24533">
        <ele>832.557</ele>
        <time>2020-07-03T16:36:38Z</time>
      </trkpt>
      <trkpt lat="46.09861" lon="6.24542">
        <ele>831.822</ele>
        <time>2020-07-03T16:36:39Z</time>
      </trkpt>
      <trkpt lat="46.09872" lon="6.24549">
        <ele>831.208</ele>
        <time>2020-07-03T16:36:40Z</time>
      </trkpt>
      <trkpt lat="46.09882" lon="6.2456">
        <ele>830.994</ele>
        <time>2020-07-03T16:36:41Z</time>
      </trkpt>
      <trkpt lat="46.09892" lon="6.24567">
        <ele>830.491</ele>
        <time>2020-07-03T16:36:42Z</time>
      </trkpt>
      <trkpt lat="46.09901" lon="6.24575">
        <ele>830.169</ele>
        <time>2020-07-03T16:36:43Z</time>
      </trkpt>
      <trkpt lat="46.09911" lon="6.24583">
        <ele>829.648</ele>
        <time>2020-07-03T16:36:44Z</time>
      </trkpt>
      <trkpt lat="46.09922" lon="6.24595">
        <ele>829.119</ele>
        <time>2020-07-03T16:36:45Z</time>
      </trkpt>
      <trkpt lat="46.09932" lon="6.24603">
        <ele>828.599</ele>
        <time>2020-07-03T16:36:46Z</time>
      </trkpt>
      <trkpt lat="46.0994" lon="6.24609">
        <ele>828.035</ele>
        <time>2020-07-03T16:36:47Z</time>
      </trkpt>
      <trkpt lat="46.09946" lon="6.24615">
        <ele>827.262</ele>
        <time>2020-07-03T16:36:48Z</time>
      </trkpt>
      <trkpt lat="46.09949" lon="6.24624">
        <ele>826.516</ele>
        <time>2020-07-03T16:36:49Z</time>
      </trkpt>
      <trkpt lat="46.09951" lon="6.24637">
        <ele>826.076</ele>
        <time>2020-07-03T16:36:50Z</time>
      </trkpt>
      <trkpt lat="46.09954" lon="6.24654">
        <ele>825.713</ele>
        <time>2020-07-03T16:36:51Z</time>
      </trkpt>
      <trkpt lat="46.09957" lon="6.24675">
        <ele>825.708</ele>
        <time>2020-07-03T16:36:52Z</time>
      </trkpt>
      <trkpt lat="46.09957" lon="6.24692">
        <ele>825.936</ele>
        <time>2020-07-03T16:36:53Z</time>
      </trkpt>
      <trkpt lat="46.09957" lon="6.24708">
        <ele>826.263</ele>
        <time>2020-07-03T16:36:54Z</time>
      </trkpt>
      <trkpt lat="46.09957" lon="6.24721">
        <ele>826.641</ele>
        <time>2020-07-03T16:36:55Z</time>
      </trkpt>
      <trkpt lat="46.09956" lon="6.24732">
        <ele>826.82</ele>
        <time>2020-07-03T16:36:56Z</time>
      </trkpt>
      <trkpt lat="46.09954" lon="6.24746">
        <ele>826.951</ele>
        <time>2020-07-03T16:36:57Z</time>
      </trkpt>
      <trkpt lat="46.09955" lon="6.24761">
        <ele>827.061</ele>
        <time>2020-07-03T16:36:58Z</time>
      </trkpt>
      <trkpt lat="46.09955" lon="6.24777">
        <ele>827.037</ele>
        <time>2020-07-03T16:36:59Z</time>
      </trkpt>
      <trkpt lat="46.09958" lon="6.24797">
        <ele>827.294</ele>
        <time>2020-07-03T16:37:00Z</time>
      </trkpt>
      <trkpt lat="46.09958" lon="6.24816">
        <ele>827.389</ele>
        <time>2020-07-03T16:37:01Z</time>
      </trkpt>
      <trkpt lat="46.09959" lon="6.24834">
        <ele>827.306</ele>
        <time>2020-07-03T16:37:02Z</time>
      </trkpt>
      <trkpt lat="46.0996" lon="6.24848">
        <ele>827.326</ele>
        <time>2020-07-03T16:37:03Z</time>
      </trkpt>
      <trkpt lat="46.09961" lon="6.24863">
        <ele>826.808</ele>
        <time>2020-07-03T16:37:04Z</time>
      </trkpt>
      <trkpt lat="46.09964" lon="6.2488">
        <ele>826.233</ele>
        <time>2020-07-03T16:37:05Z</time>
      </trkpt>
      <trkpt lat="46.09967" lon="6.24896">
        <ele>825.69</ele>
        <time>2020-07-03T16:37:06Z</time>
      </trkpt>
      <trkpt lat="46.0997" lon="6.24911">
        <ele>824.868</ele>
        <time>2020-07-03T16:37:07Z</time>
      </trkpt>
      <trkpt lat="46.09974" lon="6.24923">
        <ele>823.827</ele>
        <time>2020-07-03T16:37:08Z</time>
      </trkpt>
      <trkpt lat="46.0998" lon="6.24935">
        <ele>823.398</ele>
        <time>2020-07-03T16:37:09Z</time>
      </trkpt>
      <trkpt lat="46.09987" lon="6.24939">
        <ele>822.618</ele>
        <time>2020-07-03T16:37:10Z</time>
      </trkpt>
      <trkpt lat="46.0999" lon="6.24944">
        <ele>820.934</ele>
        <time>2020-07-03T16:37:12Z</time>
      </trkpt>
      <trkpt lat="46.09995" lon="6.24955">
        <ele>818.441</ele>
        <time>2020-07-03T16:37:16Z</time>
      </trkpt>
      <trkpt lat="46.1" lon="6.24963">
        <ele>818.093</ele>
        <time>2020-07-03T16:37:17Z</time>
      </trkpt>
      <trkpt lat="46.10004" lon="6.2497">
        <ele>817.665</ele>
        <time>2020-07-03T16:37:18Z</time>
      </trkpt>
      <trkpt lat="46.10008" lon="6.24977">
        <ele>817.121</ele>
        <time>2020-07-03T16:37:19Z</time>
      </trkpt>
      <trkpt lat="46.10012" lon="6.24987">
        <ele>816.508</ele>
        <time>2020-07-03T16:37:20Z</time>
      </trkpt>
      <trkpt lat="46.10014" lon="6.24996">
        <ele>815.974</ele>
        <time>2020-07-03T16:37:21Z</time>
      </trkpt>
      <trkpt lat="46.1002" lon="6.25004">
        <ele>815.391</ele>
        <time>2020-07-03T16:37:22Z</time>
      </trkpt>
      <trkpt lat="46.10025" lon="6.25011">
        <ele>814.779</ele>
        <time>2020-07-03T16:37:23Z</time>
      </trkpt>
      <trkpt lat="46.1003" lon="6.25016">
        <ele>814.038</ele>
        <time>2020-07-03T16:37:24Z</time>
      </trkpt>
      <trkpt lat="46.10035" lon="6.25021">
        <ele>813.679</ele>
        <time>2020-07-03T16:37:25Z</time>
      </trkpt>
      <trkpt lat="46.1004" lon="6.25027">
        <ele>813.139</ele>
        <time>2020-07-03T16:37:26Z</time>
      </trkpt>
      <trkpt lat="46.10046" lon="6.25034">
        <ele>812.685</ele>
        <time>2020-07-03T16:37:27Z</time>
      </trkpt>
      <trkpt lat="46.10051" lon="6.25043">
        <ele>812.222</ele>
        <time>2020-07-03T16:37:28Z</time>
      </trkpt>
      <trkpt lat="46.10055" lon="6.25052">
        <ele>811.952</ele>
        <time>2020-07-03T16:37:29Z</time>
      </trkpt>
      <trkpt lat="46.1006" lon="6.25059">
        <ele>811.453</ele>
        <time>2020-07-03T16:37:30Z</time>
      </trkpt>
      <trkpt lat="46.10064" lon="6.25066">
        <ele>811.008</ele>
        <time>2020-07-03T16:37:31Z</time>
      </trkpt>
      <trkpt lat="46.10069" lon="6.25074">
        <ele>810.708</ele>
        <time>2020-07-03T16:37:32Z</time>
      </trkpt>
      <trkpt lat="46.10074" lon="6.2508">
        <ele>810.41</ele>
        <time>2020-07-03T16:37:33Z</time>
      </trkpt>
      <trkpt lat="46.10079" lon="6.25084">
        <ele>810.097</ele>
        <time>2020-07-03T16:37:34Z</time>
      </trkpt>
      <trkpt lat="46.10083" lon="6.25095">
        <ele>809.215</ele>
        <time>2020-07-03T16:37:36Z</time>
      </trkpt>
      <trkpt lat="46.10086" lon="6.25107">
        <ele>808.384</ele>
        <time>2020-07-03T16:37:38Z</time>
      </trkpt>
      <trkpt lat="46.10089" lon="6.25112">
        <ele>807.895</ele>
        <time>2020-07-03T16:37:39Z</time>
      </trkpt>
      <trkpt lat="46.10092" lon="6.25119">
        <ele>807.575</ele>
        <time>2020-07-03T16:37:40Z</time>
      </trkpt>
      <trkpt lat="46.10095" lon="6.25125">
        <ele>807.141</ele>
        <time>2020-07-03T16:37:41Z</time>
      </trkpt>
      <trkpt lat="46.10102" lon="6.25134">
        <ele>805.718</ele>
        <time>2020-07-03T16:37:43Z</time>
      </trkpt>
      <trkpt lat="46.1011" lon="6.25145">
        <ele>804.027</ele>
        <time>2020-07-03T16:37:45Z</time>
      </trkpt>
      <trkpt lat="46.10117" lon="6.25156">
        <ele>803.068</ele>
        <time>2020-07-03T16:37:46Z</time>
      </trkpt>
      <trkpt lat="46.10122" lon="6.25163">
        <ele>802.014</ele>
        <time>2020-07-03T16:37:47Z</time>
      </trkpt>
      <trkpt lat="46.10126" lon="6.25169">
        <ele>801.208</ele>
        <time>2020-07-03T16:37:48Z</time>
      </trkpt>
      <trkpt lat="46.10129" lon="6.25181">
        <ele>800.427</ele>
        <time>2020-07-03T16:37:49Z</time>
      </trkpt>
      <trkpt lat="46.10133" lon="6.25188">
        <ele>799.464</ele>
        <time>2020-07-03T16:37:50Z</time>
      </trkpt>
      <trkpt lat="46.10137" lon="6.25196">
        <ele>798.582</ele>
        <time>2020-07-03T16:37:51Z</time>
      </trkpt>
      <trkpt lat="46.10145" lon="6.25202">
        <ele>797.071</ele>
        <time>2020-07-03T16:37:53Z</time>
      </trkpt>
      <trkpt lat="46.10151" lon="6.25205">
        <ele>796.242</ele>
        <time>2020-07-03T16:37:54Z</time>
      </trkpt>
      <trkpt lat="46.10159" lon="6.25211">
        <ele>795.562</ele>
        <time>2020-07-03T16:37:55Z</time>
      </trkpt>
      <trkpt lat="46.10165" lon="6.25219">
        <ele>794.788</ele>
        <time>2020-07-03T16:37:56Z</time>
      </trkpt>
      <trkpt lat="46.10169" lon="6.25227">
        <ele>793.945</ele>
        <time>2020-07-03T16:37:57Z</time>
      </trkpt>
      <trkpt lat="46.10173" lon="6.25235">
        <ele>793.165</ele>
        <time>2020-07-03T16:37:58Z</time>
      </trkpt>
      <trkpt lat="46.10179" lon="6.25243">
        <ele>792.368</ele>
        <time>2020-07-03T16:37:59Z</time>
      </trkpt>
      <trkpt lat="46.10183" lon="6.25251">
        <ele>791.614</ele>
        <time>2020-07-03T16:38:00Z</time>
      </trkpt>
      <trkpt lat="46.10188" lon="6.25258">
        <ele>790.908</ele>
        <time>2020-07-03T16:38:01Z</time>
      </trkpt>
      <trkpt lat="46.10191" lon="6.25265">
        <ele>790.181</ele>
        <time>2020-07-03T16:38:02Z</time>
      </trkpt>
      <trkpt lat="46.10202" lon="6.25272">
        <ele>788.828</ele>
        <time>2020-07-03T16:38:04Z</time>
      </trkpt>
      <trkpt lat="46.10211" lon="6.25277">
        <ele>788.046</ele>
        <time>2020-07-03T16:38:05Z</time>
      </trkpt>
      <trkpt lat="46.10218" lon="6.25283">
        <ele>787.265</ele>
        <time>2020-07-03T16:38:06Z</time>
      </trkpt>
      <trkpt lat="46.10223" lon="6.25289">
        <ele>786.386</ele>
        <time>2020-07-03T16:38:07Z</time>
      </trkpt>
      <trkpt lat="46.10229" lon="6.25297">
        <ele>785.246</ele>
        <time>2020-07-03T16:38:08Z</time>
      </trkpt>
      <trkpt lat="46.10234" lon="6.25305">
        <ele>784.062</ele>
        <time>2020-07-03T16:38:09Z</time>
      </trkpt>
      <trkpt lat="46.10238" lon="6.25312">
        <ele>782.979</ele>
        <time>2020-07-03T16:38:10Z</time>
      </trkpt>
      <trkpt lat="46.10245" lon="6.25317">
        <ele>781.654</ele>
        <time>2020-07-03T16:38:11Z</time>
      </trkpt>
      <trkpt lat="46.10251" lon="6.25322">
        <ele>780.256</ele>
        <time>2020-07-03T16:38:12Z</time>
      </trkpt>
      <trkpt lat="46.10257" lon="6.25331">
        <ele>778.911</ele>
        <time>2020-07-03T16:38:13Z</time>
      </trkpt>
      <trkpt lat="46.10263" lon="6.25339">
        <ele>777.708</ele>
        <time>2020-07-03T16:38:14Z</time>
      </trkpt>
      <trkpt lat="46.10268" lon="6.2535">
        <ele>776.44</ele>
        <time>2020-07-03T16:38:15Z</time>
      </trkpt>
      <trkpt lat="46.10271" lon="6.25358">
        <ele>775.287</ele>
        <time>2020-07-03T16:38:16Z</time>
      </trkpt>
      <trkpt lat="46.10275" lon="6.25365">
        <ele>774.355</ele>
        <time>2020-07-03T16:38:17Z</time>
      </trkpt>
      <trkpt lat="46.1028" lon="6.25372">
        <ele>773.384</ele>
        <time>2020-07-03T16:38:18Z</time>
      </trkpt>
      <trkpt lat="46.10284" lon="6.25383">
        <ele>771.395</ele>
        <time>2020-07-03T16:38:20Z</time>
      </trkpt>
      <trkpt lat="46.10288" lon="6.2539">
        <ele>770.465</ele>
        <time>2020-07-03T16:38:21Z</time>
      </trkpt>
      <trkpt lat="46.10292" lon="6.25397">
        <ele>769.411</ele>
        <time>2020-07-03T16:38:22Z</time>
      </trkpt>
      <trkpt lat="46.10294" lon="6.25406">
        <ele>768.468</ele>
        <time>2020-07-03T16:38:23Z</time>
      </trkpt>
      <trkpt lat="46.10295" lon="6.25412">
        <ele>767.593</ele>
        <time>2020-07-03T16:38:24Z</time>
      </trkpt>
      <trkpt lat="46.10298" lon="6.25421">
        <ele>766.565</ele>
        <time>2020-07-03T16:38:25Z</time>
      </trkpt>
      <trkpt lat="46.103" lon="6.25428">
        <ele>765.421</ele>
        <time>2020-07-03T16:38:26Z</time>
      </trkpt>
      <trkpt lat="46.10303" lon="6.25438">
        <ele>763.708</ele>
        <time>2020-07-03T16:38:28Z</time>
      </trkpt>
      <trkpt lat="46.10308" lon="6.25443">
        <ele>762.934</ele>
        <time>2020-07-03T16:38:29Z</time>
      </trkpt>
      <trkpt lat="46.10312" lon="6.25445">
        <ele>762.121</ele>
        <time>2020-07-03T16:38:30Z</time>
      </trkpt>
      <trkpt lat="46.10322" lon="6.25446">
        <ele>760.479</ele>
        <time>2020-07-03T16:38:32Z</time>
      </trkpt>
      <trkpt lat="46.10328" lon="6.25442">
        <ele>759.548</ele>
        <time>2020-07-03T16:38:33Z</time>
      </trkpt>
      <trkpt lat="46.10333" lon="6.25438">
        <ele>758.529</ele>
        <time>2020-07-03T16:38:34Z</time>
      </trkpt>
      <trkpt lat="46.10338" lon="6.25436">
        <ele>757.549</ele>
        <time>2020-07-03T16:38:35Z</time>
      </trkpt>
      <trkpt lat="46.10343" lon="6.25433">
        <ele>756.675</ele>
        <time>2020-07-03T16:38:36Z</time>
      </trkpt>
      <trkpt lat="46.10351" lon="6.25432">
        <ele>755.982</ele>
        <time>2020-07-03T16:38:37Z</time>
      </trkpt>
      <trkpt lat="46.10357" lon="6.25424">
        <ele>754.337</ele>
        <time>2020-07-03T16:38:39Z</time>
      </trkpt>
      <trkpt lat="46.10361" lon="6.25421">
        <ele>753.749</ele>
        <time>2020-07-03T16:38:40Z</time>
      </trkpt>
      <trkpt lat="46.10373" lon="6.25413">
        <ele>752.213</ele>
        <time>2020-07-03T16:38:42Z</time>
      </trkpt>
      <trkpt lat="46.10383" lon="6.25412">
        <ele>751.108</ele>
        <time>2020-07-03T16:38:44Z</time>
      </trkpt>
      <trkpt lat="46.10387" lon="6.25416">
        <ele>750.638</ele>
        <time>2020-07-03T16:38:45Z</time>
      </trkpt>
      <trkpt lat="46.10396" lon="6.25417">
        <ele>750.165</ele>
        <time>2020-07-03T16:38:46Z</time>
      </trkpt>
      <trkpt lat="46.10402" lon="6.25418">
        <ele>749.523</ele>
        <time>2020-07-03T16:38:47Z</time>
      </trkpt>
      <trkpt lat="46.10413" lon="6.25419">
        <ele>748.272</ele>
        <time>2020-07-03T16:38:49Z</time>
      </trkpt>
      <trkpt lat="46.10419" lon="6.2542">
        <ele>747.333</ele>
        <time>2020-07-03T16:38:50Z</time>
      </trkpt>
      <trkpt lat="46.10427" lon="6.25421">
        <ele>746.683</ele>
        <time>2020-07-03T16:38:51Z</time>
      </trkpt>
      <trkpt lat="46.10433" lon="6.2542">
        <ele>746.069</ele>
        <time>2020-07-03T16:38:52Z</time>
      </trkpt>
      <trkpt lat="46.1044" lon="6.25415">
        <ele>745.146</ele>
        <time>2020-07-03T16:38:53Z</time>
      </trkpt>
      <trkpt lat="46.10446" lon="6.25411">
        <ele>744.544</ele>
        <time>2020-07-03T16:38:54Z</time>
      </trkpt>
      <trkpt lat="46.10453" lon="6.25406">
        <ele>743.805</ele>
        <time>2020-07-03T16:38:55Z</time>
      </trkpt>
      <trkpt lat="46.10456" lon="6.25402">
        <ele>743.015</ele>
        <time>2020-07-03T16:38:56Z</time>
      </trkpt>
      <trkpt lat="46.10466" lon="6.254">
        <ele>742.308</ele>
        <time>2020-07-03T16:38:57Z</time>
      </trkpt>
      <trkpt lat="46.10476" lon="6.25399">
        <ele>741.849</ele>
        <time>2020-07-03T16:38:58Z</time>
      </trkpt>
      <trkpt lat="46.10484" lon="6.25401">
        <ele>741.296</ele>
        <time>2020-07-03T16:38:59Z</time>
      </trkpt>
      <trkpt lat="46.10492" lon="6.25403">
        <ele>740.584</ele>
        <time>2020-07-03T16:39:00Z</time>
      </trkpt>
      <trkpt lat="46.105" lon="6.25402">
        <ele>739.993</ele>
        <time>2020-07-03T16:39:01Z</time>
      </trkpt>
      <trkpt lat="46.10506" lon="6.25396">
        <ele>739.164</ele>
        <time>2020-07-03T16:39:02Z</time>
      </trkpt>
      <trkpt lat="46.10513" lon="6.25394">
        <ele>738.354</ele>
        <time>2020-07-03T16:39:03Z</time>
      </trkpt>
      <trkpt lat="46.1052" lon="6.2539">
        <ele>737.55</ele>
        <time>2020-07-03T16:39:04Z</time>
      </trkpt>
      <trkpt lat="46.10525" lon="6.25387">
        <ele>736.987</ele>
        <time>2020-07-03T16:39:05Z</time>
      </trkpt>
      <trkpt lat="46.10532" lon="6.25382">
        <ele>736.431</ele>
        <time>2020-07-03T16:39:06Z</time>
      </trkpt>
      <trkpt lat="46.1054" lon="6.25379">
        <ele>735.861</ele>
        <time>2020-07-03T16:39:07Z</time>
      </trkpt>
      <trkpt lat="46.10547" lon="6.25378">
        <ele>735.207</ele>
        <time>2020-07-03T16:39:08Z</time>
      </trkpt>
      <trkpt lat="46.10552" lon="6.25377">
        <ele>734.608</ele>
        <time>2020-07-03T16:39:09Z</time>
      </trkpt>
      <trkpt lat="46.10561" lon="6.25375">
        <ele>734.078</ele>
        <time>2020-07-03T16:39:10Z</time>
      </trkpt>
      <trkpt lat="46.10568" lon="6.25372">
        <ele>733.325</ele>
        <time>2020-07-03T16:39:11Z</time>
      </trkpt>
      <trkpt lat="46.10576" lon="6.2537">
        <ele>732.843</ele>
        <time>2020-07-03T16:39:12Z</time>
      </trkpt>
      <trkpt lat="46.10584" lon="6.25369">
        <ele>732.212</ele>
        <time>2020-07-03T16:39:13Z</time>
      </trkpt>
      <trkpt lat="46.10592" lon="6.25369">
        <ele>731.563</ele>
        <time>2020-07-03T16:39:14Z</time>
      </trkpt>
      <trkpt lat="46.106" lon="6.2537">
        <ele>730.723</ele>
        <time>2020-07-03T16:39:15Z</time>
      </trkpt>
      <trkpt lat="46.10608" lon="6.25373">
        <ele>729.959</ele>
        <time>2020-07-03T16:39:16Z</time>
      </trkpt>
      <trkpt lat="46.10616" lon="6.25378">
        <ele>728.886</ele>
        <time>2020-07-03T16:39:17Z</time>
      </trkpt>
      <trkpt lat="46.10625" lon="6.25381">
        <ele>727.724</ele>
        <time>2020-07-03T16:39:18Z</time>
      </trkpt>
      <trkpt lat="46.10633" lon="6.25384">
        <ele>726.304</ele>
        <time>2020-07-03T16:39:19Z</time>
      </trkpt>
      <trkpt lat="46.10643" lon="6.25387">
        <ele>724.914</ele>
        <time>2020-07-03T16:39:20Z</time>
      </trkpt>
      <trkpt lat="46.10651" lon="6.25388">
        <ele>723.508</ele>
        <time>2020-07-03T16:39:21Z</time>
      </trkpt>
      <trkpt lat="46.1066" lon="6.25389">
        <ele>722.297</ele>
        <time>2020-07-03T16:39:22Z</time>
      </trkpt>
      <trkpt lat="46.10667" lon="6.2539">
        <ele>721.044</ele>
        <time>2020-07-03T16:39:23Z</time>
      </trkpt>
      <trkpt lat="46.10675" lon="6.25392">
        <ele>719.912</ele>
        <time>2020-07-03T16:39:24Z</time>
      </trkpt>
      <trkpt lat="46.10681" lon="6.25399">
        <ele>718.951</ele>
        <time>2020-07-03T16:39:25Z</time>
      </trkpt>
      <trkpt lat="46.10688" lon="6.25408">
        <ele>717.982</ele>
        <time>2020-07-03T16:39:26Z</time>
      </trkpt>
      <trkpt lat="46.10697" lon="6.25416">
        <ele>716.892</ele>
        <time>2020-07-03T16:39:27Z</time>
      </trkpt>
      <trkpt lat="46.10705" lon="6.25425">
        <ele>715.718</ele>
        <time>2020-07-03T16:39:28Z</time>
      </trkpt>
      <trkpt lat="46.10715" lon="6.25435">
        <ele>714.735</ele>
        <time>2020-07-03T16:39:29Z</time>
      </trkpt>
      <trkpt lat="46.10724" lon="6.25445">
        <ele>713.737</ele>
        <time>2020-07-03T16:39:30Z</time>
      </trkpt>
      <trkpt lat="46.10732" lon="6.25454">
        <ele>712.649</ele>
        <time>2020-07-03T16:39:31Z</time>
      </trkpt>
      <trkpt lat="46.1074" lon="6.25464">
        <ele>711.513</ele>
        <time>2020-07-03T16:39:32Z</time>
      </trkpt>
      <trkpt lat="46.10748" lon="6.25474">
        <ele>710.508</ele>
        <time>2020-07-03T16:39:33Z</time>
      </trkpt>
      <trkpt lat="46.10757" lon="6.25484">
        <ele>709.378</ele>
        <time>2020-07-03T16:39:34Z</time>
      </trkpt>
      <trkpt lat="46.10766" lon="6.25495">
        <ele>707.975</ele>
        <time>2020-07-03T16:39:35Z</time>
      </trkpt>
      <trkpt lat="46.10775" lon="6.25507">
        <ele>706.423</ele>
        <time>2020-07-03T16:39:36Z</time>
      </trkpt>
      <trkpt lat="46.10781" lon="6.25518">
        <ele>704.832</ele>
        <time>2020-07-03T16:39:37Z</time>
      </trkpt>
      <trkpt lat="46.10789" lon="6.25527">
        <ele>703.193</ele>
        <time>2020-07-03T16:39:38Z</time>
      </trkpt>
      <trkpt lat="46.10796" lon="6.25535">
        <ele>701.453</ele>
        <time>2020-07-03T16:39:39Z</time>
      </trkpt>
      <trkpt lat="46.10801" lon="6.25542">
        <ele>699.639</ele>
        <time>2020-07-03T16:39:40Z</time>
      </trkpt>
      <trkpt lat="46.10806" lon="6.25549">
        <ele>698.096</ele>
        <time>2020-07-03T16:39:41Z</time>
      </trkpt>
      <trkpt lat="46.1081" lon="6.25555">
        <ele>696.645</ele>
        <time>2020-07-03T16:39:42Z</time>
      </trkpt>
      <trkpt lat="46.10814" lon="6.25559">
        <ele>695.247</ele>
        <time>2020-07-03T16:39:43Z</time>
      </trkpt>
      <trkpt lat="46.10818" lon="6.25565">
        <ele>693.111</ele>
        <time>2020-07-03T16:39:45Z</time>
      </trkpt>
      <trkpt lat="46.10823" lon="6.25574">
        <ele>691.608</ele>
        <time>2020-07-03T16:39:47Z</time>
      </trkpt>
      <trkpt lat="46.10827" lon="6.25582">
        <ele>691.159</ele>
        <time>2020-07-03T16:39:48Z</time>
      </trkpt>
      <trkpt lat="46.10832" lon="6.2559">
        <ele>690.816</ele>
        <time>2020-07-03T16:39:49Z</time>
      </trkpt>
      <trkpt lat="46.10836" lon="6.25599">
        <ele>690.484</ele>
        <time>2020-07-03T16:39:50Z</time>
      </trkpt>
      <trkpt lat="46.10841" lon="6.25606">
        <ele>689.883</ele>
        <time>2020-07-03T16:39:51Z</time>
      </trkpt>
      <trkpt lat="46.10845" lon="6.25616">
        <ele>689.084</ele>
        <time>2020-07-03T16:39:52Z</time>
      </trkpt>
      <trkpt lat="46.10849" lon="6.25624">
        <ele>688.184</ele>
        <time>2020-07-03T16:39:53Z</time>
      </trkpt>
      <trkpt lat="46.10853" lon="6.25632">
        <ele>687.05</ele>
        <time>2020-07-03T16:39:54Z</time>
      </trkpt>
      <trkpt lat="46.10856" lon="6.25641">
        <ele>685.847</ele>
        <time>2020-07-03T16:39:55Z</time>
      </trkpt>
      <trkpt lat="46.10858" lon="6.25651">
        <ele>684.628</ele>
        <time>2020-07-03T16:39:56Z</time>
      </trkpt>
      <trkpt lat="46.1086" lon="6.25661">
        <ele>683.589</ele>
        <time>2020-07-03T16:39:57Z</time>
      </trkpt>
      <trkpt lat="46.1086" lon="6.2567">
        <ele>682.417</ele>
        <time>2020-07-03T16:39:58Z</time>
      </trkpt>
      <trkpt lat="46.10861" lon="6.25684">
        <ele>681.208</ele>
        <time>2020-07-03T16:39:59Z</time>
      </trkpt>
      <trkpt lat="46.10863" lon="6.25697">
        <ele>680.157</ele>
        <time>2020-07-03T16:40:00Z</time>
      </trkpt>
      <trkpt lat="46.10864" lon="6.25712">
        <ele>679.044</ele>
        <time>2020-07-03T16:40:01Z</time>
      </trkpt>
      <trkpt lat="46.10865" lon="6.25726">
        <ele>677.952</ele>
        <time>2020-07-03T16:40:02Z</time>
      </trkpt>
      <trkpt lat="46.10866" lon="6.25739">
        <ele>676.841</ele>
        <time>2020-07-03T16:40:03Z</time>
      </trkpt>
      <trkpt lat="46.10867" lon="6.25751">
        <ele>675.852</ele>
        <time>2020-07-03T16:40:04Z</time>
      </trkpt>
      <trkpt lat="46.1087" lon="6.25758">
        <ele>674.712</ele>
        <time>2020-07-03T16:40:05Z</time>
      </trkpt>
      <trkpt lat="46.10872" lon="6.25769">
        <ele>673.798</ele>
        <time>2020-07-03T16:40:06Z</time>
      </trkpt>
      <trkpt lat="46.10873" lon="6.2578">
        <ele>672.825</ele>
        <time>2020-07-03T16:40:07Z</time>
      </trkpt>
      <trkpt lat="46.10874" lon="6.25791">
        <ele>671.952</ele>
        <time>2020-07-03T16:40:08Z</time>
      </trkpt>
      <trkpt lat="46.10875" lon="6.25801">
        <ele>671.053</ele>
        <time>2020-07-03T16:40:09Z</time>
      </trkpt>
      <trkpt lat="46.10876" lon="6.25811">
        <ele>670.208</ele>
        <time>2020-07-03T16:40:10Z</time>
      </trkpt>
      <trkpt lat="46.10876" lon="6.25821">
        <ele>669.308</ele>
        <time>2020-07-03T16:40:11Z</time>
      </trkpt>
      <trkpt lat="46.10878" lon="6.25833">
        <ele>668.36</ele>
        <time>2020-07-03T16:40:12Z</time>
      </trkpt>
      <trkpt lat="46.10878" lon="6.25846">
        <ele>667.217</ele>
        <time>2020-07-03T16:40:13Z</time>
      </trkpt>
      <trkpt lat="46.10878" lon="6.25863">
        <ele>666.055</ele>
        <time>2020-07-03T16:40:14Z</time>
      </trkpt>
      <trkpt lat="46.10878" lon="6.25878">
        <ele>664.814</ele>
        <time>2020-07-03T16:40:15Z</time>
      </trkpt>
      <trkpt lat="46.10875" lon="6.25914">
        <ele>662.855</ele>
        <time>2020-07-03T16:40:16Z</time>
      </trkpt>
      <trkpt lat="46.10874" lon="6.25933">
        <ele>660.825</ele>
        <time>2020-07-03T16:40:17Z</time>
      </trkpt>
      <trkpt lat="46.1087" lon="6.25952">
        <ele>658.421</ele>
        <time>2020-07-03T16:40:18Z</time>
      </trkpt>
      <trkpt lat="46.10867" lon="6.25969">
        <ele>655.858</ele>
        <time>2020-07-03T16:40:19Z</time>
      </trkpt>
      <trkpt lat="46.10863" lon="6.25986">
        <ele>653.217</ele>
        <time>2020-07-03T16:40:20Z</time>
      </trkpt>
      <trkpt lat="46.1086" lon="6.26">
        <ele>651.387</ele>
        <time>2020-07-03T16:40:21Z</time>
      </trkpt>
      <trkpt lat="46.10862" lon="6.26012">
        <ele>649.315</ele>
        <time>2020-07-03T16:40:22Z</time>
      </trkpt>
      <trkpt lat="46.10866" lon="6.26024">
        <ele>647.808</ele>
        <time>2020-07-03T16:40:23Z</time>
      </trkpt>
      <trkpt lat="46.1087" lon="6.26036">
        <ele>646.796</ele>
        <time>2020-07-03T16:40:24Z</time>
      </trkpt>
      <trkpt lat="46.10874" lon="6.26046">
        <ele>645.523</ele>
        <time>2020-07-03T16:40:25Z</time>
      </trkpt>
      <trkpt lat="46.10878" lon="6.26055">
        <ele>644.111</ele>
        <time>2020-07-03T16:40:26Z</time>
      </trkpt>
      <trkpt lat="46.10881" lon="6.26061">
        <ele>642.88</ele>
        <time>2020-07-03T16:40:27Z</time>
      </trkpt>
      <trkpt lat="46.10889" lon="6.26058">
        <ele>641.431</ele>
        <time>2020-07-03T16:40:28Z</time>
      </trkpt>
      <trkpt lat="46.10898" lon="6.26056">
        <ele>640.171</ele>
        <time>2020-07-03T16:40:29Z</time>
      </trkpt>
      <trkpt lat="46.10905" lon="6.26052">
        <ele>638.867</ele>
        <time>2020-07-03T16:40:30Z</time>
      </trkpt>
      <trkpt lat="46.10912" lon="6.26048">
        <ele>637.664</ele>
        <time>2020-07-03T16:40:31Z</time>
      </trkpt>
      <trkpt lat="46.1092" lon="6.26045">
        <ele>636.532</ele>
        <time>2020-07-03T16:40:32Z</time>
      </trkpt>
      <trkpt lat="46.10929" lon="6.2604">
        <ele>635.592</ele>
        <time>2020-07-03T16:40:33Z</time>
      </trkpt>
      <trkpt lat="46.10938" lon="6.26036">
        <ele>634.511</ele>
        <time>2020-07-03T16:40:34Z</time>
      </trkpt>
      <trkpt lat="46.10948" lon="6.26032">
        <ele>633.608</ele>
        <time>2020-07-03T16:40:35Z</time>
      </trkpt>
      <trkpt lat="46.10956" lon="6.26031">
        <ele>632.728</ele>
        <time>2020-07-03T16:40:36Z</time>
      </trkpt>
      <trkpt lat="46.10963" lon="6.26036">
        <ele>631.975</ele>
        <time>2020-07-03T16:40:37Z</time>
      </trkpt>
      <trkpt lat="46.10969" lon="6.26044">
        <ele>631.093</ele>
        <time>2020-07-03T16:40:38Z</time>
      </trkpt>
      <trkpt lat="46.10975" lon="6.26055">
        <ele>630.272</ele>
        <time>2020-07-03T16:40:39Z</time>
      </trkpt>
      <trkpt lat="46.1098" lon="6.26066">
        <ele>629.363</ele>
        <time>2020-07-03T16:40:40Z</time>
      </trkpt>
      <trkpt lat="46.10985" lon="6.26076">
        <ele>628.453</ele>
        <time>2020-07-03T16:40:41Z</time>
      </trkpt>
      <trkpt lat="46.1099" lon="6.26086">
        <ele>627.549</ele>
        <time>2020-07-03T16:40:42Z</time>
      </trkpt>
      <trkpt lat="46.10994" lon="6.26097">
        <ele>626.756</ele>
        <time>2020-07-03T16:40:43Z</time>
      </trkpt>
      <trkpt lat="46.10996" lon="6.26109">
        <ele>625.995</ele>
        <time>2020-07-03T16:40:44Z</time>
      </trkpt>
      <trkpt lat="46.10994" lon="6.26121">
        <ele>625.249</ele>
        <time>2020-07-03T16:40:45Z</time>
      </trkpt>
      <trkpt lat="46.1099" lon="6.26131">
        <ele>624.523</ele>
        <time>2020-07-03T16:40:46Z</time>
      </trkpt>
      <trkpt lat="46.10984" lon="6.2614">
        <ele>623.808</ele>
        <time>2020-07-03T16:40:47Z</time>
      </trkpt>
      <trkpt lat="46.10978" lon="6.26149">
        <ele>623.144</ele>
        <time>2020-07-03T16:40:48Z</time>
      </trkpt>
      <trkpt lat="46.10972" lon="6.26161">
        <ele>622.451</ele>
        <time>2020-07-03T16:40:49Z</time>
      </trkpt>
      <trkpt lat="46.10966" lon="6.26171">
        <ele>621.679</ele>
        <time>2020-07-03T16:40:50Z</time>
      </trkpt>
      <trkpt lat="46.1096" lon="6.26182">
        <ele>620.838</ele>
        <time>2020-07-03T16:40:51Z</time>
      </trkpt>
      <trkpt lat="46.10955" lon="6.26193">
        <ele>620.049</ele>
        <time>2020-07-03T16:40:52Z</time>
      </trkpt>
      <trkpt lat="46.10951" lon="6.26204">
        <ele>619.259</ele>
        <time>2020-07-03T16:40:53Z</time>
      </trkpt>
      <trkpt lat="46.10949" lon="6.26216">
        <ele>618.585</ele>
        <time>2020-07-03T16:40:54Z</time>
      </trkpt>
      <trkpt lat="46.10949" lon="6.2623">
        <ele>617.972</ele>
        <time>2020-07-03T16:40:55Z</time>
      </trkpt>
      <trkpt lat="46.10949" lon="6.26244">
        <ele>617.264</ele>
        <time>2020-07-03T16:40:56Z</time>
      </trkpt>
      <trkpt lat="46.10948" lon="6.26257">
        <ele>616.506</ele>
        <time>2020-07-03T16:40:57Z</time>
      </trkpt>
      <trkpt lat="46.10945" lon="6.26268">
        <ele>615.816</ele>
        <time>2020-07-03T16:40:58Z</time>
      </trkpt>
      <trkpt lat="46.1094" lon="6.26278">
        <ele>615.008</ele>
        <time>2020-07-03T16:40:59Z</time>
      </trkpt>
      <trkpt lat="46.10934" lon="6.26285">
        <ele>614.251</ele>
        <time>2020-07-03T16:41:00Z</time>
      </trkpt>
      <trkpt lat="46.10928" lon="6.26293">
        <ele>613.658</ele>
        <time>2020-07-03T16:41:01Z</time>
      </trkpt>
      <trkpt lat="46.10922" lon="6.26301">
        <ele>613.066</ele>
        <time>2020-07-03T16:41:02Z</time>
      </trkpt>
      <trkpt lat="46.10917" lon="6.26309">
        <ele>612.485</ele>
        <time>2020-07-03T16:41:03Z</time>
      </trkpt>
      <trkpt lat="46.10911" lon="6.26316">
        <ele>611.996</ele>
        <time>2020-07-03T16:41:04Z</time>
      </trkpt>
      <trkpt lat="46.10904" lon="6.26326">
        <ele>611.386</ele>
        <time>2020-07-03T16:41:05Z</time>
      </trkpt>
      <trkpt lat="46.10899" lon="6.26334">
        <ele>610.762</ele>
        <time>2020-07-03T16:41:06Z</time>
      </trkpt>
      <trkpt lat="46.10893" lon="6.26343">
        <ele>610.269</ele>
        <time>2020-07-03T16:41:07Z</time>
      </trkpt>
      <trkpt lat="46.10888" lon="6.2635">
        <ele>609.612</ele>
        <time>2020-07-03T16:41:08Z</time>
      </trkpt>
      <trkpt lat="46.10883" lon="6.26358">
        <ele>609.032</ele>
        <time>2020-07-03T16:41:09Z</time>
      </trkpt>
      <trkpt lat="46.10878" lon="6.26366">
        <ele>608.705</ele>
        <time>2020-07-03T16:41:10Z</time>
      </trkpt>
      <trkpt lat="46.10872" lon="6.26373">
        <ele>608.208</ele>
        <time>2020-07-03T16:41:11Z</time>
      </trkpt>
      <trkpt lat="46.10868" lon="6.26381">
        <ele>607.786</ele>
        <time>2020-07-03T16:41:12Z</time>
      </trkpt>
      <trkpt lat="46.10863" lon="6.26388">
        <ele>607.233</ele>
        <time>2020-07-03T16:41:13Z</time>
      </trkpt>
      <trkpt lat="46.1086" lon="6.26394">
        <ele>606.781</ele>
        <time>2020-07-03T16:41:14Z</time>
      </trkpt>
      <trkpt lat="46.10856" lon="6.26399">
        <ele>606.08</ele>
        <time>2020-07-03T16:41:15Z</time>
      </trkpt>
      <trkpt lat="46.10861" lon="6.26407">
        <ele>604.421</ele>
        <time>2020-07-03T16:41:38Z</time>
      </trkpt>
      <trkpt lat="46.10863" lon="6.26415">
        <ele>604.421</ele>
        <time>2020-07-03T16:41:40Z</time>
      </trkpt>
      <trkpt lat="46.10864" lon="6.26422">
        <ele>604.227</ele>
        <time>2020-07-03T16:41:42Z</time>
      </trkpt>
      <trkpt lat="46.10866" lon="6.26429">
        <ele>603.344</ele>
        <time>2020-07-03T16:41:45Z</time>
      </trkpt>
      <trkpt lat="46.10866" lon="6.26436">
        <ele>602.726</ele>
        <time>2020-07-03T16:41:47Z</time>
      </trkpt>
      <trkpt lat="46.10866" lon="6.26446">
        <ele>602.347</ele>
        <time>2020-07-03T16:41:49Z</time>
      </trkpt>
      <trkpt lat="46.10864" lon="6.26457">
        <ele>602.011</ele>
        <time>2020-07-03T16:41:51Z</time>
      </trkpt>
      <trkpt lat="46.10861" lon="6.26463">
        <ele>601.808</ele>
        <time>2020-07-03T16:41:52Z</time>
      </trkpt>
      <trkpt lat="46.10859" lon="6.26468">
        <ele>601.537</ele>
        <time>2020-07-03T16:41:53Z</time>
      </trkpt>
      <trkpt lat="46.10856" lon="6.26477">
        <ele>601.244</ele>
        <time>2020-07-03T16:41:54Z</time>
      </trkpt>
      <trkpt lat="46.10853" lon="6.26485">
        <ele>600.872</ele>
        <time>2020-07-03T16:41:55Z</time>
      </trkpt>
      <trkpt lat="46.10849" lon="6.26492">
        <ele>600.381</ele>
        <time>2020-07-03T16:41:56Z</time>
      </trkpt>
      <trkpt lat="46.10846" lon="6.265">
        <ele>599.812</ele>
        <time>2020-07-03T16:41:57Z</time>
      </trkpt>
      <trkpt lat="46.10844" lon="6.26508">
        <ele>599.362</ele>
        <time>2020-07-03T16:41:58Z</time>
      </trkpt>
      <trkpt lat="46.10841" lon="6.26514">
        <ele>598.888</ele>
        <time>2020-07-03T16:41:59Z</time>
      </trkpt>
      <trkpt lat="46.10838" lon="6.26522">
        <ele>598.355</ele>
        <time>2020-07-03T16:42:00Z</time>
      </trkpt>
      <trkpt lat="46.10836" lon="6.26528">
        <ele>597.959</ele>
        <time>2020-07-03T16:42:01Z</time>
      </trkpt>
      <trkpt lat="46.10833" lon="6.26535">
        <ele>597.603</ele>
        <time>2020-07-03T16:42:02Z</time>
      </trkpt>
      <trkpt lat="46.10831" lon="6.26542">
        <ele>597.323</ele>
        <time>2020-07-03T16:42:03Z</time>
      </trkpt>
      <trkpt lat="46.10827" lon="6.26549">
        <ele>597.008</ele>
        <time>2020-07-03T16:42:04Z</time>
      </trkpt>
      <trkpt lat="46.10823" lon="6.26556">
        <ele>596.88</ele>
        <time>2020-07-03T16:42:05Z</time>
      </trkpt>
      <trkpt lat="46.1082" lon="6.26563">
        <ele>596.687</ele>
        <time>2020-07-03T16:42:06Z</time>
      </trkpt>
      <trkpt lat="46.10817" lon="6.2657">
        <ele>596.445</ele>
        <time>2020-07-03T16:42:07Z</time>
      </trkpt>
      <trkpt lat="46.10814" lon="6.26577">
        <ele>596.294</ele>
        <time>2020-07-03T16:42:08Z</time>
      </trkpt>
      <trkpt lat="46.10811" lon="6.26583">
        <ele>596.025</ele>
        <time>2020-07-03T16:42:09Z</time>
      </trkpt>
      <trkpt lat="46.10808" lon="6.26589">
        <ele>595.845</ele>
        <time>2020-07-03T16:42:10Z</time>
      </trkpt>
      <trkpt lat="46.10805" lon="6.26597">
        <ele>595.451</ele>
        <time>2020-07-03T16:42:12Z</time>
      </trkpt>
      <trkpt lat="46.10801" lon="6.26602">
        <ele>595.038</ele>
        <time>2020-07-03T16:42:15Z</time>
      </trkpt>
      <trkpt lat="46.10796" lon="6.26607">
        <ele>594.938</ele>
        <time>2020-07-03T16:42:17Z</time>
      </trkpt>
      <trkpt lat="46.10792" lon="6.26611">
        <ele>594.87</ele>
        <time>2020-07-03T16:42:19Z</time>
      </trkpt>
      <trkpt lat="46.10789" lon="6.26618">
        <ele>594.717</ele>
        <time>2020-07-03T16:42:21Z</time>
      </trkpt>
      <trkpt lat="46.10789" lon="6.26625">
        <ele>594.608</ele>
        <time>2020-07-03T16:42:22Z</time>
      </trkpt>
      <trkpt lat="46.1079" lon="6.26632">
        <ele>594.578</ele>
        <time>2020-07-03T16:42:23Z</time>
      </trkpt>
      <trkpt lat="46.10795" lon="6.26642">
        <ele>594.415</ele>
        <time>2020-07-03T16:42:24Z</time>
      </trkpt>
      <trkpt lat="46.10804" lon="6.26653">
        <ele>594.393</ele>
        <time>2020-07-03T16:42:25Z</time>
      </trkpt>
      <trkpt lat="46.10813" lon="6.26664">
        <ele>594.222</ele>
        <time>2020-07-03T16:42:26Z</time>
      </trkpt>
      <trkpt lat="46.10822" lon="6.26678">
        <ele>594.273</ele>
        <time>2020-07-03T16:42:27Z</time>
      </trkpt>
      <trkpt lat="46.1083" lon="6.2669">
        <ele>594.113</ele>
        <time>2020-07-03T16:42:28Z</time>
      </trkpt>
      <trkpt lat="46.10836" lon="6.26703">
        <ele>593.869</ele>
        <time>2020-07-03T16:42:29Z</time>
      </trkpt>
      <trkpt lat="46.10842" lon="6.26713">
        <ele>593.366</ele>
        <time>2020-07-03T16:42:30Z</time>
      </trkpt>
      <trkpt lat="46.10853" lon="6.26718">
        <ele>592.449</ele>
        <time>2020-07-03T16:42:31Z</time>
      </trkpt>
      <trkpt lat="46.10865" lon="6.26724">
        <ele>591.302</ele>
        <time>2020-07-03T16:42:32Z</time>
      </trkpt>
      <trkpt lat="46.10877" lon="6.26732">
        <ele>590.122</ele>
        <time>2020-07-03T16:42:33Z</time>
      </trkpt>
      <trkpt lat="46.10887" lon="6.26742">
        <ele>588.908</ele>
        <time>2020-07-03T16:42:34Z</time>
      </trkpt>
      <trkpt lat="46.10897" lon="6.26755">
        <ele>587.679</ele>
        <time>2020-07-03T16:42:35Z</time>
      </trkpt>
      <trkpt lat="46.10904" lon="6.26771">
        <ele>586.276</ele>
        <time>2020-07-03T16:42:36Z</time>
      </trkpt>
      <trkpt lat="46.1091" lon="6.26793">
        <ele>584.874</ele>
        <time>2020-07-03T16:42:37Z</time>
      </trkpt>
      <trkpt lat="46.10917" lon="6.26816">
        <ele>583.283</ele>
        <time>2020-07-03T16:42:38Z</time>
      </trkpt>
      <trkpt lat="46.10923" lon="6.26839">
        <ele>582.064</ele>
        <time>2020-07-03T16:42:39Z</time>
      </trkpt>
      <trkpt lat="46.10927" lon="6.26858">
        <ele>581.024</ele>
        <time>2020-07-03T16:42:40Z</time>
      </trkpt>
      <trkpt lat="46.10934" lon="6.26877">
        <ele>579.95</ele>
        <time>2020-07-03T16:42:41Z</time>
      </trkpt>
      <trkpt lat="46.10943" lon="6.26896">
        <ele>579.477</ele>
        <time>2020-07-03T16:42:42Z</time>
      </trkpt>
      <trkpt lat="46.10952" lon="6.26913">
        <ele>578.953</ele>
        <time>2020-07-03T16:42:43Z</time>
      </trkpt>
      <trkpt lat="46.10962" lon="6.26931">
        <ele>578.304</ele>
        <time>2020-07-03T16:42:44Z</time>
      </trkpt>
      <trkpt lat="46.10971" lon="6.26951">
        <ele>577.414</ele>
        <time>2020-07-03T16:42:45Z</time>
      </trkpt>
      <trkpt lat="46.1098" lon="6.26971">
        <ele>576.708</ele>
        <time>2020-07-03T16:42:46Z</time>
      </trkpt>
      <trkpt lat="46.10988" lon="6.26992">
        <ele>575.31</ele>
        <time>2020-07-03T16:42:47Z</time>
      </trkpt>
      <trkpt lat="46.10994" lon="6.27013">
        <ele>574.117</ele>
        <time>2020-07-03T16:42:48Z</time>
      </trkpt>
      <trkpt lat="46.10997" lon="6.27033">
        <ele>572.795</ele>
        <time>2020-07-03T16:42:49Z</time>
      </trkpt>
      <trkpt lat="46.10997" lon="6.27056">
        <ele>571.534</ele>
        <time>2020-07-03T16:42:50Z</time>
      </trkpt>
      <trkpt lat="46.10995" lon="6.27081">
        <ele>570.565</ele>
        <time>2020-07-03T16:42:51Z</time>
      </trkpt>
      <trkpt lat="46.10991" lon="6.27113">
        <ele>570.385</ele>
        <time>2020-07-03T16:42:52Z</time>
      </trkpt>
      <trkpt lat="46.10987" lon="6.2714">
        <ele>569.821</ele>
        <time>2020-07-03T16:42:53Z</time>
      </trkpt>
      <trkpt lat="46.10986" lon="6.27166">
        <ele>569.428</ele>
        <time>2020-07-03T16:42:54Z</time>
      </trkpt>
      <trkpt lat="46.10988" lon="6.27192">
        <ele>569.071</ele>
        <time>2020-07-03T16:42:55Z</time>
      </trkpt>
      <trkpt lat="46.10992" lon="6.27213">
        <ele>568.541</ele>
        <time>2020-07-03T16:42:56Z</time>
      </trkpt>
      <trkpt lat="46.10999" lon="6.27235">
        <ele>567.315</ele>
        <time>2020-07-03T16:42:57Z</time>
      </trkpt>
      <trkpt lat="46.11005" lon="6.27254">
        <ele>566.608</ele>
        <time>2020-07-03T16:42:58Z</time>
      </trkpt>
      <trkpt lat="46.1101" lon="6.27268">
        <ele>565.992</ele>
        <time>2020-07-03T16:42:59Z</time>
      </trkpt>
      <trkpt lat="46.11012" lon="6.27277">
        <ele>565.069</ele>
        <time>2020-07-03T16:43:00Z</time>
      </trkpt>
      <trkpt lat="46.11016" lon="6.27289">
        <ele>564.037</ele>
        <time>2020-07-03T16:43:01Z</time>
      </trkpt>
      <trkpt lat="46.11018" lon="6.273">
        <ele>563.226</ele>
        <time>2020-07-03T16:43:02Z</time>
      </trkpt>
      <trkpt lat="46.11021" lon="6.2731">
        <ele>562.397</ele>
        <time>2020-07-03T16:43:03Z</time>
      </trkpt>
      <trkpt lat="46.11024" lon="6.27321">
        <ele>561.387</ele>
        <time>2020-07-03T16:43:04Z</time>
      </trkpt>
      <trkpt lat="46.11026" lon="6.27331">
        <ele>560.583</ele>
        <time>2020-07-03T16:43:05Z</time>
      </trkpt>
      <trkpt lat="46.11028" lon="6.27341">
        <ele>559.98</ele>
        <time>2020-07-03T16:43:06Z</time>
      </trkpt>
      <trkpt lat="46.11029" lon="6.27352">
        <ele>559.291</ele>
        <time>2020-07-03T16:43:07Z</time>
      </trkpt>
      <trkpt lat="46.11028" lon="6.27363">
        <ele>558.681</ele>
        <time>2020-07-03T16:43:08Z</time>
      </trkpt>
      <trkpt lat="46.11025" lon="6.2737">
        <ele>558.019</ele>
        <time>2020-07-03T16:43:09Z</time>
      </trkpt>
      <trkpt lat="46.11025" lon="6.27376">
        <ele>557.508</ele>
        <time>2020-07-03T16:43:10Z</time>
      </trkpt>
      <trkpt lat="46.11028" lon="6.27381">
        <ele>555.294</ele>
        <time>2020-07-03T16:43:35Z</time>
      </trkpt>
      <trkpt lat="46.11032" lon="6.27372">
        <ele>555.561</ele>
        <time>2020-07-03T16:43:39Z</time>
      </trkpt>
      <trkpt lat="46.1103" lon="6.2736">
        <ele>555.689</ele>
        <time>2020-07-03T16:43:40Z</time>
      </trkpt>
      <trkpt lat="46.11027" lon="6.27346">
        <ele>555.888</ele>
        <time>2020-07-03T16:43:41Z</time>
      </trkpt>
      <trkpt lat="46.11025" lon="6.2733">
        <ele>556.299</ele>
        <time>2020-07-03T16:43:42Z</time>
      </trkpt>
      <trkpt lat="46.11022" lon="6.27314">
        <ele>556.629</ele>
        <time>2020-07-03T16:43:43Z</time>
      </trkpt>
      <trkpt lat="46.1102" lon="6.27296">
        <ele>557.265</ele>
        <time>2020-07-03T16:43:44Z</time>
      </trkpt>
      <trkpt lat="46.11016" lon="6.27281">
        <ele>558.012</ele>
        <time>2020-07-03T16:43:45Z</time>
      </trkpt>
      <trkpt lat="46.11013" lon="6.27273">
        <ele>558.732</ele>
        <time>2020-07-03T16:43:46Z</time>
      </trkpt>
      <trkpt lat="46.11012" lon="6.27266">
        <ele>559.892</ele>
        <time>2020-07-03T16:43:48Z</time>
      </trkpt>
      <trkpt lat="46.11007" lon="6.27264">
        <ele>560.711</ele>
        <time>2020-07-03T16:44:01Z</time>
      </trkpt>
      <trkpt lat="46.11007" lon="6.27272">
        <ele>560.608</ele>
        <time>2020-07-03T16:44:04Z</time>
      </trkpt>
      <trkpt lat="46.1101" lon="6.27284">
        <ele>560.418</ele>
        <time>2020-07-03T16:44:06Z</time>
      </trkpt>
      <trkpt lat="46.11013" lon="6.2729">
        <ele>560.365</ele>
        <time>2020-07-03T16:44:07Z</time>
      </trkpt>
      <trkpt lat="46.11017" lon="6.27301">
        <ele>560.163</ele>
        <time>2020-07-03T16:44:08Z</time>
      </trkpt>
      <trkpt lat="46.1102" lon="6.27311">
        <ele>560.062</ele>
        <time>2020-07-03T16:44:09Z</time>
      </trkpt>
      <trkpt lat="46.11024" lon="6.27327">
        <ele>559.993</ele>
        <time>2020-07-03T16:44:10Z</time>
      </trkpt>
      <trkpt lat="46.11025" lon="6.27348">
        <ele>559.813</ele>
        <time>2020-07-03T16:44:11Z</time>
      </trkpt>
      <trkpt lat="46.11023" lon="6.27374">
        <ele>559.669</ele>
        <time>2020-07-03T16:44:12Z</time>
      </trkpt>
      <trkpt lat="46.11021" lon="6.27399">
        <ele>559.586</ele>
        <time>2020-07-03T16:44:13Z</time>
      </trkpt>
      <trkpt lat="46.11014" lon="6.2743">
        <ele>559.391</ele>
        <time>2020-07-03T16:44:14Z</time>
      </trkpt>
      <trkpt lat="46.11008" lon="6.27453">
        <ele>559.281</ele>
        <time>2020-07-03T16:44:15Z</time>
      </trkpt>
      <trkpt lat="46.11004" lon="6.27473">
        <ele>558.819</ele>
        <time>2020-07-03T16:44:16Z</time>
      </trkpt>
      <trkpt lat="46.11002" lon="6.27491">
        <ele>558.608</ele>
        <time>2020-07-03T16:44:17Z</time>
      </trkpt>
      <trkpt lat="46.11003" lon="6.27506">
        <ele>558.584</ele>
        <time>2020-07-03T16:44:18Z</time>
      </trkpt>
      <trkpt lat="46.11004" lon="6.27517">
        <ele>558.411</ele>
        <time>2020-07-03T16:44:19Z</time>
      </trkpt>
      <trkpt lat="46.11005" lon="6.27525">
        <ele>558.789</ele>
        <time>2020-07-03T16:44:21Z</time>
      </trkpt>
      <trkpt lat="46.11007" lon="6.27531">
        <ele>558.578</ele>
        <time>2020-07-03T16:44:44Z</time>
      </trkpt>
      <trkpt lat="46.11016" lon="6.27533">
        <ele>558.519</ele>
        <time>2020-07-03T16:44:52Z</time>
      </trkpt>
      <trkpt lat="46.11027" lon="6.27533">
        <ele>558.649</ele>
        <time>2020-07-03T16:44:53Z</time>
      </trkpt>
      <trkpt lat="46.11041" lon="6.27531">
        <ele>558.745</ele>
        <time>2020-07-03T16:44:54Z</time>
      </trkpt>
      <trkpt lat="46.11057" lon="6.27528">
        <ele>559.042</ele>
        <time>2020-07-03T16:44:55Z</time>
      </trkpt>
      <trkpt lat="46.11077" lon="6.27525">
        <ele>559.593</ele>
        <time>2020-07-03T16:44:56Z</time>
      </trkpt>
      <trkpt lat="46.11094" lon="6.27521">
        <ele>560.365</ele>
        <time>2020-07-03T16:44:57Z</time>
      </trkpt>
      <trkpt lat="46.11109" lon="6.27515">
        <ele>560.921</ele>
        <time>2020-07-03T16:44:58Z</time>
      </trkpt>
      <trkpt lat="46.11122" lon="6.27509">
        <ele>561.208</ele>
        <time>2020-07-03T16:44:59Z</time>
      </trkpt>
      <trkpt lat="46.11135" lon="6.27502">
        <ele>561.494</ele>
        <time>2020-07-03T16:45:00Z</time>
      </trkpt>
      <trkpt lat="46.11148" lon="6.27494">
        <ele>561.761</ele>
        <time>2020-07-03T16:45:01Z</time>
      </trkpt>
      <trkpt lat="46.1116" lon="6.27486">
        <ele>561.789</ele>
        <time>2020-07-03T16:45:02Z</time>
      </trkpt>
      <trkpt lat="46.11171" lon="6.27476">
        <ele>562.018</ele>
        <time>2020-07-03T16:45:03Z</time>
      </trkpt>
      <trkpt lat="46.11183" lon="6.27465">
        <ele>562.659</ele>
        <time>2020-07-03T16:45:04Z</time>
      </trkpt>
      <trkpt lat="46.11194" lon="6.27455">
        <ele>562.979</ele>
        <time>2020-07-03T16:45:05Z</time>
      </trkpt>
      <trkpt lat="46.11204" lon="6.27445">
        <ele>563.115</ele>
        <time>2020-07-03T16:45:06Z</time>
      </trkpt>
      <trkpt lat="46.11214" lon="6.27435">
        <ele>563.272</ele>
        <time>2020-07-03T16:45:07Z</time>
      </trkpt>
      <trkpt lat="46.11223" lon="6.27426">
        <ele>563.265</ele>
        <time>2020-07-03T16:45:08Z</time>
      </trkpt>
      <trkpt lat="46.11233" lon="6.27416">
        <ele>562.968</ele>
        <time>2020-07-03T16:45:09Z</time>
      </trkpt>
      <trkpt lat="46.11243" lon="6.27408">
        <ele>562.714</ele>
        <time>2020-07-03T16:45:10Z</time>
      </trkpt>
      <trkpt lat="46.11252" lon="6.27399">
        <ele>562.408</ele>
        <time>2020-07-03T16:45:11Z</time>
      </trkpt>
      <trkpt lat="46.11262" lon="6.27389">
        <ele>562.171</ele>
        <time>2020-07-03T16:45:12Z</time>
      </trkpt>
      <trkpt lat="46.11273" lon="6.27381">
        <ele>561.898</ele>
        <time>2020-07-03T16:45:13Z</time>
      </trkpt>
      <trkpt lat="46.11287" lon="6.27372">
        <ele>561.766</ele>
        <time>2020-07-03T16:45:14Z</time>
      </trkpt>
      <trkpt lat="46.11299" lon="6.27364">
        <ele>561.525</ele>
        <time>2020-07-03T16:45:15Z</time>
      </trkpt>
      <trkpt lat="46.11311" lon="6.27358">
        <ele>561.596</ele>
        <time>2020-07-03T16:45:16Z</time>
      </trkpt>
      <trkpt lat="46.11323" lon="6.27354">
        <ele>561.466</ele>
        <time>2020-07-03T16:45:17Z</time>
      </trkpt>
      <trkpt lat="46.11335" lon="6.27348">
        <ele>561.272</ele>
        <time>2020-07-03T16:45:18Z</time>
      </trkpt>
      <trkpt lat="46.11348" lon="6.27341">
        <ele>561.129</ele>
        <time>2020-07-03T16:45:19Z</time>
      </trkpt>
      <trkpt lat="46.11361" lon="6.27334">
        <ele>560.993</ele>
        <time>2020-07-03T16:45:20Z</time>
      </trkpt>
      <trkpt lat="46.11373" lon="6.27328">
        <ele>560.565</ele>
        <time>2020-07-03T16:45:21Z</time>
      </trkpt>
      <trkpt lat="46.11385" lon="6.27324">
        <ele>559.821</ele>
        <time>2020-07-03T16:45:22Z</time>
      </trkpt>
      <trkpt lat="46.11396" lon="6.27318">
        <ele>559.508</ele>
        <time>2020-07-03T16:45:23Z</time>
      </trkpt>
      <trkpt lat="46.11407" lon="6.27313">
        <ele>559.054</ele>
        <time>2020-07-03T16:45:24Z</time>
      </trkpt>
      <trkpt lat="46.11418" lon="6.27308">
        <ele>558.721</ele>
        <time>2020-07-03T16:45:25Z</time>
      </trkpt>
      <trkpt lat="46.11429" lon="6.27303">
        <ele>558.359</ele>
        <time>2020-07-03T16:45:26Z</time>
      </trkpt>
      <trkpt lat="46.11441" lon="6.27297">
        <ele>557.998</ele>
        <time>2020-07-03T16:45:27Z</time>
      </trkpt>
      <trkpt lat="46.11455" lon="6.27291">
        <ele>557.839</ele>
        <time>2020-07-03T16:45:28Z</time>
      </trkpt>
      <trkpt lat="46.1147" lon="6.27286">
        <ele>557.619</ele>
        <time>2020-07-03T16:45:29Z</time>
      </trkpt>
      <trkpt lat="46.11483" lon="6.27281">
        <ele>557.215</ele>
        <time>2020-07-03T16:45:30Z</time>
      </trkpt>
      <trkpt lat="46.11496" lon="6.27274">
        <ele>557.042</ele>
        <time>2020-07-03T16:45:31Z</time>
      </trkpt>
      <trkpt lat="46.11509" lon="6.27268">
        <ele>556.842</ele>
        <time>2020-07-03T16:45:32Z</time>
      </trkpt>
      <trkpt lat="46.11522" lon="6.27262">
        <ele>556.422</ele>
        <time>2020-07-03T16:45:33Z</time>
      </trkpt>
      <trkpt lat="46.11536" lon="6.27257">
        <ele>556.414</ele>
        <time>2020-07-03T16:45:34Z</time>
      </trkpt>
      <trkpt lat="46.11552" lon="6.27252">
        <ele>556.408</ele>
        <time>2020-07-03T16:45:35Z</time>
      </trkpt>
      <trkpt lat="46.11568" lon="6.27248">
        <ele>556.499</ele>
        <time>2020-07-03T16:45:36Z</time>
      </trkpt>
      <trkpt lat="46.11583" lon="6.27244">
        <ele>556.576</ele>
        <time>2020-07-03T16:45:37Z</time>
      </trkpt>
      <trkpt lat="46.11597" lon="6.2724">
        <ele>556.574</ele>
        <time>2020-07-03T16:45:38Z</time>
      </trkpt>
      <trkpt lat="46.11611" lon="6.27236">
        <ele>555.923</ele>
        <time>2020-07-03T16:45:39Z</time>
      </trkpt>
      <trkpt lat="46.11625" lon="6.27232">
        <ele>555.474</ele>
        <time>2020-07-03T16:45:40Z</time>
      </trkpt>
      <trkpt lat="46.11639" lon="6.27228">
        <ele>554.774</ele>
        <time>2020-07-03T16:45:41Z</time>
      </trkpt>
      <trkpt lat="46.11654" lon="6.27224">
        <ele>553.64</ele>
        <time>2020-07-03T16:45:42Z</time>
      </trkpt>
      <trkpt lat="46.11668" lon="6.27222">
        <ele>552.957</ele>
        <time>2020-07-03T16:45:43Z</time>
      </trkpt>
      <trkpt lat="46.11682" lon="6.27218">
        <ele>552.377</ele>
        <time>2020-07-03T16:45:44Z</time>
      </trkpt>
      <trkpt lat="46.11697" lon="6.27215">
        <ele>551.561</ele>
        <time>2020-07-03T16:45:45Z</time>
      </trkpt>
      <trkpt lat="46.11711" lon="6.27211">
        <ele>551.127</ele>
        <time>2020-07-03T16:45:46Z</time>
      </trkpt>
      <trkpt lat="46.11726" lon="6.27207">
        <ele>550.908</ele>
        <time>2020-07-03T16:45:47Z</time>
      </trkpt>
      <trkpt lat="46.11741" lon="6.27203">
        <ele>550.832</ele>
        <time>2020-07-03T16:45:48Z</time>
      </trkpt>
      <trkpt lat="46.11758" lon="6.27199">
        <ele>550.779</ele>
        <time>2020-07-03T16:45:49Z</time>
      </trkpt>
      <trkpt lat="46.11775" lon="6.27194">
        <ele>550.747</ele>
        <time>2020-07-03T16:45:50Z</time>
      </trkpt>
      <trkpt lat="46.11792" lon="6.27189">
        <ele>550.586</ele>
        <time>2020-07-03T16:45:51Z</time>
      </trkpt>
      <trkpt lat="46.11808" lon="6.27185">
        <ele>550.197</ele>
        <time>2020-07-03T16:45:52Z</time>
      </trkpt>
      <trkpt lat="46.11824" lon="6.27181">
        <ele>549.327</ele>
        <time>2020-07-03T16:45:53Z</time>
      </trkpt>
      <trkpt lat="46.11839" lon="6.27175">
        <ele>548.473</ele>
        <time>2020-07-03T16:45:54Z</time>
      </trkpt>
      <trkpt lat="46.11854" lon="6.27169">
        <ele>548.05</ele>
        <time>2020-07-03T16:45:55Z</time>
      </trkpt>
      <trkpt lat="46.11871" lon="6.2716">
        <ele>546.627</ele>
        <time>2020-07-03T16:45:56Z</time>
      </trkpt>
      <trkpt lat="46.11888" lon="6.27148">
        <ele>546.068</ele>
        <time>2020-07-03T16:45:57Z</time>
      </trkpt>
      <trkpt lat="46.11905" lon="6.27133">
        <ele>545.814</ele>
        <time>2020-07-03T16:45:58Z</time>
      </trkpt>
      <trkpt lat="46.1192" lon="6.27118">
        <ele>545.408</ele>
        <time>2020-07-03T16:45:59Z</time>
      </trkpt>
      <trkpt lat="46.11934" lon="6.27103">
        <ele>544.627</ele>
        <time>2020-07-03T16:46:00Z</time>
      </trkpt>
      <trkpt lat="46.11947" lon="6.27088">
        <ele>544.144</ele>
        <time>2020-07-03T16:46:01Z</time>
      </trkpt>
      <trkpt lat="46.11959" lon="6.27073">
        <ele>543.462</ele>
        <time>2020-07-03T16:46:02Z</time>
      </trkpt>
      <trkpt lat="46.11971" lon="6.27059">
        <ele>542.721</ele>
        <time>2020-07-03T16:46:03Z</time>
      </trkpt>
      <trkpt lat="46.11983" lon="6.27045">
        <ele>541.912</ele>
        <time>2020-07-03T16:46:04Z</time>
      </trkpt>
      <trkpt lat="46.11995" lon="6.27032">
        <ele>541.332</ele>
        <time>2020-07-03T16:46:05Z</time>
      </trkpt>
      <trkpt lat="46.12005" lon="6.27021">
        <ele>540.788</ele>
        <time>2020-07-03T16:46:06Z</time>
      </trkpt>
      <trkpt lat="46.12016" lon="6.2701">
        <ele>540.385</ele>
        <time>2020-07-03T16:46:07Z</time>
      </trkpt>
      <trkpt lat="46.12026" lon="6.27">
        <ele>539.538</ele>
        <time>2020-07-03T16:46:08Z</time>
      </trkpt>
      <trkpt lat="46.12037" lon="6.2699">
        <ele>538.97</ele>
        <time>2020-07-03T16:46:09Z</time>
      </trkpt>
      <trkpt lat="46.12047" lon="6.26983">
        <ele>538.717</ele>
        <time>2020-07-03T16:46:10Z</time>
      </trkpt>
      <trkpt lat="46.12056" lon="6.26976">
        <ele>538.308</ele>
        <time>2020-07-03T16:46:11Z</time>
      </trkpt>
      <trkpt lat="46.12065" lon="6.26969">
        <ele>538.048</ele>
        <time>2020-07-03T16:46:12Z</time>
      </trkpt>
      <trkpt lat="46.12071" lon="6.26964">
        <ele>537.575</ele>
        <time>2020-07-03T16:46:13Z</time>
      </trkpt>
      <trkpt lat="46.12077" lon="6.26962">
        <ele>537.183</ele>
        <time>2020-07-03T16:46:14Z</time>
      </trkpt>
      <trkpt lat="46.12083" lon="6.26961">
        <ele>536.522</ele>
        <time>2020-07-03T16:46:15Z</time>
      </trkpt>
      <trkpt lat="46.12094" lon="6.26963">
        <ele>536.023</ele>
        <time>2020-07-03T16:46:16Z</time>
      </trkpt>
      <trkpt lat="46.12105" lon="6.26964">
        <ele>535.623</ele>
        <time>2020-07-03T16:46:17Z</time>
      </trkpt>
      <trkpt lat="46.12114" lon="6.26956">
        <ele>535.439</ele>
        <time>2020-07-03T16:46:18Z</time>
      </trkpt>
      <trkpt lat="46.12115" lon="6.26944">
        <ele>535.116</ele>
        <time>2020-07-03T16:46:19Z</time>
      </trkpt>
      <trkpt lat="46.12117" lon="6.26936">
        <ele>534.856</ele>
        <time>2020-07-03T16:46:20Z</time>
      </trkpt>
      <trkpt lat="46.12122" lon="6.2693">
        <ele>534.759</ele>
        <time>2020-07-03T16:46:21Z</time>
      </trkpt>
      <trkpt lat="46.12128" lon="6.26926">
        <ele>534.514</ele>
        <time>2020-07-03T16:46:22Z</time>
      </trkpt>
      <trkpt lat="46.12132" lon="6.26923">
        <ele>534.208</ele>
        <time>2020-07-03T16:46:24Z</time>
      </trkpt>
      <trkpt lat="46.12136" lon="6.26928">
        <ele>533.89</ele>
        <time>2020-07-03T16:46:30Z</time>
      </trkpt>
      <trkpt lat="46.12134" lon="6.26935">
        <ele>534.247</ele>
        <time>2020-07-03T16:46:33Z</time>
      </trkpt>
      <trkpt lat="46.12133" lon="6.26944">
        <ele>534.565</ele>
        <time>2020-07-03T16:46:35Z</time>
      </trkpt>
      <trkpt lat="46.12138" lon="6.26952">
        <ele>534.524</ele>
        <time>2020-07-03T16:46:36Z</time>
      </trkpt>
      <trkpt lat="46.12145" lon="6.26966">
        <ele>534.535</ele>
        <time>2020-07-03T16:46:37Z</time>
      </trkpt>
      <trkpt lat="46.12153" lon="6.26984">
        <ele>534.495</ele>
        <time>2020-07-03T16:46:38Z</time>
      </trkpt>
      <trkpt lat="46.12163" lon="6.2701">
        <ele>534.241</ele>
        <time>2020-07-03T16:46:39Z</time>
      </trkpt>
      <trkpt lat="46.12172" lon="6.27035">
        <ele>534.018</ele>
        <time>2020-07-03T16:46:40Z</time>
      </trkpt>
      <trkpt lat="46.12182" lon="6.27057">
        <ele>533.783</ele>
        <time>2020-07-03T16:46:41Z</time>
      </trkpt>
      <trkpt lat="46.12189" lon="6.27077">
        <ele>533.025</ele>
        <time>2020-07-03T16:46:42Z</time>
      </trkpt>
      <trkpt lat="46.12196" lon="6.27095">
        <ele>532.217</ele>
        <time>2020-07-03T16:46:43Z</time>
      </trkpt>
      <trkpt lat="46.12203" lon="6.27112">
        <ele>530.908</ele>
        <time>2020-07-03T16:46:44Z</time>
      </trkpt>
      <trkpt lat="46.1221" lon="6.27129">
        <ele>529.413</ele>
        <time>2020-07-03T16:46:45Z</time>
      </trkpt>
      <trkpt lat="46.12217" lon="6.27146">
        <ele>527.88</ele>
        <time>2020-07-03T16:46:46Z</time>
      </trkpt>
      <trkpt lat="46.12224" lon="6.27164">
        <ele>526.378</ele>
        <time>2020-07-03T16:46:47Z</time>
      </trkpt>
      <trkpt lat="46.12231" lon="6.2718">
        <ele>524.827</ele>
        <time>2020-07-03T16:46:48Z</time>
      </trkpt>
      <trkpt lat="46.12237" lon="6.27197">
        <ele>523.538</ele>
        <time>2020-07-03T16:46:49Z</time>
      </trkpt>
      <trkpt lat="46.12242" lon="6.2721">
        <ele>522.338</ele>
        <time>2020-07-03T16:46:50Z</time>
      </trkpt>
      <trkpt lat="46.12247" lon="6.27223">
        <ele>521.244</ele>
        <time>2020-07-03T16:46:51Z</time>
      </trkpt>
      <trkpt lat="46.12252" lon="6.27234">
        <ele>520.091</ele>
        <time>2020-07-03T16:46:52Z</time>
      </trkpt>
      <trkpt lat="46.12256" lon="6.27243">
        <ele>519.034</ele>
        <time>2020-07-03T16:46:53Z</time>
      </trkpt>
      <trkpt lat="46.1226" lon="6.27252">
        <ele>518.355</ele>
        <time>2020-07-03T16:46:54Z</time>
      </trkpt>
      <trkpt lat="46.12265" lon="6.27263">
        <ele>517.61</ele>
        <time>2020-07-03T16:46:55Z</time>
      </trkpt>
      <trkpt lat="46.12272" lon="6.2728">
        <ele>517.308</ele>
        <time>2020-07-03T16:46:56Z</time>
      </trkpt>
      <trkpt lat="46.12279" lon="6.273">
        <ele>517.118</ele>
        <time>2020-07-03T16:46:57Z</time>
      </trkpt>
      <trkpt lat="46.12288" lon="6.27321">
        <ele>517.035</ele>
        <time>2020-07-03T16:46:58Z</time>
      </trkpt>
      <trkpt lat="46.12296" lon="6.27341">
        <ele>517.083</ele>
        <time>2020-07-03T16:46:59Z</time>
      </trkpt>
      <trkpt lat="46.12304" lon="6.27362">
        <ele>517.052</ele>
        <time>2020-07-03T16:47:00Z</time>
      </trkpt>
      <trkpt lat="46.12309" lon="6.27376">
        <ele>516.763</ele>
        <time>2020-07-03T16:47:01Z</time>
      </trkpt>
      <trkpt lat="46.12314" lon="6.27388">
        <ele>516.293</ele>
        <time>2020-07-03T16:47:02Z</time>
      </trkpt>
      <trkpt lat="46.12318" lon="6.27397">
        <ele>515.629</ele>
        <time>2020-07-03T16:47:03Z</time>
      </trkpt>
      <trkpt lat="46.12322" lon="6.27404">
        <ele>514.786</ele>
        <time>2020-07-03T16:47:04Z</time>
      </trkpt>
      <trkpt lat="46.12326" lon="6.27409">
        <ele>512.845</ele>
        <time>2020-07-03T16:47:06Z</time>
      </trkpt>
      <trkpt lat="46.12332" lon="6.27401">
        <ele>510.447</ele>
        <time>2020-07-03T16:49:06Z</time>
      </trkpt>
      <trkpt lat="46.12339" lon="6.27398">
        <ele>510.511</ele>
        <time>2020-07-03T16:49:07Z</time>
      </trkpt>
      <trkpt lat="46.12347" lon="6.27393">
        <ele>510.608</ele>
        <time>2020-07-03T16:49:08Z</time>
      </trkpt>
      <trkpt lat="46.12356" lon="6.27386">
        <ele>510.729</ele>
        <time>2020-07-03T16:49:09Z</time>
      </trkpt>
      <trkpt lat="46.12365" lon="6.2738">
        <ele>510.916</ele>
        <time>2020-07-03T16:49:10Z</time>
      </trkpt>
      <trkpt lat="46.12373" lon="6.27376">
        <ele>511.224</ele>
        <time>2020-07-03T16:49:11Z</time>
      </trkpt>
      <trkpt lat="46.1238" lon="6.27374">
        <ele>511.313</ele>
        <time>2020-07-03T16:49:12Z</time>
      </trkpt>
      <trkpt lat="46.12388" lon="6.27378">
        <ele>511.394</ele>
        <time>2020-07-03T16:49:13Z</time>
      </trkpt>
      <trkpt lat="46.12396" lon="6.27387">
        <ele>511.244</ele>
        <time>2020-07-03T16:49:14Z</time>
      </trkpt>
      <trkpt lat="46.12407" lon="6.27398">
        <ele>511.17</ele>
        <time>2020-07-03T16:49:15Z</time>
      </trkpt>
      <trkpt lat="46.12421" lon="6.27408">
        <ele>510.897</ele>
        <time>2020-07-03T16:49:16Z</time>
      </trkpt>
      <trkpt lat="46.12435" lon="6.27421">
        <ele>510.719</ele>
        <time>2020-07-03T16:49:17Z</time>
      </trkpt>
      <trkpt lat="46.12448" lon="6.27431">
        <ele>510.609</ele>
        <time>2020-07-03T16:49:18Z</time>
      </trkpt>
      <trkpt lat="46.12458" lon="6.27441">
        <ele>510.419</ele>
        <time>2020-07-03T16:49:19Z</time>
      </trkpt>
      <trkpt lat="46.12466" lon="6.27448">
        <ele>510.308</ele>
        <time>2020-07-03T16:49:20Z</time>
      </trkpt>
      <trkpt lat="46.12477" lon="6.27455">
        <ele>510.076</ele>
        <time>2020-07-03T16:49:21Z</time>
      </trkpt>
      <trkpt lat="46.12483" lon="6.2746">
        <ele>509.633</ele>
        <time>2020-07-03T16:49:22Z</time>
      </trkpt>
      <trkpt lat="46.12488" lon="6.2746">
        <ele>509.241</ele>
        <time>2020-07-03T16:49:23Z</time>
      </trkpt>
      <trkpt lat="46.12497" lon="6.27461">
        <ele>508.45</ele>
        <time>2020-07-03T16:49:24Z</time>
      </trkpt>
      <trkpt lat="46.12505" lon="6.27462">
        <ele>507.981</ele>
        <time>2020-07-03T16:49:25Z</time>
      </trkpt>
      <trkpt lat="46.12518" lon="6.27464">
        <ele>507.761</ele>
        <time>2020-07-03T16:49:26Z</time>
      </trkpt>
      <trkpt lat="46.12534" lon="6.27468">
        <ele>507.727</ele>
        <time>2020-07-03T16:49:27Z</time>
      </trkpt>
      <trkpt lat="46.12551" lon="6.27468">
        <ele>507.754</ele>
        <time>2020-07-03T16:49:28Z</time>
      </trkpt>
      <trkpt lat="46.12566" lon="6.27466">
        <ele>508.057</ele>
        <time>2020-07-03T16:49:29Z</time>
      </trkpt>
      <trkpt lat="46.12582" lon="6.2746">
        <ele>508.4</ele>
        <time>2020-07-03T16:49:30Z</time>
      </trkpt>
      <trkpt lat="46.12601" lon="6.2745">
        <ele>509.12</ele>
        <time>2020-07-03T16:49:31Z</time>
      </trkpt>
      <trkpt lat="46.12617" lon="6.27441">
        <ele>509.108</ele>
        <time>2020-07-03T16:49:32Z</time>
      </trkpt>
      <trkpt lat="46.12628" lon="6.27434">
        <ele>508.67</ele>
        <time>2020-07-03T16:49:33Z</time>
      </trkpt>
      <trkpt lat="46.12635" lon="6.27429">
        <ele>507.827</ele>
        <time>2020-07-03T16:49:34Z</time>
      </trkpt>
      <trkpt lat="46.12643" lon="6.27429">
        <ele>504.975</ele>
        <time>2020-07-03T16:49:36Z</time>
      </trkpt>
      <trkpt lat="46.1264" lon="6.27425">
        <ele>502.434</ele>
        <time>2020-07-03T16:49:41Z</time>
      </trkpt>
      <trkpt lat="46.12636" lon="6.27429">
        <ele>502.465</ele>
        <time>2020-07-03T16:49:42Z</time>
      </trkpt>
      <trkpt lat="46.12627" lon="6.27437">
        <ele>502.585</ele>
        <time>2020-07-03T16:49:43Z</time>
      </trkpt>
      <trkpt lat="46.12615" lon="6.2743">
        <ele>502.761</ele>
        <time>2020-07-03T16:49:44Z</time>
      </trkpt>
      <trkpt lat="46.12596" lon="6.27443">
        <ele>503.238</ele>
        <time>2020-07-03T16:49:45Z</time>
      </trkpt>
      <trkpt lat="46.12581" lon="6.27451">
        <ele>503.935</ele>
        <time>2020-07-03T16:49:46Z</time>
      </trkpt>
      <trkpt lat="46.12573" lon="6.27456">
        <ele>504.486</ele>
        <time>2020-07-03T16:49:47Z</time>
      </trkpt>
      <trkpt lat="46.12569" lon="6.27458">
        <ele>504.914</ele>
        <time>2020-07-03T16:49:49Z</time>
      </trkpt>
      <trkpt lat="46.12572" lon="6.27465">
        <ele>504.908</ele>
        <time>2020-07-03T16:49:50Z</time>
      </trkpt>
      <trkpt lat="46.12579" lon="6.27489">
        <ele>504.598</ele>
        <time>2020-07-03T16:49:52Z</time>
      </trkpt>
      <trkpt lat="46.12584" lon="6.275">
        <ele>504.475</ele>
        <time>2020-07-03T16:49:53Z</time>
      </trkpt>
      <trkpt lat="46.12593" lon="6.27517">
        <ele>504.123</ele>
        <time>2020-07-03T16:49:54Z</time>
      </trkpt>
      <trkpt lat="46.12602" lon="6.27532">
        <ele>503.892</ele>
        <time>2020-07-03T16:49:55Z</time>
      </trkpt>
      <trkpt lat="46.12608" lon="6.27546">
        <ele>503.313</ele>
        <time>2020-07-03T16:49:56Z</time>
      </trkpt>
      <trkpt lat="46.12614" lon="6.27556">
        <ele>502.893</ele>
        <time>2020-07-03T16:49:57Z</time>
      </trkpt>
      <trkpt lat="46.12618" lon="6.27564">
        <ele>502.039</ele>
        <time>2020-07-03T16:49:58Z</time>
      </trkpt>
      <trkpt lat="46.12623" lon="6.27574">
        <ele>500.546</ele>
        <time>2020-07-03T16:50:00Z</time>
      </trkpt>
      <trkpt lat="46.12622" lon="6.27581">
        <ele>499.837</ele>
        <time>2020-07-03T16:50:01Z</time>
      </trkpt>
      <trkpt lat="46.12617" lon="6.27587">
        <ele>499.249</ele>
        <time>2020-07-03T16:50:02Z</time>
      </trkpt>
      <trkpt lat="46.12612" lon="6.27596">
        <ele>498.813</ele>
        <time>2020-07-03T16:50:03Z</time>
      </trkpt>
      <trkpt lat="46.12605" lon="6.27607">
        <ele>498.808</ele>
        <time>2020-07-03T16:50:04Z</time>
      </trkpt>
      <trkpt lat="46.126" lon="6.27618">
        <ele>498.848</ele>
        <time>2020-07-03T16:50:05Z</time>
      </trkpt>
      <trkpt lat="46.12595" lon="6.27636">
        <ele>498.945</ele>
        <time>2020-07-03T16:50:06Z</time>
      </trkpt>
      <trkpt lat="46.12591" lon="6.27658">
        <ele>499.313</ele>
        <time>2020-07-03T16:50:07Z</time>
      </trkpt>
      <trkpt lat="46.12589" lon="6.27677">
        <ele>499.592</ele>
        <time>2020-07-03T16:50:08Z</time>
      </trkpt>
      <trkpt lat="46.12585" lon="6.27695">
        <ele>499.523</ele>
        <time>2020-07-03T16:50:09Z</time>
      </trkpt>
      <trkpt lat="46.12579" lon="6.27708">
        <ele>498.763</ele>
        <time>2020-07-03T16:50:10Z</time>
      </trkpt>
      <trkpt lat="46.1257" lon="6.27721">
        <ele>498.119</ele>
        <time>2020-07-03T16:50:11Z</time>
      </trkpt>
      <trkpt lat="46.12561" lon="6.27734">
        <ele>497.246</ele>
        <time>2020-07-03T16:50:12Z</time>
      </trkpt>
      <trkpt lat="46.12551" lon="6.27745">
        <ele>496.333</ele>
        <time>2020-07-03T16:50:13Z</time>
      </trkpt>
      <trkpt lat="46.12538" lon="6.27758">
        <ele>496.123</ele>
        <time>2020-07-03T16:50:14Z</time>
      </trkpt>
      <trkpt lat="46.12526" lon="6.27767">
        <ele>496.115</ele>
        <time>2020-07-03T16:50:15Z</time>
      </trkpt>
      <trkpt lat="46.12513" lon="6.27773">
        <ele>496.208</ele>
        <time>2020-07-03T16:50:16Z</time>
      </trkpt>
      <trkpt lat="46.125" lon="6.27775">
        <ele>496.428</ele>
        <time>2020-07-03T16:50:17Z</time>
      </trkpt>
      <trkpt lat="46.12486" lon="6.27776">
        <ele>496.725</ele>
        <time>2020-07-03T16:50:18Z</time>
      </trkpt>
      <trkpt lat="46.12463" lon="6.27771">
        <ele>496.953</ele>
        <time>2020-07-03T16:50:19Z</time>
      </trkpt>
      <trkpt lat="46.12446" lon="6.27768">
        <ele>497.372</ele>
        <time>2020-07-03T16:50:20Z</time>
      </trkpt>
      <trkpt lat="46.12427" lon="6.27766">
        <ele>497.943</ele>
        <time>2020-07-03T16:50:21Z</time>
      </trkpt>
      <trkpt lat="46.12409" lon="6.27765">
        <ele>498.593</ele>
        <time>2020-07-03T16:50:22Z</time>
      </trkpt>
      <trkpt lat="46.12392" lon="6.27763">
        <ele>499.329</ele>
        <time>2020-07-03T16:50:23Z</time>
      </trkpt>
      <trkpt lat="46.12378" lon="6.27762">
        <ele>499.866</ele>
        <time>2020-07-03T16:50:24Z</time>
      </trkpt>
      <trkpt lat="46.12364" lon="6.2776">
        <ele>499.838</ele>
        <time>2020-07-03T16:50:25Z</time>
      </trkpt>
      <trkpt lat="46.12352" lon="6.27759">
        <ele>499.77</ele>
        <time>2020-07-03T16:50:26Z</time>
      </trkpt>
      <trkpt lat="46.12341" lon="6.27758">
        <ele>499.617</ele>
        <time>2020-07-03T16:50:27Z</time>
      </trkpt>
      <trkpt lat="46.12332" lon="6.27757">
        <ele>499.008</ele>
        <time>2020-07-03T16:50:28Z</time>
      </trkpt>
      <trkpt lat="46.12324" lon="6.27757">
        <ele>498.738</ele>
        <time>2020-07-03T16:50:29Z</time>
      </trkpt>
      <trkpt lat="46.12318" lon="6.27759">
        <ele>498.765</ele>
        <time>2020-07-03T16:50:30Z</time>
      </trkpt>
      <trkpt lat="46.12314" lon="6.27765">
        <ele>498.643</ele>
        <time>2020-07-03T16:50:31Z</time>
      </trkpt>
      <trkpt lat="46.12312" lon="6.27776">
        <ele>498.692</ele>
        <time>2020-07-03T16:50:32Z</time>
      </trkpt>
      <trkpt lat="46.12308" lon="6.27791">
        <ele>498.623</ele>
        <time>2020-07-03T16:50:33Z</time>
      </trkpt>
      <trkpt lat="46.12303" lon="6.27803">
        <ele>498.813</ele>
        <time>2020-07-03T16:50:34Z</time>
      </trkpt>
      <trkpt lat="46.12297" lon="6.27818">
        <ele>499.349</ele>
        <time>2020-07-03T16:50:35Z</time>
      </trkpt>
      <trkpt lat="46.1229" lon="6.27832">
        <ele>499.796</ele>
        <time>2020-07-03T16:50:36Z</time>
      </trkpt>
      <trkpt lat="46.12284" lon="6.27846">
        <ele>500.279</ele>
        <time>2020-07-03T16:50:37Z</time>
      </trkpt>
      <trkpt lat="46.12278" lon="6.27859">
        <ele>500.705</ele>
        <time>2020-07-03T16:50:38Z</time>
      </trkpt>
      <trkpt lat="46.12272" lon="6.27873">
        <ele>501.225</ele>
        <time>2020-07-03T16:50:39Z</time>
      </trkpt>
      <trkpt lat="46.12267" lon="6.27883">
        <ele>501.508</ele>
        <time>2020-07-03T16:50:40Z</time>
      </trkpt>
      <trkpt lat="46.12261" lon="6.27896">
        <ele>501.882</ele>
        <time>2020-07-03T16:50:41Z</time>
      </trkpt>
      <trkpt lat="46.12254" lon="6.27907">
        <ele>501.979</ele>
        <time>2020-07-03T16:50:42Z</time>
      </trkpt>
      <trkpt lat="46.12245" lon="6.27918">
        <ele>502.047</ele>
        <time>2020-07-03T16:50:43Z</time>
      </trkpt>
      <trkpt lat="46.12236" lon="6.27929">
        <ele>502.056</ele>
        <time>2020-07-03T16:50:44Z</time>
      </trkpt>
      <trkpt lat="46.12226" lon="6.27938">
        <ele>502.197</ele>
        <time>2020-07-03T16:50:45Z</time>
      </trkpt>
      <trkpt lat="46.12216" lon="6.27945">
        <ele>502.417</ele>
        <time>2020-07-03T16:50:46Z</time>
      </trkpt>
      <trkpt lat="46.12207" lon="6.2795">
        <ele>502.733</ele>
        <time>2020-07-03T16:50:47Z</time>
      </trkpt>
      <trkpt lat="46.12197" lon="6.27955">
        <ele>503.15</ele>
        <time>2020-07-03T16:50:48Z</time>
      </trkpt>
      <trkpt lat="46.12186" lon="6.27957">
        <ele>503.647</ele>
        <time>2020-07-03T16:50:49Z</time>
      </trkpt>
      <trkpt lat="46.12174" lon="6.27957">
        <ele>503.829</ele>
        <time>2020-07-03T16:50:50Z</time>
      </trkpt>
      <trkpt lat="46.12163" lon="6.27958">
        <ele>504.221</ele>
        <time>2020-07-03T16:50:51Z</time>
      </trkpt>
      <trkpt lat="46.12152" lon="6.27963">
        <ele>504.508</ele>
        <time>2020-07-03T16:50:52Z</time>
      </trkpt>
      <trkpt lat="46.12143" lon="6.27972">
        <ele>504.979</ele>
        <time>2020-07-03T16:50:53Z</time>
      </trkpt>
      <trkpt lat="46.12136" lon="6.27984">
        <ele>505.256</ele>
        <time>2020-07-03T16:50:54Z</time>
      </trkpt>
      <trkpt lat="46.12128" lon="6.27999">
        <ele>505.354</ele>
        <time>2020-07-03T16:50:55Z</time>
      </trkpt>
      <trkpt lat="46.12122" lon="6.28011">
        <ele>505.323</ele>
        <time>2020-07-03T16:50:56Z</time>
      </trkpt>
      <trkpt lat="46.12117" lon="6.28022">
        <ele>505.084</ele>
        <time>2020-07-03T16:50:57Z</time>
      </trkpt>
      <trkpt lat="46.12113" lon="6.28034">
        <ele>504.464</ele>
        <time>2020-07-03T16:50:58Z</time>
      </trkpt>
      <trkpt lat="46.1211" lon="6.28046">
        <ele>503.72</ele>
        <time>2020-07-03T16:50:59Z</time>
      </trkpt>
      <trkpt lat="46.12107" lon="6.28056">
        <ele>503.297</ele>
        <time>2020-07-03T16:51:00Z</time>
      </trkpt>
      <trkpt lat="46.12104" lon="6.28066">
        <ele>502.626</ele>
        <time>2020-07-03T16:51:01Z</time>
      </trkpt>
      <trkpt lat="46.12102" lon="6.28074">
        <ele>502.247</ele>
        <time>2020-07-03T16:51:02Z</time>
      </trkpt>
      <trkpt lat="46.121" lon="6.28082">
        <ele>502.011</ele>
        <time>2020-07-03T16:51:03Z</time>
      </trkpt>
      <trkpt lat="46.12098" lon="6.28091">
        <ele>501.808</ele>
        <time>2020-07-03T16:51:04Z</time>
      </trkpt>
      <trkpt lat="46.12096" lon="6.28099">
        <ele>501.647</ele>
        <time>2020-07-03T16:51:05Z</time>
      </trkpt>
      <trkpt lat="46.12093" lon="6.28106">
        <ele>501.574</ele>
        <time>2020-07-03T16:51:06Z</time>
      </trkpt>
      <trkpt lat="46.12088" lon="6.28111">
        <ele>501.562</ele>
        <time>2020-07-03T16:51:07Z</time>
      </trkpt>
      <trkpt lat="46.12082" lon="6.28114">
        <ele>501.741</ele>
        <time>2020-07-03T16:51:08Z</time>
      </trkpt>
      <trkpt lat="46.12077" lon="6.28116">
        <ele>501.842</ele>
        <time>2020-07-03T16:51:09Z</time>
      </trkpt>
      <trkpt lat="46.12071" lon="6.28118">
        <ele>502.152</ele>
        <time>2020-07-03T16:51:10Z</time>
      </trkpt>
      <trkpt lat="46.12063" lon="6.28119">
        <ele>502.478</ele>
        <time>2020-07-03T16:51:11Z</time>
      </trkpt>
      <trkpt lat="46.12051" lon="6.28122">
        <ele>502.945</ele>
        <time>2020-07-03T16:51:12Z</time>
      </trkpt>
      <trkpt lat="46.12036" lon="6.28129">
        <ele>503.447</ele>
        <time>2020-07-03T16:51:13Z</time>
      </trkpt>
      <trkpt lat="46.12023" lon="6.28135">
        <ele>504.029</ele>
        <time>2020-07-03T16:51:14Z</time>
      </trkpt>
      <trkpt lat="46.12014" lon="6.28139">
        <ele>504.621</ele>
        <time>2020-07-03T16:51:15Z</time>
      </trkpt>
      <trkpt lat="46.12004" lon="6.28141">
        <ele>505.108</ele>
        <time>2020-07-03T16:51:16Z</time>
      </trkpt>
      <trkpt lat="46.11996" lon="6.28144">
        <ele>505.529</ele>
        <time>2020-07-03T16:51:17Z</time>
      </trkpt>
      <trkpt lat="46.11986" lon="6.28147">
        <ele>505.836</ele>
        <time>2020-07-03T16:51:18Z</time>
      </trkpt>
      <trkpt lat="46.11976" lon="6.28151">
        <ele>505.924</ele>
        <time>2020-07-03T16:51:19Z</time>
      </trkpt>
      <trkpt lat="46.11968" lon="6.28154">
        <ele>506.253</ele>
        <time>2020-07-03T16:51:20Z</time>
      </trkpt>
      <trkpt lat="46.11961" lon="6.28157">
        <ele>506.694</ele>
        <time>2020-07-03T16:51:21Z</time>
      </trkpt>
      <trkpt lat="46.11954" lon="6.2816">
        <ele>506.914</ele>
        <time>2020-07-03T16:51:22Z</time>
      </trkpt>
      <trkpt lat="46.1195" lon="6.28168">
        <ele>507.14</ele>
        <time>2020-07-03T16:51:23Z</time>
      </trkpt>
      <trkpt lat="46.11945" lon="6.28177">
        <ele>507.567</ele>
        <time>2020-07-03T16:51:24Z</time>
      </trkpt>
      <trkpt lat="46.11941" lon="6.28191">
        <ele>507.945</ele>
        <time>2020-07-03T16:51:25Z</time>
      </trkpt>
      <trkpt lat="46.1194" lon="6.28201">
        <ele>508.347</ele>
        <time>2020-07-03T16:51:26Z</time>
      </trkpt>
      <trkpt lat="46.1194" lon="6.28208">
        <ele>508.811</ele>
        <time>2020-07-03T16:51:27Z</time>
      </trkpt>
      <trkpt lat="46.11935" lon="6.28212">
        <ele>509.808</ele>
        <time>2020-07-03T16:51:29Z</time>
      </trkpt>
      <trkpt lat="46.11926" lon="6.28215">
        <ele>510.349</ele>
        <time>2020-07-03T16:51:31Z</time>
      </trkpt>
      <trkpt lat="46.1192" lon="6.28222">
        <ele>510.586</ele>
        <time>2020-07-03T16:51:33Z</time>
      </trkpt>
      <trkpt lat="46.11915" lon="6.28224">
        <ele>510.554</ele>
        <time>2020-07-03T16:51:34Z</time>
      </trkpt>
      <trkpt lat="46.11909" lon="6.28226">
        <ele>510.523</ele>
        <time>2020-07-03T16:51:35Z</time>
      </trkpt>
      <trkpt lat="46.11903" lon="6.28229">
        <ele>510.584</ele>
        <time>2020-07-03T16:51:36Z</time>
      </trkpt>
      <trkpt lat="46.11896" lon="6.28229">
        <ele>510.764</ele>
        <time>2020-07-03T16:51:37Z</time>
      </trkpt>
      <trkpt lat="46.11887" lon="6.2823">
        <ele>511.17</ele>
        <time>2020-07-03T16:51:38Z</time>
      </trkpt>
      <trkpt lat="46.11875" lon="6.28226">
        <ele>511.627</ele>
        <time>2020-07-03T16:51:39Z</time>
      </trkpt>
      <trkpt lat="46.11862" lon="6.28226">
        <ele>511.968</ele>
        <time>2020-07-03T16:51:40Z</time>
      </trkpt>
      <trkpt lat="46.11853" lon="6.28226">
        <ele>512.242</ele>
        <time>2020-07-03T16:51:41Z</time>
      </trkpt>
      <trkpt lat="46.11844" lon="6.28224">
        <ele>512.226</ele>
        <time>2020-07-03T16:51:42Z</time>
      </trkpt>
      <trkpt lat="46.11833" lon="6.28223">
        <ele>511.908</ele>
        <time>2020-07-03T16:51:43Z</time>
      </trkpt>
      <trkpt lat="46.11821" lon="6.28227">
        <ele>511.321</ele>
        <time>2020-07-03T16:51:44Z</time>
      </trkpt>
      <trkpt lat="46.1181" lon="6.28233">
        <ele>510.938</ele>
        <time>2020-07-03T16:51:45Z</time>
      </trkpt>
      <trkpt lat="46.118" lon="6.2824">
        <ele>510.556</ele>
        <time>2020-07-03T16:51:46Z</time>
      </trkpt>
      <trkpt lat="46.11791" lon="6.2825">
        <ele>510.115</ele>
        <time>2020-07-03T16:51:47Z</time>
      </trkpt>
      <trkpt lat="46.11785" lon="6.28257">
        <ele>510.156</ele>
        <time>2020-07-03T16:51:48Z</time>
      </trkpt>
      <trkpt lat="46.11778" lon="6.28261">
        <ele>510.256</ele>
        <time>2020-07-03T16:51:49Z</time>
      </trkpt>
      <trkpt lat="46.11769" lon="6.28259">
        <ele>510.962</ele>
        <time>2020-07-03T16:51:51Z</time>
      </trkpt>
      <trkpt lat="46.11764" lon="6.28256">
        <ele>511.339</ele>
        <time>2020-07-03T16:51:52Z</time>
      </trkpt>
      <trkpt lat="46.11759" lon="6.28248">
        <ele>511.835</ele>
        <time>2020-07-03T16:51:53Z</time>
      </trkpt>
      <trkpt lat="46.11754" lon="6.2824">
        <ele>512.286</ele>
        <time>2020-07-03T16:51:54Z</time>
      </trkpt>
      <trkpt lat="46.11744" lon="6.28239">
        <ele>512.714</ele>
        <time>2020-07-03T16:51:55Z</time>
      </trkpt>
      <trkpt lat="46.11735" lon="6.28235">
        <ele>513.208</ele>
        <time>2020-07-03T16:51:56Z</time>
      </trkpt>
      <trkpt lat="46.11728" lon="6.28228">
        <ele>513.868</ele>
        <time>2020-07-03T16:51:57Z</time>
      </trkpt>
      <trkpt lat="46.11722" lon="6.28221">
        <ele>514.365</ele>
        <time>2020-07-03T16:51:58Z</time>
      </trkpt>
      <trkpt lat="46.11717" lon="6.28218">
        <ele>514.633</ele>
        <time>2020-07-03T16:51:59Z</time>
      </trkpt>
      <trkpt lat="46.1171" lon="6.28221">
        <ele>514.882</ele>
        <time>2020-07-03T16:52:00Z</time>
      </trkpt>
      <trkpt lat="46.11701" lon="6.28225">
        <ele>514.923</ele>
        <time>2020-07-03T16:52:01Z</time>
      </trkpt>
      <trkpt lat="46.1169" lon="6.28227">
        <ele>515.123</ele>
        <time>2020-07-03T16:52:02Z</time>
      </trkpt>
      <trkpt lat="46.1168" lon="6.28232">
        <ele>515.499</ele>
        <time>2020-07-03T16:52:03Z</time>
      </trkpt>
      <trkpt lat="46.11673" lon="6.28235">
        <ele>515.786</ele>
        <time>2020-07-03T16:52:04Z</time>
      </trkpt>
      <trkpt lat="46.11666" lon="6.28236">
        <ele>516.177</ele>
        <time>2020-07-03T16:52:05Z</time>
      </trkpt>
      <trkpt lat="46.1166" lon="6.2824">
        <ele>516.661</ele>
        <time>2020-07-03T16:52:06Z</time>
      </trkpt>
      <trkpt lat="46.11655" lon="6.28246">
        <ele>516.927</ele>
        <time>2020-07-03T16:52:07Z</time>
      </trkpt>
      <trkpt lat="46.11649" lon="6.28255">
        <ele>517.108</ele>
        <time>2020-07-03T16:52:08Z</time>
      </trkpt>
      <trkpt lat="46.11643" lon="6.28266">
        <ele>517.172</ele>
        <time>2020-07-03T16:52:09Z</time>
      </trkpt>
      <trkpt lat="46.11638" lon="6.28275">
        <ele>517.169</ele>
        <time>2020-07-03T16:52:10Z</time>
      </trkpt>
      <trkpt lat="46.11634" lon="6.28285">
        <ele>516.987</ele>
        <time>2020-07-03T16:52:11Z</time>
      </trkpt>
      <trkpt lat="46.11632" lon="6.28294">
        <ele>516.836</ele>
        <time>2020-07-03T16:52:12Z</time>
      </trkpt>
      <trkpt lat="46.1163" lon="6.28302">
        <ele>516.867</ele>
        <time>2020-07-03T16:52:13Z</time>
      </trkpt>
      <trkpt lat="46.11626" lon="6.28311">
        <ele>516.917</ele>
        <time>2020-07-03T16:52:15Z</time>
      </trkpt>
      <trkpt lat="46.11621" lon="6.28321">
        <ele>517.133</ele>
        <time>2020-07-03T16:52:17Z</time>
      </trkpt>
      <trkpt lat="46.1162" lon="6.28331">
        <ele>517.19</ele>
        <time>2020-07-03T16:52:19Z</time>
      </trkpt>
      <trkpt lat="46.11619" lon="6.28338">
        <ele>517.028</ele>
        <time>2020-07-03T16:52:20Z</time>
      </trkpt>
      <trkpt lat="46.11619" lon="6.28346">
        <ele>516.889</ele>
        <time>2020-07-03T16:52:21Z</time>
      </trkpt>
      <trkpt lat="46.11617" lon="6.28355">
        <ele>516.617</ele>
        <time>2020-07-03T16:52:22Z</time>
      </trkpt>
      <trkpt lat="46.11612" lon="6.28367">
        <ele>516.408</ele>
        <time>2020-07-03T16:52:23Z</time>
      </trkpt>
      <trkpt lat="46.1161" lon="6.28375">
        <ele>516.237</ele>
        <time>2020-07-03T16:52:24Z</time>
      </trkpt>
      <trkpt lat="46.11608" lon="6.28383">
        <ele>515.734</ele>
        <time>2020-07-03T16:52:26Z</time>
      </trkpt>
      <trkpt lat="46.11609" lon="6.2839">
        <ele>515.122</ele>
        <time>2020-07-03T16:52:28Z</time>
      </trkpt>
      <trkpt lat="46.11614" lon="6.28399">
        <ele>514.421</ele>
        <time>2020-07-03T16:52:30Z</time>
      </trkpt>
      <trkpt lat="46.11615" lon="6.28411">
        <ele>513.612</ele>
        <time>2020-07-03T16:52:32Z</time>
      </trkpt>
      <trkpt lat="46.11613" lon="6.28418">
        <ele>513.352</ele>
        <time>2020-07-03T16:52:33Z</time>
      </trkpt>
      <trkpt lat="46.11612" lon="6.28428">
        <ele>512.888</ele>
        <time>2020-07-03T16:52:35Z</time>
      </trkpt>
      <trkpt lat="46.11607" lon="6.28438">
        <ele>512.385</ele>
        <time>2020-07-03T16:52:37Z</time>
      </trkpt>
      <trkpt lat="46.11599" lon="6.28449">
        <ele>512.167</ele>
        <time>2020-07-03T16:52:38Z</time>
      </trkpt>
      <trkpt lat="46.11593" lon="6.28457">
        <ele>511.981</ele>
        <time>2020-07-03T16:52:39Z</time>
      </trkpt>
      <trkpt lat="46.11588" lon="6.28464">
        <ele>511.819</ele>
        <time>2020-07-03T16:52:40Z</time>
      </trkpt>
      <trkpt lat="46.11582" lon="6.28464">
        <ele>511.808</ele>
        <time>2020-07-03T16:52:41Z</time>
      </trkpt>
      <trkpt lat="46.11572" lon="6.28464">
        <ele>511.811</ele>
        <time>2020-07-03T16:52:43Z</time>
      </trkpt>
      <trkpt lat="46.11564" lon="6.28466">
        <ele>512.138</ele>
        <time>2020-07-03T16:52:45Z</time>
      </trkpt>
      <trkpt lat="46.11556" lon="6.28467">
        <ele>512.646</ele>
        <time>2020-07-03T16:52:47Z</time>
      </trkpt>
      <trkpt lat="46.11548" lon="6.2847">
        <ele>512.875</ele>
        <time>2020-07-03T16:52:49Z</time>
      </trkpt>
      <trkpt lat="46.11542" lon="6.2847">
        <ele>512.926</ele>
        <time>2020-07-03T16:52:51Z</time>
      </trkpt>
      <trkpt lat="46.11536" lon="6.28476">
        <ele>513.026</ele>
        <time>2020-07-03T16:52:54Z</time>
      </trkpt>
      <trkpt lat="46.11531" lon="6.28479">
        <ele>512.982</ele>
        <time>2020-07-03T16:52:56Z</time>
      </trkpt>
      <trkpt lat="46.11524" lon="6.28478">
        <ele>512.799</ele>
        <time>2020-07-03T16:52:58Z</time>
      </trkpt>
      <trkpt lat="46.11517" lon="6.28483">
        <ele>512.662</ele>
        <time>2020-07-03T16:53:01Z</time>
      </trkpt>
      <trkpt lat="46.1151" lon="6.28495">
        <ele>512.883</ele>
        <time>2020-07-03T16:53:03Z</time>
      </trkpt>
      <trkpt lat="46.11507" lon="6.28501">
        <ele>512.911</ele>
        <time>2020-07-03T16:53:04Z</time>
      </trkpt>
      <trkpt lat="46.11502" lon="6.28509">
        <ele>513.008</ele>
        <time>2020-07-03T16:53:05Z</time>
      </trkpt>
      <trkpt lat="46.11499" lon="6.28516">
        <ele>513.161</ele>
        <time>2020-07-03T16:53:06Z</time>
      </trkpt>
      <trkpt lat="46.11495" lon="6.2852">
        <ele>513.188</ele>
        <time>2020-07-03T16:53:07Z</time>
      </trkpt>
      <trkpt lat="46.11487" lon="6.28526">
        <ele>513.076</ele>
        <time>2020-07-03T16:53:09Z</time>
      </trkpt>
      <trkpt lat="46.11481" lon="6.28532">
        <ele>512.975</ele>
        <time>2020-07-03T16:53:10Z</time>
      </trkpt>
      <trkpt lat="46.11475" lon="6.28535">
        <ele>512.836</ele>
        <time>2020-07-03T16:53:11Z</time>
      </trkpt>
      <trkpt lat="46.11466" lon="6.28538">
        <ele>512.716</ele>
        <time>2020-07-03T16:53:12Z</time>
      </trkpt>
      <trkpt lat="46.11459" lon="6.2854">
        <ele>512.782</ele>
        <time>2020-07-03T16:53:13Z</time>
      </trkpt>
      <trkpt lat="46.11454" lon="6.28548">
        <ele>512.599</ele>
        <time>2020-07-03T16:53:15Z</time>
      </trkpt>
      <trkpt lat="46.11441" lon="6.28604">
        <ele>511.912</ele>
        <time>2020-07-03T16:53:29Z</time>
      </trkpt>
      <trkpt lat="46.11445" lon="6.28609">
        <ele>511.932</ele>
        <time>2020-07-03T16:53:30Z</time>
      </trkpt>
      <trkpt lat="46.11448" lon="6.28616">
        <ele>511.905</ele>
        <time>2020-07-03T16:53:31Z</time>
      </trkpt>
      <trkpt lat="46.11453" lon="6.28623">
        <ele>511.908</ele>
        <time>2020-07-03T16:53:32Z</time>
      </trkpt>
      <trkpt lat="46.11457" lon="6.28629">
        <ele>511.866</ele>
        <time>2020-07-03T16:53:33Z</time>
      </trkpt>
      <trkpt lat="46.11459" lon="6.28636">
        <ele>511.613</ele>
        <time>2020-07-03T16:53:35Z</time>
      </trkpt>
      <trkpt lat="46.11465" lon="6.28639">
        <ele>511.291</ele>
        <time>2020-07-03T16:53:38Z</time>
      </trkpt>
      <trkpt lat="46.1147" lon="6.28641">
        <ele>511.03</ele>
        <time>2020-07-03T16:53:40Z</time>
      </trkpt>
      <trkpt lat="46.11475" lon="6.28649">
        <ele>510.911</ele>
        <time>2020-07-03T16:53:43Z</time>
      </trkpt>
      <trkpt lat="46.11475" lon="6.28656">
        <ele>511.041</ele>
        <time>2020-07-03T16:53:45Z</time>
      </trkpt>
      <trkpt lat="46.11476" lon="6.28664">
        <ele>511.087</ele>
        <time>2020-07-03T16:53:51Z</time>
      </trkpt>
      <trkpt lat="46.11474" lon="6.28657">
        <ele>511.554</ele>
        <time>2020-07-03T16:53:59Z</time>
      </trkpt>
      <trkpt lat="46.11467" lon="6.28649">
        <ele>511.532</ele>
        <time>2020-07-03T16:54:02Z</time>
      </trkpt>
      <trkpt lat="46.1146" lon="6.28646">
        <ele>511.692</ele>
        <time>2020-07-03T16:54:03Z</time>
      </trkpt>
      <trkpt lat="46.11454" lon="6.28643">
        <ele>511.711</ele>
        <time>2020-07-03T16:54:04Z</time>
      </trkpt>
      <trkpt lat="46.1145" lon="6.28638">
        <ele>511.708</ele>
        <time>2020-07-03T16:54:05Z</time>
      </trkpt>
      <trkpt lat="46.11445" lon="6.28629">
        <ele>511.978</ele>
        <time>2020-07-03T16:54:06Z</time>
      </trkpt>
      <trkpt lat="46.11439" lon="6.2862">
        <ele>512.155</ele>
        <time>2020-07-03T16:54:07Z</time>
      </trkpt>
      <trkpt lat="46.11436" lon="6.28614">
        <ele>512.183</ele>
        <time>2020-07-03T16:54:08Z</time>
      </trkpt>
      <trkpt lat="46.11427" lon="6.28616">
        <ele>512.142</ele>
        <time>2020-07-03T16:54:10Z</time>
      </trkpt>
      <trkpt lat="46.11421" lon="6.28619">
        <ele>512.183</ele>
        <time>2020-07-03T16:54:11Z</time>
      </trkpt>
      <trkpt lat="46.11414" lon="6.28621">
        <ele>512.143</ele>
        <time>2020-07-03T16:54:12Z</time>
      </trkpt>
      <trkpt lat="46.11407" lon="6.2862">
        <ele>512.199</ele>
        <time>2020-07-03T16:54:13Z</time>
      </trkpt>
      <trkpt lat="46.11402" lon="6.28621">
        <ele>512.246</ele>
        <time>2020-07-03T16:54:14Z</time>
      </trkpt>
      <trkpt lat="46.11396" lon="6.28623">
        <ele>512.496</ele>
        <time>2020-07-03T16:54:16Z</time>
      </trkpt>
      <trkpt lat="46.11386" lon="6.28623">
        <ele>513.031</ele>
        <time>2020-07-03T16:54:18Z</time>
      </trkpt>
      <trkpt lat="46.1138" lon="6.28619">
        <ele>513.424</ele>
        <time>2020-07-03T16:54:19Z</time>
      </trkpt>
      <trkpt lat="46.1137" lon="6.28606">
        <ele>513.908</ele>
        <time>2020-07-03T16:54:20Z</time>
      </trkpt>
      <trkpt lat="46.11364" lon="6.28595">
        <ele>514.344</ele>
        <time>2020-07-03T16:54:21Z</time>
      </trkpt>
      <trkpt lat="46.11356" lon="6.2859">
        <ele>514.811</ele>
        <time>2020-07-03T16:54:22Z</time>
      </trkpt>
      <trkpt lat="46.11349" lon="6.28583">
        <ele>515.199</ele>
        <time>2020-07-03T16:54:23Z</time>
      </trkpt>
      <trkpt lat="46.1134" lon="6.28571">
        <ele>515.438</ele>
        <time>2020-07-03T16:54:24Z</time>
      </trkpt>
      <trkpt lat="46.11334" lon="6.28557">
        <ele>515.979</ele>
        <time>2020-07-03T16:54:25Z</time>
      </trkpt>
      <trkpt lat="46.11329" lon="6.28549">
        <ele>516.579</ele>
        <time>2020-07-03T16:54:26Z</time>
      </trkpt>
      <trkpt lat="46.11322" lon="6.28544">
        <ele>517.265</ele>
        <time>2020-07-03T16:54:27Z</time>
      </trkpt>
      <trkpt lat="46.11317" lon="6.28539">
        <ele>517.822</ele>
        <time>2020-07-03T16:54:28Z</time>
      </trkpt>
      <trkpt lat="46.11313" lon="6.28533">
        <ele>518.394</ele>
        <time>2020-07-03T16:54:29Z</time>
      </trkpt>
      <trkpt lat="46.1131" lon="6.28517">
        <ele>518.857</ele>
        <time>2020-07-03T16:54:30Z</time>
      </trkpt>
      <trkpt lat="46.11306" lon="6.28499">
        <ele>519.222</ele>
        <time>2020-07-03T16:54:31Z</time>
      </trkpt>
      <trkpt lat="46.113" lon="6.28477">
        <ele>520.008</ele>
        <time>2020-07-03T16:54:32Z</time>
      </trkpt>
      <trkpt lat="46.11296" lon="6.28459">
        <ele>520.954</ele>
        <time>2020-07-03T16:54:33Z</time>
      </trkpt>
      <trkpt lat="46.11292" lon="6.28447">
        <ele>521.771</ele>
        <time>2020-07-03T16:54:34Z</time>
      </trkpt>
      <trkpt lat="46.11286" lon="6.28435">
        <ele>522.419</ele>
        <time>2020-07-03T16:54:35Z</time>
      </trkpt>
      <trkpt lat="46.11282" lon="6.28423">
        <ele>523.118</ele>
        <time>2020-07-03T16:54:36Z</time>
      </trkpt>
      <trkpt lat="46.11278" lon="6.28409">
        <ele>523.369</ele>
        <time>2020-07-03T16:54:37Z</time>
      </trkpt>
      <trkpt lat="46.11276" lon="6.28397">
        <ele>523.419</ele>
        <time>2020-07-03T16:54:38Z</time>
      </trkpt>
      <trkpt lat="46.11274" lon="6.2839">
        <ele>523.415</ele>
        <time>2020-07-03T16:54:39Z</time>
      </trkpt>
      <trkpt lat="46.11272" lon="6.28383">
        <ele>523.372</ele>
        <time>2020-07-03T16:54:40Z</time>
      </trkpt>
      <trkpt lat="46.11269" lon="6.28376">
        <ele>523.051</ele>
        <time>2020-07-03T16:54:42Z</time>
      </trkpt>
      <trkpt lat="46.11264" lon="6.28373">
        <ele>523.001</ele>
        <time>2020-07-03T16:54:43Z</time>
      </trkpt>
      <trkpt lat="46.11259" lon="6.2837">
        <ele>522.811</ele>
        <time>2020-07-03T16:54:44Z</time>
      </trkpt>
      <trkpt lat="46.11251" lon="6.28365">
        <ele>522.808</ele>
        <time>2020-07-03T16:54:45Z</time>
      </trkpt>
      <trkpt lat="46.11245" lon="6.28361">
        <ele>522.93</ele>
        <time>2020-07-03T16:54:46Z</time>
      </trkpt>
      <trkpt lat="46.1124" lon="6.28358">
        <ele>522.967</ele>
        <time>2020-07-03T16:54:47Z</time>
      </trkpt>
      <trkpt lat="46.11237" lon="6.28362">
        <ele>522.735</ele>
        <time>2020-07-03T16:54:50Z</time>
      </trkpt>
      <trkpt lat="46.11234" lon="6.28368">
        <ele>522.584</ele>
        <time>2020-07-03T16:54:51Z</time>
      </trkpt>
      <trkpt lat="46.11231" lon="6.28378">
        <ele>522.435</ele>
        <time>2020-07-03T16:54:52Z</time>
      </trkpt>
      <trkpt lat="46.11229" lon="6.2839">
        <ele>522.465</ele>
        <time>2020-07-03T16:54:53Z</time>
      </trkpt>
      <trkpt lat="46.1123" lon="6.28406">
        <ele>522.681</ele>
        <time>2020-07-03T16:54:54Z</time>
      </trkpt>
      <trkpt lat="46.11227" lon="6.28427">
        <ele>522.728</ele>
        <time>2020-07-03T16:54:55Z</time>
      </trkpt>
      <trkpt lat="46.11225" lon="6.28449">
        <ele>522.898</ele>
        <time>2020-07-03T16:54:56Z</time>
      </trkpt>
      <trkpt lat="46.11225" lon="6.28473">
        <ele>523.015</ele>
        <time>2020-07-03T16:54:57Z</time>
      </trkpt>
      <trkpt lat="46.11229" lon="6.28498">
        <ele>523.426</ele>
        <time>2020-07-03T16:54:58Z</time>
      </trkpt>
      <trkpt lat="46.11235" lon="6.28518">
        <ele>523.508</ele>
        <time>2020-07-03T16:54:59Z</time>
      </trkpt>
      <trkpt lat="46.11239" lon="6.28539">
        <ele>523.694</ele>
        <time>2020-07-03T16:55:00Z</time>
      </trkpt>
      <trkpt lat="46.11244" lon="6.28558">
        <ele>523.691</ele>
        <time>2020-07-03T16:55:01Z</time>
      </trkpt>
      <trkpt lat="46.11249" lon="6.28578">
        <ele>523.399</ele>
        <time>2020-07-03T16:55:02Z</time>
      </trkpt>
      <trkpt lat="46.11254" lon="6.28594">
        <ele>522.878</ele>
        <time>2020-07-03T16:55:03Z</time>
      </trkpt>
      <trkpt lat="46.11257" lon="6.28606">
        <ele>522.359</ele>
        <time>2020-07-03T16:55:04Z</time>
      </trkpt>
      <trkpt lat="46.11258" lon="6.28615">
        <ele>521.629</ele>
        <time>2020-07-03T16:55:05Z</time>
      </trkpt>
      <trkpt lat="46.11261" lon="6.28621">
        <ele>520.635</ele>
        <time>2020-07-03T16:55:06Z</time>
      </trkpt>
      <trkpt lat="46.11261" lon="6.2861">
        <ele>518.092</ele>
        <time>2020-07-03T16:55:11Z</time>
      </trkpt>
      <trkpt lat="46.11261" lon="6.28602">
        <ele>517.919</ele>
        <time>2020-07-03T16:55:12Z</time>
      </trkpt>
      <trkpt lat="46.11259" lon="6.28593">
        <ele>517.909</ele>
        <time>2020-07-03T16:55:13Z</time>
      </trkpt>
      <trkpt lat="46.11256" lon="6.28579">
        <ele>518.119</ele>
        <time>2020-07-03T16:55:14Z</time>
      </trkpt>
      <trkpt lat="46.1125" lon="6.28564">
        <ele>518.308</ele>
        <time>2020-07-03T16:55:15Z</time>
      </trkpt>
      <trkpt lat="46.11244" lon="6.28542">
        <ele>518.846</ele>
        <time>2020-07-03T16:55:16Z</time>
      </trkpt>
      <trkpt lat="46.11239" lon="6.28523">
        <ele>519.563</ele>
        <time>2020-07-03T16:55:17Z</time>
      </trkpt>
      <trkpt lat="46.11235" lon="6.28508">
        <ele>520.371</ele>
        <time>2020-07-03T16:55:18Z</time>
      </trkpt>
      <trkpt lat="46.11232" lon="6.28497">
        <ele>521.09</ele>
        <time>2020-07-03T16:55:19Z</time>
      </trkpt>
      <trkpt lat="46.11229" lon="6.28489">
        <ele>521.541</ele>
        <time>2020-07-03T16:55:20Z</time>
      </trkpt>
      <trkpt lat="46.11226" lon="6.28483">
        <ele>521.961</ele>
        <time>2020-07-03T16:55:21Z</time>
      </trkpt>
      <trkpt lat="46.11221" lon="6.28487">
        <ele>521.857</ele>
        <time>2020-07-03T16:55:23Z</time>
      </trkpt>
      <trkpt lat="46.11218" lon="6.28495">
        <ele>521.694</ele>
        <time>2020-07-03T16:55:24Z</time>
      </trkpt>
      <trkpt lat="46.11214" lon="6.28503">
        <ele>521.454</ele>
        <time>2020-07-03T16:55:25Z</time>
      </trkpt>
      <trkpt lat="46.11211" lon="6.28516">
        <ele>521.156</ele>
        <time>2020-07-03T16:55:26Z</time>
      </trkpt>
      <trkpt lat="46.11207" lon="6.2853">
        <ele>520.911</ele>
        <time>2020-07-03T16:55:27Z</time>
      </trkpt>
      <trkpt lat="46.112" lon="6.28543">
        <ele>520.808</ele>
        <time>2020-07-03T16:55:28Z</time>
      </trkpt>
      <trkpt lat="46.1119" lon="6.28553">
        <ele>520.71</ele>
        <time>2020-07-03T16:55:29Z</time>
      </trkpt>
      <trkpt lat="46.11182" lon="6.28561">
        <ele>520.617</ele>
        <time>2020-07-03T16:55:30Z</time>
      </trkpt>
      <trkpt lat="46.11173" lon="6.28568">
        <ele>520.615</ele>
        <time>2020-07-03T16:55:31Z</time>
      </trkpt>
      <trkpt lat="46.11163" lon="6.28575">
        <ele>520.624</ele>
        <time>2020-07-03T16:55:32Z</time>
      </trkpt>
      <trkpt lat="46.11155" lon="6.2858">
        <ele>520.565</ele>
        <time>2020-07-03T16:55:33Z</time>
      </trkpt>
      <trkpt lat="46.11147" lon="6.28585">
        <ele>520.575</ele>
        <time>2020-07-03T16:55:34Z</time>
      </trkpt>
      <trkpt lat="46.11138" lon="6.28589">
        <ele>520.581</ele>
        <time>2020-07-03T16:55:35Z</time>
      </trkpt>
      <trkpt lat="46.1113" lon="6.28595">
        <ele>520.778</ele>
        <time>2020-07-03T16:55:36Z</time>
      </trkpt>
      <trkpt lat="46.11121" lon="6.28607">
        <ele>520.886</ele>
        <time>2020-07-03T16:55:37Z</time>
      </trkpt>
      <trkpt lat="46.11112" lon="6.28625">
        <ele>521.06</ele>
        <time>2020-07-03T16:55:38Z</time>
      </trkpt>
      <trkpt lat="46.11101" lon="6.28641">
        <ele>521.126</ele>
        <time>2020-07-03T16:55:39Z</time>
      </trkpt>
      <trkpt lat="46.11093" lon="6.28656">
        <ele>521.308</ele>
        <time>2020-07-03T16:55:40Z</time>
      </trkpt>
      <trkpt lat="46.11085" lon="6.28669">
        <ele>521.363</ele>
        <time>2020-07-03T16:55:41Z</time>
      </trkpt>
      <trkpt lat="46.11078" lon="6.2868">
        <ele>521.31</ele>
        <time>2020-07-03T16:55:42Z</time>
      </trkpt>
      <trkpt lat="46.11069" lon="6.28689">
        <ele>520.958</ele>
        <time>2020-07-03T16:55:43Z</time>
      </trkpt>
      <trkpt lat="46.11059" lon="6.28698">
        <ele>520.567</ele>
        <time>2020-07-03T16:55:44Z</time>
      </trkpt>
      <trkpt lat="46.11047" lon="6.28707">
        <ele>520.238</ele>
        <time>2020-07-03T16:55:45Z</time>
      </trkpt>
      <trkpt lat="46.11035" lon="6.28718">
        <ele>520.278</ele>
        <time>2020-07-03T16:55:46Z</time>
      </trkpt>
      <trkpt lat="46.11026" lon="6.28724">
        <ele>520.394</ele>
        <time>2020-07-03T16:55:47Z</time>
      </trkpt>
      <trkpt lat="46.11016" lon="6.28725">
        <ele>520.491</ele>
        <time>2020-07-03T16:55:48Z</time>
      </trkpt>
      <trkpt lat="46.11007" lon="6.28726">
        <ele>520.721</ele>
        <time>2020-07-03T16:55:49Z</time>
      </trkpt>
      <trkpt lat="46.11" lon="6.28729">
        <ele>520.841</ele>
        <time>2020-07-03T16:55:50Z</time>
      </trkpt>
      <trkpt lat="46.10995" lon="6.28737">
        <ele>520.805</ele>
        <time>2020-07-03T16:55:51Z</time>
      </trkpt>
      <trkpt lat="46.10992" lon="6.28744">
        <ele>520.808</ele>
        <time>2020-07-03T16:55:52Z</time>
      </trkpt>
      <trkpt lat="46.10988" lon="6.28751">
        <ele>520.827</ele>
        <time>2020-07-03T16:55:53Z</time>
      </trkpt>
      <trkpt lat="46.10982" lon="6.28755">
        <ele>520.924</ele>
        <time>2020-07-03T16:55:54Z</time>
      </trkpt>
      <trkpt lat="46.10976" lon="6.28758">
        <ele>521.082</ele>
        <time>2020-07-03T16:55:55Z</time>
      </trkpt>
      <trkpt lat="46.10971" lon="6.28753">
        <ele>521.031</ele>
        <time>2020-07-03T16:55:56Z</time>
      </trkpt>
      <trkpt lat="46.10963" lon="6.2875">
        <ele>521.022</ele>
        <time>2020-07-03T16:55:57Z</time>
      </trkpt>
      <trkpt lat="46.10954" lon="6.28745">
        <ele>521.082</ele>
        <time>2020-07-03T16:55:58Z</time>
      </trkpt>
      <trkpt lat="46.10944" lon="6.28737">
        <ele>521.118</ele>
        <time>2020-07-03T16:55:59Z</time>
      </trkpt>
      <trkpt lat="46.10935" lon="6.28734">
        <ele>521.475</ele>
        <time>2020-07-03T16:56:00Z</time>
      </trkpt>
      <trkpt lat="46.10926" lon="6.28737">
        <ele>521.552</ele>
        <time>2020-07-03T16:56:01Z</time>
      </trkpt>
      <trkpt lat="46.10919" lon="6.28741">
        <ele>521.853</ele>
        <time>2020-07-03T16:56:02Z</time>
      </trkpt>
      <trkpt lat="46.10914" lon="6.28736">
        <ele>522.008</ele>
        <time>2020-07-03T16:56:04Z</time>
      </trkpt>
      <trkpt lat="46.10911" lon="6.28727">
        <ele>521.808</ele>
        <time>2020-07-03T16:56:06Z</time>
      </trkpt>
      <trkpt lat="46.10905" lon="6.28718">
        <ele>521.74</ele>
        <time>2020-07-03T16:56:08Z</time>
      </trkpt>
      <trkpt lat="46.10898" lon="6.28715">
        <ele>521.737</ele>
        <time>2020-07-03T16:56:09Z</time>
      </trkpt>
      <trkpt lat="46.10885" lon="6.28712">
        <ele>521.875</ele>
        <time>2020-07-03T16:56:10Z</time>
      </trkpt>
      <trkpt lat="46.10872" lon="6.28712">
        <ele>522.074</ele>
        <time>2020-07-03T16:56:11Z</time>
      </trkpt>
      <trkpt lat="46.10861" lon="6.28709">
        <ele>522.475</ele>
        <time>2020-07-03T16:56:12Z</time>
      </trkpt>
      <trkpt lat="46.10856" lon="6.28705">
        <ele>522.915</ele>
        <time>2020-07-03T16:56:13Z</time>
      </trkpt>
      <trkpt lat="46.10852" lon="6.287">
        <ele>523.141</ele>
        <time>2020-07-03T16:56:14Z</time>
      </trkpt>
      <trkpt lat="46.10848" lon="6.2869">
        <ele>523.498</ele>
        <time>2020-07-03T16:56:15Z</time>
      </trkpt>
      <trkpt lat="46.10844" lon="6.28673">
        <ele>523.792</ele>
        <time>2020-07-03T16:56:16Z</time>
      </trkpt>
      <trkpt lat="46.10838" lon="6.2865">
        <ele>523.973</ele>
        <time>2020-07-03T16:56:17Z</time>
      </trkpt>
      <trkpt lat="46.10834" lon="6.28632">
        <ele>524.32</ele>
        <time>2020-07-03T16:56:18Z</time>
      </trkpt>
      <trkpt lat="46.10831" lon="6.28619">
        <ele>525.108</ele>
        <time>2020-07-03T16:56:19Z</time>
      </trkpt>
      <trkpt lat="46.10825" lon="6.28609">
        <ele>525.644</ele>
        <time>2020-07-03T16:56:20Z</time>
      </trkpt>
      <trkpt lat="46.10816" lon="6.28598">
        <ele>525.881</ele>
        <time>2020-07-03T16:56:21Z</time>
      </trkpt>
      <trkpt lat="46.10807" lon="6.28585">
        <ele>525.969</ele>
        <time>2020-07-03T16:56:22Z</time>
      </trkpt>
      <trkpt lat="46.10801" lon="6.28576">
        <ele>525.958</ele>
        <time>2020-07-03T16:56:23Z</time>
      </trkpt>
      <trkpt lat="46.10798" lon="6.28564">
        <ele>525.529</ele>
        <time>2020-07-03T16:56:24Z</time>
      </trkpt>
      <trkpt lat="46.10796" lon="6.28549">
        <ele>525.449</ele>
        <time>2020-07-03T16:56:25Z</time>
      </trkpt>
      <trkpt lat="46.10793" lon="6.2853">
        <ele>525.495</ele>
        <time>2020-07-03T16:56:26Z</time>
      </trkpt>
      <trkpt lat="46.1079" lon="6.28513">
        <ele>525.642</ele>
        <time>2020-07-03T16:56:27Z</time>
      </trkpt>
      <trkpt lat="46.10787" lon="6.28495">
        <ele>526.096</ele>
        <time>2020-07-03T16:56:28Z</time>
      </trkpt>
      <trkpt lat="46.10784" lon="6.28481">
        <ele>526.531</ele>
        <time>2020-07-03T16:56:29Z</time>
      </trkpt>
      <trkpt lat="46.10781" lon="6.2847">
        <ele>527.024</ele>
        <time>2020-07-03T16:56:30Z</time>
      </trkpt>
      <trkpt lat="46.1078" lon="6.28463">
        <ele>527.408</ele>
        <time>2020-07-03T16:56:31Z</time>
      </trkpt>
      <trkpt lat="46.1078" lon="6.28456">
        <ele>527.684</ele>
        <time>2020-07-03T16:56:32Z</time>
      </trkpt>
      <trkpt lat="46.10782" lon="6.28438">
        <ele>527.621</ele>
        <time>2020-07-03T16:56:33Z</time>
      </trkpt>
      <trkpt lat="46.10785" lon="6.28423">
        <ele>527.729</ele>
        <time>2020-07-03T16:56:34Z</time>
      </trkpt>
      <trkpt lat="46.10786" lon="6.28405">
        <ele>527.958</ele>
        <time>2020-07-03T16:56:35Z</time>
      </trkpt>
      <trkpt lat="46.10786" lon="6.28385">
        <ele>528.449</ele>
        <time>2020-07-03T16:56:36Z</time>
      </trkpt>
      <trkpt lat="46.10782" lon="6.28365">
        <ele>529.139</ele>
        <time>2020-07-03T16:56:37Z</time>
      </trkpt>
      <trkpt lat="46.10781" lon="6.28345">
        <ele>530.095</ele>
        <time>2020-07-03T16:56:38Z</time>
      </trkpt>
      <trkpt lat="46.1078" lon="6.28329">
        <ele>531.292</ele>
        <time>2020-07-03T16:56:39Z</time>
      </trkpt>
      <trkpt lat="46.10778" lon="6.28314">
        <ele>532.537</ele>
        <time>2020-07-03T16:56:40Z</time>
      </trkpt>
      <trkpt lat="46.10778" lon="6.28299">
        <ele>533.549</ele>
        <time>2020-07-03T16:56:41Z</time>
      </trkpt>
      <trkpt lat="46.1078" lon="6.28287">
        <ele>534.413</ele>
        <time>2020-07-03T16:56:42Z</time>
      </trkpt>
      <trkpt lat="46.10781" lon="6.28277">
        <ele>535.208</ele>
        <time>2020-07-03T16:56:43Z</time>
      </trkpt>
      <trkpt lat="46.10786" lon="6.28261">
        <ele>535.618</ele>
        <time>2020-07-03T16:56:44Z</time>
      </trkpt>
      <trkpt lat="46.10791" lon="6.28248">
        <ele>536.075</ele>
        <time>2020-07-03T16:56:45Z</time>
      </trkpt>
      <trkpt lat="46.10794" lon="6.2824">
        <ele>536.583</ele>
        <time>2020-07-03T16:56:46Z</time>
      </trkpt>
      <trkpt lat="46.10798" lon="6.28235">
        <ele>537.042</ele>
        <time>2020-07-03T16:56:47Z</time>
      </trkpt>
      <trkpt lat="46.10788" lon="6.28245">
        <ele>537.193</ele>
        <time>2020-07-03T16:56:53Z</time>
      </trkpt>
      <trkpt lat="46.10783" lon="6.28258">
        <ele>537.143</ele>
        <time>2020-07-03T16:56:54Z</time>
      </trkpt>
      <trkpt lat="46.10778" lon="6.28271">
        <ele>537.129</ele>
        <time>2020-07-03T16:56:55Z</time>
      </trkpt>
      <trkpt lat="46.10776" lon="6.28281">
        <ele>537.256</ele>
        <time>2020-07-03T16:56:56Z</time>
      </trkpt>
      <trkpt lat="46.10775" lon="6.28291">
        <ele>537.222</ele>
        <time>2020-07-03T16:56:57Z</time>
      </trkpt>
      <trkpt lat="46.10774" lon="6.28301">
        <ele>537.062</ele>
        <time>2020-07-03T16:56:58Z</time>
      </trkpt>
      <trkpt lat="46.10771" lon="6.28307">
        <ele>536.108</ele>
        <time>2020-07-03T16:57:00Z</time>
      </trkpt>
      <trkpt lat="46.10766" lon="6.28311">
        <ele>535.408</ele>
        <time>2020-07-03T16:57:01Z</time>
      </trkpt>
      <trkpt lat="46.1076" lon="6.28313">
        <ele>534.817</ele>
        <time>2020-07-03T16:57:02Z</time>
      </trkpt>
      <trkpt lat="46.10754" lon="6.28316">
        <ele>534.484</ele>
        <time>2020-07-03T16:57:03Z</time>
      </trkpt>
      <trkpt lat="46.10747" lon="6.28317">
        <ele>534.272</ele>
        <time>2020-07-03T16:57:04Z</time>
      </trkpt>
      <trkpt lat="46.10742" lon="6.28318">
        <ele>534.291</ele>
        <time>2020-07-03T16:57:05Z</time>
      </trkpt>
      <trkpt lat="46.10734" lon="6.28321">
        <ele>535.012</ele>
        <time>2020-07-03T16:57:07Z</time>
      </trkpt>
      <trkpt lat="46.1073" lon="6.28327">
        <ele>535.522</ele>
        <time>2020-07-03T16:57:08Z</time>
      </trkpt>
      <trkpt lat="46.10722" lon="6.28333">
        <ele>536.378</ele>
        <time>2020-07-03T16:57:10Z</time>
      </trkpt>
      <trkpt lat="46.10716" lon="6.28333">
        <ele>536.365</ele>
        <time>2020-07-03T16:57:11Z</time>
      </trkpt>
      <trkpt lat="46.10709" lon="6.28332">
        <ele>536.354</ele>
        <time>2020-07-03T16:57:12Z</time>
      </trkpt>
      <trkpt lat="46.10702" lon="6.28328">
        <ele>536.156</ele>
        <time>2020-07-03T16:57:13Z</time>
      </trkpt>
      <trkpt lat="46.10696" lon="6.28322">
        <ele>535.911</ele>
        <time>2020-07-03T16:57:14Z</time>
      </trkpt>
      <trkpt lat="46.10689" lon="6.28312">
        <ele>535.708</ele>
        <time>2020-07-03T16:57:15Z</time>
      </trkpt>
      <trkpt lat="46.10681" lon="6.28306">
        <ele>535.74</ele>
        <time>2020-07-03T16:57:16Z</time>
      </trkpt>
      <trkpt lat="46.10673" lon="6.28304">
        <ele>535.977</ele>
        <time>2020-07-03T16:57:17Z</time>
      </trkpt>
      <trkpt lat="46.10662" lon="6.28307">
        <ele>536.195</ele>
        <time>2020-07-03T16:57:18Z</time>
      </trkpt>
      <trkpt lat="46.10651" lon="6.28311">
        <ele>536.494</ele>
        <time>2020-07-03T16:57:19Z</time>
      </trkpt>
      <trkpt lat="46.10642" lon="6.2831">
        <ele>536.915</ele>
        <time>2020-07-03T16:57:20Z</time>
      </trkpt>
      <trkpt lat="46.10633" lon="6.28311">
        <ele>537.445</ele>
        <time>2020-07-03T16:57:21Z</time>
      </trkpt>
      <trkpt lat="46.10627" lon="6.28312">
        <ele>537.751</ele>
        <time>2020-07-03T16:57:22Z</time>
      </trkpt>
      <trkpt lat="46.10623" lon="6.28308">
        <ele>538.188</ele>
        <time>2020-07-03T16:57:23Z</time>
      </trkpt>
      <trkpt lat="46.10615" lon="6.28303">
        <ele>539.093</ele>
        <time>2020-07-03T16:57:25Z</time>
      </trkpt>
      <trkpt lat="46.10607" lon="6.28301">
        <ele>539.565</ele>
        <time>2020-07-03T16:57:26Z</time>
      </trkpt>
      <trkpt lat="46.10597" lon="6.28297">
        <ele>540.221</ele>
        <time>2020-07-03T16:57:27Z</time>
      </trkpt>
      <trkpt lat="46.10585" lon="6.28296">
        <ele>540.908</ele>
        <time>2020-07-03T16:57:28Z</time>
      </trkpt>
      <trkpt lat="46.10576" lon="6.28297">
        <ele>541.864</ele>
        <time>2020-07-03T16:57:29Z</time>
      </trkpt>
      <trkpt lat="46.10571" lon="6.28299">
        <ele>542.591</ele>
        <time>2020-07-03T16:57:30Z</time>
      </trkpt>
      <trkpt lat="46.10566" lon="6.28301">
        <ele>543.079</ele>
        <time>2020-07-03T16:57:31Z</time>
      </trkpt>
      <trkpt lat="46.10561" lon="6.28304">
        <ele>543.348</ele>
        <time>2020-07-03T16:57:32Z</time>
      </trkpt>
      <trkpt lat="46.10557" lon="6.2831">
        <ele>543.379</ele>
        <time>2020-07-03T16:57:33Z</time>
      </trkpt>
      <trkpt lat="46.1055" lon="6.28317">
        <ele>543.369</ele>
        <time>2020-07-03T16:57:34Z</time>
      </trkpt>
      <trkpt lat="46.10543" lon="6.28329">
        <ele>543.155</ele>
        <time>2020-07-03T16:57:35Z</time>
      </trkpt>
      <trkpt lat="46.10532" lon="6.28344">
        <ele>542.892</ele>
        <time>2020-07-03T16:57:36Z</time>
      </trkpt>
      <trkpt lat="46.10523" lon="6.28356">
        <ele>542.737</ele>
        <time>2020-07-03T16:57:37Z</time>
      </trkpt>
      <trkpt lat="46.10513" lon="6.28365">
        <ele>542.549</ele>
        <time>2020-07-03T16:57:38Z</time>
      </trkpt>
      <trkpt lat="46.10505" lon="6.28372">
        <ele>542.213</ele>
        <time>2020-07-03T16:57:39Z</time>
      </trkpt>
      <trkpt lat="46.10499" lon="6.28377">
        <ele>542.008</ele>
        <time>2020-07-03T16:57:40Z</time>
      </trkpt>
      <trkpt lat="46.10504" lon="6.28381">
        <ele>541.598</ele>
        <time>2020-07-03T16:57:45Z</time>
      </trkpt>
      <trkpt lat="46.10509" lon="6.28387">
        <ele>541.545</ele>
        <time>2020-07-03T16:57:47Z</time>
      </trkpt>
      <trkpt lat="46.10515" lon="6.28381">
        <ele>541.583</ele>
        <time>2020-07-03T16:57:50Z</time>
      </trkpt>
      <trkpt lat="46.10518" lon="6.28374">
        <ele>541.542</ele>
        <time>2020-07-03T16:57:59Z</time>
      </trkpt>
      <trkpt lat="46.1052" lon="6.28366">
        <ele>541.563</ele>
        <time>2020-07-03T16:58:00Z</time>
      </trkpt>
      <trkpt lat="46.1052" lon="6.28354">
        <ele>541.963</ele>
        <time>2020-07-03T16:58:02Z</time>
      </trkpt>
      <trkpt lat="46.10518" lon="6.28344">
        <ele>542.959</ele>
        <time>2020-07-03T16:58:04Z</time>
      </trkpt>
      <trkpt lat="46.10513" lon="6.28342">
        <ele>544.066</ele>
        <time>2020-07-03T16:58:06Z</time>
      </trkpt>
      <trkpt lat="46.10505" lon="6.28339">
        <ele>545.242</ele>
        <time>2020-07-03T16:58:08Z</time>
      </trkpt>
      <trkpt lat="46.10498" lon="6.28335">
        <ele>545.722</ele>
        <time>2020-07-03T16:58:09Z</time>
      </trkpt>
      <trkpt lat="46.10484" lon="6.2833">
        <ele>547.214</ele>
        <time>2020-07-03T16:58:11Z</time>
      </trkpt>
      <trkpt lat="46.10479" lon="6.28325">
        <ele>547.908</ele>
        <time>2020-07-03T16:58:12Z</time>
      </trkpt>
      <trkpt lat="46.10473" lon="6.28323">
        <ele>548.529</ele>
        <time>2020-07-03T16:58:13Z</time>
      </trkpt>
      <trkpt lat="46.10464" lon="6.28324">
        <ele>549.196</ele>
        <time>2020-07-03T16:58:14Z</time>
      </trkpt>
      <trkpt lat="46.10455" lon="6.28327">
        <ele>549.674</ele>
        <time>2020-07-03T16:58:15Z</time>
      </trkpt>
      <trkpt lat="46.10443" lon="6.28331">
        <ele>550.143</ele>
        <time>2020-07-03T16:58:16Z</time>
      </trkpt>
      <trkpt lat="46.10436" lon="6.28334">
        <ele>550.714</ele>
        <time>2020-07-03T16:58:17Z</time>
      </trkpt>
      <trkpt lat="46.10429" lon="6.28335">
        <ele>551.324</ele>
        <time>2020-07-03T16:58:18Z</time>
      </trkpt>
      <trkpt lat="46.10425" lon="6.28333">
        <ele>551.83</ele>
        <time>2020-07-03T16:58:19Z</time>
      </trkpt>
      <trkpt lat="46.10416" lon="6.28329">
        <ele>552.797</ele>
        <time>2020-07-03T16:58:21Z</time>
      </trkpt>
      <trkpt lat="46.10411" lon="6.28327">
        <ele>553.131</ele>
        <time>2020-07-03T16:58:23Z</time>
      </trkpt>
      <trkpt lat="46.10405" lon="6.28325">
        <ele>553.161</ele>
        <time>2020-07-03T16:58:25Z</time>
      </trkpt>
      <trkpt lat="46.10401" lon="6.28325">
        <ele>553.007</ele>
        <time>2020-07-03T16:58:27Z</time>
      </trkpt>
      <trkpt lat="46.10395" lon="6.28324">
        <ele>552.908</ele>
        <time>2020-07-03T16:58:28Z</time>
      </trkpt>
      <trkpt lat="46.10389" lon="6.28322">
        <ele>552.898</ele>
        <time>2020-07-03T16:58:29Z</time>
      </trkpt>
      <trkpt lat="46.1038" lon="6.28321">
        <ele>552.775</ele>
        <time>2020-07-03T16:58:30Z</time>
      </trkpt>
      <trkpt lat="46.10369" lon="6.28317">
        <ele>552.713</ele>
        <time>2020-07-03T16:58:31Z</time>
      </trkpt>
      <trkpt lat="46.10359" lon="6.28316">
        <ele>552.562</ele>
        <time>2020-07-03T16:58:32Z</time>
      </trkpt>
      <trkpt lat="46.10354" lon="6.28312">
        <ele>552.073</ele>
        <time>2020-07-03T16:58:33Z</time>
      </trkpt>
      <trkpt lat="46.10349" lon="6.28311">
        <ele>551.243</ele>
        <time>2020-07-03T16:58:34Z</time>
      </trkpt>
      <trkpt lat="46.10344" lon="6.28313">
        <ele>550.329</ele>
        <time>2020-07-03T16:58:35Z</time>
      </trkpt>
      <trkpt lat="46.10338" lon="6.2832">
        <ele>546.866</ele>
        <time>2020-07-03T16:58:44Z</time>
      </trkpt>
      <trkpt lat="46.10335" lon="6.28327">
        <ele>546.798</ele>
        <time>2020-07-03T16:58:47Z</time>
      </trkpt>
      <trkpt lat="46.10333" lon="6.28334">
        <ele>546.515</ele>
        <time>2020-07-03T16:58:50Z</time>
      </trkpt>
      <trkpt lat="46.10329" lon="6.28337">
        <ele>546.426</ele>
        <time>2020-07-03T16:58:54Z</time>
      </trkpt>
      <trkpt lat="46.10324" lon="6.28341">
        <ele>546.308</ele>
        <time>2020-07-03T16:59:00Z</time>
      </trkpt>
      <trkpt lat="46.10319" lon="6.28347">
        <ele>546.394</ele>
        <time>2020-07-03T16:59:02Z</time>
      </trkpt>
      <trkpt lat="46.10314" lon="6.28352">
        <ele>546.421</ele>
        <time>2020-07-03T16:59:12Z</time>
      </trkpt>
      <trkpt lat="46.1031" lon="6.28355">
        <ele>546.449</ele>
        <time>2020-07-03T16:59:13Z</time>
      </trkpt>
      <trkpt lat="46.10304" lon="6.28362">
        <ele>546.598</ele>
        <time>2020-07-03T16:59:14Z</time>
      </trkpt>
      <trkpt lat="46.10297" lon="6.28371">
        <ele>546.689</ele>
        <time>2020-07-03T16:59:15Z</time>
      </trkpt>
      <trkpt lat="46.1029" lon="6.28375">
        <ele>546.619</ele>
        <time>2020-07-03T16:59:16Z</time>
      </trkpt>
      <trkpt lat="46.10283" lon="6.28378">
        <ele>546.575</ele>
        <time>2020-07-03T16:59:17Z</time>
      </trkpt>
      <trkpt lat="46.10276" lon="6.2838">
        <ele>546.322</ele>
        <time>2020-07-03T16:59:18Z</time>
      </trkpt>
      <trkpt lat="46.10269" lon="6.28381">
        <ele>546.187</ele>
        <time>2020-07-03T16:59:19Z</time>
      </trkpt>
      <trkpt lat="46.10262" lon="6.28383">
        <ele>545.942</ele>
        <time>2020-07-03T16:59:20Z</time>
      </trkpt>
      <trkpt lat="46.10254" lon="6.28387">
        <ele>545.826</ele>
        <time>2020-07-03T16:59:21Z</time>
      </trkpt>
      <trkpt lat="46.10248" lon="6.28388">
        <ele>545.808</ele>
        <time>2020-07-03T16:59:22Z</time>
      </trkpt>
      <trkpt lat="46.10242" lon="6.28388">
        <ele>546.093</ele>
        <time>2020-07-03T16:59:23Z</time>
      </trkpt>
      <trkpt lat="46.10234" lon="6.28392">
        <ele>546.24</ele>
        <time>2020-07-03T16:59:24Z</time>
      </trkpt>
      <trkpt lat="46.10226" lon="6.28392">
        <ele>546.448</ele>
        <time>2020-07-03T16:59:25Z</time>
      </trkpt>
      <trkpt lat="46.10221" lon="6.28392">
        <ele>546.737</ele>
        <time>2020-07-03T16:59:26Z</time>
      </trkpt>
      <trkpt lat="46.10216" lon="6.2839">
        <ele>547.168</ele>
        <time>2020-07-03T16:59:27Z</time>
      </trkpt>
      <trkpt lat="46.10208" lon="6.28386">
        <ele>547.378</ele>
        <time>2020-07-03T16:59:28Z</time>
      </trkpt>
      <trkpt lat="46.102" lon="6.28385">
        <ele>547.664</ele>
        <time>2020-07-03T16:59:29Z</time>
      </trkpt>
      <trkpt lat="46.1019" lon="6.2839">
        <ele>547.861</ele>
        <time>2020-07-03T16:59:30Z</time>
      </trkpt>
      <trkpt lat="46.10178" lon="6.28394">
        <ele>548.095</ele>
        <time>2020-07-03T16:59:31Z</time>
      </trkpt>
      <trkpt lat="46.10167" lon="6.28396">
        <ele>548.349</ele>
        <time>2020-07-03T16:59:32Z</time>
      </trkpt>
      <trkpt lat="46.10156" lon="6.28397">
        <ele>548.823</ele>
        <time>2020-07-03T16:59:33Z</time>
      </trkpt>
      <trkpt lat="46.1015" lon="6.28397">
        <ele>549.308</ele>
        <time>2020-07-03T16:59:34Z</time>
      </trkpt>
      <trkpt lat="46.10143" lon="6.28399">
        <ele>550.394</ele>
        <time>2020-07-03T16:59:36Z</time>
      </trkpt>
      <trkpt lat="46.10138" lon="6.28395">
        <ele>550.571</ele>
        <time>2020-07-03T16:59:37Z</time>
      </trkpt>
      <trkpt lat="46.10134" lon="6.28391">
        <ele>550.619</ele>
        <time>2020-07-03T16:59:38Z</time>
      </trkpt>
      <trkpt lat="46.10124" lon="6.2839">
        <ele>550.678</ele>
        <time>2020-07-03T16:59:40Z</time>
      </trkpt>
      <trkpt lat="46.10118" lon="6.28395">
        <ele>550.639</ele>
        <time>2020-07-03T16:59:41Z</time>
      </trkpt>
      <trkpt lat="46.10114" lon="6.28399">
        <ele>550.719</ele>
        <time>2020-07-03T16:59:42Z</time>
      </trkpt>
      <trkpt lat="46.10109" lon="6.28404">
        <ele>550.845</ele>
        <time>2020-07-03T16:59:43Z</time>
      </trkpt>
      <trkpt lat="46.10104" lon="6.28408">
        <ele>550.962</ele>
        <time>2020-07-03T16:59:44Z</time>
      </trkpt>
      <trkpt lat="46.10099" lon="6.28413">
        <ele>551.128</ele>
        <time>2020-07-03T16:59:45Z</time>
      </trkpt>
      <trkpt lat="46.10091" lon="6.28419">
        <ele>551.289</ele>
        <time>2020-07-03T16:59:46Z</time>
      </trkpt>
      <trkpt lat="46.10084" lon="6.28427">
        <ele>551.417</ele>
        <time>2020-07-03T16:59:47Z</time>
      </trkpt>
      <trkpt lat="46.10078" lon="6.28435">
        <ele>551.608</ele>
        <time>2020-07-03T16:59:48Z</time>
      </trkpt>
      <trkpt lat="46.10073" lon="6.28441">
        <ele>551.847</ele>
        <time>2020-07-03T16:59:49Z</time>
      </trkpt>
      <trkpt lat="46.10066" lon="6.28446">
        <ele>551.944</ele>
        <time>2020-07-03T16:59:50Z</time>
      </trkpt>
      <trkpt lat="46.10061" lon="6.28451">
        <ele>551.992</ele>
        <time>2020-07-03T16:59:51Z</time>
      </trkpt>
      <trkpt lat="46.10056" lon="6.28455">
        <ele>551.941</ele>
        <time>2020-07-03T16:59:52Z</time>
      </trkpt>
      <trkpt lat="46.10052" lon="6.2846">
        <ele>551.512</ele>
        <time>2020-07-03T16:59:53Z</time>
      </trkpt>
      <trkpt lat="46.10047" lon="6.28463">
        <ele>550.512</ele>
        <time>2020-07-03T16:59:55Z</time>
      </trkpt>
      <trkpt lat="46.10045" lon="6.28471">
        <ele>548.118</ele>
        <time>2020-07-03T17:00:03Z</time>
      </trkpt>
      <trkpt lat="46.10048" lon="6.28479">
        <ele>547.535</ele>
        <time>2020-07-03T17:02:54Z</time>
      </trkpt>
      <trkpt lat="46.10056" lon="6.28488">
        <ele>547.497</ele>
        <time>2020-07-03T17:02:56Z</time>
      </trkpt>
      <trkpt lat="46.10062" lon="6.28492">
        <ele>547.223</ele>
        <time>2020-07-03T17:02:57Z</time>
      </trkpt>
      <trkpt lat="46.10067" lon="6.285">
        <ele>546.925</ele>
        <time>2020-07-03T17:02:58Z</time>
      </trkpt>
      <trkpt lat="46.10072" lon="6.28513">
        <ele>546.508</ele>
        <time>2020-07-03T17:02:59Z</time>
      </trkpt>
      <trkpt lat="46.10079" lon="6.28525">
        <ele>545.994</ele>
        <time>2020-07-03T17:03:00Z</time>
      </trkpt>
      <trkpt lat="46.10089" lon="6.28538">
        <ele>545.441</ele>
        <time>2020-07-03T17:03:01Z</time>
      </trkpt>
      <trkpt lat="46.101" lon="6.28552">
        <ele>544.899</ele>
        <time>2020-07-03T17:03:02Z</time>
      </trkpt>
      <trkpt lat="46.10111" lon="6.28568">
        <ele>544.078</ele>
        <time>2020-07-03T17:03:03Z</time>
      </trkpt>
      <trkpt lat="46.10122" lon="6.28583">
        <ele>543.659</ele>
        <time>2020-07-03T17:03:04Z</time>
      </trkpt>
      <trkpt lat="46.10132" lon="6.28597">
        <ele>543.269</ele>
        <time>2020-07-03T17:03:05Z</time>
      </trkpt>
      <trkpt lat="46.10141" lon="6.28608">
        <ele>542.675</ele>
        <time>2020-07-03T17:03:06Z</time>
      </trkpt>
      <trkpt lat="46.10149" lon="6.28619">
        <ele>542.092</ele>
        <time>2020-07-03T17:03:07Z</time>
      </trkpt>
      <trkpt lat="46.10156" lon="6.28631">
        <ele>541.575</ele>
        <time>2020-07-03T17:03:08Z</time>
      </trkpt>
      <trkpt lat="46.10162" lon="6.28643">
        <ele>540.828</ele>
        <time>2020-07-03T17:03:09Z</time>
      </trkpt>
      <trkpt lat="46.10167" lon="6.28654">
        <ele>540.12</ele>
        <time>2020-07-03T17:03:10Z</time>
      </trkpt>
      <trkpt lat="46.10171" lon="6.28665">
        <ele>539.608</ele>
        <time>2020-07-03T17:03:11Z</time>
      </trkpt>
      <trkpt lat="46.10176" lon="6.28677">
        <ele>538.962</ele>
        <time>2020-07-03T17:03:12Z</time>
      </trkpt>
      <trkpt lat="46.10179" lon="6.2869">
        <ele>538.259</ele>
        <time>2020-07-03T17:03:13Z</time>
      </trkpt>
      <trkpt lat="46.10183" lon="6.28703">
        <ele>537.547</ele>
        <time>2020-07-03T17:03:14Z</time>
      </trkpt>
      <trkpt lat="46.10188" lon="6.28717">
        <ele>536.766</ele>
        <time>2020-07-03T17:03:15Z</time>
      </trkpt>
      <trkpt lat="46.10192" lon="6.28732">
        <ele>535.987</ele>
        <time>2020-07-03T17:03:16Z</time>
      </trkpt>
      <trkpt lat="46.10196" lon="6.2875">
        <ele>535.287</ele>
        <time>2020-07-03T17:03:17Z</time>
      </trkpt>
      <trkpt lat="46.10199" lon="6.28768">
        <ele>534.813</ele>
        <time>2020-07-03T17:03:18Z</time>
      </trkpt>
      <trkpt lat="46.10204" lon="6.28783">
        <ele>534.28</ele>
        <time>2020-07-03T17:03:19Z</time>
      </trkpt>
      <trkpt lat="46.10209" lon="6.28797">
        <ele>533.646</ele>
        <time>2020-07-03T17:03:20Z</time>
      </trkpt>
      <trkpt lat="46.10216" lon="6.28811">
        <ele>532.988</ele>
        <time>2020-07-03T17:03:21Z</time>
      </trkpt>
      <trkpt lat="46.10223" lon="6.28826">
        <ele>532.116</ele>
        <time>2020-07-03T17:03:22Z</time>
      </trkpt>
      <trkpt lat="46.10227" lon="6.28841">
        <ele>531.408</ele>
        <time>2020-07-03T17:03:23Z</time>
      </trkpt>
      <trkpt lat="46.10228" lon="6.28855">
        <ele>530.589</ele>
        <time>2020-07-03T17:03:24Z</time>
      </trkpt>
      <trkpt lat="46.10227" lon="6.28872">
        <ele>529.816</ele>
        <time>2020-07-03T17:03:25Z</time>
      </trkpt>
      <trkpt lat="46.10229" lon="6.28888">
        <ele>529.224</ele>
        <time>2020-07-03T17:03:26Z</time>
      </trkpt>
      <trkpt lat="46.10232" lon="6.28906">
        <ele>528.613</ele>
        <time>2020-07-03T17:03:27Z</time>
      </trkpt>
      <trkpt lat="46.10238" lon="6.28922">
        <ele>527.884</ele>
        <time>2020-07-03T17:03:28Z</time>
      </trkpt>
      <trkpt lat="46.10243" lon="6.28939">
        <ele>527.354</ele>
        <time>2020-07-03T17:03:29Z</time>
      </trkpt>
      <trkpt lat="46.10248" lon="6.28955">
        <ele>526.96</ele>
        <time>2020-07-03T17:03:30Z</time>
      </trkpt>
      <trkpt lat="46.10251" lon="6.28971">
        <ele>526.667</ele>
        <time>2020-07-03T17:03:31Z</time>
      </trkpt>
      <trkpt lat="46.10252" lon="6.28988">
        <ele>526.322</ele>
        <time>2020-07-03T17:03:32Z</time>
      </trkpt>
      <trkpt lat="46.10253" lon="6.29005">
        <ele>525.962</ele>
        <time>2020-07-03T17:03:33Z</time>
      </trkpt>
      <trkpt lat="46.10252" lon="6.29024">
        <ele>525.508</ele>
        <time>2020-07-03T17:03:34Z</time>
      </trkpt>
      <trkpt lat="46.10251" lon="6.29044">
        <ele>525.008</ele>
        <time>2020-07-03T17:03:35Z</time>
      </trkpt>
      <trkpt lat="46.10249" lon="6.29063">
        <ele>524.417</ele>
        <time>2020-07-03T17:03:36Z</time>
      </trkpt>
      <trkpt lat="46.10247" lon="6.29081">
        <ele>524.094</ele>
        <time>2020-07-03T17:03:37Z</time>
      </trkpt>
      <trkpt lat="46.10248" lon="6.29097">
        <ele>523.742</ele>
        <time>2020-07-03T17:03:38Z</time>
      </trkpt>
      <trkpt lat="46.10249" lon="6.29114">
        <ele>523.591</ele>
        <time>2020-07-03T17:03:39Z</time>
      </trkpt>
      <trkpt lat="46.10252" lon="6.29131">
        <ele>523.222</ele>
        <time>2020-07-03T17:03:40Z</time>
      </trkpt>
      <trkpt lat="46.10254" lon="6.29149">
        <ele>523.052</ele>
        <time>2020-07-03T17:03:41Z</time>
      </trkpt>
      <trkpt lat="46.10257" lon="6.29165">
        <ele>522.828</ele>
        <time>2020-07-03T17:03:42Z</time>
      </trkpt>
      <trkpt lat="46.10261" lon="6.29179">
        <ele>522.815</ele>
        <time>2020-07-03T17:03:43Z</time>
      </trkpt>
      <trkpt lat="46.10266" lon="6.29193">
        <ele>522.327</ele>
        <time>2020-07-03T17:03:44Z</time>
      </trkpt>
      <trkpt lat="46.10272" lon="6.29207">
        <ele>522.168</ele>
        <time>2020-07-03T17:03:45Z</time>
      </trkpt>
      <trkpt lat="46.10278" lon="6.29221">
        <ele>521.914</ele>
        <time>2020-07-03T17:03:46Z</time>
      </trkpt>
      <trkpt lat="46.10285" lon="6.29236">
        <ele>521.708</ele>
        <time>2020-07-03T17:03:47Z</time>
      </trkpt>
      <trkpt lat="46.1029" lon="6.29251">
        <ele>521.427</ele>
        <time>2020-07-03T17:03:48Z</time>
      </trkpt>
      <trkpt lat="46.10296" lon="6.29265">
        <ele>521.344</ele>
        <time>2020-07-03T17:03:49Z</time>
      </trkpt>
      <trkpt lat="46.10299" lon="6.29278">
        <ele>521.292</ele>
        <time>2020-07-03T17:03:50Z</time>
      </trkpt>
      <trkpt lat="46.10301" lon="6.2929">
        <ele>521.191</ele>
        <time>2020-07-03T17:03:51Z</time>
      </trkpt>
      <trkpt lat="46.10303" lon="6.29303">
        <ele>520.942</ele>
        <time>2020-07-03T17:03:52Z</time>
      </trkpt>
      <trkpt lat="46.10303" lon="6.29313">
        <ele>520.662</ele>
        <time>2020-07-03T17:03:53Z</time>
      </trkpt>
      <trkpt lat="46.10306" lon="6.29321">
        <ele>520.228</ele>
        <time>2020-07-03T17:03:54Z</time>
      </trkpt>
      <trkpt lat="46.10306" lon="6.29329">
        <ele>519.995</ele>
        <time>2020-07-03T17:03:55Z</time>
      </trkpt>
      <trkpt lat="46.10307" lon="6.29335">
        <ele>519.468</ele>
        <time>2020-07-03T17:03:56Z</time>
      </trkpt>
      <trkpt lat="46.10305" lon="6.29342">
        <ele>518.942</ele>
        <time>2020-07-03T17:03:57Z</time>
      </trkpt>
      <trkpt lat="46.10304" lon="6.29349">
        <ele>518.426</ele>
        <time>2020-07-03T17:03:58Z</time>
      </trkpt>
      <trkpt lat="46.10303" lon="6.29358">
        <ele>517.808</ele>
        <time>2020-07-03T17:03:59Z</time>
      </trkpt>
      <trkpt lat="46.10303" lon="6.29367">
        <ele>517.361</ele>
        <time>2020-07-03T17:04:00Z</time>
      </trkpt>
      <trkpt lat="46.10302" lon="6.29375">
        <ele>516.848</ele>
        <time>2020-07-03T17:04:01Z</time>
      </trkpt>
      <trkpt lat="46.10297" lon="6.29383">
        <ele>515.726</ele>
        <time>2020-07-03T17:04:03Z</time>
      </trkpt>
      <trkpt lat="46.10302" lon="6.29381">
        <ele>514.615</ele>
        <time>2020-07-03T17:04:06Z</time>
      </trkpt>
      <trkpt lat="46.10302" lon="6.29368">
        <ele>514.576</ele>
        <time>2020-07-03T17:04:08Z</time>
      </trkpt>
      <trkpt lat="46.10302" lon="6.29359">
        <ele>514.696</ele>
        <time>2020-07-03T17:04:09Z</time>
      </trkpt>
      <trkpt lat="46.10302" lon="6.29348">
        <ele>514.942</ele>
        <time>2020-07-03T17:04:10Z</time>
      </trkpt>
      <trkpt lat="46.10304" lon="6.29339">
        <ele>515.269</ele>
        <time>2020-07-03T17:04:11Z</time>
      </trkpt>
      <trkpt lat="46.10304" lon="6.29327">
        <ele>515.759</ele>
        <time>2020-07-03T17:04:12Z</time>
      </trkpt>
      <trkpt lat="46.10304" lon="6.29314">
        <ele>516.303</ele>
        <time>2020-07-03T17:04:13Z</time>
      </trkpt>
      <trkpt lat="46.10305" lon="6.29302">
        <ele>516.823</ele>
        <time>2020-07-03T17:04:14Z</time>
      </trkpt>
      <trkpt lat="46.10304" lon="6.29294">
        <ele>517.508</ele>
        <time>2020-07-03T17:04:15Z</time>
      </trkpt>
      <trkpt lat="46.10309" lon="6.29292">
        <ele>518.53</ele>
        <time>2020-07-03T17:04:17Z</time>
      </trkpt>
      <trkpt lat="46.10312" lon="6.293">
        <ele>518.827</ele>
        <time>2020-07-03T17:04:18Z</time>
      </trkpt>
      <trkpt lat="46.10316" lon="6.29308">
        <ele>519.195</ele>
        <time>2020-07-03T17:04:19Z</time>
      </trkpt>
      <trkpt lat="46.10323" lon="6.29308">
        <ele>519.234</ele>
        <time>2020-07-03T17:04:21Z</time>
      </trkpt>
      <trkpt lat="46.1033" lon="6.29302">
        <ele>519.265</ele>
        <time>2020-07-03T17:04:22Z</time>
      </trkpt>
      <trkpt lat="46.10336" lon="6.293">
        <ele>519.435</ele>
        <time>2020-07-03T17:04:23Z</time>
      </trkpt>
      <trkpt lat="46.10341" lon="6.29301">
        <ele>519.731</ele>
        <time>2020-07-03T17:04:24Z</time>
      </trkpt>
      <trkpt lat="46.10347" lon="6.293">
        <ele>520.278</ele>
        <time>2020-07-03T17:04:25Z</time>
      </trkpt>
      <trkpt lat="46.10351" lon="6.29296">
        <ele>520.757</ele>
        <time>2020-07-03T17:04:26Z</time>
      </trkpt>
      <trkpt lat="46.10358" lon="6.29288">
        <ele>521.2</ele>
        <time>2020-07-03T17:04:27Z</time>
      </trkpt>
      <trkpt lat="46.10368" lon="6.29279">
        <ele>521.62</ele>
        <time>2020-07-03T17:04:28Z</time>
      </trkpt>
      <trkpt lat="46.10381" lon="6.29271">
        <ele>522.008</ele>
        <time>2020-07-03T17:04:29Z</time>
      </trkpt>
      <trkpt lat="46.10393" lon="6.29258">
        <ele>522.33</ele>
        <time>2020-07-03T17:04:30Z</time>
      </trkpt>
      <trkpt lat="46.10405" lon="6.29244">
        <ele>522.817</ele>
        <time>2020-07-03T17:04:31Z</time>
      </trkpt>
      <trkpt lat="46.10415" lon="6.29233">
        <ele>523.155</ele>
        <time>2020-07-03T17:04:32Z</time>
      </trkpt>
      <trkpt lat="46.10421" lon="6.29224">
        <ele>523.214</ele>
        <time>2020-07-03T17:04:33Z</time>
      </trkpt>
      <trkpt lat="46.10427" lon="6.29222">
        <ele>523.255</ele>
        <time>2020-07-03T17:04:34Z</time>
      </trkpt>
      <trkpt lat="46.10432" lon="6.29224">
        <ele>522.915</ele>
        <time>2020-07-03T17:04:35Z</time>
      </trkpt>
      <trkpt lat="46.10436" lon="6.29232">
        <ele>522.231</ele>
        <time>2020-07-03T17:04:36Z</time>
      </trkpt>
      <trkpt lat="46.10441" lon="6.29243">
        <ele>521.668</ele>
        <time>2020-07-03T17:04:37Z</time>
      </trkpt>
      <trkpt lat="46.10448" lon="6.29256">
        <ele>521.367</ele>
        <time>2020-07-03T17:04:38Z</time>
      </trkpt>
      <trkpt lat="46.10457" lon="6.2927">
        <ele>521.381</ele>
        <time>2020-07-03T17:04:39Z</time>
      </trkpt>
      <trkpt lat="46.10466" lon="6.29283">
        <ele>521.319</ele>
        <time>2020-07-03T17:04:40Z</time>
      </trkpt>
      <trkpt lat="46.10474" lon="6.29293">
        <ele>521.308</ele>
        <time>2020-07-03T17:04:41Z</time>
      </trkpt>
      <trkpt lat="46.1048" lon="6.29301">
        <ele>521.221</ele>
        <time>2020-07-03T17:04:42Z</time>
      </trkpt>
      <trkpt lat="46.10488" lon="6.29304">
        <ele>520.948</ele>
        <time>2020-07-03T17:04:43Z</time>
      </trkpt>
      <trkpt lat="46.10497" lon="6.29307">
        <ele>520.156</ele>
        <time>2020-07-03T17:04:44Z</time>
      </trkpt>
      <trkpt lat="46.10504" lon="6.29309">
        <ele>519.385</ele>
        <time>2020-07-03T17:04:45Z</time>
      </trkpt>
      <trkpt lat="46.10509" lon="6.29308">
        <ele>516.456</ele>
        <time>2020-07-03T17:04:58Z</time>
      </trkpt>
      <trkpt lat="46.10514" lon="6.29309">
        <ele>516.296</ele>
        <time>2020-07-03T17:05:00Z</time>
      </trkpt>
      <trkpt lat="46.10524" lon="6.29311">
        <ele>515.952</ele>
        <time>2020-07-03T17:05:02Z</time>
      </trkpt>
      <trkpt lat="46.10535" lon="6.29313">
        <ele>515.729</ele>
        <time>2020-07-03T17:05:03Z</time>
      </trkpt>
      <trkpt lat="46.10543" lon="6.29316">
        <ele>515.584</ele>
        <time>2020-07-03T17:05:04Z</time>
      </trkpt>
      <trkpt lat="46.1055" lon="6.29328">
        <ele>515.207</ele>
        <time>2020-07-03T17:05:05Z</time>
      </trkpt>
      <trkpt lat="46.10557" lon="6.29342">
        <ele>514.717</ele>
        <time>2020-07-03T17:05:06Z</time>
      </trkpt>
      <trkpt lat="46.10564" lon="6.29357">
        <ele>514.308</ele>
        <time>2020-07-03T17:05:07Z</time>
      </trkpt>
      <trkpt lat="46.10567" lon="6.29368">
        <ele>513.843</ele>
        <time>2020-07-03T17:05:08Z</time>
      </trkpt>
      <trkpt lat="46.10572" lon="6.2938">
        <ele>509.93</ele>
        <time>2020-07-03T17:05:14Z</time>
      </trkpt>
      <trkpt lat="46.10575" lon="6.29388">
        <ele>509.978</ele>
        <time>2020-07-03T17:05:15Z</time>
      </trkpt>
      <trkpt lat="46.10582" lon="6.29405">
        <ele>509.997</ele>
        <time>2020-07-03T17:05:16Z</time>
      </trkpt>
      <trkpt lat="46.10592" lon="6.29427">
        <ele>510.258</ele>
        <time>2020-07-03T17:05:17Z</time>
      </trkpt>
      <trkpt lat="46.10601" lon="6.29448">
        <ele>510.628</ele>
        <time>2020-07-03T17:05:18Z</time>
      </trkpt>
      <trkpt lat="46.10608" lon="6.29464">
        <ele>510.964</ele>
        <time>2020-07-03T17:05:19Z</time>
      </trkpt>
      <trkpt lat="46.10614" lon="6.29479">
        <ele>511.081</ele>
        <time>2020-07-03T17:05:20Z</time>
      </trkpt>
      <trkpt lat="46.10618" lon="6.29492">
        <ele>511.113</ele>
        <time>2020-07-03T17:05:21Z</time>
      </trkpt>
      <trkpt lat="46.10622" lon="6.29504">
        <ele>511.143</ele>
        <time>2020-07-03T17:05:22Z</time>
      </trkpt>
      <trkpt lat="46.10626" lon="6.29514">
        <ele>510.807</ele>
        <time>2020-07-03T17:05:23Z</time>
      </trkpt>
      <trkpt lat="46.10633" lon="6.29522">
        <ele>510.708</ele>
        <time>2020-07-03T17:05:24Z</time>
      </trkpt>
      <trkpt lat="46.10636" lon="6.29528">
        <ele>510.536</ele>
        <time>2020-07-03T17:05:25Z</time>
      </trkpt>
      <trkpt lat="46.1064" lon="6.29535">
        <ele>510.173</ele>
        <time>2020-07-03T17:05:26Z</time>
      </trkpt>
      <trkpt lat="46.10645" lon="6.29539">
        <ele>509.621</ele>
        <time>2020-07-03T17:05:27Z</time>
      </trkpt>
      <trkpt lat="46.10652" lon="6.29543">
        <ele>509.16</ele>
        <time>2020-07-03T17:05:28Z</time>
      </trkpt>
      <trkpt lat="46.10656" lon="6.29547">
        <ele>508.331</ele>
        <time>2020-07-03T17:05:29Z</time>
      </trkpt>
      <trkpt lat="46.10659" lon="6.29554">
        <ele>505.191</ele>
        <time>2020-07-03T17:05:35Z</time>
      </trkpt>
      <trkpt lat="46.1066" lon="6.29563">
        <ele>505.077</ele>
        <time>2020-07-03T17:05:36Z</time>
      </trkpt>
      <trkpt lat="46.10664" lon="6.29573">
        <ele>504.954</ele>
        <time>2020-07-03T17:05:37Z</time>
      </trkpt>
      <trkpt lat="46.10665" lon="6.29587">
        <ele>504.724</ele>
        <time>2020-07-03T17:05:38Z</time>
      </trkpt>
      <trkpt lat="46.10664" lon="6.29597">
        <ele>504.404</ele>
        <time>2020-07-03T17:05:39Z</time>
      </trkpt>
      <trkpt lat="46.1066" lon="6.29607">
        <ele>504.014</ele>
        <time>2020-07-03T17:05:40Z</time>
      </trkpt>
      <trkpt lat="46.10658" lon="6.29613">
        <ele>503.708</ele>
        <time>2020-07-03T17:05:41Z</time>
      </trkpt>
      <trkpt lat="46.10656" lon="6.29621">
        <ele>503.567</ele>
        <time>2020-07-03T17:05:42Z</time>
      </trkpt>
      <trkpt lat="46.10654" lon="6.29631">
        <ele>503.454</ele>
        <time>2020-07-03T17:05:44Z</time>
      </trkpt>
      <trkpt lat="46.10647" lon="6.29642">
        <ele>503.162</ele>
        <time>2020-07-03T17:05:46Z</time>
      </trkpt>
      <trkpt lat="46.10645" lon="6.29649">
        <ele>502.841</ele>
        <time>2020-07-03T17:05:47Z</time>
      </trkpt>
      <trkpt lat="46.10644" lon="6.29656">
        <ele>502.422</ele>
        <time>2020-07-03T17:05:48Z</time>
      </trkpt>
      <trkpt lat="46.10644" lon="6.29663">
        <ele>501.992</ele>
        <time>2020-07-03T17:05:49Z</time>
      </trkpt>
      <trkpt lat="46.10645" lon="6.29675">
        <ele>501.318</ele>
        <time>2020-07-03T17:05:51Z</time>
      </trkpt>
      <trkpt lat="46.10646" lon="6.29688">
        <ele>501.045</ele>
        <time>2020-07-03T17:05:53Z</time>
      </trkpt>
      <trkpt lat="46.10647" lon="6.29695">
        <ele>501.063</ele>
        <time>2020-07-03T17:05:54Z</time>
      </trkpt>
      <trkpt lat="46.10649" lon="6.29706">
        <ele>501.044</ele>
        <time>2020-07-03T17:05:55Z</time>
      </trkpt>
      <trkpt lat="46.10649" lon="6.29718">
        <ele>501.018</ele>
        <time>2020-07-03T17:05:56Z</time>
      </trkpt>
      <trkpt lat="46.10652" lon="6.29729">
        <ele>501.008</ele>
        <time>2020-07-03T17:05:57Z</time>
      </trkpt>
      <trkpt lat="46.10649" lon="6.29736">
        <ele>501.061</ele>
        <time>2020-07-03T17:05:59Z</time>
      </trkpt>
      <trkpt lat="46.10649" lon="6.29744">
        <ele>500.898</ele>
        <time>2020-07-03T17:06:00Z</time>
      </trkpt>
      <trkpt lat="46.10651" lon="6.2976">
        <ele>500.426</ele>
        <time>2020-07-03T17:06:02Z</time>
      </trkpt>
      <trkpt lat="46.10651" lon="6.29778">
        <ele>500.365</ele>
        <time>2020-07-03T17:06:03Z</time>
      </trkpt>
      <trkpt lat="46.10652" lon="6.29788">
        <ele>500.236</ele>
        <time>2020-07-03T17:06:04Z</time>
      </trkpt>
      <trkpt lat="46.10654" lon="6.29797">
        <ele>500.186</ele>
        <time>2020-07-03T17:06:05Z</time>
      </trkpt>
      <trkpt lat="46.10661" lon="6.29808">
        <ele>500.082</ele>
        <time>2020-07-03T17:06:07Z</time>
      </trkpt>
      <trkpt lat="46.10673" lon="6.29816">
        <ele>500.039</ele>
        <time>2020-07-03T17:06:08Z</time>
      </trkpt>
      <trkpt lat="46.1068" lon="6.29821">
        <ele>500.048</ele>
        <time>2020-07-03T17:06:09Z</time>
      </trkpt>
      <trkpt lat="46.10685" lon="6.29826">
        <ele>500.061</ele>
        <time>2020-07-03T17:06:10Z</time>
      </trkpt>
      <trkpt lat="46.1069" lon="6.29832">
        <ele>500.117</ele>
        <time>2020-07-03T17:06:11Z</time>
      </trkpt>
      <trkpt lat="46.10694" lon="6.29837">
        <ele>500.208</ele>
        <time>2020-07-03T17:06:12Z</time>
      </trkpt>
      <trkpt lat="46.10698" lon="6.29841">
        <ele>500.349</ele>
        <time>2020-07-03T17:06:13Z</time>
      </trkpt>
      <trkpt lat="46.10703" lon="6.29849">
        <ele>500.396</ele>
        <time>2020-07-03T17:06:14Z</time>
      </trkpt>
      <trkpt lat="46.1071" lon="6.29859">
        <ele>500.364</ele>
        <time>2020-07-03T17:06:15Z</time>
      </trkpt>
      <trkpt lat="46.10717" lon="6.2987">
        <ele>500.373</ele>
        <time>2020-07-03T17:06:16Z</time>
      </trkpt>
      <trkpt lat="46.10724" lon="6.29877">
        <ele>500.424</ele>
        <time>2020-07-03T17:06:17Z</time>
      </trkpt>
      <trkpt lat="46.10731" lon="6.29883">
        <ele>500.444</ele>
        <time>2020-07-03T17:06:18Z</time>
      </trkpt>
      <trkpt lat="46.10737" lon="6.29888">
        <ele>500.44</ele>
        <time>2020-07-03T17:06:19Z</time>
      </trkpt>
      <trkpt lat="46.10743" lon="6.29896">
        <ele>500.357</ele>
        <time>2020-07-03T17:06:20Z</time>
      </trkpt>
      <trkpt lat="46.10747" lon="6.29908">
        <ele>500.095</ele>
        <time>2020-07-03T17:06:21Z</time>
      </trkpt>
      <trkpt lat="46.10749" lon="6.29919">
        <ele>499.649</ele>
        <time>2020-07-03T17:06:22Z</time>
      </trkpt>
      <trkpt lat="46.10753" lon="6.29929">
        <ele>499.123</ele>
        <time>2020-07-03T17:06:23Z</time>
      </trkpt>
      <trkpt lat="46.10758" lon="6.29941">
        <ele>498.508</ele>
        <time>2020-07-03T17:06:24Z</time>
      </trkpt>
      <trkpt lat="46.10761" lon="6.29952">
        <ele>497.984</ele>
        <time>2020-07-03T17:06:25Z</time>
      </trkpt>
      <trkpt lat="46.10763" lon="6.29962">
        <ele>497.641</ele>
        <time>2020-07-03T17:06:26Z</time>
      </trkpt>
      <trkpt lat="46.10766" lon="6.29972">
        <ele>497.479</ele>
        <time>2020-07-03T17:06:27Z</time>
      </trkpt>
      <trkpt lat="46.10769" lon="6.29981">
        <ele>497.498</ele>
        <time>2020-07-03T17:06:28Z</time>
      </trkpt>
      <trkpt lat="46.10774" lon="6.29987">
        <ele>498.499</ele>
        <time>2020-07-03T17:06:32Z</time>
      </trkpt>
      <trkpt lat="46.10782" lon="6.29984">
        <ele>498.829</ele>
        <time>2020-07-03T17:06:34Z</time>
      </trkpt>
      <trkpt lat="46.10787" lon="6.2998">
        <ele>499.035</ele>
        <time>2020-07-03T17:06:35Z</time>
      </trkpt>
      <trkpt lat="46.10798" lon="6.29973">
        <ele>499.272</ele>
        <time>2020-07-03T17:06:36Z</time>
      </trkpt>
      <trkpt lat="46.10808" lon="6.29962">
        <ele>499.597</ele>
        <time>2020-07-03T17:06:37Z</time>
      </trkpt>
      <trkpt lat="46.10819" lon="6.29954">
        <ele>499.923</ele>
        <time>2020-07-03T17:06:38Z</time>
      </trkpt>
      <trkpt lat="46.10829" lon="6.29948">
        <ele>500.425</ele>
        <time>2020-07-03T17:06:39Z</time>
      </trkpt>
      <trkpt lat="46.1084" lon="6.29946">
        <ele>500.708</ele>
        <time>2020-07-03T17:06:40Z</time>
      </trkpt>
      <trkpt lat="46.10851" lon="6.29945">
        <ele>500.714</ele>
        <time>2020-07-03T17:06:41Z</time>
      </trkpt>
      <trkpt lat="46.10862" lon="6.29944">
        <ele>500.571</ele>
        <time>2020-07-03T17:06:42Z</time>
      </trkpt>
      <trkpt lat="46.10872" lon="6.29943">
        <ele>500.389</ele>
        <time>2020-07-03T17:06:43Z</time>
      </trkpt>
      <trkpt lat="46.10881" lon="6.29941">
        <ele>500.058</ele>
        <time>2020-07-03T17:06:44Z</time>
      </trkpt>
      <trkpt lat="46.10889" lon="6.29939">
        <ele>499.439</ele>
        <time>2020-07-03T17:06:45Z</time>
      </trkpt>
      <trkpt lat="46.10898" lon="6.29935">
        <ele>498.959</ele>
        <time>2020-07-03T17:06:46Z</time>
      </trkpt>
      <trkpt lat="46.10909" lon="6.2993">
        <ele>498.555</ele>
        <time>2020-07-03T17:06:47Z</time>
      </trkpt>
      <trkpt lat="46.10921" lon="6.29922">
        <ele>498.072</ele>
        <time>2020-07-03T17:06:48Z</time>
      </trkpt>
      <trkpt lat="46.10934" lon="6.29915">
        <ele>497.887</ele>
        <time>2020-07-03T17:06:49Z</time>
      </trkpt>
      <trkpt lat="46.10943" lon="6.29909">
        <ele>497.642</ele>
        <time>2020-07-03T17:06:50Z</time>
      </trkpt>
      <trkpt lat="46.10949" lon="6.29905">
        <ele>497.426</ele>
        <time>2020-07-03T17:06:51Z</time>
      </trkpt>
      <trkpt lat="46.10954" lon="6.29912">
        <ele>495.508</ele>
        <time>2020-07-03T17:06:54Z</time>
      </trkpt>
      <trkpt lat="46.10958" lon="6.29916">
        <ele>494.823</ele>
        <time>2020-07-03T17:06:55Z</time>
      </trkpt>
      <trkpt lat="46.10964" lon="6.29923">
        <ele>493.88</ele>
        <time>2020-07-03T17:06:57Z</time>
      </trkpt>
      <trkpt lat="46.10968" lon="6.29932">
        <ele>493.468</ele>
        <time>2020-07-03T17:06:59Z</time>
      </trkpt>
      <trkpt lat="46.10971" lon="6.29943">
        <ele>493.097</ele>
        <time>2020-07-03T17:07:01Z</time>
      </trkpt>
      <trkpt lat="46.10973" lon="6.2995">
        <ele>492.858</ele>
        <time>2020-07-03T17:07:02Z</time>
      </trkpt>
      <trkpt lat="46.10976" lon="6.29963">
        <ele>492.498</ele>
        <time>2020-07-03T17:07:04Z</time>
      </trkpt>
      <trkpt lat="46.10977" lon="6.29973">
        <ele>492.264</ele>
        <time>2020-07-03T17:07:05Z</time>
      </trkpt>
      <trkpt lat="46.10976" lon="6.29984">
        <ele>492.021</ele>
        <time>2020-07-03T17:07:06Z</time>
      </trkpt>
      <trkpt lat="46.10976" lon="6.29993">
        <ele>491.851</ele>
        <time>2020-07-03T17:07:07Z</time>
      </trkpt>
      <trkpt lat="46.10976" lon="6.29999">
        <ele>491.301</ele>
        <time>2020-07-03T17:07:09Z</time>
      </trkpt>
      <trkpt lat="46.10979" lon="6.3001">
        <ele>491.111</ele>
        <time>2020-07-03T17:07:11Z</time>
      </trkpt>
      <trkpt lat="46.10979" lon="6.3002">
        <ele>491.008</ele>
        <time>2020-07-03T17:07:12Z</time>
      </trkpt>
      <trkpt lat="46.10979" lon="6.30031">
        <ele>490.77</ele>
        <time>2020-07-03T17:07:13Z</time>
      </trkpt>
      <trkpt lat="46.1098" lon="6.30038">
        <ele>490.337</ele>
        <time>2020-07-03T17:07:14Z</time>
      </trkpt>
      <trkpt lat="46.10982" lon="6.30047">
        <ele>489.815</ele>
        <time>2020-07-03T17:07:15Z</time>
      </trkpt>
      <trkpt lat="46.10984" lon="6.30058">
        <ele>489.374</ele>
        <time>2020-07-03T17:07:16Z</time>
      </trkpt>
      <trkpt lat="46.10987" lon="6.30066">
        <ele>489.055</ele>
        <time>2020-07-03T17:07:17Z</time>
      </trkpt>
      <trkpt lat="46.1099" lon="6.30073">
        <ele>488.935</ele>
        <time>2020-07-03T17:07:18Z</time>
      </trkpt>
      <trkpt lat="46.10995" lon="6.30081">
        <ele>488.861</ele>
        <time>2020-07-03T17:07:19Z</time>
      </trkpt>
      <trkpt lat="46.10999" lon="6.3009">
        <ele>488.888</ele>
        <time>2020-07-03T17:07:20Z</time>
      </trkpt>
      <trkpt lat="46.11003" lon="6.30097">
        <ele>488.786</ele>
        <time>2020-07-03T17:07:21Z</time>
      </trkpt>
      <trkpt lat="46.11007" lon="6.30108">
        <ele>488.66</ele>
        <time>2020-07-03T17:07:23Z</time>
      </trkpt>
      <trkpt lat="46.11007" lon="6.30116">
        <ele>488.626</ele>
        <time>2020-07-03T17:07:24Z</time>
      </trkpt>
      <trkpt lat="46.11005" lon="6.30126">
        <ele>488.708</ele>
        <time>2020-07-03T17:07:25Z</time>
      </trkpt>
      <trkpt lat="46.11004" lon="6.3014">
        <ele>489.693</ele>
        <time>2020-07-03T17:07:27Z</time>
      </trkpt>
      <trkpt lat="46.11002" lon="6.30148">
        <ele>490.39</ele>
        <time>2020-07-03T17:07:28Z</time>
      </trkpt>
      <trkpt lat="46.10999" lon="6.30154">
        <ele>490.848</ele>
        <time>2020-07-03T17:07:29Z</time>
      </trkpt>
      <trkpt lat="46.10997" lon="6.30163">
        <ele>491.077</ele>
        <time>2020-07-03T17:07:30Z</time>
      </trkpt>
      <trkpt lat="46.10999" lon="6.30172">
        <ele>490.698</ele>
        <time>2020-07-03T17:07:32Z</time>
      </trkpt>
      <trkpt lat="46.11001" lon="6.3018">
        <ele>490.198</ele>
        <time>2020-07-03T17:07:33Z</time>
      </trkpt>
      <trkpt lat="46.11003" lon="6.30188">
        <ele>489.764</ele>
        <time>2020-07-03T17:07:34Z</time>
      </trkpt>
      <trkpt lat="46.11005" lon="6.30202">
        <ele>489.441</ele>
        <time>2020-07-03T17:07:36Z</time>
      </trkpt>
      <trkpt lat="46.11008" lon="6.30213">
        <ele>489.273</ele>
        <time>2020-07-03T17:07:38Z</time>
      </trkpt>
      <trkpt lat="46.11007" lon="6.3022">
        <ele>488.685</ele>
        <time>2020-07-03T17:07:43Z</time>
      </trkpt>
      <trkpt lat="46.11011" lon="6.30231">
        <ele>488.613</ele>
        <time>2020-07-03T17:07:45Z</time>
      </trkpt>
      <trkpt lat="46.11014" lon="6.30239">
        <ele>488.708</ele>
        <time>2020-07-03T17:07:46Z</time>
      </trkpt>
      <trkpt lat="46.11016" lon="6.30246">
        <ele>488.982</ele>
        <time>2020-07-03T17:07:47Z</time>
      </trkpt>
      <trkpt lat="46.11019" lon="6.30252">
        <ele>489.129</ele>
        <time>2020-07-03T17:07:48Z</time>
      </trkpt>
      <trkpt lat="46.11023" lon="6.3026">
        <ele>490.047</ele>
        <time>2020-07-03T17:07:50Z</time>
      </trkpt>
      <trkpt lat="46.11028" lon="6.30261">
        <ele>491.096</ele>
        <time>2020-07-03T17:07:52Z</time>
      </trkpt>
      <trkpt lat="46.1103" lon="6.30271">
        <ele>491.757</ele>
        <time>2020-07-03T17:07:54Z</time>
      </trkpt>
      <trkpt lat="46.11035" lon="6.30276">
        <ele>491.787</ele>
        <time>2020-07-03T17:07:55Z</time>
      </trkpt>
      <trkpt lat="46.11041" lon="6.3028">
        <ele>491.893</ele>
        <time>2020-07-03T17:07:57Z</time>
      </trkpt>
      <trkpt lat="46.11047" lon="6.30284">
        <ele>492.02</ele>
        <time>2020-07-03T17:07:59Z</time>
      </trkpt>
      <trkpt lat="46.11054" lon="6.30288">
        <ele>492.659</ele>
        <time>2020-07-03T17:08:01Z</time>
      </trkpt>
      <trkpt lat="46.11063" lon="6.30288">
        <ele>493.303</ele>
        <time>2020-07-03T17:08:03Z</time>
      </trkpt>
      <trkpt lat="46.11068" lon="6.30286">
        <ele>494.123</ele>
        <time>2020-07-03T17:08:06Z</time>
      </trkpt>
      <trkpt lat="46.11073" lon="6.30293">
        <ele>494.708</ele>
        <time>2020-07-03T17:08:14Z</time>
      </trkpt>
      <trkpt lat="46.11076" lon="6.30301">
        <ele>494.71</ele>
        <time>2020-07-03T17:08:15Z</time>
      </trkpt>
      <trkpt lat="46.11079" lon="6.30308">
        <ele>494.817</ele>
        <time>2020-07-03T17:08:16Z</time>
      </trkpt>
      <trkpt lat="46.11081" lon="6.30318">
        <ele>494.925</ele>
        <time>2020-07-03T17:08:17Z</time>
      </trkpt>
      <trkpt lat="46.11085" lon="6.30325">
        <ele>494.944</ele>
        <time>2020-07-03T17:08:19Z</time>
      </trkpt>
      <trkpt lat="46.11094" lon="6.30323">
        <ele>494.625</ele>
        <time>2020-07-03T17:08:22Z</time>
      </trkpt>
      <trkpt lat="46.11106" lon="6.30316">
        <ele>494.515</ele>
        <time>2020-07-03T17:08:24Z</time>
      </trkpt>
      <trkpt lat="46.11114" lon="6.30311">
        <ele>494.541</ele>
        <time>2020-07-03T17:08:25Z</time>
      </trkpt>
      <trkpt lat="46.11121" lon="6.30306">
        <ele>494.658</ele>
        <time>2020-07-03T17:08:26Z</time>
      </trkpt>
      <trkpt lat="46.11127" lon="6.30302">
        <ele>494.752</ele>
        <time>2020-07-03T17:08:27Z</time>
      </trkpt>
      <trkpt lat="46.11131" lon="6.30299">
        <ele>494.853</ele>
        <time>2020-07-03T17:08:28Z</time>
      </trkpt>
      <trkpt lat="46.11135" lon="6.30291">
        <ele>494.908</ele>
        <time>2020-07-03T17:08:30Z</time>
      </trkpt>
      <trkpt lat="46.11137" lon="6.30284">
        <ele>494.908</ele>
        <time>2020-07-03T17:08:31Z</time>
      </trkpt>
      <trkpt lat="46.11139" lon="6.30275">
        <ele>494.97</ele>
        <time>2020-07-03T17:08:32Z</time>
      </trkpt>
      <trkpt lat="46.11144" lon="6.30264">
        <ele>495.367</ele>
        <time>2020-07-03T17:08:34Z</time>
      </trkpt>
      <trkpt lat="46.11148" lon="6.3026">
        <ele>495.585</ele>
        <time>2020-07-03T17:08:35Z</time>
      </trkpt>
      <trkpt lat="46.11148" lon="6.30251">
        <ele>495.774</ele>
        <time>2020-07-03T17:08:37Z</time>
      </trkpt>
      <trkpt lat="46.11149" lon="6.30243">
        <ele>495.755</ele>
        <time>2020-07-03T17:08:38Z</time>
      </trkpt>
      <trkpt lat="46.11151" lon="6.3023">
        <ele>495.435</ele>
        <time>2020-07-03T17:08:40Z</time>
      </trkpt>
      <trkpt lat="46.11154" lon="6.30218">
        <ele>495.181</ele>
        <time>2020-07-03T17:08:42Z</time>
      </trkpt>
      <trkpt lat="46.11154" lon="6.30211">
        <ele>494.818</ele>
        <time>2020-07-03T17:08:43Z</time>
      </trkpt>
      <trkpt lat="46.11155" lon="6.30204">
        <ele>494.461</ele>
        <time>2020-07-03T17:08:44Z</time>
      </trkpt>
      <trkpt lat="46.11159" lon="6.30196">
        <ele>493.521</ele>
        <time>2020-07-03T17:08:46Z</time>
      </trkpt>
      <trkpt lat="46.11166" lon="6.30184">
        <ele>492.613</ele>
        <time>2020-07-03T17:08:48Z</time>
      </trkpt>
      <trkpt lat="46.11171" lon="6.30177">
        <ele>492.308</ele>
        <time>2020-07-03T17:08:50Z</time>
      </trkpt>
      <trkpt lat="46.11172" lon="6.30166">
        <ele>492.151</ele>
        <time>2020-07-03T17:08:52Z</time>
      </trkpt>
      <trkpt lat="46.11171" lon="6.3016">
        <ele>492.098</ele>
        <time>2020-07-03T17:08:53Z</time>
      </trkpt>
      <trkpt lat="46.1117" lon="6.30152">
        <ele>492.026</ele>
        <time>2020-07-03T17:08:54Z</time>
      </trkpt>
      <trkpt lat="46.11167" lon="6.30147">
        <ele>492.155</ele>
        <time>2020-07-03T17:08:55Z</time>
      </trkpt>
      <trkpt lat="46.11167" lon="6.30138">
        <ele>492.236</ele>
        <time>2020-07-03T17:08:58Z</time>
      </trkpt>
      <trkpt lat="46.11168" lon="6.30131">
        <ele>491.986</ele>
        <time>2020-07-03T17:09:05Z</time>
      </trkpt>
      <trkpt lat="46.11173" lon="6.30124">
        <ele>492.092</ele>
        <time>2020-07-03T17:09:08Z</time>
      </trkpt>
      <trkpt lat="46.11178" lon="6.30123">
        <ele>492.149</ele>
        <time>2020-07-03T17:09:09Z</time>
      </trkpt>
      <trkpt lat="46.11185" lon="6.30124">
        <ele>492.337</ele>
        <time>2020-07-03T17:09:10Z</time>
      </trkpt>
      <trkpt lat="46.11188" lon="6.30118">
        <ele>492.849</ele>
        <time>2020-07-03T17:09:12Z</time>
      </trkpt>
      <trkpt lat="46.11191" lon="6.30109">
        <ele>493.213</ele>
        <time>2020-07-03T17:09:16Z</time>
      </trkpt>
      <trkpt lat="46.11195" lon="6.30104">
        <ele>493.308</ele>
        <time>2020-07-03T17:09:17Z</time>
      </trkpt>
      <trkpt lat="46.11201" lon="6.30099">
        <ele>493.468</ele>
        <time>2020-07-03T17:09:18Z</time>
      </trkpt>
      <trkpt lat="46.1121" lon="6.30094">
        <ele>493.665</ele>
        <time>2020-07-03T17:09:19Z</time>
      </trkpt>
      <trkpt lat="46.1122" lon="6.30092">
        <ele>493.873</ele>
        <time>2020-07-03T17:09:20Z</time>
      </trkpt>
      <trkpt lat="46.1123" lon="6.30084">
        <ele>493.822</ele>
        <time>2020-07-03T17:09:21Z</time>
      </trkpt>
      <trkpt lat="46.1124" lon="6.30077">
        <ele>493.753</ele>
        <time>2020-07-03T17:09:22Z</time>
      </trkpt>
      <trkpt lat="46.11249" lon="6.30074">
        <ele>493.613</ele>
        <time>2020-07-03T17:09:23Z</time>
      </trkpt>
      <trkpt lat="46.11258" lon="6.30071">
        <ele>493.379</ele>
        <time>2020-07-03T17:09:24Z</time>
      </trkpt>
      <trkpt lat="46.11266" lon="6.30065">
        <ele>492.866</ele>
        <time>2020-07-03T17:09:25Z</time>
      </trkpt>
      <trkpt lat="46.11273" lon="6.30061">
        <ele>492.548</ele>
        <time>2020-07-03T17:09:26Z</time>
      </trkpt>
      <trkpt lat="46.11281" lon="6.30058">
        <ele>492.361</ele>
        <time>2020-07-03T17:09:27Z</time>
      </trkpt>
      <trkpt lat="46.1129" lon="6.30061">
        <ele>491.917</ele>
        <time>2020-07-03T17:09:28Z</time>
      </trkpt>
      <trkpt lat="46.11302" lon="6.30066">
        <ele>491.408</ele>
        <time>2020-07-03T17:09:29Z</time>
      </trkpt>
      <trkpt lat="46.11316" lon="6.30074">
        <ele>491.339</ele>
        <time>2020-07-03T17:09:30Z</time>
      </trkpt>
      <trkpt lat="46.11328" lon="6.3008">
        <ele>491.366</ele>
        <time>2020-07-03T17:09:31Z</time>
      </trkpt>
      <trkpt lat="46.11337" lon="6.30087">
        <ele>491.474</ele>
        <time>2020-07-03T17:09:32Z</time>
      </trkpt>
      <trkpt lat="46.11347" lon="6.30091">
        <ele>491.763</ele>
        <time>2020-07-03T17:09:33Z</time>
      </trkpt>
      <trkpt lat="46.11353" lon="6.30094">
        <ele>491.734</ele>
        <time>2020-07-03T17:09:34Z</time>
      </trkpt>
      <trkpt lat="46.1136" lon="6.30097">
        <ele>490.844</ele>
        <time>2020-07-03T17:09:36Z</time>
      </trkpt>
      <trkpt lat="46.11364" lon="6.30099">
        <ele>487.86</ele>
        <time>2020-07-03T17:09:40Z</time>
      </trkpt>
      <trkpt lat="46.11371" lon="6.30097">
        <ele>487.537</ele>
        <time>2020-07-03T17:09:44Z</time>
      </trkpt>
      <trkpt lat="46.11375" lon="6.30093">
        <ele>487.738</ele>
        <time>2020-07-03T17:09:47Z</time>
      </trkpt>
      <trkpt lat="46.11377" lon="6.30082">
        <ele>488.07</ele>
        <time>2020-07-03T17:09:49Z</time>
      </trkpt>
      <trkpt lat="46.11381" lon="6.30076">
        <ele>488.317</ele>
        <time>2020-07-03T17:09:51Z</time>
      </trkpt>
      <trkpt lat="46.11386" lon="6.30072">
        <ele>488.508</ele>
        <time>2020-07-03T17:09:52Z</time>
      </trkpt>
      <trkpt lat="46.11391" lon="6.30066">
        <ele>488.868</ele>
        <time>2020-07-03T17:09:53Z</time>
      </trkpt>
      <trkpt lat="46.11397" lon="6.3006">
        <ele>489.175</ele>
        <time>2020-07-03T17:09:54Z</time>
      </trkpt>
      <trkpt lat="46.11403" lon="6.30054">
        <ele>489.553</ele>
        <time>2020-07-03T17:09:55Z</time>
      </trkpt>
      <trkpt lat="46.11411" lon="6.30046">
        <ele>490.262</ele>
        <time>2020-07-03T17:09:57Z</time>
      </trkpt>
      <trkpt lat="46.11417" lon="6.30033">
        <ele>490.263</ele>
        <time>2020-07-03T17:09:59Z</time>
      </trkpt>
      <trkpt lat="46.11421" lon="6.3003">
        <ele>490.193</ele>
        <time>2020-07-03T17:10:00Z</time>
      </trkpt>
      <trkpt lat="46.11427" lon="6.30027">
        <ele>489.979</ele>
        <time>2020-07-03T17:10:01Z</time>
      </trkpt>
      <trkpt lat="46.11435" lon="6.30025">
        <ele>489.926</ele>
        <time>2020-07-03T17:10:02Z</time>
      </trkpt>
      <trkpt lat="46.11441" lon="6.30022">
        <ele>489.975</ele>
        <time>2020-07-03T17:10:03Z</time>
      </trkpt>
      <trkpt lat="46.11448" lon="6.30019">
        <ele>490.028</ele>
        <time>2020-07-03T17:10:04Z</time>
      </trkpt>
      <trkpt lat="46.11456" lon="6.30016">
        <ele>490.02</ele>
        <time>2020-07-03T17:10:05Z</time>
      </trkpt>
      <trkpt lat="46.11465" lon="6.30013">
        <ele>490.008</ele>
        <time>2020-07-03T17:10:06Z</time>
      </trkpt>
      <trkpt lat="46.11471" lon="6.30011">
        <ele>489.862</ele>
        <time>2020-07-03T17:10:07Z</time>
      </trkpt>
      <trkpt lat="46.11477" lon="6.30009">
        <ele>489.549</ele>
        <time>2020-07-03T17:10:08Z</time>
      </trkpt>
      <trkpt lat="46.11481" lon="6.30005">
        <ele>489.187</ele>
        <time>2020-07-03T17:10:09Z</time>
      </trkpt>
      <trkpt lat="46.11485" lon="6.30001">
        <ele>488.576</ele>
        <time>2020-07-03T17:10:10Z</time>
      </trkpt>
      <trkpt lat="46.11489" lon="6.29998">
        <ele>487.237</ele>
        <time>2020-07-03T17:10:13Z</time>
      </trkpt>
      <trkpt lat="46.11495" lon="6.29997">
        <ele>486.967</ele>
        <time>2020-07-03T17:10:15Z</time>
      </trkpt>
      <trkpt lat="46.115" lon="6.2999">
        <ele>486.843</ele>
        <time>2020-07-03T17:10:17Z</time>
      </trkpt>
      <trkpt lat="46.11502" lon="6.29983">
        <ele>487.07</ele>
        <time>2020-07-03T17:10:18Z</time>
      </trkpt>
      <trkpt lat="46.11505" lon="6.29971">
        <ele>487.389</ele>
        <time>2020-07-03T17:10:19Z</time>
      </trkpt>
      <trkpt lat="46.11506" lon="6.2996">
        <ele>487.806</ele>
        <time>2020-07-03T17:10:20Z</time>
      </trkpt>
      <trkpt lat="46.11506" lon="6.29952">
        <ele>488.326</ele>
        <time>2020-07-03T17:10:21Z</time>
      </trkpt>
      <trkpt lat="46.11508" lon="6.29945">
        <ele>488.908</ele>
        <time>2020-07-03T17:10:22Z</time>
      </trkpt>
      <trkpt lat="46.1151" lon="6.29935">
        <ele>489.823</ele>
        <time>2020-07-03T17:10:24Z</time>
      </trkpt>
      <trkpt lat="46.11511" lon="6.29923">
        <ele>489.95</ele>
        <time>2020-07-03T17:10:26Z</time>
      </trkpt>
      <trkpt lat="46.11513" lon="6.29915">
        <ele>489.978</ele>
        <time>2020-07-03T17:10:27Z</time>
      </trkpt>
      <trkpt lat="46.11517" lon="6.29902">
        <ele>489.817</ele>
        <time>2020-07-03T17:10:28Z</time>
      </trkpt>
      <trkpt lat="46.1152" lon="6.29892">
        <ele>489.898</ele>
        <time>2020-07-03T17:10:29Z</time>
      </trkpt>
      <trkpt lat="46.11524" lon="6.29882">
        <ele>489.748</ele>
        <time>2020-07-03T17:10:30Z</time>
      </trkpt>
      <trkpt lat="46.11528" lon="6.29875">
        <ele>489.654</ele>
        <time>2020-07-03T17:10:31Z</time>
      </trkpt>
      <trkpt lat="46.11533" lon="6.29876">
        <ele>489.261</ele>
        <time>2020-07-03T17:10:33Z</time>
      </trkpt>
      <trkpt lat="46.11537" lon="6.29881">
        <ele>489.082</ele>
        <time>2020-07-03T17:10:35Z</time>
      </trkpt>
      <trkpt lat="46.11542" lon="6.29884">
        <ele>489.143</ele>
        <time>2020-07-03T17:10:37Z</time>
      </trkpt>
      <trkpt lat="46.11549" lon="6.29878">
        <ele>489.217</ele>
        <time>2020-07-03T17:10:39Z</time>
      </trkpt>
      <trkpt lat="46.11553" lon="6.29873">
        <ele>489.208</ele>
        <time>2020-07-03T17:10:40Z</time>
      </trkpt>
      <trkpt lat="46.11559" lon="6.29868">
        <ele>489.243</ele>
        <time>2020-07-03T17:10:42Z</time>
      </trkpt>
      <trkpt lat="46.11564" lon="6.29867">
        <ele>489.38</ele>
        <time>2020-07-03T17:10:43Z</time>
      </trkpt>
      <trkpt lat="46.11569" lon="6.29866">
        <ele>489.468</ele>
        <time>2020-07-03T17:10:44Z</time>
      </trkpt>
      <trkpt lat="46.11574" lon="6.29867">
        <ele>489.587</ele>
        <time>2020-07-03T17:10:45Z</time>
      </trkpt>
      <trkpt lat="46.11579" lon="6.29868">
        <ele>489.658</ele>
        <time>2020-07-03T17:10:46Z</time>
      </trkpt>
      <trkpt lat="46.11587" lon="6.29867">
        <ele>489.728</ele>
        <time>2020-07-03T17:10:48Z</time>
      </trkpt>
      <trkpt lat="46.11592" lon="6.29864">
        <ele>489.634</ele>
        <time>2020-07-03T17:10:49Z</time>
      </trkpt>
      <trkpt lat="46.11596" lon="6.29864">
        <ele>489.441</ele>
        <time>2020-07-03T17:10:50Z</time>
      </trkpt>
      <trkpt lat="46.11606" lon="6.29864">
        <ele>488.818</ele>
        <time>2020-07-03T17:10:52Z</time>
      </trkpt>
      <trkpt lat="46.11613" lon="6.29865">
        <ele>488.498</ele>
        <time>2020-07-03T17:10:54Z</time>
      </trkpt>
      <trkpt lat="46.11619" lon="6.29865">
        <ele>488.117</ele>
        <time>2020-07-03T17:10:56Z</time>
      </trkpt>
      <trkpt lat="46.11625" lon="6.29866">
        <ele>487.708</ele>
        <time>2020-07-03T17:10:58Z</time>
      </trkpt>
      <trkpt lat="46.11628" lon="6.29871">
        <ele>487.516</ele>
        <time>2020-07-03T17:11:00Z</time>
      </trkpt>
      <trkpt lat="46.11628" lon="6.29882">
        <ele>487.533</ele>
        <time>2020-07-03T17:11:02Z</time>
      </trkpt>
      <trkpt lat="46.11624" lon="6.29892">
        <ele>487.491</ele>
        <time>2020-07-03T17:11:04Z</time>
      </trkpt>
      <trkpt lat="46.1162" lon="6.299">
        <ele>486.95</ele>
        <time>2020-07-03T17:11:05Z</time>
      </trkpt>
      <trkpt lat="46.11618" lon="6.29909">
        <ele>486.361</ele>
        <time>2020-07-03T17:11:06Z</time>
      </trkpt>
      <trkpt lat="46.11618" lon="6.2992">
        <ele>485.661</ele>
        <time>2020-07-03T17:11:07Z</time>
      </trkpt>
      <trkpt lat="46.11618" lon="6.2993">
        <ele>484.917</ele>
        <time>2020-07-03T17:11:08Z</time>
      </trkpt>
      <trkpt lat="46.11617" lon="6.29939">
        <ele>484.234</ele>
        <time>2020-07-03T17:11:09Z</time>
      </trkpt>
      <trkpt lat="46.11616" lon="6.29946">
        <ele>483.827</ele>
        <time>2020-07-03T17:11:10Z</time>
      </trkpt>
      <trkpt lat="46.11613" lon="6.29954">
        <ele>483.568</ele>
        <time>2020-07-03T17:11:11Z</time>
      </trkpt>
      <trkpt lat="46.11614" lon="6.29965">
        <ele>483.114</ele>
        <time>2020-07-03T17:11:12Z</time>
      </trkpt>
      <trkpt lat="46.11614" lon="6.29974">
        <ele>482.708</ele>
        <time>2020-07-03T17:11:13Z</time>
      </trkpt>
      <trkpt lat="46.11612" lon="6.29981">
        <ele>482.287</ele>
        <time>2020-07-03T17:11:14Z</time>
      </trkpt>
      <trkpt lat="46.11613" lon="6.2999">
        <ele>481.184</ele>
        <time>2020-07-03T17:11:16Z</time>
      </trkpt>
      <trkpt lat="46.11618" lon="6.29996">
        <ele>480.452</ele>
        <time>2020-07-03T17:11:18Z</time>
      </trkpt>
      <trkpt lat="46.11623" lon="6.30002">
        <ele>480.271</ele>
        <time>2020-07-03T17:11:20Z</time>
      </trkpt>
      <trkpt lat="46.11627" lon="6.30005">
        <ele>480.022</ele>
        <time>2020-07-03T17:11:21Z</time>
      </trkpt>
      <trkpt lat="46.11629" lon="6.30014">
        <ele>479.562</ele>
        <time>2020-07-03T17:11:23Z</time>
      </trkpt>
      <trkpt lat="46.11633" lon="6.3003">
        <ele>477.968</ele>
        <time>2020-07-03T17:11:36Z</time>
      </trkpt>
      <trkpt lat="46.11632" lon="6.30037">
        <ele>477.945</ele>
        <time>2020-07-03T17:11:37Z</time>
      </trkpt>
      <trkpt lat="46.11627" lon="6.30044">
        <ele>477.952</ele>
        <time>2020-07-03T17:11:38Z</time>
      </trkpt>
      <trkpt lat="46.1162" lon="6.30052">
        <ele>478.153</ele>
        <time>2020-07-03T17:11:40Z</time>
      </trkpt>
      <trkpt lat="46.11616" lon="6.30061">
        <ele>478.208</ele>
        <time>2020-07-03T17:11:41Z</time>
      </trkpt>
      <trkpt lat="46.11609" lon="6.30068">
        <ele>478.408</ele>
        <time>2020-07-03T17:11:42Z</time>
      </trkpt>
      <trkpt lat="46.11607" lon="6.30076">
        <ele>478.59</ele>
        <time>2020-07-03T17:11:43Z</time>
      </trkpt>
      <trkpt lat="46.11605" lon="6.30085">
        <ele>478.637</ele>
        <time>2020-07-03T17:11:44Z</time>
      </trkpt>
      <trkpt lat="46.11603" lon="6.30092">
        <ele>478.875</ele>
        <time>2020-07-03T17:11:45Z</time>
      </trkpt>
      <trkpt lat="46.11604" lon="6.30107">
        <ele>479.094</ele>
        <time>2020-07-03T17:11:47Z</time>
      </trkpt>
      <trkpt lat="46.11607" lon="6.30113">
        <ele>479.115</ele>
        <time>2020-07-03T17:11:48Z</time>
      </trkpt>
      <trkpt lat="46.11613" lon="6.30124">
        <ele>479.125</ele>
        <time>2020-07-03T17:11:49Z</time>
      </trkpt>
      <trkpt lat="46.11618" lon="6.30134">
        <ele>479.141</ele>
        <time>2020-07-03T17:11:50Z</time>
      </trkpt>
      <trkpt lat="46.11621" lon="6.3014">
        <ele>478.928</ele>
        <time>2020-07-03T17:11:51Z</time>
      </trkpt>
      <trkpt lat="46.1162" lon="6.30154">
        <ele>478.499</ele>
        <time>2020-07-03T17:11:53Z</time>
      </trkpt>
      <trkpt lat="46.1162" lon="6.30166">
        <ele>478.207</ele>
        <time>2020-07-03T17:11:54Z</time>
      </trkpt>
      <trkpt lat="46.11621" lon="6.30178">
        <ele>478.227</ele>
        <time>2020-07-03T17:11:55Z</time>
      </trkpt>
      <trkpt lat="46.1162" lon="6.30189">
        <ele>478.308</ele>
        <time>2020-07-03T17:11:56Z</time>
      </trkpt>
      <trkpt lat="46.11619" lon="6.302">
        <ele>478.544</ele>
        <time>2020-07-03T17:11:57Z</time>
      </trkpt>
      <trkpt lat="46.11617" lon="6.30209">
        <ele>478.661</ele>
        <time>2020-07-03T17:11:58Z</time>
      </trkpt>
      <trkpt lat="46.11616" lon="6.30218">
        <ele>478.659</ele>
        <time>2020-07-03T17:11:59Z</time>
      </trkpt>
      <trkpt lat="46.11616" lon="6.30228">
        <ele>478.548</ele>
        <time>2020-07-03T17:12:00Z</time>
      </trkpt>
      <trkpt lat="46.11614" lon="6.30242">
        <ele>478.319</ele>
        <time>2020-07-03T17:12:01Z</time>
      </trkpt>
      <trkpt lat="46.11611" lon="6.30257">
        <ele>478.369</ele>
        <time>2020-07-03T17:12:02Z</time>
      </trkpt>
      <trkpt lat="46.11607" lon="6.30274">
        <ele>478.355</ele>
        <time>2020-07-03T17:12:03Z</time>
      </trkpt>
      <trkpt lat="46.11604" lon="6.30287">
        <ele>478.632</ele>
        <time>2020-07-03T17:12:04Z</time>
      </trkpt>
      <trkpt lat="46.11604" lon="6.30297">
        <ele>478.778</ele>
        <time>2020-07-03T17:12:05Z</time>
      </trkpt>
      <trkpt lat="46.11605" lon="6.30306">
        <ele>478.733</ele>
        <time>2020-07-03T17:12:06Z</time>
      </trkpt>
      <trkpt lat="46.11607" lon="6.30317">
        <ele>478.726</ele>
        <time>2020-07-03T17:12:08Z</time>
      </trkpt>
      <trkpt lat="46.11605" lon="6.30304">
        <ele>478.208</ele>
        <time>2020-07-03T17:12:18Z</time>
      </trkpt>
      <trkpt lat="46.11605" lon="6.30293">
        <ele>478.352</ele>
        <time>2020-07-03T17:12:19Z</time>
      </trkpt>
      <trkpt lat="46.11607" lon="6.30276">
        <ele>478.419</ele>
        <time>2020-07-03T17:12:20Z</time>
      </trkpt>
      <trkpt lat="46.11611" lon="6.3026">
        <ele>478.637</ele>
        <time>2020-07-03T17:12:21Z</time>
      </trkpt>
      <trkpt lat="46.11614" lon="6.30243">
        <ele>478.816</ele>
        <time>2020-07-03T17:12:22Z</time>
      </trkpt>
      <trkpt lat="46.11616" lon="6.30227">
        <ele>479.097</ele>
        <time>2020-07-03T17:12:23Z</time>
      </trkpt>
      <trkpt lat="46.11618" lon="6.3021">
        <ele>479.237</ele>
        <time>2020-07-03T17:12:24Z</time>
      </trkpt>
      <trkpt lat="46.1162" lon="6.30194">
        <ele>479.433</ele>
        <time>2020-07-03T17:12:25Z</time>
      </trkpt>
      <trkpt lat="46.11621" lon="6.30183">
        <ele>479.67</ele>
        <time>2020-07-03T17:12:26Z</time>
      </trkpt>
      <trkpt lat="46.1162" lon="6.3017">
        <ele>479.763</ele>
        <time>2020-07-03T17:12:27Z</time>
      </trkpt>
      <trkpt lat="46.1162" lon="6.30162">
        <ele>479.844</ele>
        <time>2020-07-03T17:12:28Z</time>
      </trkpt>
      <trkpt lat="46.1162" lon="6.30155">
        <ele>479.818</ele>
        <time>2020-07-03T17:12:29Z</time>
      </trkpt>
      <trkpt lat="46.11623" lon="6.30149">
        <ele>479.408</ele>
        <time>2020-07-03T17:12:31Z</time>
      </trkpt>
      <trkpt lat="46.11628" lon="6.30154">
        <ele>478.691</ele>
        <time>2020-07-03T17:12:33Z</time>
      </trkpt>
      <trkpt lat="46.1163" lon="6.30162">
        <ele>478.278</ele>
        <time>2020-07-03T17:12:34Z</time>
      </trkpt>
      <trkpt lat="46.11634" lon="6.30167">
        <ele>477.816</ele>
        <time>2020-07-03T17:12:35Z</time>
      </trkpt>
      <trkpt lat="46.11641" lon="6.30169">
        <ele>477.415</ele>
        <time>2020-07-03T17:12:36Z</time>
      </trkpt>
      <trkpt lat="46.11647" lon="6.30171">
        <ele>477.166</ele>
        <time>2020-07-03T17:12:37Z</time>
      </trkpt>
      <trkpt lat="46.11654" lon="6.30177">
        <ele>476.896</ele>
        <time>2020-07-03T17:12:39Z</time>
      </trkpt>
      <trkpt lat="46.11658" lon="6.30181">
        <ele>476.892</ele>
        <time>2020-07-03T17:12:40Z</time>
      </trkpt>
      <trkpt lat="46.11663" lon="6.30186">
        <ele>476.889</ele>
        <time>2020-07-03T17:12:41Z</time>
      </trkpt>
      <trkpt lat="46.11666" lon="6.30193">
        <ele>476.855</ele>
        <time>2020-07-03T17:12:42Z</time>
      </trkpt>
      <trkpt lat="46.11672" lon="6.30196">
        <ele>476.707</ele>
        <time>2020-07-03T17:12:44Z</time>
      </trkpt>
      <trkpt lat="46.11677" lon="6.30194">
        <ele>476.617</ele>
        <time>2020-07-03T17:12:45Z</time>
      </trkpt>
      <trkpt lat="46.11685" lon="6.30191">
        <ele>476.508</ele>
        <time>2020-07-03T17:12:46Z</time>
      </trkpt>
      <trkpt lat="46.11692" lon="6.30189">
        <ele>476.59</ele>
        <time>2020-07-03T17:12:47Z</time>
      </trkpt>
      <trkpt lat="46.11712" lon="6.30195">
        <ele>476.587</ele>
        <time>2020-07-03T17:12:48Z</time>
      </trkpt>
      <trkpt lat="46.11723" lon="6.30201">
        <ele>476.745</ele>
        <time>2020-07-03T17:12:49Z</time>
      </trkpt>
      <trkpt lat="46.11732" lon="6.30207">
        <ele>476.864</ele>
        <time>2020-07-03T17:12:50Z</time>
      </trkpt>
      <trkpt lat="46.11739" lon="6.30212">
        <ele>476.885</ele>
        <time>2020-07-03T17:12:51Z</time>
      </trkpt>
      <trkpt lat="46.11747" lon="6.30218">
        <ele>476.875</ele>
        <time>2020-07-03T17:12:52Z</time>
      </trkpt>
      <trkpt lat="46.11752" lon="6.30222">
        <ele>476.561</ele>
        <time>2020-07-03T17:12:53Z</time>
      </trkpt>
      <trkpt lat="46.1176" lon="6.30223">
        <ele>476.088</ele>
        <time>2020-07-03T17:12:54Z</time>
      </trkpt>
      <trkpt lat="46.11766" lon="6.30226">
        <ele>475.623</ele>
        <time>2020-07-03T17:12:55Z</time>
      </trkpt>
      <trkpt lat="46.11772" lon="6.30222">
        <ele>475.183</ele>
        <time>2020-07-03T17:12:56Z</time>
      </trkpt>
      <trkpt lat="46.11782" lon="6.30213">
        <ele>474.611</ele>
        <time>2020-07-03T17:12:58Z</time>
      </trkpt>
      <trkpt lat="46.11788" lon="6.30205">
        <ele>474.508</ele>
        <time>2020-07-03T17:12:59Z</time>
      </trkpt>
      <trkpt lat="46.11793" lon="6.30196">
        <ele>474.517</ele>
        <time>2020-07-03T17:13:00Z</time>
      </trkpt>
      <trkpt lat="46.11796" lon="6.3019">
        <ele>474.584</ele>
        <time>2020-07-03T17:13:01Z</time>
      </trkpt>
      <trkpt lat="46.118" lon="6.30186">
        <ele>474.542</ele>
        <time>2020-07-03T17:13:02Z</time>
      </trkpt>
      <trkpt lat="46.11811" lon="6.30181">
        <ele>474.541</ele>
        <time>2020-07-03T17:13:04Z</time>
      </trkpt>
      <trkpt lat="46.11815" lon="6.30174">
        <ele>473.952</ele>
        <time>2020-07-03T17:13:07Z</time>
      </trkpt>
      <trkpt lat="46.11823" lon="6.30172">
        <ele>473.292</ele>
        <time>2020-07-03T17:13:09Z</time>
      </trkpt>
      <trkpt lat="46.11837" lon="6.30158">
        <ele>472.628</ele>
        <time>2020-07-03T17:13:26Z</time>
      </trkpt>
      <trkpt lat="46.11841" lon="6.30161">
        <ele>472.645</ele>
        <time>2020-07-03T17:13:28Z</time>
      </trkpt>
      <trkpt lat="46.11845" lon="6.30165">
        <ele>472.614</ele>
        <time>2020-07-03T17:13:29Z</time>
      </trkpt>
      <trkpt lat="46.11851" lon="6.30171">
        <ele>472.654</ele>
        <time>2020-07-03T17:13:31Z</time>
      </trkpt>
      <trkpt lat="46.11858" lon="6.30164">
        <ele>472.709</ele>
        <time>2020-07-03T17:13:35Z</time>
      </trkpt>
      <trkpt lat="46.11864" lon="6.30163">
        <ele>473.008</ele>
        <time>2020-07-03T17:13:37Z</time>
      </trkpt>
      <trkpt lat="46.11869" lon="6.30167">
        <ele>473.436</ele>
        <time>2020-07-03T17:13:39Z</time>
      </trkpt>
      <trkpt lat="46.11873" lon="6.3017">
        <ele>473.493</ele>
        <time>2020-07-03T17:13:40Z</time>
      </trkpt>
      <trkpt lat="46.11881" lon="6.30171">
        <ele>473.321</ele>
        <time>2020-07-03T17:13:42Z</time>
      </trkpt>
      <trkpt lat="46.11887" lon="6.30169">
        <ele>472.85</ele>
        <time>2020-07-03T17:13:44Z</time>
      </trkpt>
      <trkpt lat="46.11893" lon="6.30169">
        <ele>472.261</ele>
        <time>2020-07-03T17:13:47Z</time>
      </trkpt>
      <trkpt lat="46.119" lon="6.30174">
        <ele>472.261</ele>
        <time>2020-07-03T17:13:49Z</time>
      </trkpt>
      <trkpt lat="46.11908" lon="6.3018">
        <ele>472.227</ele>
        <time>2020-07-03T17:13:51Z</time>
      </trkpt>
      <trkpt lat="46.11913" lon="6.30184">
        <ele>472.344</ele>
        <time>2020-07-03T17:13:52Z</time>
      </trkpt>
      <trkpt lat="46.1192" lon="6.30189">
        <ele>472.457</ele>
        <time>2020-07-03T17:13:53Z</time>
      </trkpt>
      <trkpt lat="46.11925" lon="6.30194">
        <ele>472.4</ele>
        <time>2020-07-03T17:13:54Z</time>
      </trkpt>
      <trkpt lat="46.11929" lon="6.30198">
        <ele>472.42</ele>
        <time>2020-07-03T17:13:55Z</time>
      </trkpt>
      <trkpt lat="46.11933" lon="6.30204">
        <ele>472.408</ele>
        <time>2020-07-03T17:13:56Z</time>
      </trkpt>
      <trkpt lat="46.11939" lon="6.3021">
        <ele>471.93</ele>
        <time>2020-07-03T17:14:02Z</time>
      </trkpt>
      <trkpt lat="46.11946" lon="6.30215">
        <ele>471.917</ele>
        <time>2020-07-03T17:14:05Z</time>
      </trkpt>
      <trkpt lat="46.11953" lon="6.3022">
        <ele>472.095</ele>
        <time>2020-07-03T17:14:07Z</time>
      </trkpt>
      <trkpt lat="46.11959" lon="6.30226">
        <ele>472.084</ele>
        <time>2020-07-03T17:14:08Z</time>
      </trkpt>
      <trkpt lat="46.11966" lon="6.30229">
        <ele>472.015</ele>
        <time>2020-07-03T17:14:10Z</time>
      </trkpt>
      <trkpt lat="46.11971" lon="6.30228">
        <ele>471.955</ele>
        <time>2020-07-03T17:14:12Z</time>
      </trkpt>
      <trkpt lat="46.11978" lon="6.30226">
        <ele>471.891</ele>
        <time>2020-07-03T17:14:15Z</time>
      </trkpt>
      <trkpt lat="46.11983" lon="6.30225">
        <ele>471.678</ele>
        <time>2020-07-03T17:14:18Z</time>
      </trkpt>
      <trkpt lat="46.11988" lon="6.30222">
        <ele>471.573</ele>
        <time>2020-07-03T17:14:20Z</time>
      </trkpt>
      <trkpt lat="46.11995" lon="6.30226">
        <ele>471.585</ele>
        <time>2020-07-03T17:14:22Z</time>
      </trkpt>
      <trkpt lat="46.11997" lon="6.30234">
        <ele>471.513</ele>
        <time>2020-07-03T17:14:25Z</time>
      </trkpt>
      <trkpt lat="46.12005" lon="6.30236">
        <ele>471.608</ele>
        <time>2020-07-03T17:14:28Z</time>
      </trkpt>
      <trkpt lat="46.12011" lon="6.30241">
        <ele>471.722</ele>
        <time>2020-07-03T17:14:29Z</time>
      </trkpt>
      <trkpt lat="46.12014" lon="6.30246">
        <ele>471.869</ele>
        <time>2020-07-03T17:14:30Z</time>
      </trkpt>
      <trkpt lat="46.12012" lon="6.30256">
        <ele>471.827</ele>
        <time>2020-07-03T17:14:32Z</time>
      </trkpt>
      <trkpt lat="46.12011" lon="6.30263">
        <ele>471.736</ele>
        <time>2020-07-03T17:14:33Z</time>
      </trkpt>
      <trkpt lat="46.12011" lon="6.30272">
        <ele>471.677</ele>
        <time>2020-07-03T17:14:34Z</time>
      </trkpt>
      <trkpt lat="46.12013" lon="6.30284">
        <ele>471.617</ele>
        <time>2020-07-03T17:14:35Z</time>
      </trkpt>
      <trkpt lat="46.12017" lon="6.30302">
        <ele>471.763</ele>
        <time>2020-07-03T17:14:36Z</time>
      </trkpt>
      <trkpt lat="46.12023" lon="6.30315">
        <ele>471.81</ele>
        <time>2020-07-03T17:14:37Z</time>
      </trkpt>
      <trkpt lat="46.12029" lon="6.30326">
        <ele>471.827</ele>
        <time>2020-07-03T17:14:38Z</time>
      </trkpt>
      <trkpt lat="46.12033" lon="6.30337">
        <ele>471.768</ele>
        <time>2020-07-03T17:14:39Z</time>
      </trkpt>
      <trkpt lat="46.12034" lon="6.30346">
        <ele>471.614</ele>
        <time>2020-07-03T17:14:40Z</time>
      </trkpt>
      <trkpt lat="46.12036" lon="6.30355">
        <ele>471.308</ele>
        <time>2020-07-03T17:14:41Z</time>
      </trkpt>
      <trkpt lat="46.12042" lon="6.30362">
        <ele>470.967</ele>
        <time>2020-07-03T17:14:43Z</time>
      </trkpt>
      <trkpt lat="46.12048" lon="6.30366">
        <ele>470.824</ele>
        <time>2020-07-03T17:14:44Z</time>
      </trkpt>
      <trkpt lat="46.12056" lon="6.30369">
        <ele>470.822</ele>
        <time>2020-07-03T17:14:45Z</time>
      </trkpt>
      <trkpt lat="46.12065" lon="6.30373">
        <ele>470.841</ele>
        <time>2020-07-03T17:14:46Z</time>
      </trkpt>
      <trkpt lat="46.12072" lon="6.30376">
        <ele>470.922</ele>
        <time>2020-07-03T17:14:47Z</time>
      </trkpt>
      <trkpt lat="46.12079" lon="6.30376">
        <ele>470.992</ele>
        <time>2020-07-03T17:14:48Z</time>
      </trkpt>
      <trkpt lat="46.12084" lon="6.30377">
        <ele>470.938</ele>
        <time>2020-07-03T17:14:49Z</time>
      </trkpt>
      <trkpt lat="46.1209" lon="6.30379">
        <ele>470.995</ele>
        <time>2020-07-03T17:14:50Z</time>
      </trkpt>
      <trkpt lat="46.121" lon="6.30384">
        <ele>471.047</ele>
        <time>2020-07-03T17:14:52Z</time>
      </trkpt>
      <trkpt lat="46.12105" lon="6.30386">
        <ele>471.129</ele>
        <time>2020-07-03T17:14:53Z</time>
      </trkpt>
      <trkpt lat="46.1211" lon="6.30389">
        <ele>471.121</ele>
        <time>2020-07-03T17:14:54Z</time>
      </trkpt>
      <trkpt lat="46.12115" lon="6.30391">
        <ele>471.108</ele>
        <time>2020-07-03T17:14:55Z</time>
      </trkpt>
      <trkpt lat="46.1212" lon="6.30393">
        <ele>471.099</ele>
        <time>2020-07-03T17:14:57Z</time>
      </trkpt>
      <trkpt lat="46.12124" lon="6.30399">
        <ele>470.966</ele>
        <time>2020-07-03T17:14:59Z</time>
      </trkpt>
      <trkpt lat="46.12128" lon="6.30403">
        <ele>470.934</ele>
        <time>2020-07-03T17:15:01Z</time>
      </trkpt>
      <trkpt lat="46.12136" lon="6.3041">
        <ele>470.913</ele>
        <time>2020-07-03T17:15:03Z</time>
      </trkpt>
      <trkpt lat="46.12141" lon="6.30414">
        <ele>470.964</ele>
        <time>2020-07-03T17:15:04Z</time>
      </trkpt>
      <trkpt lat="46.12148" lon="6.30416">
        <ele>471.084</ele>
        <time>2020-07-03T17:15:06Z</time>
      </trkpt>
      <trkpt lat="46.12156" lon="6.30417">
        <ele>471.21</ele>
        <time>2020-07-03T17:15:08Z</time>
      </trkpt>
      <trkpt lat="46.12161" lon="6.3042">
        <ele>471.437</ele>
        <time>2020-07-03T17:15:09Z</time>
      </trkpt>
      <trkpt lat="46.12169" lon="6.30423">
        <ele>471.566</ele>
        <time>2020-07-03T17:15:11Z</time>
      </trkpt>
      <trkpt lat="46.12175" lon="6.30426">
        <ele>471.529</ele>
        <time>2020-07-03T17:15:12Z</time>
      </trkpt>
      <trkpt lat="46.12181" lon="6.30426">
        <ele>471.521</ele>
        <time>2020-07-03T17:15:13Z</time>
      </trkpt>
      <trkpt lat="46.1219" lon="6.30427">
        <ele>471.308</ele>
        <time>2020-07-03T17:15:15Z</time>
      </trkpt>
      <trkpt lat="46.12193" lon="6.30434">
        <ele>471.241</ele>
        <time>2020-07-03T17:15:16Z</time>
      </trkpt>
      <trkpt lat="46.12198" lon="6.30438">
        <ele>471.118</ele>
        <time>2020-07-03T17:15:17Z</time>
      </trkpt>
      <trkpt lat="46.12202" lon="6.30444">
        <ele>471.146</ele>
        <time>2020-07-03T17:15:18Z</time>
      </trkpt>
      <trkpt lat="46.12209" lon="6.30445">
        <ele>471.245</ele>
        <time>2020-07-03T17:15:20Z</time>
      </trkpt>
      <trkpt lat="46.12213" lon="6.30432">
        <ele>471.676</ele>
        <time>2020-07-03T17:15:22Z</time>
      </trkpt>
      <trkpt lat="46.12216" lon="6.30422">
        <ele>471.896</ele>
        <time>2020-07-03T17:15:23Z</time>
      </trkpt>
      <trkpt lat="46.12219" lon="6.30417">
        <ele>471.952</ele>
        <time>2020-07-03T17:15:24Z</time>
      </trkpt>
      <trkpt lat="46.12224" lon="6.30409">
        <ele>472.029</ele>
        <time>2020-07-03T17:15:26Z</time>
      </trkpt>
      <trkpt lat="46.12224" lon="6.304">
        <ele>472.026</ele>
        <time>2020-07-03T17:15:28Z</time>
      </trkpt>
      <trkpt lat="46.12225" lon="6.30387">
        <ele>472.047</ele>
        <time>2020-07-03T17:15:30Z</time>
      </trkpt>
      <trkpt lat="46.12228" lon="6.30379">
        <ele>472.011</ele>
        <time>2020-07-03T17:15:31Z</time>
      </trkpt>
      <trkpt lat="46.12232" lon="6.3037">
        <ele>472.108</ele>
        <time>2020-07-03T17:15:32Z</time>
      </trkpt>
      <trkpt lat="46.12237" lon="6.30364">
        <ele>472.257</ele>
        <time>2020-07-03T17:15:33Z</time>
      </trkpt>
      <trkpt lat="46.12243" lon="6.30358">
        <ele>472.494</ele>
        <time>2020-07-03T17:15:34Z</time>
      </trkpt>
      <trkpt lat="46.12249" lon="6.30348">
        <ele>472.872</ele>
        <time>2020-07-03T17:15:35Z</time>
      </trkpt>
      <trkpt lat="46.12256" lon="6.30343">
        <ele>473.031</ele>
        <time>2020-07-03T17:15:36Z</time>
      </trkpt>
      <trkpt lat="46.12265" lon="6.30338">
        <ele>473.052</ele>
        <time>2020-07-03T17:15:37Z</time>
      </trkpt>
      <trkpt lat="46.1227" lon="6.30329">
        <ele>472.962</ele>
        <time>2020-07-03T17:15:38Z</time>
      </trkpt>
      <trkpt lat="46.12276" lon="6.30317">
        <ele>472.848</ele>
        <time>2020-07-03T17:15:39Z</time>
      </trkpt>
      <trkpt lat="46.1228" lon="6.30305">
        <ele>472.515</ele>
        <time>2020-07-03T17:15:40Z</time>
      </trkpt>
      <trkpt lat="46.12283" lon="6.303">
        <ele>472.119</ele>
        <time>2020-07-03T17:15:41Z</time>
      </trkpt>
      <trkpt lat="46.12293" lon="6.30291">
        <ele>472.109</ele>
        <time>2020-07-03T17:15:43Z</time>
      </trkpt>
      <trkpt lat="46.12302" lon="6.30281">
        <ele>472.119</ele>
        <time>2020-07-03T17:15:44Z</time>
      </trkpt>
      <trkpt lat="46.12313" lon="6.30273">
        <ele>472.208</ele>
        <time>2020-07-03T17:15:45Z</time>
      </trkpt>
      <trkpt lat="46.12321" lon="6.30268">
        <ele>472.216</ele>
        <time>2020-07-03T17:15:46Z</time>
      </trkpt>
      <trkpt lat="46.12326" lon="6.30258">
        <ele>472.193</ele>
        <time>2020-07-03T17:15:47Z</time>
      </trkpt>
      <trkpt lat="46.12329" lon="6.30247">
        <ele>471.961</ele>
        <time>2020-07-03T17:15:48Z</time>
      </trkpt>
      <trkpt lat="46.12334" lon="6.30237">
        <ele>471.87</ele>
        <time>2020-07-03T17:15:49Z</time>
      </trkpt>
      <trkpt lat="46.12342" lon="6.30228">
        <ele>471.751</ele>
        <time>2020-07-03T17:15:50Z</time>
      </trkpt>
      <trkpt lat="46.12353" lon="6.30219">
        <ele>471.781</ele>
        <time>2020-07-03T17:15:51Z</time>
      </trkpt>
      <trkpt lat="46.12371" lon="6.30204">
        <ele>472.187</ele>
        <time>2020-07-03T17:15:52Z</time>
      </trkpt>
      <trkpt lat="46.12387" lon="6.3019">
        <ele>473.044</ele>
        <time>2020-07-03T17:15:53Z</time>
      </trkpt>
      <trkpt lat="46.12402" lon="6.30179">
        <ele>473.694</ele>
        <time>2020-07-03T17:15:54Z</time>
      </trkpt>
      <trkpt lat="46.1241" lon="6.30172">
        <ele>474.157</ele>
        <time>2020-07-03T17:15:55Z</time>
      </trkpt>
      <trkpt lat="46.12418" lon="6.30165">
        <ele>474.322</ele>
        <time>2020-07-03T17:15:56Z</time>
      </trkpt>
      <trkpt lat="46.12423" lon="6.30158">
        <ele>474.308</ele>
        <time>2020-07-03T17:15:57Z</time>
      </trkpt>
      <trkpt lat="46.1243" lon="6.30151">
        <ele>474.044</ele>
        <time>2020-07-03T17:15:58Z</time>
      </trkpt>
      <trkpt lat="46.12434" lon="6.30147">
        <ele>473.691</ele>
        <time>2020-07-03T17:15:59Z</time>
      </trkpt>
      <trkpt lat="46.12434" lon="6.30139">
        <ele>472.829</ele>
        <time>2020-07-03T17:16:01Z</time>
      </trkpt>
      <trkpt lat="46.12434" lon="6.30128">
        <ele>472.738</ele>
        <time>2020-07-03T17:16:02Z</time>
      </trkpt>
      <trkpt lat="46.1243" lon="6.30117">
        <ele>472.619</ele>
        <time>2020-07-03T17:16:03Z</time>
      </trkpt>
      <trkpt lat="46.12425" lon="6.3011">
        <ele>472.489</ele>
        <time>2020-07-03T17:16:04Z</time>
      </trkpt>
      <trkpt lat="46.12421" lon="6.30104">
        <ele>472.425</ele>
        <time>2020-07-03T17:16:05Z</time>
      </trkpt>
      <trkpt lat="46.12416" lon="6.301">
        <ele>472.132</ele>
        <time>2020-07-03T17:16:07Z</time>
      </trkpt>
      <trkpt lat="46.12407" lon="6.30107">
        <ele>471.713</ele>
        <time>2020-07-03T17:16:09Z</time>
      </trkpt>
      <trkpt lat="46.12398" lon="6.30117">
        <ele>471.543</ele>
        <time>2020-07-03T17:16:10Z</time>
      </trkpt>
      <trkpt lat="46.12387" lon="6.30127">
        <ele>471.507</ele>
        <time>2020-07-03T17:16:11Z</time>
      </trkpt>
      <trkpt lat="46.12371" lon="6.30137">
        <ele>471.508</ele>
        <time>2020-07-03T17:16:12Z</time>
      </trkpt>
      <trkpt lat="46.12354" lon="6.30142">
        <ele>471.536</ele>
        <time>2020-07-03T17:16:13Z</time>
      </trkpt>
      <trkpt lat="46.12338" lon="6.30143">
        <ele>471.753</ele>
        <time>2020-07-03T17:16:14Z</time>
      </trkpt>
      <trkpt lat="46.12324" lon="6.30144">
        <ele>471.921</ele>
        <time>2020-07-03T17:16:15Z</time>
      </trkpt>
      <trkpt lat="46.1231" lon="6.30147">
        <ele>472.28</ele>
        <time>2020-07-03T17:16:16Z</time>
      </trkpt>
      <trkpt lat="46.12295" lon="6.30153">
        <ele>472.521</ele>
        <time>2020-07-03T17:16:17Z</time>
      </trkpt>
      <trkpt lat="46.12285" lon="6.30159">
        <ele>472.711</ele>
        <time>2020-07-03T17:16:18Z</time>
      </trkpt>
      <trkpt lat="46.12271" lon="6.30164">
        <ele>472.727</ele>
        <time>2020-07-03T17:16:19Z</time>
      </trkpt>
      <trkpt lat="46.12257" lon="6.30165">
        <ele>472.744</ele>
        <time>2020-07-03T17:16:20Z</time>
      </trkpt>
      <trkpt lat="46.12244" lon="6.30164">
        <ele>472.776</ele>
        <time>2020-07-03T17:16:21Z</time>
      </trkpt>
      <trkpt lat="46.12229" lon="6.3016">
        <ele>472.79</ele>
        <time>2020-07-03T17:16:22Z</time>
      </trkpt>
      <trkpt lat="46.12214" lon="6.30157">
        <ele>472.719</ele>
        <time>2020-07-03T17:16:23Z</time>
      </trkpt>
      <trkpt lat="46.12201" lon="6.30155">
        <ele>472.608</ele>
        <time>2020-07-03T17:16:24Z</time>
      </trkpt>
      <trkpt lat="46.12188" lon="6.30154">
        <ele>472.622</ele>
        <time>2020-07-03T17:16:25Z</time>
      </trkpt>
      <trkpt lat="46.12176" lon="6.30153">
        <ele>472.469</ele>
        <time>2020-07-03T17:16:26Z</time>
      </trkpt>
      <trkpt lat="46.12166" lon="6.30155">
        <ele>472.327</ele>
        <time>2020-07-03T17:16:27Z</time>
      </trkpt>
      <trkpt lat="46.12158" lon="6.30156">
        <ele>472.126</ele>
        <time>2020-07-03T17:16:28Z</time>
      </trkpt>
      <trkpt lat="46.12153" lon="6.30156">
        <ele>471.827</ele>
        <time>2020-07-03T17:16:29Z</time>
      </trkpt>
      <trkpt lat="46.1215" lon="6.30148">
        <ele>471.437</ele>
        <time>2020-07-03T17:16:31Z</time>
      </trkpt>
      <trkpt lat="46.12149" lon="6.30139">
        <ele>471.223</ele>
        <time>2020-07-03T17:16:32Z</time>
      </trkpt>
      <trkpt lat="46.12152" lon="6.30124">
        <ele>471.11</ele>
        <time>2020-07-03T17:16:33Z</time>
      </trkpt>
      <trkpt lat="46.12153" lon="6.30109">
        <ele>471.132</ele>
        <time>2020-07-03T17:16:34Z</time>
      </trkpt>
      <trkpt lat="46.12152" lon="6.301">
        <ele>471.292</ele>
        <time>2020-07-03T17:16:35Z</time>
      </trkpt>
      <trkpt lat="46.1215" lon="6.30093">
        <ele>471.311</ele>
        <time>2020-07-03T17:16:36Z</time>
      </trkpt>
      <trkpt lat="46.12148" lon="6.30082">
        <ele>471.308</ele>
        <time>2020-07-03T17:16:37Z</time>
      </trkpt>
      <trkpt lat="46.12146" lon="6.30073">
        <ele>471.218</ele>
        <time>2020-07-03T17:16:38Z</time>
      </trkpt>
      <trkpt lat="46.12144" lon="6.30066">
        <ele>471.175</ele>
        <time>2020-07-03T17:16:39Z</time>
      </trkpt>
      <trkpt lat="46.12145" lon="6.30049">
        <ele>470.773</ele>
        <time>2020-07-03T17:16:43Z</time>
      </trkpt>
      <trkpt lat="46.12145" lon="6.30041">
        <ele>470.782</ele>
        <time>2020-07-03T17:16:44Z</time>
      </trkpt>
      <trkpt lat="46.12146" lon="6.30028">
        <ele>470.713</ele>
        <time>2020-07-03T17:16:45Z</time>
      </trkpt>
      <trkpt lat="46.12147" lon="6.30018">
        <ele>470.763</ele>
        <time>2020-07-03T17:16:46Z</time>
      </trkpt>
      <trkpt lat="46.12153" lon="6.2997">
        <ele>470.799</ele>
        <time>2020-07-03T17:16:51Z</time>
      </trkpt>
      <trkpt lat="46.12156" lon="6.29957">
        <ele>470.756</ele>
        <time>2020-07-03T17:16:52Z</time>
      </trkpt>
      <trkpt lat="46.12155" lon="6.29948">
        <ele>470.731</ele>
        <time>2020-07-03T17:16:53Z</time>
      </trkpt>
      <trkpt lat="46.12155" lon="6.29886">
        <ele>470.861</ele>
        <time>2020-07-03T17:16:54Z</time>
      </trkpt>
      <trkpt lat="46.12156" lon="6.29876">
        <ele>470.807</ele>
        <time>2020-07-03T17:16:55Z</time>
      </trkpt>
      <trkpt lat="46.12154" lon="6.29867">
        <ele>470.808</ele>
        <time>2020-07-03T17:16:56Z</time>
      </trkpt>
      <trkpt lat="46.12148" lon="6.29857">
        <ele>470.848</ele>
        <time>2020-07-03T17:16:57Z</time>
      </trkpt>
      <trkpt lat="46.12141" lon="6.29854">
        <ele>470.635</ele>
        <time>2020-07-03T17:16:58Z</time>
      </trkpt>
      <trkpt lat="46.12133" lon="6.29851">
        <ele>470.673</ele>
        <time>2020-07-03T17:16:59Z</time>
      </trkpt>
      <trkpt lat="46.12125" lon="6.29849">
        <ele>470.552</ele>
        <time>2020-07-03T17:17:01Z</time>
      </trkpt>
      <trkpt lat="46.12121" lon="6.29848">
        <ele>470.553</ele>
        <time>2020-07-03T17:17:16Z</time>
      </trkpt>
      <trkpt lat="46.12115" lon="6.29845">
        <ele>470.623</ele>
        <time>2020-07-03T17:17:17Z</time>
      </trkpt>
      <trkpt lat="46.12109" lon="6.29844">
        <ele>470.799</ele>
        <time>2020-07-03T17:17:18Z</time>
      </trkpt>
      <trkpt lat="46.12103" lon="6.29842">
        <ele>470.886</ele>
        <time>2020-07-03T17:17:19Z</time>
      </trkpt>
      <trkpt lat="46.12097" lon="6.2984">
        <ele>470.956</ele>
        <time>2020-07-03T17:17:20Z</time>
      </trkpt>
      <trkpt lat="46.12087" lon="6.29838">
        <ele>470.959</ele>
        <time>2020-07-03T17:17:21Z</time>
      </trkpt>
      <trkpt lat="46.12081" lon="6.29836">
        <ele>470.914</ele>
        <time>2020-07-03T17:17:22Z</time>
      </trkpt>
      <trkpt lat="46.12074" lon="6.29835">
        <ele>471.008</ele>
        <time>2020-07-03T17:17:23Z</time>
      </trkpt>
      <trkpt lat="46.12068" lon="6.29834">
        <ele>471.04</ele>
        <time>2020-07-03T17:17:24Z</time>
      </trkpt>
      <trkpt lat="46.12062" lon="6.29832">
        <ele>471.077</ele>
        <time>2020-07-03T17:17:25Z</time>
      </trkpt>
      <trkpt lat="46.12056" lon="6.29831">
        <ele>471.085</ele>
        <time>2020-07-03T17:17:26Z</time>
      </trkpt>
      <trkpt lat="46.12048" lon="6.29829">
        <ele>471.074</ele>
        <time>2020-07-03T17:17:27Z</time>
      </trkpt>
      <trkpt lat="46.12036" lon="6.29825">
        <ele>470.945</ele>
        <time>2020-07-03T17:17:28Z</time>
      </trkpt>
      <trkpt lat="46.12031" lon="6.29823">
        <ele>470.985</ele>
        <time>2020-07-03T17:17:29Z</time>
      </trkpt>
      <trkpt lat="46.12024" lon="6.29822">
        <ele>471.091</ele>
        <time>2020-07-03T17:17:30Z</time>
      </trkpt>
      <trkpt lat="46.12018" lon="6.29822">
        <ele>471.058</ele>
        <time>2020-07-03T17:17:31Z</time>
      </trkpt>
      <trkpt lat="46.1201" lon="6.2982">
        <ele>471.159</ele>
        <time>2020-07-03T17:17:32Z</time>
      </trkpt>
      <trkpt lat="46.12004" lon="6.29817">
        <ele>471.203</ele>
        <time>2020-07-03T17:17:33Z</time>
      </trkpt>
      <trkpt lat="46.11999" lon="6.29815">
        <ele>471.323</ele>
        <time>2020-07-03T17:17:35Z</time>
      </trkpt>
      <trkpt lat="46.11993" lon="6.2981">
        <ele>471.308</ele>
        <time>2020-07-03T17:17:37Z</time>
      </trkpt>
      <trkpt lat="46.11986" lon="6.29807">
        <ele>471.41</ele>
        <time>2020-07-03T17:17:38Z</time>
      </trkpt>
      <trkpt lat="46.11982" lon="6.29804">
        <ele>471.557</ele>
        <time>2020-07-03T17:17:39Z</time>
      </trkpt>
      <trkpt lat="46.11975" lon="6.29806">
        <ele>471.975</ele>
        <time>2020-07-03T17:17:56Z</time>
      </trkpt>
      <trkpt lat="46.11967" lon="6.29812">
        <ele>472.054</ele>
        <time>2020-07-03T17:17:57Z</time>
      </trkpt>
      <trkpt lat="46.11958" lon="6.2982">
        <ele>472.235</ele>
        <time>2020-07-03T17:17:58Z</time>
      </trkpt>
      <trkpt lat="46.11944" lon="6.29829">
        <ele>472.655</ele>
        <time>2020-07-03T17:17:59Z</time>
      </trkpt>
      <trkpt lat="46.11935" lon="6.29834">
        <ele>473.051</ele>
        <time>2020-07-03T17:18:00Z</time>
      </trkpt>
      <trkpt lat="46.11926" lon="6.29839">
        <ele>473.298</ele>
        <time>2020-07-03T17:18:01Z</time>
      </trkpt>
      <trkpt lat="46.11918" lon="6.29843">
        <ele>473.456</ele>
        <time>2020-07-03T17:18:02Z</time>
      </trkpt>
      <trkpt lat="46.11911" lon="6.29845">
        <ele>473.459</ele>
        <time>2020-07-03T17:18:03Z</time>
      </trkpt>
      <trkpt lat="46.11903" lon="6.29842">
        <ele>473.114</ele>
        <time>2020-07-03T17:18:05Z</time>
      </trkpt>
      <trkpt lat="46.11899" lon="6.29836">
        <ele>473.008</ele>
        <time>2020-07-03T17:18:06Z</time>
      </trkpt>
      <trkpt lat="46.11896" lon="6.29828">
        <ele>472.98</ele>
        <time>2020-07-03T17:18:07Z</time>
      </trkpt>
      <trkpt lat="46.11894" lon="6.2981">
        <ele>472.977</ele>
        <time>2020-07-03T17:18:08Z</time>
      </trkpt>
      <trkpt lat="46.11893" lon="6.29792">
        <ele>473.195</ele>
        <time>2020-07-03T17:18:09Z</time>
      </trkpt>
      <trkpt lat="46.11893" lon="6.29776">
        <ele>473.594</ele>
        <time>2020-07-03T17:18:10Z</time>
      </trkpt>
      <trkpt lat="46.11892" lon="6.29765">
        <ele>473.785</ele>
        <time>2020-07-03T17:18:11Z</time>
      </trkpt>
      <trkpt lat="46.11888" lon="6.29759">
        <ele>473.865</ele>
        <time>2020-07-03T17:18:13Z</time>
      </trkpt>
      <trkpt lat="46.11883" lon="6.29756">
        <ele>473.571</ele>
        <time>2020-07-03T17:18:15Z</time>
      </trkpt>
      <trkpt lat="46.11878" lon="6.29751">
        <ele>473.518</ele>
        <time>2020-07-03T17:18:16Z</time>
      </trkpt>
      <trkpt lat="46.11872" lon="6.29745">
        <ele>473.791</ele>
        <time>2020-07-03T17:18:17Z</time>
      </trkpt>
      <trkpt lat="46.11869" lon="6.29737">
        <ele>474.081</ele>
        <time>2020-07-03T17:18:18Z</time>
      </trkpt>
      <trkpt lat="46.11865" lon="6.29733">
        <ele>475.419</ele>
        <time>2020-07-03T17:18:24Z</time>
      </trkpt>
      <trkpt lat="46.11864" lon="6.29719">
        <ele>475.608</ele>
        <time>2020-07-03T17:18:26Z</time>
      </trkpt>
      <trkpt lat="46.11864" lon="6.29712">
        <ele>475.874</ele>
        <time>2020-07-03T17:18:27Z</time>
      </trkpt>
      <trkpt lat="46.11863" lon="6.29705">
        <ele>476.131</ele>
        <time>2020-07-03T17:18:28Z</time>
      </trkpt>
      <trkpt lat="46.11856" lon="6.29693">
        <ele>476.919</ele>
        <time>2020-07-03T17:18:30Z</time>
      </trkpt>
      <trkpt lat="46.11853" lon="6.29686">
        <ele>477.628</ele>
        <time>2020-07-03T17:18:31Z</time>
      </trkpt>
      <trkpt lat="46.11849" lon="6.29678">
        <ele>478.369</ele>
        <time>2020-07-03T17:18:32Z</time>
      </trkpt>
      <trkpt lat="46.11848" lon="6.2967">
        <ele>479.169</ele>
        <time>2020-07-03T17:18:33Z</time>
      </trkpt>
      <trkpt lat="46.11846" lon="6.29664">
        <ele>479.885</ele>
        <time>2020-07-03T17:18:34Z</time>
      </trkpt>
      <trkpt lat="46.11845" lon="6.29657">
        <ele>480.582</ele>
        <time>2020-07-03T17:18:35Z</time>
      </trkpt>
      <trkpt lat="46.11844" lon="6.2965">
        <ele>480.922</ele>
        <time>2020-07-03T17:18:36Z</time>
      </trkpt>
      <trkpt lat="46.11844" lon="6.29642">
        <ele>481.062</ele>
        <time>2020-07-03T17:18:37Z</time>
      </trkpt>
      <trkpt lat="46.11844" lon="6.29634">
        <ele>481.008</ele>
        <time>2020-07-03T17:18:38Z</time>
      </trkpt>
      <trkpt lat="46.11844" lon="6.29628">
        <ele>480.808</ele>
        <time>2020-07-03T17:18:39Z</time>
      </trkpt>
      <trkpt lat="46.11842" lon="6.29617">
        <ele>480.397</ele>
        <time>2020-07-03T17:18:41Z</time>
      </trkpt>
      <trkpt lat="46.11838" lon="6.29608">
        <ele>479.724</ele>
        <time>2020-07-03T17:18:43Z</time>
      </trkpt>
      <trkpt lat="46.11833" lon="6.29605">
        <ele>479.542</ele>
        <time>2020-07-03T17:18:44Z</time>
      </trkpt>
      <trkpt lat="46.11828" lon="6.296">
        <ele>479.471</ele>
        <time>2020-07-03T17:18:45Z</time>
      </trkpt>
      <trkpt lat="46.11822" lon="6.29594">
        <ele>479.442</ele>
        <time>2020-07-03T17:18:46Z</time>
      </trkpt>
      <trkpt lat="46.11815" lon="6.29587">
        <ele>479.472</ele>
        <time>2020-07-03T17:18:47Z</time>
      </trkpt>
      <trkpt lat="46.11807" lon="6.29577">
        <ele>479.598</ele>
        <time>2020-07-03T17:18:48Z</time>
      </trkpt>
      <trkpt lat="46.118" lon="6.2957">
        <ele>479.775</ele>
        <time>2020-07-03T17:18:49Z</time>
      </trkpt>
      <trkpt lat="46.11795" lon="6.29565">
        <ele>479.995</ele>
        <time>2020-07-03T17:18:50Z</time>
      </trkpt>
      <trkpt lat="46.11789" lon="6.29561">
        <ele>480.149</ele>
        <time>2020-07-03T17:18:51Z</time>
      </trkpt>
      <trkpt lat="46.11783" lon="6.29554">
        <ele>480.323</ele>
        <time>2020-07-03T17:18:52Z</time>
      </trkpt>
      <trkpt lat="46.11775" lon="6.29548">
        <ele>480.408</ele>
        <time>2020-07-03T17:18:53Z</time>
      </trkpt>
      <trkpt lat="46.11763" lon="6.29543">
        <ele>480.454</ele>
        <time>2020-07-03T17:18:54Z</time>
      </trkpt>
      <trkpt lat="46.1175" lon="6.29538">
        <ele>480.521</ele>
        <time>2020-07-03T17:18:55Z</time>
      </trkpt>
      <trkpt lat="46.11743" lon="6.29533">
        <ele>480.519</ele>
        <time>2020-07-03T17:18:56Z</time>
      </trkpt>
      <trkpt lat="46.11735" lon="6.29531">
        <ele>480.378</ele>
        <time>2020-07-03T17:18:58Z</time>
      </trkpt>
      <trkpt lat="46.11736" lon="6.29522">
        <ele>480.049</ele>
        <time>2020-07-03T17:19:09Z</time>
      </trkpt>
      <trkpt lat="46.11738" lon="6.29515">
        <ele>480.049</ele>
        <time>2020-07-03T17:19:10Z</time>
      </trkpt>
      <trkpt lat="46.11738" lon="6.29506">
        <ele>480.025</ele>
        <time>2020-07-03T17:19:11Z</time>
      </trkpt>
      <trkpt lat="46.11738" lon="6.29497">
        <ele>480.022</ele>
        <time>2020-07-03T17:19:12Z</time>
      </trkpt>
      <trkpt lat="46.11738" lon="6.29488">
        <ele>480.094</ele>
        <time>2020-07-03T17:19:13Z</time>
      </trkpt>
      <trkpt lat="46.11738" lon="6.29478">
        <ele>480.157</ele>
        <time>2020-07-03T17:19:14Z</time>
      </trkpt>
      <trkpt lat="46.11739" lon="6.29465">
        <ele>480.222</ele>
        <time>2020-07-03T17:19:15Z</time>
      </trkpt>
      <trkpt lat="46.1174" lon="6.29454">
        <ele>480.308</ele>
        <time>2020-07-03T17:19:16Z</time>
      </trkpt>
      <trkpt lat="46.11739" lon="6.29443">
        <ele>480.344</ele>
        <time>2020-07-03T17:19:17Z</time>
      </trkpt>
      <trkpt lat="46.11739" lon="6.29432">
        <ele>480.351</ele>
        <time>2020-07-03T17:19:18Z</time>
      </trkpt>
      <trkpt lat="46.11739" lon="6.29423">
        <ele>480.149</ele>
        <time>2020-07-03T17:19:19Z</time>
      </trkpt>
      <trkpt lat="46.1174" lon="6.29414">
        <ele>479.958</ele>
        <time>2020-07-03T17:19:20Z</time>
      </trkpt>
      <trkpt lat="46.11741" lon="6.29405">
        <ele>479.579</ele>
        <time>2020-07-03T17:19:22Z</time>
      </trkpt>
      <trkpt lat="46.1174" lon="6.29398">
        <ele>479.459</ele>
        <time>2020-07-03T17:19:24Z</time>
      </trkpt>
      <trkpt lat="46.11741" lon="6.29391">
        <ele>479.145</ele>
        <time>2020-07-03T17:20:02Z</time>
      </trkpt>
      <trkpt lat="46.11738" lon="6.29384">
        <ele>479.112</ele>
        <time>2020-07-03T17:20:03Z</time>
      </trkpt>
      <trkpt lat="46.11736" lon="6.29378">
        <ele>479.147</ele>
        <time>2020-07-03T17:20:04Z</time>
      </trkpt>
      <trkpt lat="46.11735" lon="6.29371">
        <ele>479.129</ele>
        <time>2020-07-03T17:20:05Z</time>
      </trkpt>
      <trkpt lat="46.11733" lon="6.29365">
        <ele>479.121</ele>
        <time>2020-07-03T17:20:06Z</time>
      </trkpt>
      <trkpt lat="46.11731" lon="6.29354">
        <ele>479.108</ele>
        <time>2020-07-03T17:20:08Z</time>
      </trkpt>
      <trkpt lat="46.11727" lon="6.29347">
        <ele>479.029</ele>
        <time>2020-07-03T17:20:10Z</time>
      </trkpt>
      <trkpt lat="46.11717" lon="6.29346">
        <ele>478.966</ele>
        <time>2020-07-03T17:20:12Z</time>
      </trkpt>
      <trkpt lat="46.11712" lon="6.29346">
        <ele>478.924</ele>
        <time>2020-07-03T17:20:13Z</time>
      </trkpt>
      <trkpt lat="46.11706" lon="6.29345">
        <ele>478.993</ele>
        <time>2020-07-03T17:20:14Z</time>
      </trkpt>
      <trkpt lat="46.117" lon="6.29344">
        <ele>478.954</ele>
        <time>2020-07-03T17:20:15Z</time>
      </trkpt>
      <trkpt lat="46.11694" lon="6.29343">
        <ele>479.024</ele>
        <time>2020-07-03T17:20:16Z</time>
      </trkpt>
      <trkpt lat="46.11688" lon="6.29343">
        <ele>479.18</ele>
        <time>2020-07-03T17:20:17Z</time>
      </trkpt>
      <trkpt lat="46.11683" lon="6.29341">
        <ele>479.227</ele>
        <time>2020-07-03T17:20:18Z</time>
      </trkpt>
      <trkpt lat="46.11678" lon="6.29339">
        <ele>479.397</ele>
        <time>2020-07-03T17:20:19Z</time>
      </trkpt>
      <trkpt lat="46.11673" lon="6.29339">
        <ele>479.423</ele>
        <time>2020-07-03T17:20:20Z</time>
      </trkpt>
      <trkpt lat="46.11668" lon="6.2934">
        <ele>479.425</ele>
        <time>2020-07-03T17:20:21Z</time>
      </trkpt>
      <trkpt lat="46.11663" lon="6.29343">
        <ele>479.408</ele>
        <time>2020-07-03T17:20:22Z</time>
      </trkpt>
      <trkpt lat="46.1166" lon="6.29349">
        <ele>479.584</ele>
        <time>2020-07-03T17:20:23Z</time>
      </trkpt>
      <trkpt lat="46.11656" lon="6.29354">
        <ele>479.661</ele>
        <time>2020-07-03T17:20:24Z</time>
      </trkpt>
      <trkpt lat="46.11649" lon="6.29364">
        <ele>479.749</ele>
        <time>2020-07-03T17:20:26Z</time>
      </trkpt>
      <trkpt lat="46.11645" lon="6.29365">
        <ele>479.828</ele>
        <time>2020-07-03T17:20:27Z</time>
      </trkpt>
      <trkpt lat="46.11635" lon="6.29364">
        <ele>479.929</ele>
        <time>2020-07-03T17:20:29Z</time>
      </trkpt>
      <trkpt lat="46.1163" lon="6.29362">
        <ele>480.099</ele>
        <time>2020-07-03T17:20:30Z</time>
      </trkpt>
      <trkpt lat="46.11622" lon="6.29363">
        <ele>480.195</ele>
        <time>2020-07-03T17:20:31Z</time>
      </trkpt>
      <trkpt lat="46.11616" lon="6.29364">
        <ele>480.252</ele>
        <time>2020-07-03T17:20:32Z</time>
      </trkpt>
      <trkpt lat="46.11611" lon="6.29366">
        <ele>480.319</ele>
        <time>2020-07-03T17:20:33Z</time>
      </trkpt>
      <trkpt lat="46.11606" lon="6.29368">
        <ele>480.309</ele>
        <time>2020-07-03T17:20:34Z</time>
      </trkpt>
      <trkpt lat="46.11614" lon="6.29368">
        <ele>480.019</ele>
        <time>2020-07-03T17:20:56Z</time>
      </trkpt>
      <trkpt lat="46.11619" lon="6.29364">
        <ele>480.108</ele>
        <time>2020-07-03T17:20:57Z</time>
      </trkpt>
      <trkpt lat="46.11625" lon="6.29362">
        <ele>480.126</ele>
        <time>2020-07-03T17:20:58Z</time>
      </trkpt>
      <trkpt lat="46.11631" lon="6.29362">
        <ele>480.113</ele>
        <time>2020-07-03T17:20:59Z</time>
      </trkpt>
      <trkpt lat="46.11638" lon="6.29359">
        <ele>480.211</ele>
        <time>2020-07-03T17:21:01Z</time>
      </trkpt>
      <trkpt lat="46.11634" lon="6.29347">
        <ele>480.11</ele>
        <time>2020-07-03T17:21:03Z</time>
      </trkpt>
      <trkpt lat="46.11629" lon="6.29342">
        <ele>480.011</ele>
        <time>2020-07-03T17:21:04Z</time>
      </trkpt>
      <trkpt lat="46.11624" lon="6.29335">
        <ele>479.921</ele>
        <time>2020-07-03T17:21:05Z</time>
      </trkpt>
      <trkpt lat="46.11617" lon="6.29331">
        <ele>479.947</ele>
        <time>2020-07-03T17:21:06Z</time>
      </trkpt>
      <trkpt lat="46.1161" lon="6.29328">
        <ele>479.954</ele>
        <time>2020-07-03T17:21:07Z</time>
      </trkpt>
      <trkpt lat="46.11604" lon="6.29325">
        <ele>480.098</ele>
        <time>2020-07-03T17:21:08Z</time>
      </trkpt>
      <trkpt lat="46.11598" lon="6.2932">
        <ele>480.115</ele>
        <time>2020-07-03T17:21:09Z</time>
      </trkpt>
      <trkpt lat="46.11595" lon="6.29314">
        <ele>480.226</ele>
        <time>2020-07-03T17:21:10Z</time>
      </trkpt>
      <trkpt lat="46.11594" lon="6.29305">
        <ele>480.408</ele>
        <time>2020-07-03T17:21:11Z</time>
      </trkpt>
      <trkpt lat="46.11594" lon="6.29292">
        <ele>480.694</ele>
        <time>2020-07-03T17:21:12Z</time>
      </trkpt>
      <trkpt lat="46.11594" lon="6.29277">
        <ele>481.021</ele>
        <time>2020-07-03T17:21:13Z</time>
      </trkpt>
      <trkpt lat="46.11592" lon="6.29266">
        <ele>481.679</ele>
        <time>2020-07-03T17:21:14Z</time>
      </trkpt>
      <trkpt lat="46.1159" lon="6.29256">
        <ele>482.148</ele>
        <time>2020-07-03T17:21:15Z</time>
      </trkpt>
      <trkpt lat="46.11587" lon="6.29248">
        <ele>482.589</ele>
        <time>2020-07-03T17:21:16Z</time>
      </trkpt>
      <trkpt lat="46.11585" lon="6.29242">
        <ele>482.979</ele>
        <time>2020-07-03T17:21:17Z</time>
      </trkpt>
      <trkpt lat="46.11584" lon="6.29234">
        <ele>483.235</ele>
        <time>2020-07-03T17:21:19Z</time>
      </trkpt>
      <trkpt lat="46.11575" lon="6.29233">
        <ele>483.572</ele>
        <time>2020-07-03T17:21:22Z</time>
      </trkpt>
      <trkpt lat="46.11569" lon="6.29238">
        <ele>483.775</ele>
        <time>2020-07-03T17:21:23Z</time>
      </trkpt>
      <trkpt lat="46.1156" lon="6.29247">
        <ele>483.928</ele>
        <time>2020-07-03T17:21:24Z</time>
      </trkpt>
      <trkpt lat="46.11549" lon="6.29256">
        <ele>484.12</ele>
        <time>2020-07-03T17:21:25Z</time>
      </trkpt>
      <trkpt lat="46.11535" lon="6.29269">
        <ele>484.408</ele>
        <time>2020-07-03T17:21:26Z</time>
      </trkpt>
      <trkpt lat="46.1152" lon="6.29284">
        <ele>484.932</ele>
        <time>2020-07-03T17:21:27Z</time>
      </trkpt>
      <trkpt lat="46.11502" lon="6.29299">
        <ele>485.559</ele>
        <time>2020-07-03T17:21:28Z</time>
      </trkpt>
      <trkpt lat="46.11484" lon="6.29315">
        <ele>486.467</ele>
        <time>2020-07-03T17:21:29Z</time>
      </trkpt>
      <trkpt lat="46.11465" lon="6.2933">
        <ele>487.596</ele>
        <time>2020-07-03T17:21:30Z</time>
      </trkpt>
      <trkpt lat="46.11452" lon="6.29348">
        <ele>488.517</ele>
        <time>2020-07-03T17:21:31Z</time>
      </trkpt>
      <trkpt lat="46.11435" lon="6.29363">
        <ele>489.777</ele>
        <time>2020-07-03T17:21:32Z</time>
      </trkpt>
      <trkpt lat="46.11419" lon="6.29377">
        <ele>490.433</ele>
        <time>2020-07-03T17:21:33Z</time>
      </trkpt>
      <trkpt lat="46.11408" lon="6.29386">
        <ele>490.49</ele>
        <time>2020-07-03T17:21:34Z</time>
      </trkpt>
      <trkpt lat="46.114" lon="6.29395">
        <ele>490.378</ele>
        <time>2020-07-03T17:21:35Z</time>
      </trkpt>
      <trkpt lat="46.11391" lon="6.29403">
        <ele>489.933</ele>
        <time>2020-07-03T17:21:36Z</time>
      </trkpt>
      <trkpt lat="46.11382" lon="6.29411">
        <ele>488.926</ele>
        <time>2020-07-03T17:21:37Z</time>
      </trkpt>
      <trkpt lat="46.11373" lon="6.29418">
        <ele>488.108</ele>
        <time>2020-07-03T17:21:38Z</time>
      </trkpt>
      <trkpt lat="46.11364" lon="6.29426">
        <ele>487.792</ele>
        <time>2020-07-03T17:21:39Z</time>
      </trkpt>
      <trkpt lat="46.11357" lon="6.29432">
        <ele>487.579</ele>
        <time>2020-07-03T17:21:40Z</time>
      </trkpt>
      <trkpt lat="46.11351" lon="6.29437">
        <ele>487.327</ele>
        <time>2020-07-03T17:21:41Z</time>
      </trkpt>
      <trkpt lat="46.11346" lon="6.29434">
        <ele>487.296</ele>
        <time>2020-07-03T17:21:42Z</time>
      </trkpt>
      <trkpt lat="46.11342" lon="6.29427">
        <ele>487.227</ele>
        <time>2020-07-03T17:21:44Z</time>
      </trkpt>
      <trkpt lat="46.1134" lon="6.29418">
        <ele>487.237</ele>
        <time>2020-07-03T17:21:45Z</time>
      </trkpt>
      <trkpt lat="46.11341" lon="6.29408">
        <ele>487.643</ele>
        <time>2020-07-03T17:21:46Z</time>
      </trkpt>
      <trkpt lat="46.11339" lon="6.29393">
        <ele>488.25</ele>
        <time>2020-07-03T17:21:47Z</time>
      </trkpt>
      <trkpt lat="46.1134" lon="6.29373">
        <ele>489.287</ele>
        <time>2020-07-03T17:21:48Z</time>
      </trkpt>
      <trkpt lat="46.11344" lon="6.29359">
        <ele>490.342</ele>
        <time>2020-07-03T17:21:49Z</time>
      </trkpt>
      <trkpt lat="46.1135" lon="6.29347">
        <ele>491.326</ele>
        <time>2020-07-03T17:21:50Z</time>
      </trkpt>
      <trkpt lat="46.11359" lon="6.29336">
        <ele>492.208</ele>
        <time>2020-07-03T17:21:51Z</time>
      </trkpt>
      <trkpt lat="46.11366" lon="6.29325">
        <ele>493.043</ele>
        <time>2020-07-03T17:21:52Z</time>
      </trkpt>
      <trkpt lat="46.11368" lon="6.29308">
        <ele>493.58</ele>
        <time>2020-07-03T17:21:53Z</time>
      </trkpt>
      <trkpt lat="46.11367" lon="6.29294">
        <ele>493.958</ele>
        <time>2020-07-03T17:21:54Z</time>
      </trkpt>
      <trkpt lat="46.11365" lon="6.29275">
        <ele>494.337</ele>
        <time>2020-07-03T17:21:55Z</time>
      </trkpt>
      <trkpt lat="46.11362" lon="6.29252">
        <ele>494.748</ele>
        <time>2020-07-03T17:21:56Z</time>
      </trkpt>
      <trkpt lat="46.11357" lon="6.29227">
        <ele>495.338</ele>
        <time>2020-07-03T17:21:57Z</time>
      </trkpt>
      <trkpt lat="46.11353" lon="6.29199">
        <ele>496.174</ele>
        <time>2020-07-03T17:21:58Z</time>
      </trkpt>
      <trkpt lat="46.11349" lon="6.29169">
        <ele>497.311</ele>
        <time>2020-07-03T17:21:59Z</time>
      </trkpt>
      <trkpt lat="46.11345" lon="6.29143">
        <ele>498.212</ele>
        <time>2020-07-03T17:22:00Z</time>
      </trkpt>
      <trkpt lat="46.11342" lon="6.29119">
        <ele>499.532</ele>
        <time>2020-07-03T17:22:01Z</time>
      </trkpt>
      <trkpt lat="46.11339" lon="6.29095">
        <ele>500.305</ele>
        <time>2020-07-03T17:22:02Z</time>
      </trkpt>
      <trkpt lat="46.11336" lon="6.29074">
        <ele>501.008</ele>
        <time>2020-07-03T17:22:03Z</time>
      </trkpt>
      <trkpt lat="46.11334" lon="6.29055">
        <ele>501.626</ele>
        <time>2020-07-03T17:22:04Z</time>
      </trkpt>
      <trkpt lat="46.11332" lon="6.29038">
        <ele>502.173</ele>
        <time>2020-07-03T17:22:05Z</time>
      </trkpt>
      <trkpt lat="46.11329" lon="6.29023">
        <ele>502.291</ele>
        <time>2020-07-03T17:22:06Z</time>
      </trkpt>
      <trkpt lat="46.11327" lon="6.29009">
        <ele>502.44</ele>
        <time>2020-07-03T17:22:07Z</time>
      </trkpt>
      <trkpt lat="46.11325" lon="6.28995">
        <ele>502.421</ele>
        <time>2020-07-03T17:22:08Z</time>
      </trkpt>
      <trkpt lat="46.11323" lon="6.28983">
        <ele>502.541</ele>
        <time>2020-07-03T17:22:09Z</time>
      </trkpt>
      <trkpt lat="46.11322" lon="6.28972">
        <ele>502.597</ele>
        <time>2020-07-03T17:22:10Z</time>
      </trkpt>
      <trkpt lat="46.11321" lon="6.28963">
        <ele>502.854</ele>
        <time>2020-07-03T17:22:11Z</time>
      </trkpt>
      <trkpt lat="46.1132" lon="6.28956">
        <ele>503.311</ele>
        <time>2020-07-03T17:22:13Z</time>
      </trkpt>
      <trkpt lat="46.11327" lon="6.28948">
        <ele>503.521</ele>
        <time>2020-07-03T17:22:35Z</time>
      </trkpt>
      <trkpt lat="46.11335" lon="6.28945">
        <ele>503.603</ele>
        <time>2020-07-03T17:22:36Z</time>
      </trkpt>
      <trkpt lat="46.11347" lon="6.28945">
        <ele>503.708</ele>
        <time>2020-07-03T17:22:37Z</time>
      </trkpt>
      <trkpt lat="46.11358" lon="6.28943">
        <ele>503.866</ele>
        <time>2020-07-03T17:22:38Z</time>
      </trkpt>
      <trkpt lat="46.11367" lon="6.2894">
        <ele>504.053</ele>
        <time>2020-07-03T17:22:39Z</time>
      </trkpt>
      <trkpt lat="46.11374" lon="6.28939">
        <ele>504.231</ele>
        <time>2020-07-03T17:22:40Z</time>
      </trkpt>
      <trkpt lat="46.11379" lon="6.28942">
        <ele>504.25</ele>
        <time>2020-07-03T17:22:41Z</time>
      </trkpt>
      <trkpt lat="46.11383" lon="6.28948">
        <ele>504.151</ele>
        <time>2020-07-03T17:22:42Z</time>
      </trkpt>
      <trkpt lat="46.11387" lon="6.28958">
        <ele>503.731</ele>
        <time>2020-07-03T17:22:43Z</time>
      </trkpt>
      <trkpt lat="46.11388" lon="6.2897">
        <ele>503.227</ele>
        <time>2020-07-03T17:22:44Z</time>
      </trkpt>
      <trkpt lat="46.1139" lon="6.28982">
        <ele>502.614</ele>
        <time>2020-07-03T17:22:45Z</time>
      </trkpt>
      <trkpt lat="46.11391" lon="6.28995">
        <ele>502.196</ele>
        <time>2020-07-03T17:22:46Z</time>
      </trkpt>
      <trkpt lat="46.11394" lon="6.2901">
        <ele>501.731</ele>
        <time>2020-07-03T17:22:47Z</time>
      </trkpt>
      <trkpt lat="46.11396" lon="6.29026">
        <ele>501.524</ele>
        <time>2020-07-03T17:22:48Z</time>
      </trkpt>
      <trkpt lat="46.11399" lon="6.29042">
        <ele>501.308</ele>
        <time>2020-07-03T17:22:49Z</time>
      </trkpt>
      <trkpt lat="46.11401" lon="6.29056">
        <ele>501.224</ele>
        <time>2020-07-03T17:22:50Z</time>
      </trkpt>
      <trkpt lat="46.11403" lon="6.29069">
        <ele>501.191</ele>
        <time>2020-07-03T17:22:51Z</time>
      </trkpt>
      <trkpt lat="46.11405" lon="6.2908">
        <ele>500.989</ele>
        <time>2020-07-03T17:22:52Z</time>
      </trkpt>
      <trkpt lat="46.11407" lon="6.29089">
        <ele>500.618</ele>
        <time>2020-07-03T17:22:53Z</time>
      </trkpt>
      <trkpt lat="46.11409" lon="6.29099">
        <ele>500.239</ele>
        <time>2020-07-03T17:22:54Z</time>
      </trkpt>
      <trkpt lat="46.11409" lon="6.29109">
        <ele>499.759</ele>
        <time>2020-07-03T17:22:55Z</time>
      </trkpt>
      <trkpt lat="46.11409" lon="6.2912">
        <ele>499.285</ele>
        <time>2020-07-03T17:22:56Z</time>
      </trkpt>
      <trkpt lat="46.11409" lon="6.29129">
        <ele>498.512</ele>
        <time>2020-07-03T17:22:57Z</time>
      </trkpt>
      <trkpt lat="46.11411" lon="6.29139">
        <ele>497.933</ele>
        <time>2020-07-03T17:22:58Z</time>
      </trkpt>
      <trkpt lat="46.11414" lon="6.2915">
        <ele>497.223</ele>
        <time>2020-07-03T17:22:59Z</time>
      </trkpt>
      <trkpt lat="46.11418" lon="6.2916">
        <ele>496.515</ele>
        <time>2020-07-03T17:23:00Z</time>
      </trkpt>
      <trkpt lat="46.11422" lon="6.29171">
        <ele>495.808</ele>
        <time>2020-07-03T17:23:01Z</time>
      </trkpt>
      <trkpt lat="46.11425" lon="6.2918">
        <ele>495.248</ele>
        <time>2020-07-03T17:23:02Z</time>
      </trkpt>
      <trkpt lat="46.11427" lon="6.2919">
        <ele>494.615</ele>
        <time>2020-07-03T17:23:03Z</time>
      </trkpt>
      <trkpt lat="46.1143" lon="6.29199">
        <ele>494.163</ele>
        <time>2020-07-03T17:23:04Z</time>
      </trkpt>
      <trkpt lat="46.11435" lon="6.29206">
        <ele>493.762</ele>
        <time>2020-07-03T17:23:05Z</time>
      </trkpt>
      <trkpt lat="46.11438" lon="6.29214">
        <ele>493.313</ele>
        <time>2020-07-03T17:23:06Z</time>
      </trkpt>
      <trkpt lat="46.1144" lon="6.29222">
        <ele>493.083</ele>
        <time>2020-07-03T17:23:07Z</time>
      </trkpt>
      <trkpt lat="46.11442" lon="6.29229">
        <ele>492.839</ele>
        <time>2020-07-03T17:23:08Z</time>
      </trkpt>
      <trkpt lat="46.11444" lon="6.29235">
        <ele>492.656</ele>
        <time>2020-07-03T17:23:09Z</time>
      </trkpt>
      <trkpt lat="46.11448" lon="6.29241">
        <ele>492.325</ele>
        <time>2020-07-03T17:23:11Z</time>
      </trkpt>
      <trkpt lat="46.11451" lon="6.29235">
        <ele>491.626</ele>
        <time>2020-07-03T17:23:27Z</time>
      </trkpt>
      <trkpt lat="46.11461" lon="6.29225">
        <ele>491.508</ele>
        <time>2020-07-03T17:23:29Z</time>
      </trkpt>
      <trkpt lat="46.11471" lon="6.29216">
        <ele>491.508</ele>
        <time>2020-07-03T17:23:30Z</time>
      </trkpt>
      <trkpt lat="46.11485" lon="6.29204">
        <ele>491.657</ele>
        <time>2020-07-03T17:23:31Z</time>
      </trkpt>
      <trkpt lat="46.11498" lon="6.29192">
        <ele>491.924</ele>
        <time>2020-07-03T17:23:32Z</time>
      </trkpt>
      <trkpt lat="46.11514" lon="6.29179">
        <ele>492.332</ele>
        <time>2020-07-03T17:23:33Z</time>
      </trkpt>
      <trkpt lat="46.11524" lon="6.29171">
        <ele>492.821</ele>
        <time>2020-07-03T17:23:34Z</time>
      </trkpt>
      <trkpt lat="46.11532" lon="6.29164">
        <ele>493.012</ele>
        <time>2020-07-03T17:23:35Z</time>
      </trkpt>
      <trkpt lat="46.11541" lon="6.29155">
        <ele>493.042</ele>
        <time>2020-07-03T17:23:36Z</time>
      </trkpt>
      <trkpt lat="46.11549" lon="6.29145">
        <ele>492.998</ele>
        <time>2020-07-03T17:23:37Z</time>
      </trkpt>
      <trkpt lat="46.11556" lon="6.29136">
        <ele>492.615</ele>
        <time>2020-07-03T17:23:38Z</time>
      </trkpt>
      <trkpt lat="46.11564" lon="6.29132">
        <ele>492.195</ele>
        <time>2020-07-03T17:23:39Z</time>
      </trkpt>
      <trkpt lat="46.11571" lon="6.29125">
        <ele>491.749</ele>
        <time>2020-07-03T17:23:40Z</time>
      </trkpt>
      <trkpt lat="46.11578" lon="6.2912">
        <ele>491.623</ele>
        <time>2020-07-03T17:23:41Z</time>
      </trkpt>
      <trkpt lat="46.11584" lon="6.29115">
        <ele>491.608</ele>
        <time>2020-07-03T17:23:42Z</time>
      </trkpt>
      <trkpt lat="46.11591" lon="6.29106">
        <ele>491.524</ele>
        <time>2020-07-03T17:23:43Z</time>
      </trkpt>
      <trkpt lat="46.11599" lon="6.29099">
        <ele>491.581</ele>
        <time>2020-07-03T17:23:44Z</time>
      </trkpt>
      <trkpt lat="46.11607" lon="6.29089">
        <ele>491.539</ele>
        <time>2020-07-03T17:23:45Z</time>
      </trkpt>
      <trkpt lat="46.11613" lon="6.29081">
        <ele>491.988</ele>
        <time>2020-07-03T17:23:46Z</time>
      </trkpt>
      <trkpt lat="46.11619" lon="6.29073">
        <ele>492.169</ele>
        <time>2020-07-03T17:23:47Z</time>
      </trkpt>
      <trkpt lat="46.11625" lon="6.29064">
        <ele>492.479</ele>
        <time>2020-07-03T17:23:48Z</time>
      </trkpt>
      <trkpt lat="46.11632" lon="6.29051">
        <ele>492.615</ele>
        <time>2020-07-03T17:23:49Z</time>
      </trkpt>
      <trkpt lat="46.11639" lon="6.29041">
        <ele>492.632</ele>
        <time>2020-07-03T17:23:50Z</time>
      </trkpt>
      <trkpt lat="46.11645" lon="6.29037">
        <ele>492.542</ele>
        <time>2020-07-03T17:23:51Z</time>
      </trkpt>
      <trkpt lat="46.11655" lon="6.29027">
        <ele>492.222</ele>
        <time>2020-07-03T17:23:52Z</time>
      </trkpt>
      <trkpt lat="46.11667" lon="6.29017">
        <ele>491.914</ele>
        <time>2020-07-03T17:23:53Z</time>
      </trkpt>
      <trkpt lat="46.11678" lon="6.2901">
        <ele>491.908</ele>
        <time>2020-07-03T17:23:54Z</time>
      </trkpt>
      <trkpt lat="46.11689" lon="6.29004">
        <ele>491.849</ele>
        <time>2020-07-03T17:23:55Z</time>
      </trkpt>
      <trkpt lat="46.11698" lon="6.28997">
        <ele>491.776</ele>
        <time>2020-07-03T17:23:56Z</time>
      </trkpt>
      <trkpt lat="46.11705" lon="6.28985">
        <ele>491.564</ele>
        <time>2020-07-03T17:23:57Z</time>
      </trkpt>
      <trkpt lat="46.11711" lon="6.28972">
        <ele>491.523</ele>
        <time>2020-07-03T17:23:58Z</time>
      </trkpt>
      <trkpt lat="46.11715" lon="6.28958">
        <ele>491.294</ele>
        <time>2020-07-03T17:23:59Z</time>
      </trkpt>
      <trkpt lat="46.11718" lon="6.28948">
        <ele>491.054</ele>
        <time>2020-07-03T17:24:00Z</time>
      </trkpt>
      <trkpt lat="46.11725" lon="6.2894">
        <ele>491.01</ele>
        <time>2020-07-03T17:24:01Z</time>
      </trkpt>
      <trkpt lat="46.11733" lon="6.28932">
        <ele>491.137</ele>
        <time>2020-07-03T17:24:02Z</time>
      </trkpt>
      <trkpt lat="46.11743" lon="6.28923">
        <ele>491.259</ele>
        <time>2020-07-03T17:24:03Z</time>
      </trkpt>
      <trkpt lat="46.11752" lon="6.28916">
        <ele>491.303</ele>
        <time>2020-07-03T17:24:04Z</time>
      </trkpt>
      <trkpt lat="46.1176" lon="6.28915">
        <ele>491.423</ele>
        <time>2020-07-03T17:24:05Z</time>
      </trkpt>
      <trkpt lat="46.11765" lon="6.28914">
        <ele>491.508</ele>
        <time>2020-07-03T17:24:06Z</time>
      </trkpt>
      <trkpt lat="46.1177" lon="6.2891">
        <ele>491.51</ele>
        <time>2020-07-03T17:24:08Z</time>
      </trkpt>
      <trkpt lat="46.11776" lon="6.28907">
        <ele>491.427</ele>
        <time>2020-07-03T17:24:09Z</time>
      </trkpt>
      <trkpt lat="46.11784" lon="6.28902">
        <ele>491.295</ele>
        <time>2020-07-03T17:24:10Z</time>
      </trkpt>
      <trkpt lat="46.11792" lon="6.28897">
        <ele>491.024</ele>
        <time>2020-07-03T17:24:11Z</time>
      </trkpt>
      <trkpt lat="46.11798" lon="6.28892">
        <ele>490.955</ele>
        <time>2020-07-03T17:24:12Z</time>
      </trkpt>
      <trkpt lat="46.11802" lon="6.28885">
        <ele>490.765</ele>
        <time>2020-07-03T17:24:13Z</time>
      </trkpt>
      <trkpt lat="46.11806" lon="6.2888">
        <ele>490.561</ele>
        <time>2020-07-03T17:24:14Z</time>
      </trkpt>
      <trkpt lat="46.11811" lon="6.28875">
        <ele>490.228</ele>
        <time>2020-07-03T17:24:15Z</time>
      </trkpt>
      <trkpt lat="46.11815" lon="6.28869">
        <ele>489.948</ele>
        <time>2020-07-03T17:24:16Z</time>
      </trkpt>
      <trkpt lat="46.1182" lon="6.28859">
        <ele>489.561</ele>
        <time>2020-07-03T17:24:18Z</time>
      </trkpt>
      <trkpt lat="46.11824" lon="6.28852">
        <ele>489.517</ele>
        <time>2020-07-03T17:24:19Z</time>
      </trkpt>
      <trkpt lat="46.11829" lon="6.28843">
        <ele>489.508</ele>
        <time>2020-07-03T17:24:20Z</time>
      </trkpt>
      <trkpt lat="46.11834" lon="6.28835">
        <ele>489.639</ele>
        <time>2020-07-03T17:24:21Z</time>
      </trkpt>
      <trkpt lat="46.11842" lon="6.28826">
        <ele>489.776</ele>
        <time>2020-07-03T17:24:22Z</time>
      </trkpt>
      <trkpt lat="46.11848" lon="6.28817">
        <ele>489.854</ele>
        <time>2020-07-03T17:24:23Z</time>
      </trkpt>
      <trkpt lat="46.11854" lon="6.28807">
        <ele>489.893</ele>
        <time>2020-07-03T17:24:24Z</time>
      </trkpt>
      <trkpt lat="46.11859" lon="6.28799">
        <ele>489.914</ele>
        <time>2020-07-03T17:24:25Z</time>
      </trkpt>
      <trkpt lat="46.11864" lon="6.2879">
        <ele>489.934</ele>
        <time>2020-07-03T17:24:26Z</time>
      </trkpt>
      <trkpt lat="46.11869" lon="6.28782">
        <ele>489.95</ele>
        <time>2020-07-03T17:24:27Z</time>
      </trkpt>
      <trkpt lat="46.11874" lon="6.28772">
        <ele>489.997</ele>
        <time>2020-07-03T17:24:28Z</time>
      </trkpt>
      <trkpt lat="46.1188" lon="6.28762">
        <ele>490.089</ele>
        <time>2020-07-03T17:24:29Z</time>
      </trkpt>
      <trkpt lat="46.11886" lon="6.28753">
        <ele>490.006</ele>
        <time>2020-07-03T17:24:30Z</time>
      </trkpt>
      <trkpt lat="46.11894" lon="6.28741">
        <ele>490.026</ele>
        <time>2020-07-03T17:24:31Z</time>
      </trkpt>
      <trkpt lat="46.11902" lon="6.28728">
        <ele>490.108</ele>
        <time>2020-07-03T17:24:32Z</time>
      </trkpt>
      <trkpt lat="46.11909" lon="6.28716">
        <ele>490.543</ele>
        <time>2020-07-03T17:24:33Z</time>
      </trkpt>
      <trkpt lat="46.11916" lon="6.28705">
        <ele>490.86</ele>
        <time>2020-07-03T17:24:34Z</time>
      </trkpt>
      <trkpt lat="46.11925" lon="6.28697">
        <ele>491.228</ele>
        <time>2020-07-03T17:24:35Z</time>
      </trkpt>
      <trkpt lat="46.11932" lon="6.28688">
        <ele>491.777</ele>
        <time>2020-07-03T17:24:36Z</time>
      </trkpt>
      <trkpt lat="46.11941" lon="6.28678">
        <ele>492.178</ele>
        <time>2020-07-03T17:24:37Z</time>
      </trkpt>
      <trkpt lat="46.11952" lon="6.28666">
        <ele>492.298</ele>
        <time>2020-07-03T17:24:38Z</time>
      </trkpt>
      <trkpt lat="46.11962" lon="6.28658">
        <ele>492.224</ele>
        <time>2020-07-03T17:24:39Z</time>
      </trkpt>
      <trkpt lat="46.11973" lon="6.28651">
        <ele>492.291</ele>
        <time>2020-07-03T17:24:40Z</time>
      </trkpt>
      <trkpt lat="46.11984" lon="6.28643">
        <ele>492.223</ele>
        <time>2020-07-03T17:24:41Z</time>
      </trkpt>
      <trkpt lat="46.11994" lon="6.28636">
        <ele>492.183</ele>
        <time>2020-07-03T17:24:42Z</time>
      </trkpt>
      <trkpt lat="46.12002" lon="6.28626">
        <ele>492.011</ele>
        <time>2020-07-03T17:24:43Z</time>
      </trkpt>
      <trkpt lat="46.12011" lon="6.28619">
        <ele>492.008</ele>
        <time>2020-07-03T17:24:44Z</time>
      </trkpt>
      <trkpt lat="46.12024" lon="6.28611">
        <ele>492.077</ele>
        <time>2020-07-03T17:24:45Z</time>
      </trkpt>
      <trkpt lat="46.12038" lon="6.28601">
        <ele>492.134</ele>
        <time>2020-07-03T17:24:46Z</time>
      </trkpt>
      <trkpt lat="46.12052" lon="6.28597">
        <ele>492.452</ele>
        <time>2020-07-03T17:24:47Z</time>
      </trkpt>
      <trkpt lat="46.12053" lon="6.28558">
        <ele>492.561</ele>
        <time>2020-07-03T17:24:48Z</time>
      </trkpt>
      <trkpt lat="46.12065" lon="6.28547">
        <ele>492.782</ele>
        <time>2020-07-03T17:24:49Z</time>
      </trkpt>
      <trkpt lat="46.12074" lon="6.28536">
        <ele>492.932</ele>
        <time>2020-07-03T17:24:50Z</time>
      </trkpt>
      <trkpt lat="46.12081" lon="6.2853">
        <ele>492.978</ele>
        <time>2020-07-03T17:24:51Z</time>
      </trkpt>
      <trkpt lat="46.12088" lon="6.28524">
        <ele>492.885</ele>
        <time>2020-07-03T17:24:52Z</time>
      </trkpt>
      <trkpt lat="46.12097" lon="6.28523">
        <ele>492.663</ele>
        <time>2020-07-03T17:24:53Z</time>
      </trkpt>
      <trkpt lat="46.12104" lon="6.2852">
        <ele>492.144</ele>
        <time>2020-07-03T17:24:54Z</time>
      </trkpt>
      <trkpt lat="46.1211" lon="6.28514">
        <ele>491.618</ele>
        <time>2020-07-03T17:24:55Z</time>
      </trkpt>
      <trkpt lat="46.12116" lon="6.28506">
        <ele>491.108</ele>
        <time>2020-07-03T17:24:56Z</time>
      </trkpt>
      <trkpt lat="46.12123" lon="6.28495">
        <ele>490.961</ele>
        <time>2020-07-03T17:24:57Z</time>
      </trkpt>
      <trkpt lat="46.12132" lon="6.28487">
        <ele>490.958</ele>
        <time>2020-07-03T17:24:58Z</time>
      </trkpt>
      <trkpt lat="46.12141" lon="6.28476">
        <ele>490.786</ele>
        <time>2020-07-03T17:24:59Z</time>
      </trkpt>
      <trkpt lat="46.1215" lon="6.28468">
        <ele>490.685</ele>
        <time>2020-07-03T17:25:00Z</time>
      </trkpt>
      <trkpt lat="46.12157" lon="6.2846">
        <ele>490.436</ele>
        <time>2020-07-03T17:25:01Z</time>
      </trkpt>
      <trkpt lat="46.12163" lon="6.28452">
        <ele>490.186</ele>
        <time>2020-07-03T17:25:02Z</time>
      </trkpt>
      <trkpt lat="46.1217" lon="6.28445">
        <ele>489.872</ele>
        <time>2020-07-03T17:25:03Z</time>
      </trkpt>
      <trkpt lat="46.12177" lon="6.28441">
        <ele>489.859</ele>
        <time>2020-07-03T17:25:04Z</time>
      </trkpt>
      <trkpt lat="46.12184" lon="6.28439">
        <ele>489.852</ele>
        <time>2020-07-03T17:25:05Z</time>
      </trkpt>
      <trkpt lat="46.12195" lon="6.28433">
        <ele>489.853</ele>
        <time>2020-07-03T17:25:06Z</time>
      </trkpt>
      <trkpt lat="46.12207" lon="6.28425">
        <ele>490.008</ele>
        <time>2020-07-03T17:25:07Z</time>
      </trkpt>
      <trkpt lat="46.12219" lon="6.2842">
        <ele>490.408</ele>
        <time>2020-07-03T17:25:08Z</time>
      </trkpt>
      <trkpt lat="46.12231" lon="6.28416">
        <ele>490.62</ele>
        <time>2020-07-03T17:25:09Z</time>
      </trkpt>
      <trkpt lat="46.1224" lon="6.28409">
        <ele>490.677</ele>
        <time>2020-07-03T17:25:10Z</time>
      </trkpt>
      <trkpt lat="46.12249" lon="6.28406">
        <ele>490.635</ele>
        <time>2020-07-03T17:25:11Z</time>
      </trkpt>
      <trkpt lat="46.12259" lon="6.28402">
        <ele>490.534</ele>
        <time>2020-07-03T17:25:12Z</time>
      </trkpt>
      <trkpt lat="46.12271" lon="6.28398">
        <ele>490.245</ele>
        <time>2020-07-03T17:25:13Z</time>
      </trkpt>
      <trkpt lat="46.12281" lon="6.28393">
        <ele>490.235</ele>
        <time>2020-07-03T17:25:14Z</time>
      </trkpt>
      <trkpt lat="46.1229" lon="6.28387">
        <ele>490.291</ele>
        <time>2020-07-03T17:25:15Z</time>
      </trkpt>
      <trkpt lat="46.123" lon="6.28381">
        <ele>490.388</ele>
        <time>2020-07-03T17:25:16Z</time>
      </trkpt>
      <trkpt lat="46.1231" lon="6.28378">
        <ele>490.426</ele>
        <time>2020-07-03T17:25:17Z</time>
      </trkpt>
      <trkpt lat="46.12322" lon="6.28376">
        <ele>490.547</ele>
        <time>2020-07-03T17:25:18Z</time>
      </trkpt>
      <trkpt lat="46.12331" lon="6.28375">
        <ele>490.511</ele>
        <time>2020-07-03T17:25:19Z</time>
      </trkpt>
      <trkpt lat="46.12339" lon="6.28375">
        <ele>490.508</ele>
        <time>2020-07-03T17:25:20Z</time>
      </trkpt>
      <trkpt lat="46.12345" lon="6.28375">
        <ele>490.557</ele>
        <time>2020-07-03T17:25:21Z</time>
      </trkpt>
      <trkpt lat="46.1235" lon="6.28375">
        <ele>490.484</ele>
        <time>2020-07-03T17:25:22Z</time>
      </trkpt>
      <trkpt lat="46.12356" lon="6.2838">
        <ele>490.422</ele>
        <time>2020-07-03T17:25:24Z</time>
      </trkpt>
      <trkpt lat="46.1236" lon="6.28385">
        <ele>490.481</ele>
        <time>2020-07-03T17:25:26Z</time>
      </trkpt>
      <trkpt lat="46.12362" lon="6.28379">
        <ele>490.872</ele>
        <time>2020-07-03T17:25:28Z</time>
      </trkpt>
      <trkpt lat="46.12353" lon="6.28376">
        <ele>491.112</ele>
        <time>2020-07-03T17:25:30Z</time>
      </trkpt>
      <trkpt lat="46.12348" lon="6.28376">
        <ele>491.198</ele>
        <time>2020-07-03T17:25:31Z</time>
      </trkpt>
      <trkpt lat="46.12342" lon="6.28378">
        <ele>491.115</ele>
        <time>2020-07-03T17:25:32Z</time>
      </trkpt>
      <trkpt lat="46.12336" lon="6.28374">
        <ele>490.867</ele>
        <time>2020-07-03T17:25:34Z</time>
      </trkpt>
      <trkpt lat="46.12333" lon="6.2836">
        <ele>490.381</ele>
        <time>2020-07-03T17:25:36Z</time>
      </trkpt>
      <trkpt lat="46.12328" lon="6.28353">
        <ele>490.119</ele>
        <time>2020-07-03T17:25:38Z</time>
      </trkpt>
      <trkpt lat="46.12318" lon="6.28348">
        <ele>490.108</ele>
        <time>2020-07-03T17:25:40Z</time>
      </trkpt>
      <trkpt lat="46.12308" lon="6.2834">
        <ele>490.271</ele>
        <time>2020-07-03T17:25:41Z</time>
      </trkpt>
      <trkpt lat="46.12303" lon="6.28331">
        <ele>490.448</ele>
        <time>2020-07-03T17:25:42Z</time>
      </trkpt>
      <trkpt lat="46.12299" lon="6.28325">
        <ele>490.966</ele>
        <time>2020-07-03T17:25:43Z</time>
      </trkpt>
      <trkpt lat="46.12294" lon="6.2832">
        <ele>491.695</ele>
        <time>2020-07-03T17:25:44Z</time>
      </trkpt>
      <trkpt lat="46.12288" lon="6.28315">
        <ele>492.216</ele>
        <time>2020-07-03T17:25:45Z</time>
      </trkpt>
      <trkpt lat="46.12277" lon="6.28309">
        <ele>492.936</ele>
        <time>2020-07-03T17:25:46Z</time>
      </trkpt>
      <trkpt lat="46.12268" lon="6.28301">
        <ele>493.452</ele>
        <time>2020-07-03T17:25:47Z</time>
      </trkpt>
      <trkpt lat="46.12263" lon="6.28296">
        <ele>493.859</ele>
        <time>2020-07-03T17:25:48Z</time>
      </trkpt>
      <trkpt lat="46.1226" lon="6.28291">
        <ele>494.056</ele>
        <time>2020-07-03T17:25:49Z</time>
      </trkpt>
      <trkpt lat="46.12255" lon="6.2828">
        <ele>494.359</ele>
        <time>2020-07-03T17:25:51Z</time>
      </trkpt>
      <trkpt lat="46.12252" lon="6.2827">
        <ele>494.314</ele>
        <time>2020-07-03T17:25:52Z</time>
      </trkpt>
      <trkpt lat="46.12248" lon="6.2826">
        <ele>494.508</ele>
        <time>2020-07-03T17:25:53Z</time>
      </trkpt>
      <trkpt lat="46.12245" lon="6.28249">
        <ele>494.96</ele>
        <time>2020-07-03T17:25:54Z</time>
      </trkpt>
      <trkpt lat="46.12237" lon="6.2823">
        <ele>495.457</ele>
        <time>2020-07-03T17:25:55Z</time>
      </trkpt>
      <trkpt lat="46.1223" lon="6.28218">
        <ele>496.225</ele>
        <time>2020-07-03T17:25:56Z</time>
      </trkpt>
      <trkpt lat="46.12224" lon="6.28211">
        <ele>497.174</ele>
        <time>2020-07-03T17:25:57Z</time>
      </trkpt>
      <trkpt lat="46.12217" lon="6.28207">
        <ele>498.015</ele>
        <time>2020-07-03T17:25:58Z</time>
      </trkpt>
      <trkpt lat="46.1221" lon="6.28209">
        <ele>498.855</ele>
        <time>2020-07-03T17:25:59Z</time>
      </trkpt>
      <trkpt lat="46.12202" lon="6.28206">
        <ele>499.681</ele>
        <time>2020-07-03T17:26:00Z</time>
      </trkpt>
      <trkpt lat="46.12195" lon="6.282">
        <ele>500.478</ele>
        <time>2020-07-03T17:26:01Z</time>
      </trkpt>
      <trkpt lat="46.12189" lon="6.28196">
        <ele>501.212</ele>
        <time>2020-07-03T17:26:02Z</time>
      </trkpt>
      <trkpt lat="46.12176" lon="6.28199">
        <ele>502.332</ele>
        <time>2020-07-03T17:26:04Z</time>
      </trkpt>
      <trkpt lat="46.12168" lon="6.28202">
        <ele>502.505</ele>
        <time>2020-07-03T17:26:05Z</time>
      </trkpt>
      <trkpt lat="46.12161" lon="6.28201">
        <ele>502.508</ele>
        <time>2020-07-03T17:26:06Z</time>
      </trkpt>
      <trkpt lat="46.12154" lon="6.28197">
        <ele>502.446</ele>
        <time>2020-07-03T17:26:07Z</time>
      </trkpt>
      <trkpt lat="46.12148" lon="6.28195">
        <ele>502.363</ele>
        <time>2020-07-03T17:26:08Z</time>
      </trkpt>
      <trkpt lat="46.1214" lon="6.28185">
        <ele>502.591</ele>
        <time>2020-07-03T17:26:10Z</time>
      </trkpt>
      <trkpt lat="46.12137" lon="6.28178">
        <ele>502.59</ele>
        <time>2020-07-03T17:26:11Z</time>
      </trkpt>
      <trkpt lat="46.12134" lon="6.2817">
        <ele>502.691</ele>
        <time>2020-07-03T17:26:12Z</time>
      </trkpt>
      <trkpt lat="46.12128" lon="6.28167">
        <ele>502.581</ele>
        <time>2020-07-03T17:26:16Z</time>
      </trkpt>
      <trkpt lat="46.12123" lon="6.28165">
        <ele>502.377</ele>
        <time>2020-07-03T17:26:20Z</time>
      </trkpt>
      <trkpt lat="46.12116" lon="6.28171">
        <ele>502.384</ele>
        <time>2020-07-03T17:26:22Z</time>
      </trkpt>
      <trkpt lat="46.1211" lon="6.28179">
        <ele>502.499</ele>
        <time>2020-07-03T17:26:23Z</time>
      </trkpt>
      <trkpt lat="46.12103" lon="6.28184">
        <ele>502.707</ele>
        <time>2020-07-03T17:26:24Z</time>
      </trkpt>
      <trkpt lat="46.12094" lon="6.28186">
        <ele>503.027</ele>
        <time>2020-07-03T17:26:25Z</time>
      </trkpt>
      <trkpt lat="46.12087" lon="6.28188">
        <ele>503.308</ele>
        <time>2020-07-03T17:26:26Z</time>
      </trkpt>
      <trkpt lat="46.12079" lon="6.28194">
        <ele>503.494</ele>
        <time>2020-07-03T17:26:27Z</time>
      </trkpt>
      <trkpt lat="46.12075" lon="6.28196">
        <ele>503.451</ele>
        <time>2020-07-03T17:26:28Z</time>
      </trkpt>
      <trkpt lat="46.12068" lon="6.28197">
        <ele>503.039</ele>
        <time>2020-07-03T17:26:30Z</time>
      </trkpt>
      <trkpt lat="46.12064" lon="6.28196">
        <ele>502.928</ele>
        <time>2020-07-03T17:26:33Z</time>
      </trkpt>
      <trkpt lat="46.12058" lon="6.28198">
        <ele>503.199</ele>
        <time>2020-07-03T17:26:35Z</time>
      </trkpt>
      <trkpt lat="46.12051" lon="6.28201">
        <ele>503.289</ele>
        <time>2020-07-03T17:26:38Z</time>
      </trkpt>
      <trkpt lat="46.12043" lon="6.28205">
        <ele>503.435</ele>
        <time>2020-07-03T17:26:40Z</time>
      </trkpt>
      <trkpt lat="46.12033" lon="6.28201">
        <ele>503.872</ele>
        <time>2020-07-03T17:26:42Z</time>
      </trkpt>
      <trkpt lat="46.12026" lon="6.28198">
        <ele>504.138</ele>
        <time>2020-07-03T17:26:43Z</time>
      </trkpt>
      <trkpt lat="46.12022" lon="6.28196">
        <ele>504.67</ele>
        <time>2020-07-03T17:26:44Z</time>
      </trkpt>
      <trkpt lat="46.12014" lon="6.28197">
        <ele>505.217</ele>
        <time>2020-07-03T17:26:45Z</time>
      </trkpt>
      <trkpt lat="46.12009" lon="6.28196">
        <ele>505.708</ele>
        <time>2020-07-03T17:26:46Z</time>
      </trkpt>
      <trkpt lat="46.12003" lon="6.28197">
        <ele>506.278</ele>
        <time>2020-07-03T17:26:47Z</time>
      </trkpt>
      <trkpt lat="46.11997" lon="6.28199">
        <ele>506.765</ele>
        <time>2020-07-03T17:26:48Z</time>
      </trkpt>
      <trkpt lat="46.11988" lon="6.282">
        <ele>507.253</ele>
        <time>2020-07-03T17:26:49Z</time>
      </trkpt>
      <trkpt lat="46.11982" lon="6.28197">
        <ele>507.452</ele>
        <time>2020-07-03T17:26:50Z</time>
      </trkpt>
      <trkpt lat="46.11977" lon="6.28195">
        <ele>507.763</ele>
        <time>2020-07-03T17:26:51Z</time>
      </trkpt>
      <trkpt lat="46.11968" lon="6.28199">
        <ele>508.573</ele>
        <time>2020-07-03T17:26:53Z</time>
      </trkpt>
      <trkpt lat="46.11962" lon="6.28205">
        <ele>508.819</ele>
        <time>2020-07-03T17:26:54Z</time>
      </trkpt>
      <trkpt lat="46.11956" lon="6.28208">
        <ele>509.146</ele>
        <time>2020-07-03T17:26:55Z</time>
      </trkpt>
      <trkpt lat="46.11949" lon="6.28204">
        <ele>509.182</ele>
        <time>2020-07-03T17:26:57Z</time>
      </trkpt>
      <trkpt lat="46.11949" lon="6.28189">
        <ele>508.943</ele>
        <time>2020-07-03T17:26:59Z</time>
      </trkpt>
      <trkpt lat="46.11952" lon="6.28178">
        <ele>508.717</ele>
        <time>2020-07-03T17:27:00Z</time>
      </trkpt>
      <trkpt lat="46.11953" lon="6.28171">
        <ele>508.708</ele>
        <time>2020-07-03T17:27:01Z</time>
      </trkpt>
      <trkpt lat="46.11956" lon="6.28164">
        <ele>508.683</ele>
        <time>2020-07-03T17:27:02Z</time>
      </trkpt>
      <trkpt lat="46.11961" lon="6.28158">
        <ele>508.41</ele>
        <time>2020-07-03T17:27:03Z</time>
      </trkpt>
      <trkpt lat="46.11967" lon="6.28154">
        <ele>508.228</ele>
        <time>2020-07-03T17:27:04Z</time>
      </trkpt>
      <trkpt lat="46.11978" lon="6.28151">
        <ele>507.877</ele>
        <time>2020-07-03T17:27:05Z</time>
      </trkpt>
      <trkpt lat="46.1199" lon="6.28148">
        <ele>507.738</ele>
        <time>2020-07-03T17:27:06Z</time>
      </trkpt>
      <trkpt lat="46.12005" lon="6.28141">
        <ele>507.578</ele>
        <time>2020-07-03T17:27:07Z</time>
      </trkpt>
      <trkpt lat="46.12017" lon="6.28136">
        <ele>507.274</ele>
        <time>2020-07-03T17:27:08Z</time>
      </trkpt>
      <trkpt lat="46.12027" lon="6.28135">
        <ele>506.831</ele>
        <time>2020-07-03T17:27:09Z</time>
      </trkpt>
      <trkpt lat="46.12037" lon="6.28132">
        <ele>506.351</ele>
        <time>2020-07-03T17:27:10Z</time>
      </trkpt>
      <trkpt lat="46.12048" lon="6.28129">
        <ele>505.501</ele>
        <time>2020-07-03T17:27:11Z</time>
      </trkpt>
      <trkpt lat="46.12058" lon="6.28124">
        <ele>504.911</ele>
        <time>2020-07-03T17:27:12Z</time>
      </trkpt>
      <trkpt lat="46.12067" lon="6.28121">
        <ele>504.308</ele>
        <time>2020-07-03T17:27:13Z</time>
      </trkpt>
      <trkpt lat="46.12075" lon="6.28117">
        <ele>503.75</ele>
        <time>2020-07-03T17:27:14Z</time>
      </trkpt>
      <trkpt lat="46.12082" lon="6.28114">
        <ele>503.567</ele>
        <time>2020-07-03T17:27:15Z</time>
      </trkpt>
      <trkpt lat="46.12088" lon="6.2811">
        <ele>503.225</ele>
        <time>2020-07-03T17:27:16Z</time>
      </trkpt>
      <trkpt lat="46.12094" lon="6.28104">
        <ele>502.964</ele>
        <time>2020-07-03T17:27:17Z</time>
      </trkpt>
      <trkpt lat="46.121" lon="6.28097">
        <ele>502.615</ele>
        <time>2020-07-03T17:27:18Z</time>
      </trkpt>
      <trkpt lat="46.12101" lon="6.28084">
        <ele>502.375</ele>
        <time>2020-07-03T17:27:19Z</time>
      </trkpt>
      <trkpt lat="46.12107" lon="6.28068">
        <ele>501.941</ele>
        <time>2020-07-03T17:27:20Z</time>
      </trkpt>
      <trkpt lat="46.12111" lon="6.28053">
        <ele>501.598</ele>
        <time>2020-07-03T17:27:21Z</time>
      </trkpt>
      <trkpt lat="46.12113" lon="6.2804">
        <ele>501.149</ele>
        <time>2020-07-03T17:27:22Z</time>
      </trkpt>
      <trkpt lat="46.12117" lon="6.28028">
        <ele>500.802</ele>
        <time>2020-07-03T17:27:23Z</time>
      </trkpt>
      <trkpt lat="46.12121" lon="6.28019">
        <ele>500.622</ele>
        <time>2020-07-03T17:27:24Z</time>
      </trkpt>
      <trkpt lat="46.12125" lon="6.2801">
        <ele>500.508</ele>
        <time>2020-07-03T17:27:25Z</time>
      </trkpt>
      <trkpt lat="46.12131" lon="6.27998">
        <ele>500.559</ele>
        <time>2020-07-03T17:27:26Z</time>
      </trkpt>
      <trkpt lat="46.12138" lon="6.27987">
        <ele>500.586</ele>
        <time>2020-07-03T17:27:27Z</time>
      </trkpt>
      <trkpt lat="46.12144" lon="6.27979">
        <ele>500.824</ele>
        <time>2020-07-03T17:27:28Z</time>
      </trkpt>
      <trkpt lat="46.12149" lon="6.27971">
        <ele>501.393</ele>
        <time>2020-07-03T17:27:29Z</time>
      </trkpt>
      <trkpt lat="46.12156" lon="6.27964">
        <ele>501.994</ele>
        <time>2020-07-03T17:27:30Z</time>
      </trkpt>
      <trkpt lat="46.12163" lon="6.27959">
        <ele>502.514</ele>
        <time>2020-07-03T17:27:31Z</time>
      </trkpt>
      <trkpt lat="46.12172" lon="6.27957">
        <ele>503.01</ele>
        <time>2020-07-03T17:27:32Z</time>
      </trkpt>
      <trkpt lat="46.12181" lon="6.27954">
        <ele>503.317</ele>
        <time>2020-07-03T17:27:33Z</time>
      </trkpt>
      <trkpt lat="46.1219" lon="6.27953">
        <ele>503.428</ele>
        <time>2020-07-03T17:27:34Z</time>
      </trkpt>
      <trkpt lat="46.12199" lon="6.27953">
        <ele>503.489</ele>
        <time>2020-07-03T17:27:35Z</time>
      </trkpt>
      <trkpt lat="46.12209" lon="6.27951">
        <ele>503.417</ele>
        <time>2020-07-03T17:27:36Z</time>
      </trkpt>
      <trkpt lat="46.12219" lon="6.27945">
        <ele>503.208</ele>
        <time>2020-07-03T17:27:37Z</time>
      </trkpt>
      <trkpt lat="46.12226" lon="6.27938">
        <ele>502.997</ele>
        <time>2020-07-03T17:27:38Z</time>
      </trkpt>
      <trkpt lat="46.12231" lon="6.27935">
        <ele>502.854</ele>
        <time>2020-07-03T17:27:39Z</time>
      </trkpt>
      <trkpt lat="46.12238" lon="6.27929">
        <ele>502.662</ele>
        <time>2020-07-03T17:27:40Z</time>
      </trkpt>
      <trkpt lat="46.12244" lon="6.27922">
        <ele>502.221</ele>
        <time>2020-07-03T17:27:41Z</time>
      </trkpt>
      <trkpt lat="46.1225" lon="6.27915">
        <ele>501.822</ele>
        <time>2020-07-03T17:27:42Z</time>
      </trkpt>
      <trkpt lat="46.12256" lon="6.27907">
        <ele>501.462</ele>
        <time>2020-07-03T17:27:43Z</time>
      </trkpt>
      <trkpt lat="46.12262" lon="6.27899">
        <ele>501.088</ele>
        <time>2020-07-03T17:27:44Z</time>
      </trkpt>
      <trkpt lat="46.12266" lon="6.27889">
        <ele>500.595</ele>
        <time>2020-07-03T17:27:45Z</time>
      </trkpt>
      <trkpt lat="46.12272" lon="6.27877">
        <ele>500.223</ele>
        <time>2020-07-03T17:27:46Z</time>
      </trkpt>
      <trkpt lat="46.12277" lon="6.27866">
        <ele>500.083</ele>
        <time>2020-07-03T17:27:47Z</time>
      </trkpt>
      <trkpt lat="46.12283" lon="6.27855">
        <ele>499.811</ele>
        <time>2020-07-03T17:27:48Z</time>
      </trkpt>
      <trkpt lat="46.12289" lon="6.27842">
        <ele>499.508</ele>
        <time>2020-07-03T17:27:49Z</time>
      </trkpt>
      <trkpt lat="46.12294" lon="6.2783">
        <ele>499.467</ele>
        <time>2020-07-03T17:27:50Z</time>
      </trkpt>
      <trkpt lat="46.12299" lon="6.27818">
        <ele>499.164</ele>
        <time>2020-07-03T17:27:51Z</time>
      </trkpt>
      <trkpt lat="46.12305" lon="6.27807">
        <ele>498.922</ele>
        <time>2020-07-03T17:27:52Z</time>
      </trkpt>
      <trkpt lat="46.1231" lon="6.27797">
        <ele>498.711</ele>
        <time>2020-07-03T17:27:53Z</time>
      </trkpt>
      <trkpt lat="46.12313" lon="6.27786">
        <ele>498.472</ele>
        <time>2020-07-03T17:27:54Z</time>
      </trkpt>
      <trkpt lat="46.12317" lon="6.27781">
        <ele>498.072</ele>
        <time>2020-07-03T17:27:55Z</time>
      </trkpt>
      <trkpt lat="46.12314" lon="6.27761">
        <ele>496.878</ele>
        <time>2020-07-03T17:27:59Z</time>
      </trkpt>
      <trkpt lat="46.12308" lon="6.27757">
        <ele>496.655</ele>
        <time>2020-07-03T17:28:01Z</time>
      </trkpt>
      <trkpt lat="46.12303" lon="6.27752">
        <ele>496.631</ele>
        <time>2020-07-03T17:28:02Z</time>
      </trkpt>
      <trkpt lat="46.12297" lon="6.27753">
        <ele>496.961</ele>
        <time>2020-07-03T17:28:06Z</time>
      </trkpt>
      <trkpt lat="46.12297" lon="6.27761">
        <ele>497.007</ele>
        <time>2020-07-03T17:28:10Z</time>
      </trkpt>
      <trkpt lat="46.12295" lon="6.27767">
        <ele>497.008</ele>
        <time>2020-07-03T17:28:11Z</time>
      </trkpt>
      <trkpt lat="46.12289" lon="6.27773">
        <ele>497.038</ele>
        <time>2020-07-03T17:28:12Z</time>
      </trkpt>
      <trkpt lat="46.1228" lon="6.27775">
        <ele>497.235</ele>
        <time>2020-07-03T17:28:13Z</time>
      </trkpt>
      <trkpt lat="46.12269" lon="6.2778">
        <ele>497.673</ele>
        <time>2020-07-03T17:28:14Z</time>
      </trkpt>
      <trkpt lat="46.12257" lon="6.27782">
        <ele>498.142</ele>
        <time>2020-07-03T17:28:15Z</time>
      </trkpt>
      <trkpt lat="46.12243" lon="6.27781">
        <ele>498.973</ele>
        <time>2020-07-03T17:28:16Z</time>
      </trkpt>
      <trkpt lat="46.12227" lon="6.27779">
        <ele>499.993</ele>
        <time>2020-07-03T17:28:17Z</time>
      </trkpt>
      <trkpt lat="46.12214" lon="6.27778">
        <ele>501.129</ele>
        <time>2020-07-03T17:28:18Z</time>
      </trkpt>
      <trkpt lat="46.12201" lon="6.27778">
        <ele>502.416</ele>
        <time>2020-07-03T17:28:19Z</time>
      </trkpt>
      <trkpt lat="46.1219" lon="6.27779">
        <ele>503.723</ele>
        <time>2020-07-03T17:28:20Z</time>
      </trkpt>
      <trkpt lat="46.1218" lon="6.2778">
        <ele>505.083</ele>
        <time>2020-07-03T17:28:21Z</time>
      </trkpt>
      <trkpt lat="46.12166" lon="6.27785">
        <ele>506.011</ele>
        <time>2020-07-03T17:28:22Z</time>
      </trkpt>
      <trkpt lat="46.12157" lon="6.27786">
        <ele>506.708</ele>
        <time>2020-07-03T17:28:23Z</time>
      </trkpt>
      <trkpt lat="46.12149" lon="6.27787">
        <ele>507.257</ele>
        <time>2020-07-03T17:28:24Z</time>
      </trkpt>
      <trkpt lat="46.12142" lon="6.27787">
        <ele>507.524</ele>
        <time>2020-07-03T17:28:25Z</time>
      </trkpt>
      <trkpt lat="46.12134" lon="6.27785">
        <ele>507.532</ele>
        <time>2020-07-03T17:28:26Z</time>
      </trkpt>
      <trkpt lat="46.1213" lon="6.27784">
        <ele>507.641</ele>
        <time>2020-07-03T17:28:27Z</time>
      </trkpt>
      <trkpt lat="46.12138" lon="6.27787">
        <ele>507.772</ele>
        <time>2020-07-03T17:28:36Z</time>
      </trkpt>
      <trkpt lat="46.12146" lon="6.27787">
        <ele>507.742</ele>
        <time>2020-07-03T17:28:37Z</time>
      </trkpt>
      <trkpt lat="46.12156" lon="6.27786">
        <ele>507.818</ele>
        <time>2020-07-03T17:28:38Z</time>
      </trkpt>
      <trkpt lat="46.12168" lon="6.27784">
        <ele>507.815</ele>
        <time>2020-07-03T17:28:39Z</time>
      </trkpt>
      <trkpt lat="46.12185" lon="6.27781">
        <ele>507.832</ele>
        <time>2020-07-03T17:28:40Z</time>
      </trkpt>
      <trkpt lat="46.12203" lon="6.27779">
        <ele>507.992</ele>
        <time>2020-07-03T17:28:41Z</time>
      </trkpt>
      <trkpt lat="46.12222" lon="6.27778">
        <ele>508.011</ele>
        <time>2020-07-03T17:28:42Z</time>
      </trkpt>
      <trkpt lat="46.12238" lon="6.27779">
        <ele>508.008</ele>
        <time>2020-07-03T17:28:43Z</time>
      </trkpt>
      <trkpt lat="46.12254" lon="6.27783">
        <ele>508.078</ele>
        <time>2020-07-03T17:28:44Z</time>
      </trkpt>
      <trkpt lat="46.1227" lon="6.27781">
        <ele>507.815</ele>
        <time>2020-07-03T17:28:45Z</time>
      </trkpt>
      <trkpt lat="46.12286" lon="6.27774">
        <ele>506.813</ele>
        <time>2020-07-03T17:28:46Z</time>
      </trkpt>
      <trkpt lat="46.123" lon="6.27763">
        <ele>505.972</ele>
        <time>2020-07-03T17:28:47Z</time>
      </trkpt>
      <trkpt lat="46.12315" lon="6.27755">
        <ele>504.663</ele>
        <time>2020-07-03T17:28:48Z</time>
      </trkpt>
      <trkpt lat="46.12332" lon="6.27754">
        <ele>503.093</ele>
        <time>2020-07-03T17:28:49Z</time>
      </trkpt>
      <trkpt lat="46.1235" lon="6.27755">
        <ele>501.689</ele>
        <time>2020-07-03T17:28:50Z</time>
      </trkpt>
      <trkpt lat="46.12367" lon="6.27755">
        <ele>500.696</ele>
        <time>2020-07-03T17:28:51Z</time>
      </trkpt>
      <trkpt lat="46.12385" lon="6.2776">
        <ele>499.664</ele>
        <time>2020-07-03T17:28:52Z</time>
      </trkpt>
      <trkpt lat="46.12402" lon="6.27762">
        <ele>499.106</ele>
        <time>2020-07-03T17:28:53Z</time>
      </trkpt>
      <trkpt lat="46.1242" lon="6.27764">
        <ele>498.416</ele>
        <time>2020-07-03T17:28:54Z</time>
      </trkpt>
      <trkpt lat="46.12436" lon="6.27766">
        <ele>498.008</ele>
        <time>2020-07-03T17:28:55Z</time>
      </trkpt>
      <trkpt lat="46.12453" lon="6.27768">
        <ele>497.921</ele>
        <time>2020-07-03T17:28:56Z</time>
      </trkpt>
      <trkpt lat="46.1247" lon="6.2777">
        <ele>497.578</ele>
        <time>2020-07-03T17:28:57Z</time>
      </trkpt>
      <trkpt lat="46.12486" lon="6.27771">
        <ele>497.156</ele>
        <time>2020-07-03T17:28:58Z</time>
      </trkpt>
      <trkpt lat="46.12501" lon="6.27772">
        <ele>496.995</ele>
        <time>2020-07-03T17:28:59Z</time>
      </trkpt>
      <trkpt lat="46.12516" lon="6.27771">
        <ele>496.756</ele>
        <time>2020-07-03T17:29:00Z</time>
      </trkpt>
      <trkpt lat="46.12529" lon="6.27764">
        <ele>496.036</ele>
        <time>2020-07-03T17:29:01Z</time>
      </trkpt>
      <trkpt lat="46.12544" lon="6.27753">
        <ele>495.622</ele>
        <time>2020-07-03T17:29:02Z</time>
      </trkpt>
      <trkpt lat="46.12557" lon="6.2774">
        <ele>495.399</ele>
        <time>2020-07-03T17:29:03Z</time>
      </trkpt>
      <trkpt lat="46.12566" lon="6.27725">
        <ele>495.191</ele>
        <time>2020-07-03T17:29:04Z</time>
      </trkpt>
      <trkpt lat="46.12575" lon="6.27717">
        <ele>495.081</ele>
        <time>2020-07-03T17:29:05Z</time>
      </trkpt>
      <trkpt lat="46.12582" lon="6.27713">
        <ele>494.919</ele>
        <time>2020-07-03T17:29:06Z</time>
      </trkpt>
      <trkpt lat="46.12586" lon="6.27707">
        <ele>494.408</ele>
        <time>2020-07-03T17:29:08Z</time>
      </trkpt>
      <trkpt lat="46.12588" lon="6.277">
        <ele>492.454</ele>
        <time>2020-07-03T17:29:12Z</time>
      </trkpt>
      <trkpt lat="46.12589" lon="6.27693">
        <ele>492.461</ele>
        <time>2020-07-03T17:29:13Z</time>
      </trkpt>
      <trkpt lat="46.1259" lon="6.27684">
        <ele>492.459</ele>
        <time>2020-07-03T17:29:14Z</time>
      </trkpt>
      <trkpt lat="46.1259" lon="6.27673">
        <ele>492.628</ele>
        <time>2020-07-03T17:29:15Z</time>
      </trkpt>
      <trkpt lat="46.12592" lon="6.27662">
        <ele>493.089</ele>
        <time>2020-07-03T17:29:16Z</time>
      </trkpt>
      <trkpt lat="46.12594" lon="6.27652">
        <ele>493.519</ele>
        <time>2020-07-03T17:29:17Z</time>
      </trkpt>
      <trkpt lat="46.12597" lon="6.27641">
        <ele>494.035</ele>
        <time>2020-07-03T17:29:18Z</time>
      </trkpt>
      <trkpt lat="46.12599" lon="6.27627">
        <ele>494.442</ele>
        <time>2020-07-03T17:29:19Z</time>
      </trkpt>
      <trkpt lat="46.12603" lon="6.2761">
        <ele>495.049</ele>
        <time>2020-07-03T17:29:20Z</time>
      </trkpt>
      <trkpt lat="46.1261" lon="6.27596">
        <ele>495.502</ele>
        <time>2020-07-03T17:29:21Z</time>
      </trkpt>
      <trkpt lat="46.12617" lon="6.27582">
        <ele>495.922</ele>
        <time>2020-07-03T17:29:22Z</time>
      </trkpt>
      <trkpt lat="46.12625" lon="6.27569">
        <ele>496.208</ele>
        <time>2020-07-03T17:29:23Z</time>
      </trkpt>
      <trkpt lat="46.12634" lon="6.27557">
        <ele>496.539</ele>
        <time>2020-07-03T17:29:24Z</time>
      </trkpt>
      <trkpt lat="46.12643" lon="6.27547">
        <ele>496.686</ele>
        <time>2020-07-03T17:29:25Z</time>
      </trkpt>
      <trkpt lat="46.12651" lon="6.27538">
        <ele>496.754</ele>
        <time>2020-07-03T17:29:26Z</time>
      </trkpt>
      <trkpt lat="46.12659" lon="6.27529">
        <ele>496.913</ele>
        <time>2020-07-03T17:29:27Z</time>
      </trkpt>
      <trkpt lat="46.12668" lon="6.27522">
        <ele>497.084</ele>
        <time>2020-07-03T17:29:28Z</time>
      </trkpt>
      <trkpt lat="46.12675" lon="6.27516">
        <ele>497.124</ele>
        <time>2020-07-03T17:29:29Z</time>
      </trkpt>
      <trkpt lat="46.12681" lon="6.27511">
        <ele>497.21</ele>
        <time>2020-07-03T17:29:30Z</time>
      </trkpt>
      <trkpt lat="46.12684" lon="6.27503">
        <ele>497.297</ele>
        <time>2020-07-03T17:29:31Z</time>
      </trkpt>
      <trkpt lat="46.12684" lon="6.27495">
        <ele>497.215</ele>
        <time>2020-07-03T17:29:32Z</time>
      </trkpt>
      <trkpt lat="46.1268" lon="6.27485">
        <ele>497.265</ele>
        <time>2020-07-03T17:29:33Z</time>
      </trkpt>
      <trkpt lat="46.12673" lon="6.27477">
        <ele>497.211</ele>
        <time>2020-07-03T17:29:34Z</time>
      </trkpt>
      <trkpt lat="46.12663" lon="6.27464">
        <ele>497.408</ele>
        <time>2020-07-03T17:29:35Z</time>
      </trkpt>
      <trkpt lat="46.12654" lon="6.27453">
        <ele>497.856</ele>
        <time>2020-07-03T17:29:36Z</time>
      </trkpt>
      <trkpt lat="46.12647" lon="6.27441">
        <ele>498.433</ele>
        <time>2020-07-03T17:29:37Z</time>
      </trkpt>
      <trkpt lat="46.12642" lon="6.27433">
        <ele>499.091</ele>
        <time>2020-07-03T17:29:38Z</time>
      </trkpt>
      <trkpt lat="46.12635" lon="6.27428">
        <ele>499.76</ele>
        <time>2020-07-03T17:29:39Z</time>
      </trkpt>
      <trkpt lat="46.12628" lon="6.27428">
        <ele>500.211</ele>
        <time>2020-07-03T17:29:40Z</time>
      </trkpt>
      <trkpt lat="46.12617" lon="6.27435">
        <ele>500.561</ele>
        <time>2020-07-03T17:29:41Z</time>
      </trkpt>
      <trkpt lat="46.12605" lon="6.27444">
        <ele>500.897</ele>
        <time>2020-07-03T17:29:42Z</time>
      </trkpt>
      <trkpt lat="46.1259" lon="6.27453">
        <ele>501.134</ele>
        <time>2020-07-03T17:29:43Z</time>
      </trkpt>
      <trkpt lat="46.12572" lon="6.27461">
        <ele>501.691</ele>
        <time>2020-07-03T17:29:44Z</time>
      </trkpt>
      <trkpt lat="46.12554" lon="6.27467">
        <ele>502.481</ele>
        <time>2020-07-03T17:29:45Z</time>
      </trkpt>
      <trkpt lat="46.12539" lon="6.27468">
        <ele>503.219</ele>
        <time>2020-07-03T17:29:46Z</time>
      </trkpt>
      <trkpt lat="46.12524" lon="6.27466">
        <ele>503.908</ele>
        <time>2020-07-03T17:29:47Z</time>
      </trkpt>
      <trkpt lat="46.12508" lon="6.27463">
        <ele>504.444</ele>
        <time>2020-07-03T17:29:48Z</time>
      </trkpt>
      <trkpt lat="46.12494" lon="6.27459">
        <ele>504.981</ele>
        <time>2020-07-03T17:29:49Z</time>
      </trkpt>
      <trkpt lat="46.12482" lon="6.27456">
        <ele>505.299</ele>
        <time>2020-07-03T17:29:50Z</time>
      </trkpt>
      <trkpt lat="46.12471" lon="6.27451">
        <ele>505.488</ele>
        <time>2020-07-03T17:29:51Z</time>
      </trkpt>
      <trkpt lat="46.12458" lon="6.27442">
        <ele>505.749</ele>
        <time>2020-07-03T17:29:52Z</time>
      </trkpt>
      <trkpt lat="46.12445" lon="6.2743">
        <ele>506.139</ele>
        <time>2020-07-03T17:29:53Z</time>
      </trkpt>
      <trkpt lat="46.12429" lon="6.27415">
        <ele>506.465</ele>
        <time>2020-07-03T17:29:54Z</time>
      </trkpt>
      <trkpt lat="46.12415" lon="6.274">
        <ele>506.752</ele>
        <time>2020-07-03T17:29:55Z</time>
      </trkpt>
      <trkpt lat="46.12403" lon="6.27388">
        <ele>507.148</ele>
        <time>2020-07-03T17:29:56Z</time>
      </trkpt>
      <trkpt lat="46.12393" lon="6.27379">
        <ele>507.461</ele>
        <time>2020-07-03T17:29:57Z</time>
      </trkpt>
      <trkpt lat="46.12383" lon="6.27372">
        <ele>507.617</ele>
        <time>2020-07-03T17:29:58Z</time>
      </trkpt>
      <trkpt lat="46.12374" lon="6.27369">
        <ele>507.608</ele>
        <time>2020-07-03T17:29:59Z</time>
      </trkpt>
      <trkpt lat="46.12366" lon="6.27372">
        <ele>507.799</ele>
        <time>2020-07-03T17:30:00Z</time>
      </trkpt>
      <trkpt lat="46.12358" lon="6.27379">
        <ele>507.996</ele>
        <time>2020-07-03T17:30:01Z</time>
      </trkpt>
      <trkpt lat="46.12349" lon="6.2739">
        <ele>508.244</ele>
        <time>2020-07-03T17:30:02Z</time>
      </trkpt>
      <trkpt lat="46.12341" lon="6.27397">
        <ele>508.443</ele>
        <time>2020-07-03T17:30:03Z</time>
      </trkpt>
      <trkpt lat="46.12334" lon="6.27402">
        <ele>508.814</ele>
        <time>2020-07-03T17:30:04Z</time>
      </trkpt>
      <trkpt lat="46.12327" lon="6.27403">
        <ele>509.124</ele>
        <time>2020-07-03T17:30:05Z</time>
      </trkpt>
      <trkpt lat="46.12321" lon="6.27402">
        <ele>509.32</ele>
        <time>2020-07-03T17:30:06Z</time>
      </trkpt>
      <trkpt lat="46.12315" lon="6.27393">
        <ele>509.447</ele>
        <time>2020-07-03T17:30:07Z</time>
      </trkpt>
      <trkpt lat="46.12309" lon="6.27379">
        <ele>509.556</ele>
        <time>2020-07-03T17:30:08Z</time>
      </trkpt>
      <trkpt lat="46.12304" lon="6.27362">
        <ele>509.759</ele>
        <time>2020-07-03T17:30:09Z</time>
      </trkpt>
      <trkpt lat="46.12296" lon="6.27343">
        <ele>510.114</ele>
        <time>2020-07-03T17:30:10Z</time>
      </trkpt>
      <trkpt lat="46.12287" lon="6.2732">
        <ele>510.608</ele>
        <time>2020-07-03T17:30:11Z</time>
      </trkpt>
      <trkpt lat="46.12278" lon="6.27297">
        <ele>511.36</ele>
        <time>2020-07-03T17:30:12Z</time>
      </trkpt>
      <trkpt lat="46.12271" lon="6.27278">
        <ele>512.117</ele>
        <time>2020-07-03T17:30:13Z</time>
      </trkpt>
      <trkpt lat="46.12264" lon="6.27263">
        <ele>512.985</ele>
        <time>2020-07-03T17:30:14Z</time>
      </trkpt>
      <trkpt lat="46.12257" lon="6.27246">
        <ele>513.694</ele>
        <time>2020-07-03T17:30:15Z</time>
      </trkpt>
      <trkpt lat="46.1225" lon="6.27227">
        <ele>514.285</ele>
        <time>2020-07-03T17:30:16Z</time>
      </trkpt>
      <trkpt lat="46.12242" lon="6.27209">
        <ele>514.945</ele>
        <time>2020-07-03T17:30:17Z</time>
      </trkpt>
      <trkpt lat="46.12233" lon="6.27186">
        <ele>515.471</ele>
        <time>2020-07-03T17:30:18Z</time>
      </trkpt>
      <trkpt lat="46.12223" lon="6.27161">
        <ele>515.798</ele>
        <time>2020-07-03T17:30:19Z</time>
      </trkpt>
      <trkpt lat="46.12212" lon="6.27135">
        <ele>516.576</ele>
        <time>2020-07-03T17:30:20Z</time>
      </trkpt>
      <trkpt lat="46.12202" lon="6.27108">
        <ele>517.59</ele>
        <time>2020-07-03T17:30:21Z</time>
      </trkpt>
      <trkpt lat="46.12191" lon="6.2708">
        <ele>518.619</ele>
        <time>2020-07-03T17:30:22Z</time>
      </trkpt>
      <trkpt lat="46.12179" lon="6.27052">
        <ele>520.208</ele>
        <time>2020-07-03T17:30:23Z</time>
      </trkpt>
      <trkpt lat="46.12169" lon="6.27027">
        <ele>522.422</ele>
        <time>2020-07-03T17:30:24Z</time>
      </trkpt>
      <trkpt lat="46.1216" lon="6.27007">
        <ele>524.229</ele>
        <time>2020-07-03T17:30:25Z</time>
      </trkpt>
      <trkpt lat="46.12153" lon="6.26989">
        <ele>525.957</ele>
        <time>2020-07-03T17:30:26Z</time>
      </trkpt>
      <trkpt lat="46.12146" lon="6.26973">
        <ele>527.536</ele>
        <time>2020-07-03T17:30:27Z</time>
      </trkpt>
      <trkpt lat="46.12141" lon="6.26961">
        <ele>528.647</ele>
        <time>2020-07-03T17:30:28Z</time>
      </trkpt>
      <trkpt lat="46.12136" lon="6.26951">
        <ele>529.287</ele>
        <time>2020-07-03T17:30:29Z</time>
      </trkpt>
      <trkpt lat="46.12133" lon="6.26943">
        <ele>529.843</ele>
        <time>2020-07-03T17:30:30Z</time>
      </trkpt>
      <trkpt lat="46.12132" lon="6.26933">
        <ele>530.92</ele>
        <time>2020-07-03T17:30:32Z</time>
      </trkpt>
      <trkpt lat="46.12134" lon="6.26925">
        <ele>532.489</ele>
        <time>2020-07-03T17:30:41Z</time>
      </trkpt>
      <trkpt lat="46.12132" lon="6.26915">
        <ele>532.306</ele>
        <time>2020-07-03T17:30:47Z</time>
      </trkpt>
      <trkpt lat="46.12126" lon="6.26911">
        <ele>532.326</ele>
        <time>2020-07-03T17:30:49Z</time>
      </trkpt>
      <trkpt lat="46.12121" lon="6.26912">
        <ele>532.308</ele>
        <time>2020-07-03T17:30:50Z</time>
      </trkpt>
      <trkpt lat="46.12116" lon="6.26912">
        <ele>532.213</ele>
        <time>2020-07-03T17:30:52Z</time>
      </trkpt>
      <trkpt lat="46.12112" lon="6.2691">
        <ele>532.05</ele>
        <time>2020-07-03T17:30:54Z</time>
      </trkpt>
      <trkpt lat="46.12106" lon="6.26905">
        <ele>532.028</ele>
        <time>2020-07-03T17:30:55Z</time>
      </trkpt>
      <trkpt lat="46.12103" lon="6.26895">
        <ele>532.057</ele>
        <time>2020-07-03T17:30:56Z</time>
      </trkpt>
      <trkpt lat="46.12103" lon="6.26885">
        <ele>532.168</ele>
        <time>2020-07-03T17:30:57Z</time>
      </trkpt>
      <trkpt lat="46.12107" lon="6.26876">
        <ele>532.168</ele>
        <time>2020-07-03T17:30:58Z</time>
      </trkpt>
      <trkpt lat="46.12113" lon="6.26869">
        <ele>532.154</ele>
        <time>2020-07-03T17:30:59Z</time>
      </trkpt>
      <trkpt lat="46.12118" lon="6.26861">
        <ele>532.121</ele>
        <time>2020-07-03T17:31:00Z</time>
      </trkpt>
      <trkpt lat="46.12124" lon="6.26854">
        <ele>532.196</ele>
        <time>2020-07-03T17:31:01Z</time>
      </trkpt>
      <trkpt lat="46.1213" lon="6.26845">
        <ele>532.031</ele>
        <time>2020-07-03T17:31:02Z</time>
      </trkpt>
      <trkpt lat="46.12136" lon="6.26837">
        <ele>531.924</ele>
        <time>2020-07-03T17:31:03Z</time>
      </trkpt>
      <trkpt lat="46.12142" lon="6.2683">
        <ele>531.708</ele>
        <time>2020-07-03T17:31:04Z</time>
      </trkpt>
      <trkpt lat="46.12149" lon="6.26821">
        <ele>531.514</ele>
        <time>2020-07-03T17:31:05Z</time>
      </trkpt>
      <trkpt lat="46.12155" lon="6.26814">
        <ele>531.361</ele>
        <time>2020-07-03T17:31:06Z</time>
      </trkpt>
      <trkpt lat="46.12161" lon="6.26807">
        <ele>531.269</ele>
        <time>2020-07-03T17:31:07Z</time>
      </trkpt>
      <trkpt lat="46.12167" lon="6.26802">
        <ele>531.128</ele>
        <time>2020-07-03T17:31:08Z</time>
      </trkpt>
      <trkpt lat="46.12173" lon="6.26798">
        <ele>531.039</ele>
        <time>2020-07-03T17:31:09Z</time>
      </trkpt>
      <trkpt lat="46.12179" lon="6.26794">
        <ele>530.969</ele>
        <time>2020-07-03T17:31:10Z</time>
      </trkpt>
      <trkpt lat="46.12184" lon="6.2679">
        <ele>530.835</ele>
        <time>2020-07-03T17:31:11Z</time>
      </trkpt>
      <trkpt lat="46.12189" lon="6.26786">
        <ele>530.732</ele>
        <time>2020-07-03T17:31:12Z</time>
      </trkpt>
      <trkpt lat="46.12195" lon="6.26783">
        <ele>530.625</ele>
        <time>2020-07-03T17:31:13Z</time>
      </trkpt>
      <trkpt lat="46.122" lon="6.26783">
        <ele>530.526</ele>
        <time>2020-07-03T17:31:14Z</time>
      </trkpt>
      <trkpt lat="46.1219" lon="6.26782">
        <ele>529.808</ele>
        <time>2020-07-03T17:31:22Z</time>
      </trkpt>
      <trkpt lat="46.12182" lon="6.26789">
        <ele>529.808</ele>
        <time>2020-07-03T17:31:23Z</time>
      </trkpt>
      <trkpt lat="46.12171" lon="6.26796">
        <ele>529.977</ele>
        <time>2020-07-03T17:31:24Z</time>
      </trkpt>
      <trkpt lat="46.12163" lon="6.26803">
        <ele>530.144</ele>
        <time>2020-07-03T17:31:25Z</time>
      </trkpt>
      <trkpt lat="46.12156" lon="6.26805">
        <ele>530.512</ele>
        <time>2020-07-03T17:31:26Z</time>
      </trkpt>
      <trkpt lat="46.12149" lon="6.26798">
        <ele>530.871</ele>
        <time>2020-07-03T17:31:28Z</time>
      </trkpt>
      <trkpt lat="46.12147" lon="6.26788">
        <ele>530.872</ele>
        <time>2020-07-03T17:31:29Z</time>
      </trkpt>
      <trkpt lat="46.12142" lon="6.26775">
        <ele>530.772</ele>
        <time>2020-07-03T17:31:30Z</time>
      </trkpt>
      <trkpt lat="46.12136" lon="6.26762">
        <ele>530.318</ele>
        <time>2020-07-03T17:31:31Z</time>
      </trkpt>
      <trkpt lat="46.1213" lon="6.26749">
        <ele>530.115</ele>
        <time>2020-07-03T17:31:32Z</time>
      </trkpt>
      <trkpt lat="46.12124" lon="6.26735">
        <ele>529.831</ele>
        <time>2020-07-03T17:31:33Z</time>
      </trkpt>
      <trkpt lat="46.12119" lon="6.26723">
        <ele>529.361</ele>
        <time>2020-07-03T17:31:34Z</time>
      </trkpt>
      <trkpt lat="46.12114" lon="6.26711">
        <ele>528.807</ele>
        <time>2020-07-03T17:31:35Z</time>
      </trkpt>
      <trkpt lat="46.12109" lon="6.26697">
        <ele>528.208</ele>
        <time>2020-07-03T17:31:36Z</time>
      </trkpt>
      <trkpt lat="46.12105" lon="6.26684">
        <ele>527.638</ele>
        <time>2020-07-03T17:31:37Z</time>
      </trkpt>
      <trkpt lat="46.12101" lon="6.26674">
        <ele>527.095</ele>
        <time>2020-07-03T17:31:38Z</time>
      </trkpt>
      <trkpt lat="46.12099" lon="6.26666">
        <ele>526.473</ele>
        <time>2020-07-03T17:31:39Z</time>
      </trkpt>
      <trkpt lat="46.12099" lon="6.26657">
        <ele>525.772</ele>
        <time>2020-07-03T17:31:40Z</time>
      </trkpt>
      <trkpt lat="46.12102" lon="6.26647">
        <ele>525.133</ele>
        <time>2020-07-03T17:31:41Z</time>
      </trkpt>
      <trkpt lat="46.1211" lon="6.26635">
        <ele>524.533</ele>
        <time>2020-07-03T17:31:42Z</time>
      </trkpt>
      <trkpt lat="46.12118" lon="6.26624">
        <ele>524.079</ele>
        <time>2020-07-03T17:31:43Z</time>
      </trkpt>
      <trkpt lat="46.12124" lon="6.26614">
        <ele>523.646</ele>
        <time>2020-07-03T17:31:44Z</time>
      </trkpt>
      <trkpt lat="46.1213" lon="6.26607">
        <ele>523.468</ele>
        <time>2020-07-03T17:31:45Z</time>
      </trkpt>
      <trkpt lat="46.12133" lon="6.26597">
        <ele>523.242</ele>
        <time>2020-07-03T17:31:46Z</time>
      </trkpt>
      <trkpt lat="46.12135" lon="6.26584">
        <ele>523.026</ele>
        <time>2020-07-03T17:31:47Z</time>
      </trkpt>
      <trkpt lat="46.12134" lon="6.26565">
        <ele>522.808</ele>
        <time>2020-07-03T17:31:48Z</time>
      </trkpt>
      <trkpt lat="46.12131" lon="6.26543">
        <ele>522.851</ele>
        <time>2020-07-03T17:31:49Z</time>
      </trkpt>
      <trkpt lat="46.12126" lon="6.26519">
        <ele>522.888</ele>
        <time>2020-07-03T17:31:50Z</time>
      </trkpt>
      <trkpt lat="46.12119" lon="6.2649">
        <ele>523.346</ele>
        <time>2020-07-03T17:31:51Z</time>
      </trkpt>
      <trkpt lat="46.12113" lon="6.2647">
        <ele>524.065</ele>
        <time>2020-07-03T17:31:52Z</time>
      </trkpt>
      <trkpt lat="46.12107" lon="6.26446">
        <ele>525.016</ele>
        <time>2020-07-03T17:31:53Z</time>
      </trkpt>
      <trkpt lat="46.12103" lon="6.26424">
        <ele>525.996</ele>
        <time>2020-07-03T17:31:54Z</time>
      </trkpt>
      <trkpt lat="46.12098" lon="6.26407">
        <ele>527.062</ele>
        <time>2020-07-03T17:31:55Z</time>
      </trkpt>
      <trkpt lat="46.12094" lon="6.26389">
        <ele>527.999</ele>
        <time>2020-07-03T17:31:56Z</time>
      </trkpt>
      <trkpt lat="46.12091" lon="6.26376">
        <ele>528.932</ele>
        <time>2020-07-03T17:31:57Z</time>
      </trkpt>
      <trkpt lat="46.12088" lon="6.26365">
        <ele>529.892</ele>
        <time>2020-07-03T17:31:58Z</time>
      </trkpt>
      <trkpt lat="46.12085" lon="6.26357">
        <ele>530.711</ele>
        <time>2020-07-03T17:31:59Z</time>
      </trkpt>
      <trkpt lat="46.12081" lon="6.26347">
        <ele>531.508</ele>
        <time>2020-07-03T17:32:00Z</time>
      </trkpt>
      <trkpt lat="46.12079" lon="6.26339">
        <ele>532.218</ele>
        <time>2020-07-03T17:32:01Z</time>
      </trkpt>
      <trkpt lat="46.12081" lon="6.2633">
        <ele>533.435</ele>
        <time>2020-07-03T17:32:03Z</time>
      </trkpt>
      <trkpt lat="46.12087" lon="6.26322">
        <ele>534.423</ele>
        <time>2020-07-03T17:32:05Z</time>
      </trkpt>
      <trkpt lat="46.12093" lon="6.26318">
        <ele>534.822</ele>
        <time>2020-07-03T17:32:06Z</time>
      </trkpt>
      <trkpt lat="46.12102" lon="6.26312">
        <ele>535.283</ele>
        <time>2020-07-03T17:32:07Z</time>
      </trkpt>
      <trkpt lat="46.1211" lon="6.26307">
        <ele>535.693</ele>
        <time>2020-07-03T17:32:08Z</time>
      </trkpt>
      <trkpt lat="46.12119" lon="6.26301">
        <ele>536.149</ele>
        <time>2020-07-03T17:32:09Z</time>
      </trkpt>
      <trkpt lat="46.12126" lon="6.26296">
        <ele>536.636</ele>
        <time>2020-07-03T17:32:10Z</time>
      </trkpt>
      <trkpt lat="46.12133" lon="6.26289">
        <ele>537.029</ele>
        <time>2020-07-03T17:32:11Z</time>
      </trkpt>
      <trkpt lat="46.12138" lon="6.26286">
        <ele>537.3</ele>
        <time>2020-07-03T17:32:12Z</time>
      </trkpt>
      <trkpt lat="46.12144" lon="6.26286">
        <ele>537.52</ele>
        <time>2020-07-03T17:32:13Z</time>
      </trkpt>
      <trkpt lat="46.12148" lon="6.26291">
        <ele>537.508</ele>
        <time>2020-07-03T17:32:14Z</time>
      </trkpt>
      <trkpt lat="46.12139" lon="6.2629">
        <ele>537.457</ele>
        <time>2020-07-03T17:32:19Z</time>
      </trkpt>
      <trkpt lat="46.12132" lon="6.26294">
        <ele>537.444</ele>
        <time>2020-07-03T17:32:20Z</time>
      </trkpt>
      <trkpt lat="46.12124" lon="6.263">
        <ele>537.492</ele>
        <time>2020-07-03T17:32:21Z</time>
      </trkpt>
      <trkpt lat="46.12115" lon="6.26306">
        <ele>537.441</ele>
        <time>2020-07-03T17:32:22Z</time>
      </trkpt>
      <trkpt lat="46.12108" lon="6.26311">
        <ele>537.442</ele>
        <time>2020-07-03T17:32:23Z</time>
      </trkpt>
      <trkpt lat="46.12104" lon="6.26314">
        <ele>537.422</ele>
        <time>2020-07-03T17:32:24Z</time>
      </trkpt>
      <trkpt lat="46.12098" lon="6.26311">
        <ele>537.088</ele>
        <time>2020-07-03T17:32:26Z</time>
      </trkpt>
      <trkpt lat="46.12098" lon="6.26297">
        <ele>536.395</ele>
        <time>2020-07-03T17:32:28Z</time>
      </trkpt>
      <trkpt lat="46.12099" lon="6.26287">
        <ele>536.183</ele>
        <time>2020-07-03T17:32:29Z</time>
      </trkpt>
      <trkpt lat="46.12099" lon="6.26277">
        <ele>536.125</ele>
        <time>2020-07-03T17:32:30Z</time>
      </trkpt>
      <trkpt lat="46.12099" lon="6.26267">
        <ele>536.117</ele>
        <time>2020-07-03T17:32:31Z</time>
      </trkpt>
      <trkpt lat="46.12098" lon="6.26258">
        <ele>536.208</ele>
        <time>2020-07-03T17:32:32Z</time>
      </trkpt>
      <trkpt lat="46.12098" lon="6.26249">
        <ele>536.393</ele>
        <time>2020-07-03T17:32:33Z</time>
      </trkpt>
      <trkpt lat="46.12098" lon="6.26239">
        <ele>536.38</ele>
        <time>2020-07-03T17:32:34Z</time>
      </trkpt>
      <trkpt lat="46.12098" lon="6.26229">
        <ele>536.468</ele>
        <time>2020-07-03T17:32:35Z</time>
      </trkpt>
      <trkpt lat="46.12098" lon="6.26218">
        <ele>536.427</ele>
        <time>2020-07-03T17:32:36Z</time>
      </trkpt>
      <trkpt lat="46.12099" lon="6.26202">
        <ele>536.478</ele>
        <time>2020-07-03T17:32:37Z</time>
      </trkpt>
      <trkpt lat="46.12099" lon="6.26185">
        <ele>536.638</ele>
        <time>2020-07-03T17:32:38Z</time>
      </trkpt>
      <trkpt lat="46.12099" lon="6.26168">
        <ele>536.944</ele>
        <time>2020-07-03T17:32:39Z</time>
      </trkpt>
      <trkpt lat="46.12099" lon="6.26154">
        <ele>537.091</ele>
        <time>2020-07-03T17:32:40Z</time>
      </trkpt>
      <trkpt lat="46.12101" lon="6.26142">
        <ele>537.146</ele>
        <time>2020-07-03T17:32:41Z</time>
      </trkpt>
      <trkpt lat="46.12103" lon="6.26128">
        <ele>537.188</ele>
        <time>2020-07-03T17:32:42Z</time>
      </trkpt>
      <trkpt lat="46.12108" lon="6.26115">
        <ele>537.116</ele>
        <time>2020-07-03T17:32:43Z</time>
      </trkpt>
      <trkpt lat="46.12114" lon="6.26102">
        <ele>537.108</ele>
        <time>2020-07-03T17:32:44Z</time>
      </trkpt>
      <trkpt lat="46.12122" lon="6.26088">
        <ele>537.399</ele>
        <time>2020-07-03T17:32:45Z</time>
      </trkpt>
      <trkpt lat="46.12132" lon="6.26073">
        <ele>537.866</ele>
        <time>2020-07-03T17:32:46Z</time>
      </trkpt>
      <trkpt lat="46.12142" lon="6.26058">
        <ele>538.524</ele>
        <time>2020-07-03T17:32:47Z</time>
      </trkpt>
      <trkpt lat="46.12153" lon="6.26042">
        <ele>538.913</ele>
        <time>2020-07-03T17:32:48Z</time>
      </trkpt>
      <trkpt lat="46.12163" lon="6.26024">
        <ele>539.424</ele>
        <time>2020-07-03T17:32:49Z</time>
      </trkpt>
      <trkpt lat="46.12169" lon="6.26008">
        <ele>539.714</ele>
        <time>2020-07-03T17:32:50Z</time>
      </trkpt>
      <trkpt lat="46.12175" lon="6.25991">
        <ele>539.73</ele>
        <time>2020-07-03T17:32:51Z</time>
      </trkpt>
      <trkpt lat="46.1218" lon="6.25978">
        <ele>539.737</ele>
        <time>2020-07-03T17:32:52Z</time>
      </trkpt>
      <trkpt lat="46.12183" lon="6.25965">
        <ele>539.736</ele>
        <time>2020-07-03T17:32:53Z</time>
      </trkpt>
      <trkpt lat="46.12184" lon="6.25951">
        <ele>539.517</ele>
        <time>2020-07-03T17:32:54Z</time>
      </trkpt>
      <trkpt lat="46.12181" lon="6.25939">
        <ele>539.318</ele>
        <time>2020-07-03T17:32:55Z</time>
      </trkpt>
      <trkpt lat="46.12177" lon="6.25927">
        <ele>539.108</ele>
        <time>2020-07-03T17:32:56Z</time>
      </trkpt>
      <trkpt lat="46.1217" lon="6.25912">
        <ele>539.188</ele>
        <time>2020-07-03T17:32:57Z</time>
      </trkpt>
      <trkpt lat="46.1216" lon="6.25896">
        <ele>539.175</ele>
        <time>2020-07-03T17:32:58Z</time>
      </trkpt>
      <trkpt lat="46.12152" lon="6.25887">
        <ele>539.463</ele>
        <time>2020-07-03T17:32:59Z</time>
      </trkpt>
      <trkpt lat="46.12145" lon="6.25879">
        <ele>539.772</ele>
        <time>2020-07-03T17:33:00Z</time>
      </trkpt>
      <trkpt lat="46.12135" lon="6.25877">
        <ele>540.033</ele>
        <time>2020-07-03T17:33:01Z</time>
      </trkpt>
      <trkpt lat="46.12124" lon="6.25877">
        <ele>540.523</ele>
        <time>2020-07-03T17:33:02Z</time>
      </trkpt>
      <trkpt lat="46.12115" lon="6.25876">
        <ele>540.919</ele>
        <time>2020-07-03T17:33:03Z</time>
      </trkpt>
      <trkpt lat="46.12106" lon="6.25871">
        <ele>541.286</ele>
        <time>2020-07-03T17:33:04Z</time>
      </trkpt>
      <trkpt lat="46.12099" lon="6.2586">
        <ele>541.829</ele>
        <time>2020-07-03T17:33:05Z</time>
      </trkpt>
      <trkpt lat="46.12093" lon="6.25849">
        <ele>542.2</ele>
        <time>2020-07-03T17:33:06Z</time>
      </trkpt>
      <trkpt lat="46.12091" lon="6.25839">
        <ele>542.52</ele>
        <time>2020-07-03T17:33:07Z</time>
      </trkpt>
      <trkpt lat="46.12088" lon="6.25824">
        <ele>543.008</ele>
        <time>2020-07-03T17:33:08Z</time>
      </trkpt>
      <trkpt lat="46.12086" lon="6.25807">
        <ele>543.387</ele>
        <time>2020-07-03T17:33:09Z</time>
      </trkpt>
      <trkpt lat="46.12084" lon="6.25787">
        <ele>543.584</ele>
        <time>2020-07-03T17:33:10Z</time>
      </trkpt>
      <trkpt lat="46.12079" lon="6.25766">
        <ele>543.942</ele>
        <time>2020-07-03T17:33:11Z</time>
      </trkpt>
      <trkpt lat="46.12072" lon="6.25743">
        <ele>544.781</ele>
        <time>2020-07-03T17:33:12Z</time>
      </trkpt>
      <trkpt lat="46.12064" lon="6.25716">
        <ele>545.622</ele>
        <time>2020-07-03T17:33:13Z</time>
      </trkpt>
      <trkpt lat="46.12056" lon="6.25686">
        <ele>546.442</ele>
        <time>2020-07-03T17:33:14Z</time>
      </trkpt>
      <trkpt lat="46.12047" lon="6.25658">
        <ele>547.848</ele>
        <time>2020-07-03T17:33:15Z</time>
      </trkpt>
      <trkpt lat="46.12039" lon="6.25631">
        <ele>548.975</ele>
        <time>2020-07-03T17:33:16Z</time>
      </trkpt>
      <trkpt lat="46.12032" lon="6.2561">
        <ele>549.792</ele>
        <time>2020-07-03T17:33:17Z</time>
      </trkpt>
      <trkpt lat="46.12027" lon="6.25592">
        <ele>550.273</ele>
        <time>2020-07-03T17:33:18Z</time>
      </trkpt>
      <trkpt lat="46.12021" lon="6.25575">
        <ele>550.72</ele>
        <time>2020-07-03T17:33:19Z</time>
      </trkpt>
      <trkpt lat="46.12016" lon="6.2556">
        <ele>551.008</ele>
        <time>2020-07-03T17:33:20Z</time>
      </trkpt>
      <trkpt lat="46.12012" lon="6.25549">
        <ele>551.554</ele>
        <time>2020-07-03T17:33:21Z</time>
      </trkpt>
      <trkpt lat="46.1201" lon="6.25537">
        <ele>551.871</ele>
        <time>2020-07-03T17:33:22Z</time>
      </trkpt>
      <trkpt lat="46.12007" lon="6.25525">
        <ele>552.599</ele>
        <time>2020-07-03T17:33:23Z</time>
      </trkpt>
      <trkpt lat="46.12004" lon="6.25516">
        <ele>553.278</ele>
        <time>2020-07-03T17:33:24Z</time>
      </trkpt>
      <trkpt lat="46.12001" lon="6.2551">
        <ele>553.799</ele>
        <time>2020-07-03T17:33:25Z</time>
      </trkpt>
      <trkpt lat="46.11997" lon="6.25504">
        <ele>554.639</ele>
        <time>2020-07-03T17:33:27Z</time>
      </trkpt>
      <trkpt lat="46.11995" lon="6.25496">
        <ele>554.985</ele>
        <time>2020-07-03T17:33:28Z</time>
      </trkpt>
      <trkpt lat="46.11993" lon="6.25489">
        <ele>555.382</ele>
        <time>2020-07-03T17:33:29Z</time>
      </trkpt>
      <trkpt lat="46.1199" lon="6.25479">
        <ele>555.982</ele>
        <time>2020-07-03T17:33:30Z</time>
      </trkpt>
      <trkpt lat="46.11984" lon="6.25466">
        <ele>556.643</ele>
        <time>2020-07-03T17:33:31Z</time>
      </trkpt>
      <trkpt lat="46.11977" lon="6.25449">
        <ele>557.717</ele>
        <time>2020-07-03T17:33:32Z</time>
      </trkpt>
      <trkpt lat="46.11972" lon="6.25428">
        <ele>559.008</ele>
        <time>2020-07-03T17:33:33Z</time>
      </trkpt>
      <trkpt lat="46.11969" lon="6.25415">
        <ele>560.573</ele>
        <time>2020-07-03T17:33:34Z</time>
      </trkpt>
      <trkpt lat="46.11967" lon="6.25409">
        <ele>562.21</ele>
        <time>2020-07-03T17:33:35Z</time>
      </trkpt>
      <trkpt lat="46.11964" lon="6.25401">
        <ele>565.258</ele>
        <time>2020-07-03T17:33:37Z</time>
      </trkpt>
      <trkpt lat="46.1196" lon="6.25397">
        <ele>567.397</ele>
        <time>2020-07-03T17:33:39Z</time>
      </trkpt>
      <trkpt lat="46.11952" lon="6.25396">
        <ele>568.748</ele>
        <time>2020-07-03T17:33:47Z</time>
      </trkpt>
      <trkpt lat="46.11957" lon="6.25398">
        <ele>569.128</ele>
        <time>2020-07-03T17:33:57Z</time>
      </trkpt>
      <trkpt lat="46.1196" lon="6.25405">
        <ele>568.074</ele>
        <time>2020-07-03T17:34:00Z</time>
      </trkpt>
      <trkpt lat="46.1196" lon="6.25398">
        <ele>567.111</ele>
        <time>2020-07-03T17:34:18Z</time>
      </trkpt>
      <trkpt lat="46.11955" lon="6.25393">
        <ele>567.554</ele>
        <time>2020-07-03T17:34:19Z</time>
      </trkpt>
      <trkpt lat="46.11948" lon="6.25387">
        <ele>569.056</ele>
        <time>2020-07-03T17:34:21Z</time>
      </trkpt>
      <trkpt lat="46.11944" lon="6.2538">
        <ele>571.311</ele>
        <time>2020-07-03T17:34:23Z</time>
      </trkpt>
      <trkpt lat="46.11942" lon="6.25369">
        <ele>574.708</ele>
        <time>2020-07-03T17:34:27Z</time>
      </trkpt>
      <trkpt lat="46.11941" lon="6.25353">
        <ele>574.77</ele>
        <time>2020-07-03T17:34:29Z</time>
      </trkpt>
      <trkpt lat="46.11942" lon="6.25346">
        <ele>574.497</ele>
        <time>2020-07-03T17:34:30Z</time>
      </trkpt>
      <trkpt lat="46.11943" lon="6.25338">
        <ele>574.185</ele>
        <time>2020-07-03T17:34:31Z</time>
      </trkpt>
      <trkpt lat="46.11944" lon="6.25324">
        <ele>574.154</ele>
        <time>2020-07-03T17:34:32Z</time>
      </trkpt>
      <trkpt lat="46.11947" lon="6.25314">
        <ele>574.445</ele>
        <time>2020-07-03T17:34:33Z</time>
      </trkpt>
      <trkpt lat="46.11949" lon="6.25305">
        <ele>575.055</ele>
        <time>2020-07-03T17:34:34Z</time>
      </trkpt>
      <trkpt lat="46.11952" lon="6.25294">
        <ele>576.791</ele>
        <time>2020-07-03T17:34:36Z</time>
      </trkpt>
      <trkpt lat="46.1195" lon="6.25285">
        <ele>578.758</ele>
        <time>2020-07-03T17:34:41Z</time>
      </trkpt>
      <trkpt lat="46.11956" lon="6.2528">
        <ele>578.724</ele>
        <time>2020-07-03T17:34:43Z</time>
      </trkpt>
      <trkpt lat="46.11964" lon="6.25276">
        <ele>578.404</ele>
        <time>2020-07-03T17:34:45Z</time>
      </trkpt>
      <trkpt lat="46.11967" lon="6.25272">
        <ele>578.014</ele>
        <time>2020-07-03T17:34:46Z</time>
      </trkpt>
      <trkpt lat="46.1197" lon="6.25265">
        <ele>577.508</ele>
        <time>2020-07-03T17:34:47Z</time>
      </trkpt>
      <trkpt lat="46.11971" lon="6.25258">
        <ele>576.927</ele>
        <time>2020-07-03T17:34:48Z</time>
      </trkpt>
      <trkpt lat="46.11973" lon="6.25251">
        <ele>576.224</ele>
        <time>2020-07-03T17:34:49Z</time>
      </trkpt>
      <trkpt lat="46.11975" lon="6.25242">
        <ele>575.562</ele>
        <time>2020-07-03T17:34:50Z</time>
      </trkpt>
      <trkpt lat="46.11976" lon="6.25235">
        <ele>574.981</ele>
        <time>2020-07-03T17:34:51Z</time>
      </trkpt>
      <trkpt lat="46.11979" lon="6.25229">
        <ele>574.472</ele>
        <time>2020-07-03T17:34:52Z</time>
      </trkpt>
      <trkpt lat="46.1198" lon="6.25223">
        <ele>574.052</ele>
        <time>2020-07-03T17:34:53Z</time>
      </trkpt>
      <trkpt lat="46.11981" lon="6.2521">
        <ele>573.588</ele>
        <time>2020-07-03T17:34:55Z</time>
      </trkpt>
      <trkpt lat="46.1198" lon="6.252">
        <ele>573.325</ele>
        <time>2020-07-03T17:34:56Z</time>
      </trkpt>
      <trkpt lat="46.11979" lon="6.25188">
        <ele>573.218</ele>
        <time>2020-07-03T17:34:57Z</time>
      </trkpt>
      <trkpt lat="46.11976" lon="6.25176">
        <ele>573.198</ele>
        <time>2020-07-03T17:34:58Z</time>
      </trkpt>
      <trkpt lat="46.11972" lon="6.25167">
        <ele>572.617</ele>
        <time>2020-07-03T17:34:59Z</time>
      </trkpt>
      <trkpt lat="46.11968" lon="6.25161">
        <ele>571.108</ele>
        <time>2020-07-03T17:35:01Z</time>
      </trkpt>
      <trkpt lat="46.11969" lon="6.25153">
        <ele>569.576</ele>
        <time>2020-07-03T17:35:03Z</time>
      </trkpt>
      <trkpt lat="46.11969" lon="6.25146">
        <ele>568.943</ele>
        <time>2020-07-03T17:35:04Z</time>
      </trkpt>
      <trkpt lat="46.11966" lon="6.25134">
        <ele>567.931</ele>
        <time>2020-07-03T17:35:06Z</time>
      </trkpt>
      <trkpt lat="46.11965" lon="6.25127">
        <ele>567.49</ele>
        <time>2020-07-03T17:35:07Z</time>
      </trkpt>
      <trkpt lat="46.11962" lon="6.2512">
        <ele>566.871</ele>
        <time>2020-07-03T17:35:08Z</time>
      </trkpt>
      <trkpt lat="46.11959" lon="6.25114">
        <ele>566.151</ele>
        <time>2020-07-03T17:35:09Z</time>
      </trkpt>
      <trkpt lat="46.11954" lon="6.25105">
        <ele>564.847</ele>
        <time>2020-07-03T17:35:11Z</time>
      </trkpt>
      <trkpt lat="46.11949" lon="6.251">
        <ele>564.154</ele>
        <time>2020-07-03T17:35:12Z</time>
      </trkpt>
      <trkpt lat="46.11945" lon="6.25092">
        <ele>563.277</ele>
        <time>2020-07-03T17:35:13Z</time>
      </trkpt>
      <trkpt lat="46.11942" lon="6.25081">
        <ele>561.361</ele>
        <time>2020-07-03T17:35:15Z</time>
      </trkpt>
      <trkpt lat="46.1194" lon="6.25075">
        <ele>558.727</ele>
        <time>2020-07-03T17:35:18Z</time>
      </trkpt>
      <trkpt lat="46.11932" lon="6.2506">
        <ele>557.608</ele>
        <time>2020-07-03T17:35:20Z</time>
      </trkpt>
      <trkpt lat="46.11929" lon="6.25055">
        <ele>557.092</ele>
        <time>2020-07-03T17:35:21Z</time>
      </trkpt>
      <trkpt lat="46.11927" lon="6.25048">
        <ele>556.489</ele>
        <time>2020-07-03T17:35:22Z</time>
      </trkpt>
      <trkpt lat="46.11925" lon="6.25042">
        <ele>555.687</ele>
        <time>2020-07-03T17:35:23Z</time>
      </trkpt>
      <trkpt lat="46.11925" lon="6.25034">
        <ele>554.196</ele>
        <time>2020-07-03T17:35:25Z</time>
      </trkpt>
      <trkpt lat="46.11918" lon="6.25019">
        <ele>552.637</ele>
        <time>2020-07-03T17:35:33Z</time>
      </trkpt>
      <trkpt lat="46.11914" lon="6.25008">
        <ele>552.757</ele>
        <time>2020-07-03T17:35:48Z</time>
      </trkpt>
      <trkpt lat="46.11917" lon="6.25002">
        <ele>552.573</ele>
        <time>2020-07-03T17:35:52Z</time>
      </trkpt>
      <trkpt lat="46.11919" lon="6.24994">
        <ele>552.13</ele>
        <time>2020-07-03T17:35:56Z</time>
      </trkpt>
      <trkpt lat="46.11924" lon="6.24995">
        <ele>551.689</ele>
        <time>2020-07-03T17:35:58Z</time>
      </trkpt>
      <trkpt lat="46.11931" lon="6.24997">
        <ele>550.706</ele>
        <time>2020-07-03T17:36:00Z</time>
      </trkpt>
      <trkpt lat="46.11935" lon="6.25">
        <ele>549.626</ele>
        <time>2020-07-03T17:36:02Z</time>
      </trkpt>
      <trkpt lat="46.11939" lon="6.25009">
        <ele>548.508</ele>
        <time>2020-07-03T17:36:04Z</time>
      </trkpt>
      <trkpt lat="46.11943" lon="6.25017">
        <ele>547.513</ele>
        <time>2020-07-03T17:36:06Z</time>
      </trkpt>
      <trkpt lat="46.11947" lon="6.25024">
        <ele>546.68</ele>
        <time>2020-07-03T17:36:11Z</time>
      </trkpt>
      <trkpt lat="46.11949" lon="6.2503">
        <ele>546.348</ele>
        <time>2020-07-03T17:36:14Z</time>
      </trkpt>
      <trkpt lat="46.11955" lon="6.25044">
        <ele>545.967</ele>
        <time>2020-07-03T17:36:23Z</time>
      </trkpt>
      <trkpt lat="46.11961" lon="6.25047">
        <ele>545.768</ele>
        <time>2020-07-03T17:36:27Z</time>
      </trkpt>
      <trkpt lat="46.11968" lon="6.25053">
        <ele>545.328</ele>
        <time>2020-07-03T17:36:31Z</time>
      </trkpt>
      <trkpt lat="46.11965" lon="6.25066">
        <ele>544.724</ele>
        <time>2020-07-03T17:36:39Z</time>
      </trkpt>
      <trkpt lat="46.1197" lon="6.25061">
        <ele>544.861</ele>
        <time>2020-07-03T17:37:16Z</time>
      </trkpt>
      <trkpt lat="46.11968" lon="6.25054">
        <ele>545.389</ele>
        <time>2020-07-03T17:37:19Z</time>
      </trkpt>
      <trkpt lat="46.11965" lon="6.25046">
        <ele>545.606</ele>
        <time>2020-07-03T17:37:22Z</time>
      </trkpt>
      <trkpt lat="46.1196" lon="6.25044">
        <ele>545.926</ele>
        <time>2020-07-03T17:37:25Z</time>
      </trkpt>
      <trkpt lat="46.11955" lon="6.25043">
        <ele>546.608</ele>
        <time>2020-07-03T17:37:29Z</time>
      </trkpt>
      <trkpt lat="46.11948" lon="6.25038">
        <ele>546.953</ele>
        <time>2020-07-03T17:37:33Z</time>
      </trkpt>
      <trkpt lat="46.11944" lon="6.25033">
        <ele>547.03</ele>
        <time>2020-07-03T17:37:35Z</time>
      </trkpt>
      <trkpt lat="46.11938" lon="6.2503">
        <ele>547.598</ele>
        <time>2020-07-03T17:37:37Z</time>
      </trkpt>
      <trkpt lat="46.11933" lon="6.25022">
        <ele>549.477</ele>
        <time>2020-07-03T17:37:40Z</time>
      </trkpt>
      <trkpt lat="46.11931" lon="6.25016">
        <ele>550.268</ele>
        <time>2020-07-03T17:37:41Z</time>
      </trkpt>
      <trkpt lat="46.11932" lon="6.25029">
        <ele>553.498</ele>
        <time>2020-07-03T17:37:51Z</time>
      </trkpt>
      <trkpt lat="46.11933" lon="6.25035">
        <ele>553.844</ele>
        <time>2020-07-03T17:37:52Z</time>
      </trkpt>
      <trkpt lat="46.11935" lon="6.25044">
        <ele>554.431</ele>
        <time>2020-07-03T17:37:53Z</time>
      </trkpt>
      <trkpt lat="46.1194" lon="6.2505">
        <ele>556.767</ele>
        <time>2020-07-03T17:37:56Z</time>
      </trkpt>
      <trkpt lat="46.1194" lon="6.25057">
        <ele>558.281</ele>
        <time>2020-07-03T17:38:00Z</time>
      </trkpt>
      <trkpt lat="46.11941" lon="6.25063">
        <ele>558.519</ele>
        <time>2020-07-03T17:38:01Z</time>
      </trkpt>
      <trkpt lat="46.11945" lon="6.25073">
        <ele>558.908</ele>
        <time>2020-07-03T17:38:02Z</time>
      </trkpt>
      <trkpt lat="46.11948" lon="6.2508">
        <ele>559.511</ele>
        <time>2020-07-03T17:38:03Z</time>
      </trkpt>
      <trkpt lat="46.1195" lon="6.25087">
        <ele>560.498</ele>
        <time>2020-07-03T17:38:04Z</time>
      </trkpt>
      <trkpt lat="46.11954" lon="6.25093">
        <ele>561.366</ele>
        <time>2020-07-03T17:38:05Z</time>
      </trkpt>
      <trkpt lat="46.11958" lon="6.25104">
        <ele>562.425</ele>
        <time>2020-07-03T17:38:06Z</time>
      </trkpt>
      <trkpt lat="46.11961" lon="6.25113">
        <ele>563.616</ele>
        <time>2020-07-03T17:38:07Z</time>
      </trkpt>
      <trkpt lat="46.11963" lon="6.25126">
        <ele>565.696</ele>
        <time>2020-07-03T17:38:09Z</time>
      </trkpt>
      <trkpt lat="46.11965" lon="6.25132">
        <ele>566.692</ele>
        <time>2020-07-03T17:38:10Z</time>
      </trkpt>
      <trkpt lat="46.11967" lon="6.2514">
        <ele>567.539</ele>
        <time>2020-07-03T17:38:11Z</time>
      </trkpt>
      <trkpt lat="46.11969" lon="6.25152">
        <ele>568.232</ele>
        <time>2020-07-03T17:38:12Z</time>
      </trkpt>
      <trkpt lat="46.11972" lon="6.25165">
        <ele>568.992</ele>
        <time>2020-07-03T17:38:13Z</time>
      </trkpt>
      <trkpt lat="46.11974" lon="6.25186">
        <ele>569.611</ele>
        <time>2020-07-03T17:38:14Z</time>
      </trkpt>
      <trkpt lat="46.11976" lon="6.25198">
        <ele>570.308</ele>
        <time>2020-07-03T17:38:15Z</time>
      </trkpt>
      <trkpt lat="46.11978" lon="6.25206">
        <ele>571.778</ele>
        <time>2020-07-03T17:38:17Z</time>
      </trkpt>
      <trkpt lat="46.11978" lon="6.25214">
        <ele>572.945</ele>
        <time>2020-07-03T17:38:19Z</time>
      </trkpt>
      <trkpt lat="46.11978" lon="6.25222">
        <ele>573.493</ele>
        <time>2020-07-03T17:38:21Z</time>
      </trkpt>
      <trkpt lat="46.11979" lon="6.25229">
        <ele>573.562</ele>
        <time>2020-07-03T17:38:23Z</time>
      </trkpt>
      <trkpt lat="46.11978" lon="6.25236">
        <ele>573.433</ele>
        <time>2020-07-03T17:38:26Z</time>
      </trkpt>
      <trkpt lat="46.11976" lon="6.25242">
        <ele>573.513</ele>
        <time>2020-07-03T17:38:28Z</time>
      </trkpt>
      <trkpt lat="46.11974" lon="6.25252">
        <ele>573.879</ele>
        <time>2020-07-03T17:38:30Z</time>
      </trkpt>
      <trkpt lat="46.11972" lon="6.25259">
        <ele>574.196</ele>
        <time>2020-07-03T17:38:31Z</time>
      </trkpt>
      <trkpt lat="46.1197" lon="6.25266">
        <ele>574.646</ele>
        <time>2020-07-03T17:38:32Z</time>
      </trkpt>
      <trkpt lat="46.11962" lon="6.2527">
        <ele>575.888</ele>
        <time>2020-07-03T17:38:34Z</time>
      </trkpt>
      <trkpt lat="46.11956" lon="6.25272">
        <ele>576.616</ele>
        <time>2020-07-03T17:38:35Z</time>
      </trkpt>
      <trkpt lat="46.11951" lon="6.25271">
        <ele>578.008</ele>
        <time>2020-07-03T17:38:37Z</time>
      </trkpt>
      <trkpt lat="46.11946" lon="6.25272">
        <ele>579.879</ele>
        <time>2020-07-03T17:38:40Z</time>
      </trkpt>
      <trkpt lat="46.11949" lon="6.25278">
        <ele>580.576</ele>
        <time>2020-07-03T17:38:47Z</time>
      </trkpt>
      <trkpt lat="46.11949" lon="6.25286">
        <ele>580.074</ele>
        <time>2020-07-03T17:38:49Z</time>
      </trkpt>
      <trkpt lat="46.11947" lon="6.25294">
        <ele>579.043</ele>
        <time>2020-07-03T17:38:51Z</time>
      </trkpt>
      <trkpt lat="46.11945" lon="6.25304">
        <ele>578.334</ele>
        <time>2020-07-03T17:38:52Z</time>
      </trkpt>
      <trkpt lat="46.11945" lon="6.25312">
        <ele>577.574</ele>
        <time>2020-07-03T17:38:53Z</time>
      </trkpt>
      <trkpt lat="46.11943" lon="6.25326">
        <ele>575.71</ele>
        <time>2020-07-03T17:38:55Z</time>
      </trkpt>
      <trkpt lat="46.11945" lon="6.25332">
        <ele>574.867</ele>
        <time>2020-07-03T17:38:56Z</time>
      </trkpt>
      <trkpt lat="46.11942" lon="6.25344">
        <ele>573.973</ele>
        <time>2020-07-03T17:38:58Z</time>
      </trkpt>
      <trkpt lat="46.11941" lon="6.25355">
        <ele>574.185</ele>
        <time>2020-07-03T17:39:00Z</time>
      </trkpt>
      <trkpt lat="46.11948" lon="6.25362">
        <ele>574.313</ele>
        <time>2020-07-03T17:39:02Z</time>
      </trkpt>
      <trkpt lat="46.11954" lon="6.25373">
        <ele>573.208</ele>
        <time>2020-07-03T17:39:04Z</time>
      </trkpt>
      <trkpt lat="46.11954" lon="6.25387">
        <ele>571.492</ele>
        <time>2020-07-03T17:39:06Z</time>
      </trkpt>
      <trkpt lat="46.11952" lon="6.25394">
        <ele>570.839</ele>
        <time>2020-07-03T17:39:07Z</time>
      </trkpt>
      <trkpt lat="46.11953" lon="6.25402">
        <ele>570.797</ele>
        <time>2020-07-03T17:39:08Z</time>
      </trkpt>
      <trkpt lat="46.11953" lon="6.25413">
        <ele>570.766</ele>
        <time>2020-07-03T17:39:09Z</time>
      </trkpt>
      <trkpt lat="46.1195" lon="6.25421">
        <ele>571.737</ele>
        <time>2020-07-03T17:39:11Z</time>
      </trkpt>
      <trkpt lat="46.1195" lon="6.25414">
        <ele>573.267</ele>
        <time>2020-07-03T17:39:23Z</time>
      </trkpt>
      <trkpt lat="46.1195" lon="6.25405">
        <ele>572.993</ele>
        <time>2020-07-03T17:39:24Z</time>
      </trkpt>
      <trkpt lat="46.11954" lon="6.25396">
        <ele>572.02</ele>
        <time>2020-07-03T17:39:26Z</time>
      </trkpt>
      <trkpt lat="46.11961" lon="6.25402">
        <ele>569.943</ele>
        <time>2020-07-03T17:39:29Z</time>
      </trkpt>
      <trkpt lat="46.11965" lon="6.25414">
        <ele>569.264</ele>
        <time>2020-07-03T17:39:30Z</time>
      </trkpt>
      <trkpt lat="46.1197" lon="6.25429">
        <ele>568.51</ele>
        <time>2020-07-03T17:39:31Z</time>
      </trkpt>
      <trkpt lat="46.11974" lon="6.25446">
        <ele>567.708</ele>
        <time>2020-07-03T17:39:32Z</time>
      </trkpt>
      <trkpt lat="46.11978" lon="6.25459">
        <ele>566.759</ele>
        <time>2020-07-03T17:39:33Z</time>
      </trkpt>
      <trkpt lat="46.11982" lon="6.25473">
        <ele>565.746</ele>
        <time>2020-07-03T17:39:34Z</time>
      </trkpt>
      <trkpt lat="46.11986" lon="6.25482">
        <ele>564.344</ele>
        <time>2020-07-03T17:39:35Z</time>
      </trkpt>
      <trkpt lat="46.1199" lon="6.25487">
        <ele>562.983</ele>
        <time>2020-07-03T17:39:36Z</time>
      </trkpt>
      <trkpt lat="46.11995" lon="6.25498">
        <ele>560.084</ele>
        <time>2020-07-03T17:39:38Z</time>
      </trkpt>
      <trkpt lat="46.1199" lon="6.25506">
        <ele>556.864</ele>
        <time>2020-07-03T17:39:41Z</time>
      </trkpt>
      <trkpt lat="46.11983" lon="6.25511">
        <ele>556.34</ele>
        <time>2020-07-03T17:39:42Z</time>
      </trkpt>
      <trkpt lat="46.11977" lon="6.25511">
        <ele>556.347</ele>
        <time>2020-07-03T17:39:43Z</time>
      </trkpt>
      <trkpt lat="46.11969" lon="6.25519">
        <ele>556.415</ele>
        <time>2020-07-03T17:39:44Z</time>
      </trkpt>
      <trkpt lat="46.11962" lon="6.25524">
        <ele>557.065</ele>
        <time>2020-07-03T17:39:45Z</time>
      </trkpt>
      <trkpt lat="46.11956" lon="6.25528">
        <ele>557.511</ele>
        <time>2020-07-03T17:39:46Z</time>
      </trkpt>
      <trkpt lat="46.1195" lon="6.25532">
        <ele>557.908</ele>
        <time>2020-07-03T17:39:47Z</time>
      </trkpt>
      <trkpt lat="46.11944" lon="6.25535">
        <ele>558.296</ele>
        <time>2020-07-03T17:39:48Z</time>
      </trkpt>
      <trkpt lat="46.11936" lon="6.25535">
        <ele>558.563</ele>
        <time>2020-07-03T17:39:49Z</time>
      </trkpt>
      <trkpt lat="46.11928" lon="6.25536">
        <ele>558.691</ele>
        <time>2020-07-03T17:39:50Z</time>
      </trkpt>
      <trkpt lat="46.1192" lon="6.25536">
        <ele>558.89</ele>
        <time>2020-07-03T17:39:51Z</time>
      </trkpt>
      <trkpt lat="46.11913" lon="6.25536">
        <ele>559.061</ele>
        <time>2020-07-03T17:39:52Z</time>
      </trkpt>
      <trkpt lat="46.11905" lon="6.25539">
        <ele>559.331</ele>
        <time>2020-07-03T17:39:53Z</time>
      </trkpt>
      <trkpt lat="46.11897" lon="6.25541">
        <ele>559.617</ele>
        <time>2020-07-03T17:39:54Z</time>
      </trkpt>
      <trkpt lat="46.11889" lon="6.25542">
        <ele>559.934</ele>
        <time>2020-07-03T17:39:55Z</time>
      </trkpt>
      <trkpt lat="46.11882" lon="6.25544">
        <ele>560.216</ele>
        <time>2020-07-03T17:39:56Z</time>
      </trkpt>
      <trkpt lat="46.11875" lon="6.25546">
        <ele>560.576</ele>
        <time>2020-07-03T17:39:57Z</time>
      </trkpt>
      <trkpt lat="46.11868" lon="6.25551">
        <ele>560.913</ele>
        <time>2020-07-03T17:39:58Z</time>
      </trkpt>
      <trkpt lat="46.11861" lon="6.25557">
        <ele>561.308</ele>
        <time>2020-07-03T17:39:59Z</time>
      </trkpt>
      <trkpt lat="46.11857" lon="6.25563">
        <ele>561.816</ele>
        <time>2020-07-03T17:40:00Z</time>
      </trkpt>
      <trkpt lat="46.11852" lon="6.2557">
        <ele>562.213</ele>
        <time>2020-07-03T17:40:01Z</time>
      </trkpt>
      <trkpt lat="46.11847" lon="6.25576">
        <ele>562.721</ele>
        <time>2020-07-03T17:40:02Z</time>
      </trkpt>
      <trkpt lat="46.11842" lon="6.25579">
        <ele>563.27</ele>
        <time>2020-07-03T17:40:03Z</time>
      </trkpt>
      <trkpt lat="46.11834" lon="6.25583">
        <ele>564.221</ele>
        <time>2020-07-03T17:40:05Z</time>
      </trkpt>
      <trkpt lat="46.11824" lon="6.25584">
        <ele>564.991</ele>
        <time>2020-07-03T17:40:07Z</time>
      </trkpt>
      <trkpt lat="46.11816" lon="6.25586">
        <ele>565.257</ele>
        <time>2020-07-03T17:40:08Z</time>
      </trkpt>
      <trkpt lat="46.11808" lon="6.25589">
        <ele>565.644</ele>
        <time>2020-07-03T17:40:09Z</time>
      </trkpt>
      <trkpt lat="46.11799" lon="6.25591">
        <ele>566.116</ele>
        <time>2020-07-03T17:40:10Z</time>
      </trkpt>
      <trkpt lat="46.11789" lon="6.25593">
        <ele>566.776</ele>
        <time>2020-07-03T17:40:11Z</time>
      </trkpt>
      <trkpt lat="46.11779" lon="6.25596">
        <ele>567.513</ele>
        <time>2020-07-03T17:40:12Z</time>
      </trkpt>
      <trkpt lat="46.1177" lon="6.256">
        <ele>568.308</ele>
        <time>2020-07-03T17:40:13Z</time>
      </trkpt>
      <trkpt lat="46.11762" lon="6.25604">
        <ele>569.286</ele>
        <time>2020-07-03T17:40:14Z</time>
      </trkpt>
      <trkpt lat="46.11754" lon="6.25607">
        <ele>570.093</ele>
        <time>2020-07-03T17:40:15Z</time>
      </trkpt>
      <trkpt lat="46.11747" lon="6.2561">
        <ele>570.871</ele>
        <time>2020-07-03T17:40:16Z</time>
      </trkpt>
      <trkpt lat="46.11741" lon="6.25612">
        <ele>571.42</ele>
        <time>2020-07-03T17:40:17Z</time>
      </trkpt>
      <trkpt lat="46.11737" lon="6.25613">
        <ele>572.091</ele>
        <time>2020-07-03T17:40:18Z</time>
      </trkpt>
      <trkpt lat="46.11732" lon="6.25606">
        <ele>573.131</ele>
        <time>2020-07-03T17:40:20Z</time>
      </trkpt>
      <trkpt lat="46.11732" lon="6.25598">
        <ele>573.657</ele>
        <time>2020-07-03T17:40:21Z</time>
      </trkpt>
      <trkpt lat="46.11732" lon="6.25582">
        <ele>574.044</ele>
        <time>2020-07-03T17:40:22Z</time>
      </trkpt>
      <trkpt lat="46.11734" lon="6.25566">
        <ele>574.566</ele>
        <time>2020-07-03T17:40:23Z</time>
      </trkpt>
      <trkpt lat="46.11739" lon="6.25546">
        <ele>575.129</ele>
        <time>2020-07-03T17:40:24Z</time>
      </trkpt>
      <trkpt lat="46.11747" lon="6.25525">
        <ele>576.121</ele>
        <time>2020-07-03T17:40:25Z</time>
      </trkpt>
      <trkpt lat="46.11757" lon="6.25505">
        <ele>577.208</ele>
        <time>2020-07-03T17:40:26Z</time>
      </trkpt>
      <trkpt lat="46.11768" lon="6.25482">
        <ele>578.461</ele>
        <time>2020-07-03T17:40:27Z</time>
      </trkpt>
      <trkpt lat="46.11778" lon="6.25458">
        <ele>579.638</ele>
        <time>2020-07-03T17:40:28Z</time>
      </trkpt>
      <trkpt lat="46.11789" lon="6.25433">
        <ele>581.016</ele>
        <time>2020-07-03T17:40:29Z</time>
      </trkpt>
      <trkpt lat="46.118" lon="6.25409">
        <ele>582.485</ele>
        <time>2020-07-03T17:40:30Z</time>
      </trkpt>
      <trkpt lat="46.11809" lon="6.25387">
        <ele>584.096</ele>
        <time>2020-07-03T17:40:31Z</time>
      </trkpt>
      <trkpt lat="46.11818" lon="6.25369">
        <ele>585.776</ele>
        <time>2020-07-03T17:40:32Z</time>
      </trkpt>
      <trkpt lat="46.11825" lon="6.25352">
        <ele>587.422</ele>
        <time>2020-07-03T17:40:33Z</time>
      </trkpt>
      <trkpt lat="46.11829" lon="6.25335">
        <ele>588.689</ele>
        <time>2020-07-03T17:40:34Z</time>
      </trkpt>
      <trkpt lat="46.11829" lon="6.25319">
        <ele>589.772</ele>
        <time>2020-07-03T17:40:35Z</time>
      </trkpt>
      <trkpt lat="46.11824" lon="6.25304">
        <ele>590.313</ele>
        <time>2020-07-03T17:40:36Z</time>
      </trkpt>
      <trkpt lat="46.11816" lon="6.25291">
        <ele>591.214</ele>
        <time>2020-07-03T17:40:37Z</time>
      </trkpt>
      <trkpt lat="46.11805" lon="6.25283">
        <ele>591.908</ele>
        <time>2020-07-03T17:40:38Z</time>
      </trkpt>
      <trkpt lat="46.11793" lon="6.25277">
        <ele>593.132</ele>
        <time>2020-07-03T17:40:39Z</time>
      </trkpt>
      <trkpt lat="46.11779" lon="6.25274">
        <ele>594.469</ele>
        <time>2020-07-03T17:40:40Z</time>
      </trkpt>
      <trkpt lat="46.11767" lon="6.25264">
        <ele>595.567</ele>
        <time>2020-07-03T17:40:41Z</time>
      </trkpt>
      <trkpt lat="46.11759" lon="6.25246">
        <ele>596.526</ele>
        <time>2020-07-03T17:40:42Z</time>
      </trkpt>
      <trkpt lat="46.11756" lon="6.25224">
        <ele>597.597</ele>
        <time>2020-07-03T17:40:43Z</time>
      </trkpt>
      <trkpt lat="46.11755" lon="6.25201">
        <ele>598.787</ele>
        <time>2020-07-03T17:40:44Z</time>
      </trkpt>
      <trkpt lat="46.11757" lon="6.25177">
        <ele>600.083</ele>
        <time>2020-07-03T17:40:45Z</time>
      </trkpt>
      <trkpt lat="46.11761" lon="6.25154">
        <ele>601.69</ele>
        <time>2020-07-03T17:40:46Z</time>
      </trkpt>
      <trkpt lat="46.11766" lon="6.25129">
        <ele>603.032</ele>
        <time>2020-07-03T17:40:47Z</time>
      </trkpt>
      <trkpt lat="46.11771" lon="6.25105">
        <ele>604.692</ele>
        <time>2020-07-03T17:40:48Z</time>
      </trkpt>
      <trkpt lat="46.11775" lon="6.2508">
        <ele>606.311</ele>
        <time>2020-07-03T17:40:49Z</time>
      </trkpt>
      <trkpt lat="46.11779" lon="6.25057">
        <ele>607.708</ele>
        <time>2020-07-03T17:40:50Z</time>
      </trkpt>
      <trkpt lat="46.11784" lon="6.25036">
        <ele>608.928</ele>
        <time>2020-07-03T17:40:51Z</time>
      </trkpt>
      <trkpt lat="46.11786" lon="6.25017">
        <ele>610.375</ele>
        <time>2020-07-03T17:40:52Z</time>
      </trkpt>
      <trkpt lat="46.11786" lon="6.24997">
        <ele>611.543</ele>
        <time>2020-07-03T17:40:53Z</time>
      </trkpt>
      <trkpt lat="46.11782" lon="6.24977">
        <ele>612.682</ele>
        <time>2020-07-03T17:40:54Z</time>
      </trkpt>
      <trkpt lat="46.11777" lon="6.24957">
        <ele>613.743</ele>
        <time>2020-07-03T17:40:55Z</time>
      </trkpt>
      <trkpt lat="46.11772" lon="6.24937">
        <ele>614.843</ele>
        <time>2020-07-03T17:40:56Z</time>
      </trkpt>
      <trkpt lat="46.11766" lon="6.2492">
        <ele>615.899</ele>
        <time>2020-07-03T17:40:57Z</time>
      </trkpt>
      <trkpt lat="46.11758" lon="6.24903">
        <ele>616.996</ele>
        <time>2020-07-03T17:40:58Z</time>
      </trkpt>
      <trkpt lat="46.11749" lon="6.24887">
        <ele>617.834</ele>
        <time>2020-07-03T17:40:59Z</time>
      </trkpt>
      <trkpt lat="46.11737" lon="6.24874">
        <ele>618.855</ele>
        <time>2020-07-03T17:41:00Z</time>
      </trkpt>
      <trkpt lat="46.11723" lon="6.24867">
        <ele>619.81</ele>
        <time>2020-07-03T17:41:01Z</time>
      </trkpt>
      <trkpt lat="46.11707" lon="6.24864">
        <ele>621.008</ele>
        <time>2020-07-03T17:41:02Z</time>
      </trkpt>
      <trkpt lat="46.11692" lon="6.24862">
        <ele>622.438</ele>
        <time>2020-07-03T17:41:03Z</time>
      </trkpt>
      <trkpt lat="46.11677" lon="6.24864">
        <ele>623.885</ele>
        <time>2020-07-03T17:41:04Z</time>
      </trkpt>
      <trkpt lat="46.11663" lon="6.24868">
        <ele>625.263</ele>
        <time>2020-07-03T17:41:05Z</time>
      </trkpt>
      <trkpt lat="46.1165" lon="6.24872">
        <ele>626.762</ele>
        <time>2020-07-03T17:41:06Z</time>
      </trkpt>
      <trkpt lat="46.11638" lon="6.24877">
        <ele>628.063</ele>
        <time>2020-07-03T17:41:07Z</time>
      </trkpt>
      <trkpt lat="46.11625" lon="6.24882">
        <ele>629.313</ele>
        <time>2020-07-03T17:41:08Z</time>
      </trkpt>
      <trkpt lat="46.11614" lon="6.2489">
        <ele>630.739</ele>
        <time>2020-07-03T17:41:09Z</time>
      </trkpt>
      <trkpt lat="46.11605" lon="6.24904">
        <ele>632.356</ele>
        <time>2020-07-03T17:41:10Z</time>
      </trkpt>
      <trkpt lat="46.11598" lon="6.24921">
        <ele>633.872</ele>
        <time>2020-07-03T17:41:11Z</time>
      </trkpt>
      <trkpt lat="46.11593" lon="6.24942">
        <ele>635.513</ele>
        <time>2020-07-03T17:41:12Z</time>
      </trkpt>
      <trkpt lat="46.11589" lon="6.24958">
        <ele>637.114</ele>
        <time>2020-07-03T17:41:13Z</time>
      </trkpt>
      <trkpt lat="46.11584" lon="6.24971">
        <ele>638.508</ele>
        <time>2020-07-03T17:41:14Z</time>
      </trkpt>
      <trkpt lat="46.11576" lon="6.2498">
        <ele>639.642</ele>
        <time>2020-07-03T17:41:15Z</time>
      </trkpt>
      <trkpt lat="46.11564" lon="6.24985">
        <ele>640.589</ele>
        <time>2020-07-03T17:41:16Z</time>
      </trkpt>
      <trkpt lat="46.1155" lon="6.24984">
        <ele>641.127</ele>
        <time>2020-07-03T17:41:17Z</time>
      </trkpt>
      <trkpt lat="46.11537" lon="6.24977">
        <ele>641.776</ele>
        <time>2020-07-03T17:41:18Z</time>
      </trkpt>
      <trkpt lat="46.11524" lon="6.24969">
        <ele>642.217</ele>
        <time>2020-07-03T17:41:19Z</time>
      </trkpt>
      <trkpt lat="46.11511" lon="6.24961">
        <ele>643.067</ele>
        <time>2020-07-03T17:41:20Z</time>
      </trkpt>
      <trkpt lat="46.11497" lon="6.24955">
        <ele>644.223</ele>
        <time>2020-07-03T17:41:21Z</time>
      </trkpt>
      <trkpt lat="46.11481" lon="6.24952">
        <ele>645.72</ele>
        <time>2020-07-03T17:41:22Z</time>
      </trkpt>
      <trkpt lat="46.11466" lon="6.24951">
        <ele>647.272</ele>
        <time>2020-07-03T17:41:23Z</time>
      </trkpt>
      <trkpt lat="46.11453" lon="6.24953">
        <ele>648.813</ele>
        <time>2020-07-03T17:41:24Z</time>
      </trkpt>
      <trkpt lat="46.11441" lon="6.24956">
        <ele>650.314</ele>
        <time>2020-07-03T17:41:25Z</time>
      </trkpt>
      <trkpt lat="46.11428" lon="6.24959">
        <ele>651.708</ele>
        <time>2020-07-03T17:41:26Z</time>
      </trkpt>
      <trkpt lat="46.11415" lon="6.24959">
        <ele>652.942</ele>
        <time>2020-07-03T17:41:27Z</time>
      </trkpt>
      <trkpt lat="46.11399" lon="6.24956">
        <ele>654.159</ele>
        <time>2020-07-03T17:41:28Z</time>
      </trkpt>
      <trkpt lat="46.11385" lon="6.24949">
        <ele>655.597</ele>
        <time>2020-07-03T17:41:29Z</time>
      </trkpt>
      <trkpt lat="46.1137" lon="6.2494">
        <ele>656.946</ele>
        <time>2020-07-03T17:41:30Z</time>
      </trkpt>
      <trkpt lat="46.11354" lon="6.24931">
        <ele>658.167</ele>
        <time>2020-07-03T17:41:31Z</time>
      </trkpt>
      <trkpt lat="46.11339" lon="6.24924">
        <ele>659.687</ele>
        <time>2020-07-03T17:41:32Z</time>
      </trkpt>
      <trkpt lat="46.11323" lon="6.24916">
        <ele>661.383</ele>
        <time>2020-07-03T17:41:33Z</time>
      </trkpt>
      <trkpt lat="46.11309" lon="6.24908">
        <ele>662.97</ele>
        <time>2020-07-03T17:41:34Z</time>
      </trkpt>
      <trkpt lat="46.11298" lon="6.24901">
        <ele>664.598</ele>
        <time>2020-07-03T17:41:35Z</time>
      </trkpt>
      <trkpt lat="46.11287" lon="6.24895">
        <ele>666.015</ele>
        <time>2020-07-03T17:41:36Z</time>
      </trkpt>
      <trkpt lat="46.11281" lon="6.24888">
        <ele>667.526</ele>
        <time>2020-07-03T17:41:37Z</time>
      </trkpt>
      <trkpt lat="46.11276" lon="6.2488">
        <ele>668.608</ele>
        <time>2020-07-03T17:41:38Z</time>
      </trkpt>
      <trkpt lat="46.11277" lon="6.24869">
        <ele>669.694</ele>
        <time>2020-07-03T17:41:39Z</time>
      </trkpt>
      <trkpt lat="46.1128" lon="6.24857">
        <ele>670.561</ele>
        <time>2020-07-03T17:41:40Z</time>
      </trkpt>
      <trkpt lat="46.11285" lon="6.24845">
        <ele>671.259</ele>
        <time>2020-07-03T17:41:41Z</time>
      </trkpt>
      <trkpt lat="46.1129" lon="6.24834">
        <ele>671.678</ele>
        <time>2020-07-03T17:41:42Z</time>
      </trkpt>
      <trkpt lat="46.11293" lon="6.24822">
        <ele>671.829</ele>
        <time>2020-07-03T17:41:43Z</time>
      </trkpt>
      <trkpt lat="46.11295" lon="6.24809">
        <ele>671.899</ele>
        <time>2020-07-03T17:41:44Z</time>
      </trkpt>
      <trkpt lat="46.11297" lon="6.24797">
        <ele>671.645</ele>
        <time>2020-07-03T17:41:45Z</time>
      </trkpt>
      <trkpt lat="46.11298" lon="6.24785">
        <ele>671.312</ele>
        <time>2020-07-03T17:41:46Z</time>
      </trkpt>
      <trkpt lat="46.11298" lon="6.24774">
        <ele>671.157</ele>
        <time>2020-07-03T17:41:47Z</time>
      </trkpt>
      <trkpt lat="46.11293" lon="6.24761">
        <ele>670.9</ele>
        <time>2020-07-03T17:41:48Z</time>
      </trkpt>
      <trkpt lat="46.11285" lon="6.24748">
        <ele>670.92</ele>
        <time>2020-07-03T17:41:49Z</time>
      </trkpt>
      <trkpt lat="46.11274" lon="6.24738">
        <ele>670.908</ele>
        <time>2020-07-03T17:41:50Z</time>
      </trkpt>
      <trkpt lat="46.11265" lon="6.24727">
        <ele>671.05</ele>
        <time>2020-07-03T17:41:51Z</time>
      </trkpt>
      <trkpt lat="46.11256" lon="6.24714">
        <ele>671.257</ele>
        <time>2020-07-03T17:41:52Z</time>
      </trkpt>
      <trkpt lat="46.11247" lon="6.24702">
        <ele>671.695</ele>
        <time>2020-07-03T17:41:53Z</time>
      </trkpt>
      <trkpt lat="46.11242" lon="6.24683">
        <ele>672.214</ele>
        <time>2020-07-03T17:41:54Z</time>
      </trkpt>
      <trkpt lat="46.1124" lon="6.24669">
        <ele>673.045</ele>
        <time>2020-07-03T17:41:55Z</time>
      </trkpt>
      <trkpt lat="46.11233" lon="6.24659">
        <ele>673.925</ele>
        <time>2020-07-03T17:41:56Z</time>
      </trkpt>
      <trkpt lat="46.11224" lon="6.24653">
        <ele>674.931</ele>
        <time>2020-07-03T17:41:57Z</time>
      </trkpt>
      <trkpt lat="46.11214" lon="6.24648">
        <ele>675.828</ele>
        <time>2020-07-03T17:41:58Z</time>
      </trkpt>
      <trkpt lat="46.11202" lon="6.24646">
        <ele>676.871</ele>
        <time>2020-07-03T17:41:59Z</time>
      </trkpt>
      <trkpt lat="46.11192" lon="6.24643">
        <ele>677.641</ele>
        <time>2020-07-03T17:42:00Z</time>
      </trkpt>
      <trkpt lat="46.11182" lon="6.24633">
        <ele>678.315</ele>
        <time>2020-07-03T17:42:01Z</time>
      </trkpt>
      <trkpt lat="46.11172" lon="6.24618">
        <ele>679.108</ele>
        <time>2020-07-03T17:42:02Z</time>
      </trkpt>
      <trkpt lat="46.1116" lon="6.24605">
        <ele>680.192</ele>
        <time>2020-07-03T17:42:03Z</time>
      </trkpt>
      <trkpt lat="46.11148" lon="6.24593">
        <ele>681.159</ele>
        <time>2020-07-03T17:42:04Z</time>
      </trkpt>
      <trkpt lat="46.11135" lon="6.24578">
        <ele>682.417</ele>
        <time>2020-07-03T17:42:05Z</time>
      </trkpt>
      <trkpt lat="46.11122" lon="6.24561">
        <ele>683.816</ele>
        <time>2020-07-03T17:42:06Z</time>
      </trkpt>
      <trkpt lat="46.11109" lon="6.24542">
        <ele>685.417</ele>
        <time>2020-07-03T17:42:07Z</time>
      </trkpt>
      <trkpt lat="46.11098" lon="6.24522">
        <ele>687.217</ele>
        <time>2020-07-03T17:42:08Z</time>
      </trkpt>
      <trkpt lat="46.11086" lon="6.24501">
        <ele>688.853</ele>
        <time>2020-07-03T17:42:09Z</time>
      </trkpt>
      <trkpt lat="46.11076" lon="6.24479">
        <ele>690.55</ele>
        <time>2020-07-03T17:42:10Z</time>
      </trkpt>
      <trkpt lat="46.11065" lon="6.24464">
        <ele>692.423</ele>
        <time>2020-07-03T17:42:11Z</time>
      </trkpt>
      <trkpt lat="46.11054" lon="6.24449">
        <ele>693.883</ele>
        <time>2020-07-03T17:42:12Z</time>
      </trkpt>
      <trkpt lat="46.11044" lon="6.24434">
        <ele>694.911</ele>
        <time>2020-07-03T17:42:13Z</time>
      </trkpt>
      <trkpt lat="46.11032" lon="6.2442">
        <ele>695.908</ele>
        <time>2020-07-03T17:42:14Z</time>
      </trkpt>
      <trkpt lat="46.11021" lon="6.24406">
        <ele>697.097</ele>
        <time>2020-07-03T17:42:15Z</time>
      </trkpt>
      <trkpt lat="46.11011" lon="6.24395">
        <ele>697.914</ele>
        <time>2020-07-03T17:42:16Z</time>
      </trkpt>
      <trkpt lat="46.11002" lon="6.24387">
        <ele>699.132</ele>
        <time>2020-07-03T17:42:17Z</time>
      </trkpt>
      <trkpt lat="46.10992" lon="6.2438">
        <ele>700.371</ele>
        <time>2020-07-03T17:42:18Z</time>
      </trkpt>
      <trkpt lat="46.1098" lon="6.24377">
        <ele>701.632</ele>
        <time>2020-07-03T17:42:19Z</time>
      </trkpt>
      <trkpt lat="46.10966" lon="6.24377">
        <ele>702.722</ele>
        <time>2020-07-03T17:42:20Z</time>
      </trkpt>
      <trkpt lat="46.10954" lon="6.24386">
        <ele>703.928</ele>
        <time>2020-07-03T17:42:21Z</time>
      </trkpt>
      <trkpt lat="46.10945" lon="6.24397">
        <ele>705.155</ele>
        <time>2020-07-03T17:42:22Z</time>
      </trkpt>
      <trkpt lat="46.10938" lon="6.24411">
        <ele>706.513</ele>
        <time>2020-07-03T17:42:23Z</time>
      </trkpt>
      <trkpt lat="46.1093" lon="6.24415">
        <ele>707.943</ele>
        <time>2020-07-03T17:42:24Z</time>
      </trkpt>
      <trkpt lat="46.1092" lon="6.24414">
        <ele>709.207</ele>
        <time>2020-07-03T17:42:25Z</time>
      </trkpt>
      <trkpt lat="46.10909" lon="6.24405">
        <ele>710.508</ele>
        <time>2020-07-03T17:42:26Z</time>
      </trkpt>
      <trkpt lat="46.10898" lon="6.24392">
        <ele>711.926</ele>
        <time>2020-07-03T17:42:27Z</time>
      </trkpt>
      <trkpt lat="46.10886" lon="6.24382">
        <ele>713.493</ele>
        <time>2020-07-03T17:42:28Z</time>
      </trkpt>
      <trkpt lat="46.10872" lon="6.24377">
        <ele>714.941</ele>
        <time>2020-07-03T17:42:29Z</time>
      </trkpt>
      <trkpt lat="46.10857" lon="6.24376">
        <ele>716.79</ele>
        <time>2020-07-03T17:42:30Z</time>
      </trkpt>
      <trkpt lat="46.10843" lon="6.24376">
        <ele>718.671</ele>
        <time>2020-07-03T17:42:31Z</time>
      </trkpt>
      <trkpt lat="46.1083" lon="6.24376">
        <ele>720.491</ele>
        <time>2020-07-03T17:42:32Z</time>
      </trkpt>
      <trkpt lat="46.1082" lon="6.24376">
        <ele>722.157</ele>
        <time>2020-07-03T17:42:33Z</time>
      </trkpt>
      <trkpt lat="46.10813" lon="6.24374">
        <ele>723.874</ele>
        <time>2020-07-03T17:42:34Z</time>
      </trkpt>
      <trkpt lat="46.10807" lon="6.24368">
        <ele>726.783</ele>
        <time>2020-07-03T17:42:36Z</time>
      </trkpt>
      <trkpt lat="46.10804" lon="6.24362">
        <ele>727.925</ele>
        <time>2020-07-03T17:42:37Z</time>
      </trkpt>
      <trkpt lat="46.10801" lon="6.24352">
        <ele>728.917</ele>
        <time>2020-07-03T17:42:38Z</time>
      </trkpt>
      <trkpt lat="46.10798" lon="6.2434">
        <ele>729.608</ele>
        <time>2020-07-03T17:42:39Z</time>
      </trkpt>
      <trkpt lat="46.10794" lon="6.24328">
        <ele>730.183</ele>
        <time>2020-07-03T17:42:40Z</time>
      </trkpt>
      <trkpt lat="46.10788" lon="6.24314">
        <ele>730.52</ele>
        <time>2020-07-03T17:42:41Z</time>
      </trkpt>
      <trkpt lat="46.10781" lon="6.24296">
        <ele>730.918</ele>
        <time>2020-07-03T17:42:42Z</time>
      </trkpt>
      <trkpt lat="46.10772" lon="6.24279">
        <ele>731.427</ele>
        <time>2020-07-03T17:42:43Z</time>
      </trkpt>
      <trkpt lat="46.10762" lon="6.24261">
        <ele>731.988</ele>
        <time>2020-07-03T17:42:44Z</time>
      </trkpt>
      <trkpt lat="46.1075" lon="6.24247">
        <ele>732.668</ele>
        <time>2020-07-03T17:42:45Z</time>
      </trkpt>
      <trkpt lat="46.10736" lon="6.24235">
        <ele>733.394</ele>
        <time>2020-07-03T17:42:46Z</time>
      </trkpt>
      <trkpt lat="46.10719" lon="6.24221">
        <ele>734.171</ele>
        <time>2020-07-03T17:42:47Z</time>
      </trkpt>
      <trkpt lat="46.10704" lon="6.2421">
        <ele>734.898</ele>
        <time>2020-07-03T17:42:48Z</time>
      </trkpt>
      <trkpt lat="46.10687" lon="6.242">
        <ele>735.315</ele>
        <time>2020-07-03T17:42:49Z</time>
      </trkpt>
      <trkpt lat="46.10668" lon="6.24191">
        <ele>735.826</ele>
        <time>2020-07-03T17:42:50Z</time>
      </trkpt>
      <trkpt lat="46.10645" lon="6.24187">
        <ele>736.808</ele>
        <time>2020-07-03T17:42:51Z</time>
      </trkpt>
      <trkpt lat="46.10622" lon="6.24179">
        <ele>737.434</ele>
        <time>2020-07-03T17:42:52Z</time>
      </trkpt>
      <trkpt lat="46.10621" lon="6.24188">
        <ele>738.221</ele>
        <time>2020-07-03T17:42:53Z</time>
      </trkpt>
      <trkpt lat="46.10605" lon="6.24183">
        <ele>739.389</ele>
        <time>2020-07-03T17:42:54Z</time>
      </trkpt>
      <trkpt lat="46.10589" lon="6.24179">
        <ele>740.048</ele>
        <time>2020-07-03T17:42:55Z</time>
      </trkpt>
      <trkpt lat="46.10572" lon="6.24174">
        <ele>740.459</ele>
        <time>2020-07-03T17:42:56Z</time>
      </trkpt>
      <trkpt lat="46.10556" lon="6.24169">
        <ele>740.919</ele>
        <time>2020-07-03T17:42:57Z</time>
      </trkpt>
      <trkpt lat="46.1054" lon="6.24165">
        <ele>741.495</ele>
        <time>2020-07-03T17:42:58Z</time>
      </trkpt>
      <trkpt lat="46.10523" lon="6.24159">
        <ele>742.062</ele>
        <time>2020-07-03T17:42:59Z</time>
      </trkpt>
      <trkpt lat="46.10507" lon="6.24152">
        <ele>742.794</ele>
        <time>2020-07-03T17:43:00Z</time>
      </trkpt>
      <trkpt lat="46.10492" lon="6.24144">
        <ele>743.457</ele>
        <time>2020-07-03T17:43:01Z</time>
      </trkpt>
      <trkpt lat="46.10479" lon="6.24135">
        <ele>744.122</ele>
        <time>2020-07-03T17:43:02Z</time>
      </trkpt>
      <trkpt lat="46.10467" lon="6.24127">
        <ele>744.808</ele>
        <time>2020-07-03T17:43:03Z</time>
      </trkpt>
      <trkpt lat="46.10456" lon="6.2412">
        <ele>745.634</ele>
        <time>2020-07-03T17:43:04Z</time>
      </trkpt>
      <trkpt lat="46.10445" lon="6.2411">
        <ele>746.331</ele>
        <time>2020-07-03T17:43:05Z</time>
      </trkpt>
      <trkpt lat="46.10434" lon="6.24097">
        <ele>746.999</ele>
        <time>2020-07-03T17:43:06Z</time>
      </trkpt>
      <trkpt lat="46.10422" lon="6.24082">
        <ele>747.658</ele>
        <time>2020-07-03T17:43:07Z</time>
      </trkpt>
      <trkpt lat="46.1041" lon="6.2407">
        <ele>747.689</ele>
        <time>2020-07-03T17:43:08Z</time>
      </trkpt>
      <trkpt lat="46.10398" lon="6.24059">
        <ele>747.679</ele>
        <time>2020-07-03T17:43:09Z</time>
      </trkpt>
      <trkpt lat="46.10386" lon="6.24048">
        <ele>747.235</ele>
        <time>2020-07-03T17:43:10Z</time>
      </trkpt>
      <trkpt lat="46.10375" lon="6.24035">
        <ele>746.632</ele>
        <time>2020-07-03T17:43:11Z</time>
      </trkpt>
      <trkpt lat="46.10364" lon="6.24024">
        <ele>745.852</ele>
        <time>2020-07-03T17:43:12Z</time>
      </trkpt>
      <trkpt lat="46.10351" lon="6.24013">
        <ele>745.453</ele>
        <time>2020-07-03T17:43:13Z</time>
      </trkpt>
      <trkpt lat="46.10339" lon="6.24001">
        <ele>745.208</ele>
        <time>2020-07-03T17:43:14Z</time>
      </trkpt>
      <trkpt lat="46.10327" lon="6.2399">
        <ele>745.008</ele>
        <time>2020-07-03T17:43:15Z</time>
      </trkpt>
      <trkpt lat="46.10315" lon="6.23979">
        <ele>745.06</ele>
        <time>2020-07-03T17:43:16Z</time>
      </trkpt>
      <trkpt lat="46.10302" lon="6.23967">
        <ele>744.867</ele>
        <time>2020-07-03T17:43:17Z</time>
      </trkpt>
      <trkpt lat="46.1029" lon="6.23956">
        <ele>744.755</ele>
        <time>2020-07-03T17:43:18Z</time>
      </trkpt>
      <trkpt lat="46.10278" lon="6.23942">
        <ele>744.664</ele>
        <time>2020-07-03T17:43:19Z</time>
      </trkpt>
      <trkpt lat="46.10268" lon="6.23928">
        <ele>744.175</ele>
        <time>2020-07-03T17:43:20Z</time>
      </trkpt>
      <trkpt lat="46.10256" lon="6.23915">
        <ele>743.835</ele>
        <time>2020-07-03T17:43:21Z</time>
      </trkpt>
      <trkpt lat="46.10244" lon="6.23901">
        <ele>743.651</ele>
        <time>2020-07-03T17:43:22Z</time>
      </trkpt>
      <trkpt lat="46.10233" lon="6.23888">
        <ele>743.338</ele>
        <time>2020-07-03T17:43:23Z</time>
      </trkpt>
      <trkpt lat="46.10222" lon="6.23875">
        <ele>743.295</ele>
        <time>2020-07-03T17:43:24Z</time>
      </trkpt>
      <trkpt lat="46.1021" lon="6.23861">
        <ele>743.249</ele>
        <time>2020-07-03T17:43:25Z</time>
      </trkpt>
      <trkpt lat="46.10199" lon="6.23848">
        <ele>743.523</ele>
        <time>2020-07-03T17:43:26Z</time>
      </trkpt>
      <trkpt lat="46.10187" lon="6.23836">
        <ele>743.708</ele>
        <time>2020-07-03T17:43:27Z</time>
      </trkpt>
      <trkpt lat="46.10175" lon="6.23825">
        <ele>743.934</ele>
        <time>2020-07-03T17:43:28Z</time>
      </trkpt>
      <trkpt lat="46.10163" lon="6.23814">
        <ele>744.151</ele>
        <time>2020-07-03T17:43:29Z</time>
      </trkpt>
      <trkpt lat="46.1015" lon="6.23803">
        <ele>744.389</ele>
        <time>2020-07-03T17:43:30Z</time>
      </trkpt>
      <trkpt lat="46.10139" lon="6.23792">
        <ele>744.428</ele>
        <time>2020-07-03T17:43:31Z</time>
      </trkpt>
      <trkpt lat="46.10127" lon="6.23781">
        <ele>744.669</ele>
        <time>2020-07-03T17:43:32Z</time>
      </trkpt>
      <trkpt lat="46.10116" lon="6.2377">
        <ele>744.799</ele>
        <time>2020-07-03T17:43:33Z</time>
      </trkpt>
      <trkpt lat="46.10104" lon="6.23759">
        <ele>744.915</ele>
        <time>2020-07-03T17:43:34Z</time>
      </trkpt>
      <trkpt lat="46.10092" lon="6.23747">
        <ele>745.192</ele>
        <time>2020-07-03T17:43:35Z</time>
      </trkpt>
      <trkpt lat="46.10081" lon="6.23735">
        <ele>745.141</ele>
        <time>2020-07-03T17:43:36Z</time>
      </trkpt>
      <trkpt lat="46.10071" lon="6.23722">
        <ele>745.281</ele>
        <time>2020-07-03T17:43:37Z</time>
      </trkpt>
      <trkpt lat="46.10062" lon="6.2371">
        <ele>745.309</ele>
        <time>2020-07-03T17:43:38Z</time>
      </trkpt>
      <trkpt lat="46.10056" lon="6.23696">
        <ele>745.308</ele>
        <time>2020-07-03T17:43:39Z</time>
      </trkpt>
      <trkpt lat="46.10051" lon="6.23681">
        <ele>745.259</ele>
        <time>2020-07-03T17:43:40Z</time>
      </trkpt>
      <trkpt lat="46.10046" lon="6.23666">
        <ele>745.086</ele>
        <time>2020-07-03T17:43:41Z</time>
      </trkpt>
      <trkpt lat="46.10041" lon="6.23651">
        <ele>744.514</ele>
        <time>2020-07-03T17:43:42Z</time>
      </trkpt>
      <trkpt lat="46.10036" lon="6.23637">
        <ele>744.173</ele>
        <time>2020-07-03T17:43:43Z</time>
      </trkpt>
      <trkpt lat="46.10032" lon="6.23623">
        <ele>743.714</ele>
        <time>2020-07-03T17:43:44Z</time>
      </trkpt>
      <trkpt lat="46.10028" lon="6.23609">
        <ele>743.244</ele>
        <time>2020-07-03T17:43:45Z</time>
      </trkpt>
      <trkpt lat="46.10023" lon="6.23596">
        <ele>742.83</ele>
        <time>2020-07-03T17:43:46Z</time>
      </trkpt>
      <trkpt lat="46.10017" lon="6.23583">
        <ele>742.547</ele>
        <time>2020-07-03T17:43:47Z</time>
      </trkpt>
      <trkpt lat="46.10011" lon="6.2357">
        <ele>742.119</ele>
        <time>2020-07-03T17:43:48Z</time>
      </trkpt>
      <trkpt lat="46.10006" lon="6.23556">
        <ele>741.609</ele>
        <time>2020-07-03T17:43:49Z</time>
      </trkpt>
      <trkpt lat="46.10001" lon="6.23542">
        <ele>741.119</ele>
        <time>2020-07-03T17:43:50Z</time>
      </trkpt>
      <trkpt lat="46.09999" lon="6.2353">
        <ele>740.508</ele>
        <time>2020-07-03T17:43:51Z</time>
      </trkpt>
      <trkpt lat="46.09998" lon="6.23518">
        <ele>739.826</ele>
        <time>2020-07-03T17:43:52Z</time>
      </trkpt>
      <trkpt lat="46.1" lon="6.23507">
        <ele>739.253</ele>
        <time>2020-07-03T17:43:53Z</time>
      </trkpt>
      <trkpt lat="46.10003" lon="6.23496">
        <ele>738.561</ele>
        <time>2020-07-03T17:43:54Z</time>
      </trkpt>
      <trkpt lat="46.10009" lon="6.23485">
        <ele>737.89</ele>
        <time>2020-07-03T17:43:55Z</time>
      </trkpt>
      <trkpt lat="46.10016" lon="6.23476">
        <ele>737.061</ele>
        <time>2020-07-03T17:43:56Z</time>
      </trkpt>
      <trkpt lat="46.10024" lon="6.23471">
        <ele>736.471</ele>
        <time>2020-07-03T17:43:57Z</time>
      </trkpt>
      <trkpt lat="46.10032" lon="6.23468">
        <ele>735.997</ele>
        <time>2020-07-03T17:43:58Z</time>
      </trkpt>
      <trkpt lat="46.10042" lon="6.23468">
        <ele>735.414</ele>
        <time>2020-07-03T17:43:59Z</time>
      </trkpt>
      <trkpt lat="46.10051" lon="6.23472">
        <ele>735.078</ele>
        <time>2020-07-03T17:44:00Z</time>
      </trkpt>
      <trkpt lat="46.1006" lon="6.23479">
        <ele>734.633</ele>
        <time>2020-07-03T17:44:01Z</time>
      </trkpt>
      <trkpt lat="46.10068" lon="6.23487">
        <ele>734.226</ele>
        <time>2020-07-03T17:44:02Z</time>
      </trkpt>
      <trkpt lat="46.10077" lon="6.23497">
        <ele>733.508</ele>
        <time>2020-07-03T17:44:03Z</time>
      </trkpt>
      <trkpt lat="46.10085" lon="6.23507">
        <ele>732.912</ele>
        <time>2020-07-03T17:44:04Z</time>
      </trkpt>
      <trkpt lat="46.10093" lon="6.23516">
        <ele>732.339</ele>
        <time>2020-07-03T17:44:05Z</time>
      </trkpt>
      <trkpt lat="46.10101" lon="6.23525">
        <ele>731.727</ele>
        <time>2020-07-03T17:44:06Z</time>
      </trkpt>
      <trkpt lat="46.10108" lon="6.23533">
        <ele>731.146</ele>
        <time>2020-07-03T17:44:07Z</time>
      </trkpt>
      <trkpt lat="46.10114" lon="6.23537">
        <ele>730.767</ele>
        <time>2020-07-03T17:44:08Z</time>
      </trkpt>
      <trkpt lat="46.1012" lon="6.23539">
        <ele>730.187</ele>
        <time>2020-07-03T17:44:09Z</time>
      </trkpt>
      <trkpt lat="46.10125" lon="6.23537">
        <ele>729.623</ele>
        <time>2020-07-03T17:44:10Z</time>
      </trkpt>
      <trkpt lat="46.10129" lon="6.2353">
        <ele>729.23</ele>
        <time>2020-07-03T17:44:11Z</time>
      </trkpt>
      <trkpt lat="46.10129" lon="6.2352">
        <ele>728.741</ele>
        <time>2020-07-03T17:44:12Z</time>
      </trkpt>
      <trkpt lat="46.10128" lon="6.23512">
        <ele>728.181</ele>
        <time>2020-07-03T17:44:13Z</time>
      </trkpt>
      <trkpt lat="46.10124" lon="6.23507">
        <ele>727.709</ele>
        <time>2020-07-03T17:44:14Z</time>
      </trkpt>
      <trkpt lat="46.10119" lon="6.235">
        <ele>727.308</ele>
        <time>2020-07-03T17:44:15Z</time>
      </trkpt>
      <trkpt lat="46.10113" lon="6.23495">
        <ele>727.059</ele>
        <time>2020-07-03T17:44:16Z</time>
      </trkpt>
      <trkpt lat="46.10108" lon="6.2349">
        <ele>727.036</ele>
        <time>2020-07-03T17:44:17Z</time>
      </trkpt>
      <trkpt lat="46.10101" lon="6.23484">
        <ele>727.084</ele>
        <time>2020-07-03T17:44:18Z</time>
      </trkpt>
      <trkpt lat="46.10096" lon="6.2348">
        <ele>727.353</ele>
        <time>2020-07-03T17:44:19Z</time>
      </trkpt>
      <trkpt lat="46.10093" lon="6.23476">
        <ele>727.624</ele>
        <time>2020-07-03T17:44:20Z</time>
      </trkpt>
      <trkpt lat="46.10089" lon="6.23471">
        <ele>727.824</ele>
        <time>2020-07-03T17:44:21Z</time>
      </trkpt>
      <trkpt lat="46.10086" lon="6.23465">
        <ele>728.06</ele>
        <time>2020-07-03T17:44:24Z</time>
      </trkpt>
      <trkpt lat="46.10082" lon="6.2346">
        <ele>727.797</ele>
        <time>2020-07-03T17:44:28Z</time>
      </trkpt>
    </trkseg>
  </trk>
</gpx>